<?xml version="1.0" encoding="UTF-8" standalone="no" ?>
<gpx xmlns="http://www.topografix.com/GPX/1/1" xmlns:xsi="http://www.w3.org/2001/XMLSchema-instance" xsi:schemaLocation="http://www.topografix.com/GPX/1/1 http://www.topografix.com/GPX/1/1/gpx.xsd" version="1.1" creator="VisuGPX - https://www.visugpx.com">
  <metadata>
    <name>Sortie Cyclo 8/6/2013 - Les Clues</name>
    <desc><![CDATA[Sortie Cyclo 8/6/2013 - Les Clues]]></desc>
  </metadata>
  <trk>
    <name><![CDATA[2013-06-08-02]]></name>
    <trkseg>
      <trkpt lat="43.87442" lon="7.00543">
        <ele>348.1</ele>
        <time>2013-06-08T05:51:00Z</time>
      </trkpt>
      <trkpt lat="43.87432" lon="7.00525">
        <ele>347.3</ele>
        <time>2013-06-08T05:51:06Z</time>
      </trkpt>
      <trkpt lat="43.87429" lon="7.00497">
        <ele>346.3</ele>
        <time>2013-06-08T05:51:12Z</time>
      </trkpt>
      <trkpt lat="43.87421" lon="7.00483">
        <ele>345.4</ele>
        <time>2013-06-08T05:51:18Z</time>
      </trkpt>
      <trkpt lat="43.87421" lon="7.00457">
        <ele>344.7</ele>
        <time>2013-06-08T05:51:24Z</time>
      </trkpt>
      <trkpt lat="43.87423" lon="7.00438">
        <ele>344.4</ele>
        <time>2013-06-08T05:51:30Z</time>
      </trkpt>
      <trkpt lat="43.87421" lon="7.00414">
        <ele>343.6</ele>
        <time>2013-06-08T05:51:36Z</time>
      </trkpt>
      <trkpt lat="43.87421" lon="7.00383">
        <ele>343.2</ele>
        <time>2013-06-08T05:51:42Z</time>
      </trkpt>
      <trkpt lat="43.87422" lon="7.00362">
        <ele>343</ele>
        <time>2013-06-08T05:51:48Z</time>
      </trkpt>
      <trkpt lat="43.87416" lon="7.00342">
        <ele>342.8</ele>
        <time>2013-06-08T05:51:54Z</time>
      </trkpt>
      <trkpt lat="43.87411" lon="7.00323">
        <ele>343</ele>
        <time>2013-06-08T05:52:00Z</time>
      </trkpt>
      <trkpt lat="43.87407" lon="7.00304">
        <ele>343.1</ele>
        <time>2013-06-08T05:52:06Z</time>
      </trkpt>
      <trkpt lat="43.87404" lon="7.00278">
        <ele>343.6</ele>
        <time>2013-06-08T05:52:12Z</time>
      </trkpt>
      <trkpt lat="43.874" lon="7.00253">
        <ele>343.9</ele>
        <time>2013-06-08T05:52:18Z</time>
      </trkpt>
      <trkpt lat="43.87398" lon="7.00226">
        <ele>344.6</ele>
        <time>2013-06-08T05:52:24Z</time>
      </trkpt>
      <trkpt lat="43.87398" lon="7.00205">
        <ele>345.2</ele>
        <time>2013-06-08T05:52:30Z</time>
      </trkpt>
      <trkpt lat="43.87396" lon="7.00186">
        <ele>345.9</ele>
        <time>2013-06-08T05:52:36Z</time>
      </trkpt>
      <trkpt lat="43.87396" lon="7.00167">
        <ele>346.5</ele>
        <time>2013-06-08T05:52:42Z</time>
      </trkpt>
      <trkpt lat="43.87398" lon="7.00146">
        <ele>347</ele>
        <time>2013-06-08T05:52:48Z</time>
      </trkpt>
      <trkpt lat="43.87404" lon="7.00131">
        <ele>347.1</ele>
        <time>2013-06-08T05:52:54Z</time>
      </trkpt>
      <trkpt lat="43.87417" lon="7.00121">
        <ele>347.1</ele>
        <time>2013-06-08T05:53:00Z</time>
      </trkpt>
      <trkpt lat="43.87427" lon="7.0011">
        <ele>346.8</ele>
        <time>2013-06-08T05:53:06Z</time>
      </trkpt>
      <trkpt lat="43.87436" lon="7.0009">
        <ele>346.3</ele>
        <time>2013-06-08T05:53:12Z</time>
      </trkpt>
      <trkpt lat="43.87442" lon="7.00071">
        <ele>346.8</ele>
        <time>2013-06-08T05:53:18Z</time>
      </trkpt>
      <trkpt lat="43.8745" lon="7.00053">
        <ele>347.3</ele>
        <time>2013-06-08T05:53:24Z</time>
      </trkpt>
      <trkpt lat="43.87461" lon="7.00042">
        <ele>347.8</ele>
        <time>2013-06-08T05:53:30Z</time>
      </trkpt>
      <trkpt lat="43.87472" lon="7.00049">
        <ele>348.7</ele>
        <time>2013-06-08T05:53:36Z</time>
      </trkpt>
      <trkpt lat="43.87473" lon="7.00069">
        <ele>349.5</ele>
        <time>2013-06-08T05:53:42Z</time>
      </trkpt>
      <trkpt lat="43.8747" lon="7.00091">
        <ele>350.1</ele>
        <time>2013-06-08T05:53:48Z</time>
      </trkpt>
      <trkpt lat="43.87468" lon="7.00111">
        <ele>350.6</ele>
        <time>2013-06-08T05:53:54Z</time>
      </trkpt>
      <trkpt lat="43.87467" lon="7.00129">
        <ele>351.8</ele>
        <time>2013-06-08T05:54:00Z</time>
      </trkpt>
      <trkpt lat="43.87468" lon="7.00147">
        <ele>352.4</ele>
        <time>2013-06-08T05:54:06Z</time>
      </trkpt>
      <trkpt lat="43.87468" lon="7.00166">
        <ele>353</ele>
        <time>2013-06-08T05:54:12Z</time>
      </trkpt>
      <trkpt lat="43.87468" lon="7.00185">
        <ele>354.2</ele>
        <time>2013-06-08T05:54:18Z</time>
      </trkpt>
      <trkpt lat="43.87468" lon="7.00202">
        <ele>355.7</ele>
        <time>2013-06-08T05:54:24Z</time>
      </trkpt>
      <trkpt lat="43.87469" lon="7.00221">
        <ele>356.2</ele>
        <time>2013-06-08T05:54:30Z</time>
      </trkpt>
      <trkpt lat="43.87474" lon="7.00238">
        <ele>357.2</ele>
        <time>2013-06-08T05:54:36Z</time>
      </trkpt>
      <trkpt lat="43.87483" lon="7.00249">
        <ele>358.5</ele>
        <time>2013-06-08T05:54:42Z</time>
      </trkpt>
      <trkpt lat="43.87494" lon="7.00263">
        <ele>359.5</ele>
        <time>2013-06-08T05:54:48Z</time>
      </trkpt>
      <trkpt lat="43.87503" lon="7.00276">
        <ele>361</ele>
        <time>2013-06-08T05:54:54Z</time>
      </trkpt>
      <trkpt lat="43.87514" lon="7.00289">
        <ele>362.7</ele>
        <time>2013-06-08T05:55:00Z</time>
      </trkpt>
      <trkpt lat="43.8752" lon="7.00307">
        <ele>364.1</ele>
        <time>2013-06-08T05:55:06Z</time>
      </trkpt>
      <trkpt lat="43.87527" lon="7.00322">
        <ele>364.9</ele>
        <time>2013-06-08T05:55:12Z</time>
      </trkpt>
      <trkpt lat="43.87533" lon="7.00339">
        <ele>365.8</ele>
        <time>2013-06-08T05:55:18Z</time>
      </trkpt>
      <trkpt lat="43.8754" lon="7.00351">
        <ele>367.1</ele>
        <time>2013-06-08T05:55:24Z</time>
      </trkpt>
      <trkpt lat="43.87548" lon="7.00365">
        <ele>368.4</ele>
        <time>2013-06-08T05:55:30Z</time>
      </trkpt>
      <trkpt lat="43.87555" lon="7.00379">
        <ele>369.4</ele>
        <time>2013-06-08T05:55:36Z</time>
      </trkpt>
      <trkpt lat="43.87564" lon="7.00395">
        <ele>370.7</ele>
        <time>2013-06-08T05:55:42Z</time>
      </trkpt>
      <trkpt lat="43.87572" lon="7.00411">
        <ele>372</ele>
        <time>2013-06-08T05:55:48Z</time>
      </trkpt>
      <trkpt lat="43.87576" lon="7.00426">
        <ele>373.1</ele>
        <time>2013-06-08T05:55:54Z</time>
      </trkpt>
      <trkpt lat="43.87579" lon="7.00444">
        <ele>374.4</ele>
        <time>2013-06-08T05:56:00Z</time>
      </trkpt>
      <trkpt lat="43.87582" lon="7.00462">
        <ele>375.6</ele>
        <time>2013-06-08T05:56:06Z</time>
      </trkpt>
      <trkpt lat="43.87589" lon="7.00476">
        <ele>376.9</ele>
        <time>2013-06-08T05:56:12Z</time>
      </trkpt>
      <trkpt lat="43.87599" lon="7.00468">
        <ele>378.1</ele>
        <time>2013-06-08T05:56:18Z</time>
      </trkpt>
      <trkpt lat="43.87601" lon="7.00449">
        <ele>379</ele>
        <time>2013-06-08T05:56:24Z</time>
      </trkpt>
      <trkpt lat="43.87594" lon="7.00433">
        <ele>379.8</ele>
        <time>2013-06-08T05:56:30Z</time>
      </trkpt>
      <trkpt lat="43.87587" lon="7.00412">
        <ele>380.9</ele>
        <time>2013-06-08T05:56:36Z</time>
      </trkpt>
      <trkpt lat="43.87585" lon="7.00391">
        <ele>382</ele>
        <time>2013-06-08T05:56:42Z</time>
      </trkpt>
      <trkpt lat="43.8758" lon="7.00374">
        <ele>383.2</ele>
        <time>2013-06-08T05:56:48Z</time>
      </trkpt>
      <trkpt lat="43.87574" lon="7.0036">
        <ele>384.4</ele>
        <time>2013-06-08T05:56:54Z</time>
      </trkpt>
      <trkpt lat="43.87572" lon="7.00344">
        <ele>385.3</ele>
        <time>2013-06-08T05:57:00Z</time>
      </trkpt>
      <trkpt lat="43.8757" lon="7.00326">
        <ele>386.2</ele>
        <time>2013-06-08T05:57:06Z</time>
      </trkpt>
      <trkpt lat="43.87567" lon="7.00311">
        <ele>387</ele>
        <time>2013-06-08T05:57:12Z</time>
      </trkpt>
      <trkpt lat="43.87565" lon="7.00295">
        <ele>387.7</ele>
        <time>2013-06-08T05:57:18Z</time>
      </trkpt>
      <trkpt lat="43.87562" lon="7.00279">
        <ele>388.6</ele>
        <time>2013-06-08T05:57:24Z</time>
      </trkpt>
      <trkpt lat="43.87558" lon="7.00263">
        <ele>389.2</ele>
        <time>2013-06-08T05:57:30Z</time>
      </trkpt>
      <trkpt lat="43.87554" lon="7.00247">
        <ele>390.1</ele>
        <time>2013-06-08T05:57:36Z</time>
      </trkpt>
      <trkpt lat="43.8755" lon="7.0023">
        <ele>391.1</ele>
        <time>2013-06-08T05:57:42Z</time>
      </trkpt>
      <trkpt lat="43.87552" lon="7.00209">
        <ele>391.8</ele>
        <time>2013-06-08T05:57:48Z</time>
      </trkpt>
      <trkpt lat="43.87559" lon="7.0019">
        <ele>392.1</ele>
        <time>2013-06-08T05:57:54Z</time>
      </trkpt>
      <trkpt lat="43.87568" lon="7.00176">
        <ele>392.6</ele>
        <time>2013-06-08T05:58:00Z</time>
      </trkpt>
      <trkpt lat="43.87576" lon="7.00162">
        <ele>393</ele>
        <time>2013-06-08T05:58:06Z</time>
      </trkpt>
      <trkpt lat="43.87584" lon="7.00152">
        <ele>393.2</ele>
        <time>2013-06-08T05:58:12Z</time>
      </trkpt>
      <trkpt lat="43.87593" lon="7.00137">
        <ele>393.4</ele>
        <time>2013-06-08T05:58:18Z</time>
      </trkpt>
      <trkpt lat="43.87599" lon="7.0012">
        <ele>393.7</ele>
        <time>2013-06-08T05:58:24Z</time>
      </trkpt>
      <trkpt lat="43.87603" lon="7.001">
        <ele>394.2</ele>
        <time>2013-06-08T05:58:30Z</time>
      </trkpt>
      <trkpt lat="43.87608" lon="7.00081">
        <ele>394.7</ele>
        <time>2013-06-08T05:58:36Z</time>
      </trkpt>
      <trkpt lat="43.87613" lon="7.00064">
        <ele>395.6</ele>
        <time>2013-06-08T05:58:42Z</time>
      </trkpt>
      <trkpt lat="43.8762" lon="7.00047">
        <ele>396.5</ele>
        <time>2013-06-08T05:58:48Z</time>
      </trkpt>
      <trkpt lat="43.87623" lon="7.00027">
        <ele>397.6</ele>
        <time>2013-06-08T05:58:54Z</time>
      </trkpt>
      <trkpt lat="43.87625" lon="7.0001">
        <ele>398.3</ele>
        <time>2013-06-08T05:59:00Z</time>
      </trkpt>
      <trkpt lat="43.87626" lon="6.9999">
        <ele>399.5</ele>
        <time>2013-06-08T05:59:06Z</time>
      </trkpt>
      <trkpt lat="43.87624" lon="6.99973">
        <ele>401.2</ele>
        <time>2013-06-08T05:59:12Z</time>
      </trkpt>
      <trkpt lat="43.87622" lon="6.99952">
        <ele>402.9</ele>
        <time>2013-06-08T05:59:18Z</time>
      </trkpt>
      <trkpt lat="43.8762" lon="6.99934">
        <ele>404.6</ele>
        <time>2013-06-08T05:59:24Z</time>
      </trkpt>
      <trkpt lat="43.87617" lon="6.99916">
        <ele>406.4</ele>
        <time>2013-06-08T05:59:30Z</time>
      </trkpt>
      <trkpt lat="43.87611" lon="6.99901">
        <ele>407.5</ele>
        <time>2013-06-08T05:59:36Z</time>
      </trkpt>
      <trkpt lat="43.87604" lon="6.99885">
        <ele>408.9</ele>
        <time>2013-06-08T05:59:42Z</time>
      </trkpt>
      <trkpt lat="43.87597" lon="6.99868">
        <ele>410.8</ele>
        <time>2013-06-08T05:59:48Z</time>
      </trkpt>
      <trkpt lat="43.87593" lon="6.99851">
        <ele>412.2</ele>
        <time>2013-06-08T05:59:54Z</time>
      </trkpt>
      <trkpt lat="43.87592" lon="6.99836">
        <ele>413.3</ele>
        <time>2013-06-08T06:00:00Z</time>
      </trkpt>
      <trkpt lat="43.87595" lon="6.99817">
        <ele>414.5</ele>
        <time>2013-06-08T06:00:06Z</time>
      </trkpt>
      <trkpt lat="43.87599" lon="6.99798">
        <ele>415</ele>
        <time>2013-06-08T06:00:12Z</time>
      </trkpt>
      <trkpt lat="43.87603" lon="6.9978">
        <ele>414.8</ele>
        <time>2013-06-08T06:00:18Z</time>
      </trkpt>
      <trkpt lat="43.87606" lon="6.99762">
        <ele>415.4</ele>
        <time>2013-06-08T06:00:24Z</time>
      </trkpt>
      <trkpt lat="43.87608" lon="6.99742">
        <ele>416.4</ele>
        <time>2013-06-08T06:00:30Z</time>
      </trkpt>
      <trkpt lat="43.87611" lon="6.99723">
        <ele>417.5</ele>
        <time>2013-06-08T06:00:36Z</time>
      </trkpt>
      <trkpt lat="43.87614" lon="6.99706">
        <ele>418.7</ele>
        <time>2013-06-08T06:00:42Z</time>
      </trkpt>
      <trkpt lat="43.87619" lon="6.99687">
        <ele>419.2</ele>
        <time>2013-06-08T06:00:48Z</time>
      </trkpt>
      <trkpt lat="43.87623" lon="6.99672">
        <ele>420.1</ele>
        <time>2013-06-08T06:00:54Z</time>
      </trkpt>
      <trkpt lat="43.87628" lon="6.99656">
        <ele>420.9</ele>
        <time>2013-06-08T06:01:00Z</time>
      </trkpt>
      <trkpt lat="43.87634" lon="6.99639">
        <ele>422.1</ele>
        <time>2013-06-08T06:01:06Z</time>
      </trkpt>
      <trkpt lat="43.87639" lon="6.99621">
        <ele>423.4</ele>
        <time>2013-06-08T06:01:12Z</time>
      </trkpt>
      <trkpt lat="43.87649" lon="6.99606">
        <ele>423.9</ele>
        <time>2013-06-08T06:01:18Z</time>
      </trkpt>
      <trkpt lat="43.87658" lon="6.99593">
        <ele>424.6</ele>
        <time>2013-06-08T06:01:24Z</time>
      </trkpt>
      <trkpt lat="43.87668" lon="6.99581">
        <ele>425.3</ele>
        <time>2013-06-08T06:01:30Z</time>
      </trkpt>
      <trkpt lat="43.8768" lon="6.99569">
        <ele>425.6</ele>
        <time>2013-06-08T06:01:36Z</time>
      </trkpt>
      <trkpt lat="43.87688" lon="6.99556">
        <ele>425.8</ele>
        <time>2013-06-08T06:01:42Z</time>
      </trkpt>
      <trkpt lat="43.87696" lon="6.99542">
        <ele>426.1</ele>
        <time>2013-06-08T06:01:48Z</time>
      </trkpt>
      <trkpt lat="43.87704" lon="6.9953">
        <ele>427.1</ele>
        <time>2013-06-08T06:01:54Z</time>
      </trkpt>
      <trkpt lat="43.87711" lon="6.99515">
        <ele>427.9</ele>
        <time>2013-06-08T06:02:00Z</time>
      </trkpt>
      <trkpt lat="43.87718" lon="6.995">
        <ele>428.6</ele>
        <time>2013-06-08T06:02:06Z</time>
      </trkpt>
      <trkpt lat="43.87726" lon="6.99485">
        <ele>429.3</ele>
        <time>2013-06-08T06:02:12Z</time>
      </trkpt>
      <trkpt lat="43.87733" lon="6.99469">
        <ele>430.5</ele>
        <time>2013-06-08T06:02:18Z</time>
      </trkpt>
      <trkpt lat="43.8774" lon="6.99454">
        <ele>431.3</ele>
        <time>2013-06-08T06:02:24Z</time>
      </trkpt>
      <trkpt lat="43.87748" lon="6.99438">
        <ele>431.8</ele>
        <time>2013-06-08T06:02:30Z</time>
      </trkpt>
      <trkpt lat="43.87753" lon="6.99422">
        <ele>432.2</ele>
        <time>2013-06-08T06:02:36Z</time>
      </trkpt>
      <trkpt lat="43.87757" lon="6.99406">
        <ele>432.7</ele>
        <time>2013-06-08T06:02:42Z</time>
      </trkpt>
      <trkpt lat="43.87763" lon="6.99388">
        <ele>433.4</ele>
        <time>2013-06-08T06:02:48Z</time>
      </trkpt>
      <trkpt lat="43.87772" lon="6.99374">
        <ele>434.2</ele>
        <time>2013-06-08T06:02:54Z</time>
      </trkpt>
      <trkpt lat="43.87779" lon="6.99358">
        <ele>434.7</ele>
        <time>2013-06-08T06:03:00Z</time>
      </trkpt>
      <trkpt lat="43.87785" lon="6.99343">
        <ele>435.3</ele>
        <time>2013-06-08T06:03:06Z</time>
      </trkpt>
      <trkpt lat="43.87792" lon="6.99327">
        <ele>436.1</ele>
        <time>2013-06-08T06:03:12Z</time>
      </trkpt>
      <trkpt lat="43.87799" lon="6.99312">
        <ele>437.3</ele>
        <time>2013-06-08T06:03:18Z</time>
      </trkpt>
      <trkpt lat="43.87805" lon="6.99296">
        <ele>438.5</ele>
        <time>2013-06-08T06:03:24Z</time>
      </trkpt>
      <trkpt lat="43.87811" lon="6.99283">
        <ele>439.7</ele>
        <time>2013-06-08T06:03:30Z</time>
      </trkpt>
      <trkpt lat="43.87818" lon="6.99268">
        <ele>440.7</ele>
        <time>2013-06-08T06:03:36Z</time>
      </trkpt>
      <trkpt lat="43.87826" lon="6.99254">
        <ele>441.6</ele>
        <time>2013-06-08T06:03:42Z</time>
      </trkpt>
      <trkpt lat="43.87834" lon="6.99238">
        <ele>442.4</ele>
        <time>2013-06-08T06:03:48Z</time>
      </trkpt>
      <trkpt lat="43.8784" lon="6.99222">
        <ele>443</ele>
        <time>2013-06-08T06:03:54Z</time>
      </trkpt>
      <trkpt lat="43.87841" lon="6.99204">
        <ele>443.8</ele>
        <time>2013-06-08T06:04:00Z</time>
      </trkpt>
      <trkpt lat="43.87842" lon="6.99186">
        <ele>444.6</ele>
        <time>2013-06-08T06:04:06Z</time>
      </trkpt>
      <trkpt lat="43.87843" lon="6.9917">
        <ele>445.3</ele>
        <time>2013-06-08T06:04:12Z</time>
      </trkpt>
      <trkpt lat="43.87844" lon="6.99151">
        <ele>446.2</ele>
        <time>2013-06-08T06:04:18Z</time>
      </trkpt>
      <trkpt lat="43.87843" lon="6.99133">
        <ele>447.4</ele>
        <time>2013-06-08T06:04:24Z</time>
      </trkpt>
      <trkpt lat="43.87843" lon="6.99116">
        <ele>448.8</ele>
        <time>2013-06-08T06:04:30Z</time>
      </trkpt>
      <trkpt lat="43.87841" lon="6.99099">
        <ele>450</ele>
        <time>2013-06-08T06:04:36Z</time>
      </trkpt>
      <trkpt lat="43.87837" lon="6.99081">
        <ele>451.2</ele>
        <time>2013-06-08T06:04:42Z</time>
      </trkpt>
      <trkpt lat="43.87831" lon="6.99065">
        <ele>451.8</ele>
        <time>2013-06-08T06:04:48Z</time>
      </trkpt>
      <trkpt lat="43.87828" lon="6.9905">
        <ele>452.4</ele>
        <time>2013-06-08T06:04:54Z</time>
      </trkpt>
      <trkpt lat="43.87826" lon="6.99032">
        <ele>453.6</ele>
        <time>2013-06-08T06:05:00Z</time>
      </trkpt>
      <trkpt lat="43.87825" lon="6.99013">
        <ele>454.9</ele>
        <time>2013-06-08T06:05:06Z</time>
      </trkpt>
      <trkpt lat="43.87824" lon="6.98995">
        <ele>456</ele>
        <time>2013-06-08T06:05:12Z</time>
      </trkpt>
      <trkpt lat="43.87823" lon="6.98978">
        <ele>457</ele>
        <time>2013-06-08T06:05:18Z</time>
      </trkpt>
      <trkpt lat="43.87823" lon="6.98961">
        <ele>457.9</ele>
        <time>2013-06-08T06:05:24Z</time>
      </trkpt>
      <trkpt lat="43.87822" lon="6.98943">
        <ele>458.8</ele>
        <time>2013-06-08T06:05:30Z</time>
      </trkpt>
      <trkpt lat="43.87823" lon="6.98925">
        <ele>459.7</ele>
        <time>2013-06-08T06:05:36Z</time>
      </trkpt>
      <trkpt lat="43.87827" lon="6.98907">
        <ele>460.3</ele>
        <time>2013-06-08T06:05:42Z</time>
      </trkpt>
      <trkpt lat="43.87831" lon="6.98887">
        <ele>460.2</ele>
        <time>2013-06-08T06:05:48Z</time>
      </trkpt>
      <trkpt lat="43.87834" lon="6.98869">
        <ele>460.8</ele>
        <time>2013-06-08T06:05:54Z</time>
      </trkpt>
      <trkpt lat="43.87833" lon="6.9885">
        <ele>461.6</ele>
        <time>2013-06-08T06:06:00Z</time>
      </trkpt>
      <trkpt lat="43.87827" lon="6.98835">
        <ele>462.5</ele>
        <time>2013-06-08T06:06:06Z</time>
      </trkpt>
      <trkpt lat="43.87821" lon="6.98819">
        <ele>463.6</ele>
        <time>2013-06-08T06:06:12Z</time>
      </trkpt>
      <trkpt lat="43.87816" lon="6.98803">
        <ele>464.5</ele>
        <time>2013-06-08T06:06:18Z</time>
      </trkpt>
      <trkpt lat="43.87812" lon="6.98788">
        <ele>465.2</ele>
        <time>2013-06-08T06:06:24Z</time>
      </trkpt>
      <trkpt lat="43.87808" lon="6.9877">
        <ele>466.3</ele>
        <time>2013-06-08T06:06:30Z</time>
      </trkpt>
      <trkpt lat="43.87807" lon="6.98751">
        <ele>467.6</ele>
        <time>2013-06-08T06:06:36Z</time>
      </trkpt>
      <trkpt lat="43.87805" lon="6.98733">
        <ele>468.6</ele>
        <time>2013-06-08T06:06:42Z</time>
      </trkpt>
      <trkpt lat="43.87804" lon="6.98715">
        <ele>469.5</ele>
        <time>2013-06-08T06:06:48Z</time>
      </trkpt>
      <trkpt lat="43.87804" lon="6.98694">
        <ele>470.5</ele>
        <time>2013-06-08T06:06:54Z</time>
      </trkpt>
      <trkpt lat="43.87799" lon="6.98677">
        <ele>471.3</ele>
        <time>2013-06-08T06:07:00Z</time>
      </trkpt>
      <trkpt lat="43.87789" lon="6.98667">
        <ele>472.3</ele>
        <time>2013-06-08T06:07:06Z</time>
      </trkpt>
      <trkpt lat="43.87776" lon="6.98663">
        <ele>473.3</ele>
        <time>2013-06-08T06:07:12Z</time>
      </trkpt>
      <trkpt lat="43.87762" lon="6.9866">
        <ele>474.4</ele>
        <time>2013-06-08T06:07:18Z</time>
      </trkpt>
      <trkpt lat="43.87751" lon="6.98647">
        <ele>475.5</ele>
        <time>2013-06-08T06:07:24Z</time>
      </trkpt>
      <trkpt lat="43.87747" lon="6.98628">
        <ele>476.2</ele>
        <time>2013-06-08T06:07:30Z</time>
      </trkpt>
      <trkpt lat="43.87746" lon="6.98609">
        <ele>477.1</ele>
        <time>2013-06-08T06:07:36Z</time>
      </trkpt>
      <trkpt lat="43.87747" lon="6.98591">
        <ele>477.9</ele>
        <time>2013-06-08T06:07:42Z</time>
      </trkpt>
      <trkpt lat="43.87748" lon="6.9857">
        <ele>478.5</ele>
        <time>2013-06-08T06:07:48Z</time>
      </trkpt>
      <trkpt lat="43.87752" lon="6.98546">
        <ele>479.3</ele>
        <time>2013-06-08T06:07:54Z</time>
      </trkpt>
      <trkpt lat="43.87758" lon="6.98527">
        <ele>480.5</ele>
        <time>2013-06-08T06:08:00Z</time>
      </trkpt>
      <trkpt lat="43.87765" lon="6.98509">
        <ele>481.6</ele>
        <time>2013-06-08T06:08:06Z</time>
      </trkpt>
      <trkpt lat="43.8777" lon="6.9849">
        <ele>482.7</ele>
        <time>2013-06-08T06:08:12Z</time>
      </trkpt>
      <trkpt lat="43.87772" lon="6.98471">
        <ele>483.5</ele>
        <time>2013-06-08T06:08:18Z</time>
      </trkpt>
      <trkpt lat="43.8777" lon="6.98447">
        <ele>484.2</ele>
        <time>2013-06-08T06:08:24Z</time>
      </trkpt>
      <trkpt lat="43.87769" lon="6.98428">
        <ele>484.8</ele>
        <time>2013-06-08T06:08:30Z</time>
      </trkpt>
      <trkpt lat="43.87769" lon="6.98406">
        <ele>485.1</ele>
        <time>2013-06-08T06:08:36Z</time>
      </trkpt>
      <trkpt lat="43.87766" lon="6.98383">
        <ele>485.7</ele>
        <time>2013-06-08T06:08:42Z</time>
      </trkpt>
      <trkpt lat="43.87765" lon="6.98364">
        <ele>486.3</ele>
        <time>2013-06-08T06:08:48Z</time>
      </trkpt>
      <trkpt lat="43.87765" lon="6.98342">
        <ele>487</ele>
        <time>2013-06-08T06:08:54Z</time>
      </trkpt>
      <trkpt lat="43.87765" lon="6.98321">
        <ele>487.7</ele>
        <time>2013-06-08T06:09:00Z</time>
      </trkpt>
      <trkpt lat="43.87765" lon="6.98301">
        <ele>488.5</ele>
        <time>2013-06-08T06:09:06Z</time>
      </trkpt>
      <trkpt lat="43.87762" lon="6.98282">
        <ele>489.5</ele>
        <time>2013-06-08T06:09:12Z</time>
      </trkpt>
      <trkpt lat="43.87759" lon="6.98263">
        <ele>490.6</ele>
        <time>2013-06-08T06:09:18Z</time>
      </trkpt>
      <trkpt lat="43.87758" lon="6.98245">
        <ele>491.4</ele>
        <time>2013-06-08T06:09:24Z</time>
      </trkpt>
      <trkpt lat="43.87757" lon="6.98227">
        <ele>491.9</ele>
        <time>2013-06-08T06:09:30Z</time>
      </trkpt>
      <trkpt lat="43.87761" lon="6.98207">
        <ele>492.7</ele>
        <time>2013-06-08T06:09:36Z</time>
      </trkpt>
      <trkpt lat="43.87767" lon="6.98189">
        <ele>493.5</ele>
        <time>2013-06-08T06:09:42Z</time>
      </trkpt>
      <trkpt lat="43.87774" lon="6.98173">
        <ele>494.4</ele>
        <time>2013-06-08T06:09:48Z</time>
      </trkpt>
      <trkpt lat="43.87779" lon="6.98154">
        <ele>495.5</ele>
        <time>2013-06-08T06:09:54Z</time>
      </trkpt>
      <trkpt lat="43.8778" lon="6.98136">
        <ele>496.7</ele>
        <time>2013-06-08T06:10:00Z</time>
      </trkpt>
      <trkpt lat="43.8778" lon="6.98116">
        <ele>497.5</ele>
        <time>2013-06-08T06:10:06Z</time>
      </trkpt>
      <trkpt lat="43.8778" lon="6.98097">
        <ele>498.4</ele>
        <time>2013-06-08T06:10:12Z</time>
      </trkpt>
      <trkpt lat="43.87778" lon="6.98078">
        <ele>499.2</ele>
        <time>2013-06-08T06:10:18Z</time>
      </trkpt>
      <trkpt lat="43.87776" lon="6.98059">
        <ele>499.8</ele>
        <time>2013-06-08T06:10:24Z</time>
      </trkpt>
      <trkpt lat="43.87774" lon="6.98041">
        <ele>500.5</ele>
        <time>2013-06-08T06:10:30Z</time>
      </trkpt>
      <trkpt lat="43.87772" lon="6.98022">
        <ele>501.4</ele>
        <time>2013-06-08T06:10:36Z</time>
      </trkpt>
      <trkpt lat="43.87773" lon="6.98004">
        <ele>502.3</ele>
        <time>2013-06-08T06:10:42Z</time>
      </trkpt>
      <trkpt lat="43.87773" lon="6.97985">
        <ele>503.1</ele>
        <time>2013-06-08T06:10:48Z</time>
      </trkpt>
      <trkpt lat="43.87768" lon="6.97968">
        <ele>503.9</ele>
        <time>2013-06-08T06:10:54Z</time>
      </trkpt>
      <trkpt lat="43.87757" lon="6.97954">
        <ele>504.8</ele>
        <time>2013-06-08T06:11:00Z</time>
      </trkpt>
      <trkpt lat="43.87746" lon="6.97941">
        <ele>505.9</ele>
        <time>2013-06-08T06:11:06Z</time>
      </trkpt>
      <trkpt lat="43.87735" lon="6.97929">
        <ele>506.7</ele>
        <time>2013-06-08T06:11:12Z</time>
      </trkpt>
      <trkpt lat="43.87721" lon="6.97918">
        <ele>507.8</ele>
        <time>2013-06-08T06:11:18Z</time>
      </trkpt>
      <trkpt lat="43.8771" lon="6.97906">
        <ele>508.7</ele>
        <time>2013-06-08T06:11:24Z</time>
      </trkpt>
      <trkpt lat="43.877" lon="6.97892">
        <ele>509.8</ele>
        <time>2013-06-08T06:11:30Z</time>
      </trkpt>
      <trkpt lat="43.87693" lon="6.97876">
        <ele>510.8</ele>
        <time>2013-06-08T06:11:36Z</time>
      </trkpt>
      <trkpt lat="43.87695" lon="6.97851">
        <ele>511.8</ele>
        <time>2013-06-08T06:11:42Z</time>
      </trkpt>
      <trkpt lat="43.87698" lon="6.9783">
        <ele>512.8</ele>
        <time>2013-06-08T06:11:48Z</time>
      </trkpt>
      <trkpt lat="43.87697" lon="6.9781">
        <ele>514.1</ele>
        <time>2013-06-08T06:11:54Z</time>
      </trkpt>
      <trkpt lat="43.87691" lon="6.97794">
        <ele>515.2</ele>
        <time>2013-06-08T06:12:00Z</time>
      </trkpt>
      <trkpt lat="43.87682" lon="6.97781">
        <ele>516.2</ele>
        <time>2013-06-08T06:12:06Z</time>
      </trkpt>
      <trkpt lat="43.87668" lon="6.97769">
        <ele>517.2</ele>
        <time>2013-06-08T06:12:12Z</time>
      </trkpt>
      <trkpt lat="43.87657" lon="6.97761">
        <ele>518.2</ele>
        <time>2013-06-08T06:12:18Z</time>
      </trkpt>
      <trkpt lat="43.87642" lon="6.97756">
        <ele>519</ele>
        <time>2013-06-08T06:12:24Z</time>
      </trkpt>
      <trkpt lat="43.8763" lon="6.97743">
        <ele>519.8</ele>
        <time>2013-06-08T06:12:30Z</time>
      </trkpt>
      <trkpt lat="43.87623" lon="6.97724">
        <ele>520.7</ele>
        <time>2013-06-08T06:12:36Z</time>
      </trkpt>
      <trkpt lat="43.8762" lon="6.97704">
        <ele>521.6</ele>
        <time>2013-06-08T06:12:42Z</time>
      </trkpt>
      <trkpt lat="43.87617" lon="6.97681">
        <ele>522.6</ele>
        <time>2013-06-08T06:12:48Z</time>
      </trkpt>
      <trkpt lat="43.87612" lon="6.97658">
        <ele>523.4</ele>
        <time>2013-06-08T06:12:54Z</time>
      </trkpt>
      <trkpt lat="43.87625" lon="6.97657">
        <ele>524.3</ele>
        <time>2013-06-08T06:13:00Z</time>
      </trkpt>
      <trkpt lat="43.8763" lon="6.9768">
        <ele>524.8</ele>
        <time>2013-06-08T06:13:06Z</time>
      </trkpt>
      <trkpt lat="43.87633" lon="6.97701">
        <ele>525.1</ele>
        <time>2013-06-08T06:13:12Z</time>
      </trkpt>
      <trkpt lat="43.87638" lon="6.97719">
        <ele>525.6</ele>
        <time>2013-06-08T06:13:18Z</time>
      </trkpt>
      <trkpt lat="43.87651" lon="6.97729">
        <ele>526.6</ele>
        <time>2013-06-08T06:13:24Z</time>
      </trkpt>
      <trkpt lat="43.87664" lon="6.97729">
        <ele>527.5</ele>
        <time>2013-06-08T06:13:30Z</time>
      </trkpt>
      <trkpt lat="43.87676" lon="6.97725">
        <ele>528.2</ele>
        <time>2013-06-08T06:13:36Z</time>
      </trkpt>
      <trkpt lat="43.8769" lon="6.97724">
        <ele>529</ele>
        <time>2013-06-08T06:13:42Z</time>
      </trkpt>
      <trkpt lat="43.87702" lon="6.97731">
        <ele>529.7</ele>
        <time>2013-06-08T06:13:48Z</time>
      </trkpt>
      <trkpt lat="43.87715" lon="6.97743">
        <ele>531</ele>
        <time>2013-06-08T06:13:54Z</time>
      </trkpt>
      <trkpt lat="43.87725" lon="6.97756">
        <ele>532</ele>
        <time>2013-06-08T06:14:00Z</time>
      </trkpt>
      <trkpt lat="43.87732" lon="6.97775">
        <ele>533.2</ele>
        <time>2013-06-08T06:14:06Z</time>
      </trkpt>
      <trkpt lat="43.87739" lon="6.97791">
        <ele>534.6</ele>
        <time>2013-06-08T06:14:12Z</time>
      </trkpt>
      <trkpt lat="43.87746" lon="6.97808">
        <ele>535.8</ele>
        <time>2013-06-08T06:14:18Z</time>
      </trkpt>
      <trkpt lat="43.87752" lon="6.97823">
        <ele>536.6</ele>
        <time>2013-06-08T06:14:24Z</time>
      </trkpt>
      <trkpt lat="43.87763" lon="6.9783">
        <ele>537.1</ele>
        <time>2013-06-08T06:14:30Z</time>
      </trkpt>
      <trkpt lat="43.87776" lon="6.97833">
        <ele>537.5</ele>
        <time>2013-06-08T06:14:36Z</time>
      </trkpt>
      <trkpt lat="43.8779" lon="6.9784">
        <ele>538.7</ele>
        <time>2013-06-08T06:14:42Z</time>
      </trkpt>
      <trkpt lat="43.87805" lon="6.97852">
        <ele>540</ele>
        <time>2013-06-08T06:14:48Z</time>
      </trkpt>
      <trkpt lat="43.87813" lon="6.97867">
        <ele>540.8</ele>
        <time>2013-06-08T06:14:54Z</time>
      </trkpt>
      <trkpt lat="43.87822" lon="6.97884">
        <ele>541.8</ele>
        <time>2013-06-08T06:15:00Z</time>
      </trkpt>
      <trkpt lat="43.87826" lon="6.97905">
        <ele>542.6</ele>
        <time>2013-06-08T06:15:06Z</time>
      </trkpt>
      <trkpt lat="43.87829" lon="6.97927">
        <ele>543.5</ele>
        <time>2013-06-08T06:15:12Z</time>
      </trkpt>
      <trkpt lat="43.87836" lon="6.97942">
        <ele>544.2</ele>
        <time>2013-06-08T06:15:18Z</time>
      </trkpt>
      <trkpt lat="43.87845" lon="6.97957">
        <ele>544.8</ele>
        <time>2013-06-08T06:15:24Z</time>
      </trkpt>
      <trkpt lat="43.87853" lon="6.97967">
        <ele>545.6</ele>
        <time>2013-06-08T06:15:30Z</time>
      </trkpt>
      <trkpt lat="43.87862" lon="6.97955">
        <ele>546.3</ele>
        <time>2013-06-08T06:15:36Z</time>
      </trkpt>
      <trkpt lat="43.87856" lon="6.97939">
        <ele>547</ele>
        <time>2013-06-08T06:15:42Z</time>
      </trkpt>
      <trkpt lat="43.87843" lon="6.97923">
        <ele>547.6</ele>
        <time>2013-06-08T06:15:48Z</time>
      </trkpt>
      <trkpt lat="43.87837" lon="6.97903">
        <ele>548.3</ele>
        <time>2013-06-08T06:15:54Z</time>
      </trkpt>
      <trkpt lat="43.87837" lon="6.97885">
        <ele>549</ele>
        <time>2013-06-08T06:16:00Z</time>
      </trkpt>
      <trkpt lat="43.8784" lon="6.97865">
        <ele>549.8</ele>
        <time>2013-06-08T06:16:06Z</time>
      </trkpt>
      <trkpt lat="43.87841" lon="6.97844">
        <ele>550.4</ele>
        <time>2013-06-08T06:16:12Z</time>
      </trkpt>
      <trkpt lat="43.87837" lon="6.97828">
        <ele>551.5</ele>
        <time>2013-06-08T06:16:18Z</time>
      </trkpt>
      <trkpt lat="43.87828" lon="6.97813">
        <ele>552.8</ele>
        <time>2013-06-08T06:16:24Z</time>
      </trkpt>
      <trkpt lat="43.87815" lon="6.97805">
        <ele>553.9</ele>
        <time>2013-06-08T06:16:30Z</time>
      </trkpt>
      <trkpt lat="43.87802" lon="6.97799">
        <ele>554.8</ele>
        <time>2013-06-08T06:16:36Z</time>
      </trkpt>
      <trkpt lat="43.8779" lon="6.97789">
        <ele>555.6</ele>
        <time>2013-06-08T06:16:42Z</time>
      </trkpt>
      <trkpt lat="43.87781" lon="6.97777">
        <ele>556.6</ele>
        <time>2013-06-08T06:16:48Z</time>
      </trkpt>
      <trkpt lat="43.87774" lon="6.9776">
        <ele>557.7</ele>
        <time>2013-06-08T06:16:54Z</time>
      </trkpt>
      <trkpt lat="43.87769" lon="6.97742">
        <ele>558.8</ele>
        <time>2013-06-08T06:17:00Z</time>
      </trkpt>
      <trkpt lat="43.87763" lon="6.97724">
        <ele>559.6</ele>
        <time>2013-06-08T06:17:06Z</time>
      </trkpt>
      <trkpt lat="43.87759" lon="6.97708">
        <ele>560.4</ele>
        <time>2013-06-08T06:17:12Z</time>
      </trkpt>
      <trkpt lat="43.87753" lon="6.9769">
        <ele>561.1</ele>
        <time>2013-06-08T06:17:18Z</time>
      </trkpt>
      <trkpt lat="43.87747" lon="6.97674">
        <ele>562</ele>
        <time>2013-06-08T06:17:24Z</time>
      </trkpt>
      <trkpt lat="43.87742" lon="6.97659">
        <ele>562.9</ele>
        <time>2013-06-08T06:17:30Z</time>
      </trkpt>
      <trkpt lat="43.87735" lon="6.97643">
        <ele>563.6</ele>
        <time>2013-06-08T06:17:36Z</time>
      </trkpt>
      <trkpt lat="43.87728" lon="6.97626">
        <ele>564.5</ele>
        <time>2013-06-08T06:17:42Z</time>
      </trkpt>
      <trkpt lat="43.87724" lon="6.9761">
        <ele>565.4</ele>
        <time>2013-06-08T06:17:48Z</time>
      </trkpt>
      <trkpt lat="43.87716" lon="6.97598">
        <ele>566.2</ele>
        <time>2013-06-08T06:17:54Z</time>
      </trkpt>
      <trkpt lat="43.87709" lon="6.97585">
        <ele>567.1</ele>
        <time>2013-06-08T06:18:00Z</time>
      </trkpt>
      <trkpt lat="43.87705" lon="6.97569">
        <ele>568.2</ele>
        <time>2013-06-08T06:18:06Z</time>
      </trkpt>
      <trkpt lat="43.87699" lon="6.97551">
        <ele>569.3</ele>
        <time>2013-06-08T06:18:12Z</time>
      </trkpt>
      <trkpt lat="43.87691" lon="6.97536">
        <ele>570.7</ele>
        <time>2013-06-08T06:18:18Z</time>
      </trkpt>
      <trkpt lat="43.87685" lon="6.97522">
        <ele>571.9</ele>
        <time>2013-06-08T06:18:24Z</time>
      </trkpt>
      <trkpt lat="43.87675" lon="6.97509">
        <ele>573</ele>
        <time>2013-06-08T06:18:30Z</time>
      </trkpt>
      <trkpt lat="43.87666" lon="6.97495">
        <ele>573.8</ele>
        <time>2013-06-08T06:18:36Z</time>
      </trkpt>
      <trkpt lat="43.87656" lon="6.97482">
        <ele>574.6</ele>
        <time>2013-06-08T06:18:42Z</time>
      </trkpt>
      <trkpt lat="43.87646" lon="6.97471">
        <ele>575.1</ele>
        <time>2013-06-08T06:18:48Z</time>
      </trkpt>
      <trkpt lat="43.87636" lon="6.97458">
        <ele>576</ele>
        <time>2013-06-08T06:18:54Z</time>
      </trkpt>
      <trkpt lat="43.87627" lon="6.97444">
        <ele>576.9</ele>
        <time>2013-06-08T06:19:00Z</time>
      </trkpt>
      <trkpt lat="43.8762" lon="6.97429">
        <ele>577.8</ele>
        <time>2013-06-08T06:19:06Z</time>
      </trkpt>
      <trkpt lat="43.87613" lon="6.97412">
        <ele>578.8</ele>
        <time>2013-06-08T06:19:12Z</time>
      </trkpt>
      <trkpt lat="43.87606" lon="6.97398">
        <ele>579.8</ele>
        <time>2013-06-08T06:19:18Z</time>
      </trkpt>
      <trkpt lat="43.87599" lon="6.97381">
        <ele>580.7</ele>
        <time>2013-06-08T06:19:24Z</time>
      </trkpt>
      <trkpt lat="43.87593" lon="6.97367">
        <ele>582</ele>
        <time>2013-06-08T06:19:30Z</time>
      </trkpt>
      <trkpt lat="43.87585" lon="6.97353">
        <ele>583.1</ele>
        <time>2013-06-08T06:19:36Z</time>
      </trkpt>
      <trkpt lat="43.87576" lon="6.97339">
        <ele>584</ele>
        <time>2013-06-08T06:19:42Z</time>
      </trkpt>
      <trkpt lat="43.87566" lon="6.97327">
        <ele>584.8</ele>
        <time>2013-06-08T06:19:48Z</time>
      </trkpt>
      <trkpt lat="43.87556" lon="6.97313">
        <ele>585.5</ele>
        <time>2013-06-08T06:19:54Z</time>
      </trkpt>
      <trkpt lat="43.87548" lon="6.97301">
        <ele>586.4</ele>
        <time>2013-06-08T06:20:00Z</time>
      </trkpt>
      <trkpt lat="43.87542" lon="6.97287">
        <ele>587</ele>
        <time>2013-06-08T06:20:06Z</time>
      </trkpt>
      <trkpt lat="43.87535" lon="6.97273">
        <ele>587.8</ele>
        <time>2013-06-08T06:20:12Z</time>
      </trkpt>
      <trkpt lat="43.87529" lon="6.97257">
        <ele>588.8</ele>
        <time>2013-06-08T06:20:18Z</time>
      </trkpt>
      <trkpt lat="43.87525" lon="6.97242">
        <ele>589.9</ele>
        <time>2013-06-08T06:20:24Z</time>
      </trkpt>
      <trkpt lat="43.87521" lon="6.97225">
        <ele>590.9</ele>
        <time>2013-06-08T06:20:30Z</time>
      </trkpt>
      <trkpt lat="43.87515" lon="6.97209">
        <ele>591.8</ele>
        <time>2013-06-08T06:20:36Z</time>
      </trkpt>
      <trkpt lat="43.87508" lon="6.97195">
        <ele>592.5</ele>
        <time>2013-06-08T06:20:42Z</time>
      </trkpt>
      <trkpt lat="43.87501" lon="6.97182">
        <ele>593.6</ele>
        <time>2013-06-08T06:20:48Z</time>
      </trkpt>
      <trkpt lat="43.87491" lon="6.9717">
        <ele>594.3</ele>
        <time>2013-06-08T06:20:54Z</time>
      </trkpt>
      <trkpt lat="43.87482" lon="6.97157">
        <ele>594.9</ele>
        <time>2013-06-08T06:21:00Z</time>
      </trkpt>
      <trkpt lat="43.87477" lon="6.97142">
        <ele>595.4</ele>
        <time>2013-06-08T06:21:06Z</time>
      </trkpt>
      <trkpt lat="43.87472" lon="6.97126">
        <ele>596.3</ele>
        <time>2013-06-08T06:21:12Z</time>
      </trkpt>
      <trkpt lat="43.87466" lon="6.97108">
        <ele>597</ele>
        <time>2013-06-08T06:21:18Z</time>
      </trkpt>
      <trkpt lat="43.87456" lon="6.97093">
        <ele>597.6</ele>
        <time>2013-06-08T06:21:24Z</time>
      </trkpt>
      <trkpt lat="43.87448" lon="6.97081">
        <ele>598.1</ele>
        <time>2013-06-08T06:21:30Z</time>
      </trkpt>
      <trkpt lat="43.87437" lon="6.97068">
        <ele>598.6</ele>
        <time>2013-06-08T06:21:36Z</time>
      </trkpt>
      <trkpt lat="43.8743" lon="6.97053">
        <ele>599.6</ele>
        <time>2013-06-08T06:21:42Z</time>
      </trkpt>
      <trkpt lat="43.87421" lon="6.97039">
        <ele>600.6</ele>
        <time>2013-06-08T06:21:48Z</time>
      </trkpt>
      <trkpt lat="43.87413" lon="6.97024">
        <ele>601.4</ele>
        <time>2013-06-08T06:21:54Z</time>
      </trkpt>
      <trkpt lat="43.87407" lon="6.9701">
        <ele>602.3</ele>
        <time>2013-06-08T06:22:00Z</time>
      </trkpt>
      <trkpt lat="43.874" lon="6.96993">
        <ele>603.1</ele>
        <time>2013-06-08T06:22:06Z</time>
      </trkpt>
      <trkpt lat="43.87393" lon="6.9698">
        <ele>603.9</ele>
        <time>2013-06-08T06:22:12Z</time>
      </trkpt>
      <trkpt lat="43.87383" lon="6.96967">
        <ele>604.5</ele>
        <time>2013-06-08T06:22:18Z</time>
      </trkpt>
      <trkpt lat="43.87374" lon="6.96954">
        <ele>605.2</ele>
        <time>2013-06-08T06:22:24Z</time>
      </trkpt>
      <trkpt lat="43.87365" lon="6.96937">
        <ele>606.1</ele>
        <time>2013-06-08T06:22:30Z</time>
      </trkpt>
      <trkpt lat="43.87357" lon="6.96923">
        <ele>606.8</ele>
        <time>2013-06-08T06:22:36Z</time>
      </trkpt>
      <trkpt lat="43.87352" lon="6.96906">
        <ele>607.7</ele>
        <time>2013-06-08T06:22:42Z</time>
      </trkpt>
      <trkpt lat="43.87351" lon="6.96885">
        <ele>608.5</ele>
        <time>2013-06-08T06:22:48Z</time>
      </trkpt>
      <trkpt lat="43.87351" lon="6.96866">
        <ele>609.2</ele>
        <time>2013-06-08T06:22:54Z</time>
      </trkpt>
      <trkpt lat="43.87351" lon="6.96847">
        <ele>610.3</ele>
        <time>2013-06-08T06:23:00Z</time>
      </trkpt>
      <trkpt lat="43.8735" lon="6.96832">
        <ele>611</ele>
        <time>2013-06-08T06:23:06Z</time>
      </trkpt>
      <trkpt lat="43.87349" lon="6.96826">
        <ele>611.9</ele>
        <time>2013-06-08T06:23:12Z</time>
      </trkpt>
      <trkpt lat="43.87347" lon="6.96824">
        <ele>612.6</ele>
        <time>2013-06-08T06:23:18Z</time>
      </trkpt>
      <trkpt lat="43.87345" lon="6.96826">
        <ele>612.7</ele>
        <time>2013-06-08T06:23:24Z</time>
      </trkpt>
      <trkpt lat="43.87344" lon="6.96827">
        <ele>613.5</ele>
        <time>2013-06-08T06:23:30Z</time>
      </trkpt>
      <trkpt lat="43.87346" lon="6.96823">
        <ele>613.5</ele>
        <time>2013-06-08T06:23:36Z</time>
      </trkpt>
      <trkpt lat="43.87348" lon="6.96825">
        <ele>613.9</ele>
        <time>2013-06-08T06:23:42Z</time>
      </trkpt>
      <trkpt lat="43.87352" lon="6.96836">
        <ele>614.4</ele>
        <time>2013-06-08T06:23:48Z</time>
      </trkpt>
      <trkpt lat="43.87352" lon="6.96845">
        <ele>614.7</ele>
        <time>2013-06-08T06:23:54Z</time>
      </trkpt>
      <trkpt lat="43.8735" lon="6.96829">
        <ele>615.3</ele>
        <time>2013-06-08T06:24:00Z</time>
      </trkpt>
      <trkpt lat="43.87348" lon="6.96813">
        <ele>616</ele>
        <time>2013-06-08T06:24:06Z</time>
      </trkpt>
      <trkpt lat="43.87346" lon="6.96793">
        <ele>616.3</ele>
        <time>2013-06-08T06:24:12Z</time>
      </trkpt>
      <trkpt lat="43.87348" lon="6.96771">
        <ele>616.5</ele>
        <time>2013-06-08T06:24:18Z</time>
      </trkpt>
      <trkpt lat="43.87348" lon="6.96751">
        <ele>616.6</ele>
        <time>2013-06-08T06:24:24Z</time>
      </trkpt>
      <trkpt lat="43.87346" lon="6.96731">
        <ele>616.7</ele>
        <time>2013-06-08T06:24:30Z</time>
      </trkpt>
      <trkpt lat="43.87344" lon="6.9671">
        <ele>616.8</ele>
        <time>2013-06-08T06:24:36Z</time>
      </trkpt>
      <trkpt lat="43.87341" lon="6.96688">
        <ele>617</ele>
        <time>2013-06-08T06:24:42Z</time>
      </trkpt>
      <trkpt lat="43.87339" lon="6.96665">
        <ele>617.5</ele>
        <time>2013-06-08T06:24:48Z</time>
      </trkpt>
      <trkpt lat="43.8734" lon="6.96644">
        <ele>618</ele>
        <time>2013-06-08T06:24:54Z</time>
      </trkpt>
      <trkpt lat="43.87336" lon="6.96626">
        <ele>618.1</ele>
        <time>2013-06-08T06:25:00Z</time>
      </trkpt>
      <trkpt lat="43.87331" lon="6.966">
        <ele>618.7</ele>
        <time>2013-06-08T06:25:06Z</time>
      </trkpt>
      <trkpt lat="43.87326" lon="6.96577">
        <ele>619.5</ele>
        <time>2013-06-08T06:25:12Z</time>
      </trkpt>
      <trkpt lat="43.8733" lon="6.96547">
        <ele>621.6</ele>
        <time>2013-06-08T06:25:18Z</time>
      </trkpt>
      <trkpt lat="43.87336" lon="6.96517">
        <ele>622.2</ele>
        <time>2013-06-08T06:25:24Z</time>
      </trkpt>
      <trkpt lat="43.87334" lon="6.96488">
        <ele>622.5</ele>
        <time>2013-06-08T06:25:30Z</time>
      </trkpt>
      <trkpt lat="43.8733" lon="6.96457">
        <ele>622.9</ele>
        <time>2013-06-08T06:25:36Z</time>
      </trkpt>
      <trkpt lat="43.87318" lon="6.96434">
        <ele>623.6</ele>
        <time>2013-06-08T06:25:42Z</time>
      </trkpt>
      <trkpt lat="43.87301" lon="6.96427">
        <ele>624.6</ele>
        <time>2013-06-08T06:25:48Z</time>
      </trkpt>
      <trkpt lat="43.87282" lon="6.96439">
        <ele>625.6</ele>
        <time>2013-06-08T06:25:54Z</time>
      </trkpt>
      <trkpt lat="43.87264" lon="6.96462">
        <ele>626.8</ele>
        <time>2013-06-08T06:26:00Z</time>
      </trkpt>
      <trkpt lat="43.87247" lon="6.96484">
        <ele>628.1</ele>
        <time>2013-06-08T06:26:06Z</time>
      </trkpt>
      <trkpt lat="43.87224" lon="6.96486">
        <ele>628.6</ele>
        <time>2013-06-08T06:26:12Z</time>
      </trkpt>
      <trkpt lat="43.872" lon="6.9647">
        <ele>632.1</ele>
        <time>2013-06-08T06:26:18Z</time>
      </trkpt>
      <trkpt lat="43.8719" lon="6.96446">
        <ele>632.1</ele>
        <time>2013-06-08T06:26:24Z</time>
      </trkpt>
      <trkpt lat="43.87187" lon="6.96435">
        <ele>632.3</ele>
        <time>2013-06-08T06:26:30Z</time>
      </trkpt>
      <trkpt lat="43.87185" lon="6.96417">
        <ele>632.4</ele>
        <time>2013-06-08T06:26:36Z</time>
      </trkpt>
      <trkpt lat="43.87186" lon="6.96382">
        <ele>631.1</ele>
        <time>2013-06-08T06:26:42Z</time>
      </trkpt>
      <trkpt lat="43.87185" lon="6.96349">
        <ele>629.2</ele>
        <time>2013-06-08T06:26:48Z</time>
      </trkpt>
      <trkpt lat="43.87185" lon="6.96316">
        <ele>630</ele>
        <time>2013-06-08T06:26:54Z</time>
      </trkpt>
      <trkpt lat="43.87199" lon="6.96291">
        <ele>631.7</ele>
        <time>2013-06-08T06:27:00Z</time>
      </trkpt>
      <trkpt lat="43.87223" lon="6.96282">
        <ele>632.3</ele>
        <time>2013-06-08T06:27:06Z</time>
      </trkpt>
      <trkpt lat="43.87241" lon="6.96266">
        <ele>633.2</ele>
        <time>2013-06-08T06:27:12Z</time>
      </trkpt>
      <trkpt lat="43.87253" lon="6.96245">
        <ele>633.8</ele>
        <time>2013-06-08T06:27:18Z</time>
      </trkpt>
      <trkpt lat="43.8726" lon="6.96224">
        <ele>634.3</ele>
        <time>2013-06-08T06:27:24Z</time>
      </trkpt>
      <trkpt lat="43.87262" lon="6.96199">
        <ele>634.9</ele>
        <time>2013-06-08T06:27:30Z</time>
      </trkpt>
      <trkpt lat="43.87255" lon="6.96177">
        <ele>634.9</ele>
        <time>2013-06-08T06:27:36Z</time>
      </trkpt>
      <trkpt lat="43.87248" lon="6.96151">
        <ele>634.9</ele>
        <time>2013-06-08T06:27:42Z</time>
      </trkpt>
      <trkpt lat="43.87245" lon="6.96129">
        <ele>634.9</ele>
        <time>2013-06-08T06:27:48Z</time>
      </trkpt>
      <trkpt lat="43.8724" lon="6.96106">
        <ele>635</ele>
        <time>2013-06-08T06:27:54Z</time>
      </trkpt>
      <trkpt lat="43.87235" lon="6.96087">
        <ele>635.2</ele>
        <time>2013-06-08T06:28:00Z</time>
      </trkpt>
      <trkpt lat="43.87229" lon="6.96064">
        <ele>635.4</ele>
        <time>2013-06-08T06:28:06Z</time>
      </trkpt>
      <trkpt lat="43.87222" lon="6.96045">
        <ele>635.7</ele>
        <time>2013-06-08T06:28:12Z</time>
      </trkpt>
      <trkpt lat="43.8722" lon="6.96017">
        <ele>635.9</ele>
        <time>2013-06-08T06:28:18Z</time>
      </trkpt>
      <trkpt lat="43.87227" lon="6.95991">
        <ele>635.9</ele>
        <time>2013-06-08T06:28:24Z</time>
      </trkpt>
      <trkpt lat="43.8724" lon="6.95973">
        <ele>635.8</ele>
        <time>2013-06-08T06:28:30Z</time>
      </trkpt>
      <trkpt lat="43.87251" lon="6.95958">
        <ele>635.5</ele>
        <time>2013-06-08T06:28:36Z</time>
      </trkpt>
      <trkpt lat="43.87259" lon="6.95934">
        <ele>635.8</ele>
        <time>2013-06-08T06:28:42Z</time>
      </trkpt>
      <trkpt lat="43.87264" lon="6.95909">
        <ele>636.7</ele>
        <time>2013-06-08T06:28:48Z</time>
      </trkpt>
      <trkpt lat="43.87267" lon="6.95886">
        <ele>638.2</ele>
        <time>2013-06-08T06:28:54Z</time>
      </trkpt>
      <trkpt lat="43.87276" lon="6.95867">
        <ele>639.6</ele>
        <time>2013-06-08T06:29:00Z</time>
      </trkpt>
      <trkpt lat="43.87284" lon="6.95846">
        <ele>641</ele>
        <time>2013-06-08T06:29:06Z</time>
      </trkpt>
      <trkpt lat="43.87289" lon="6.95822">
        <ele>642.2</ele>
        <time>2013-06-08T06:29:12Z</time>
      </trkpt>
      <trkpt lat="43.87292" lon="6.95794">
        <ele>643.7</ele>
        <time>2013-06-08T06:29:18Z</time>
      </trkpt>
      <trkpt lat="43.87297" lon="6.95768">
        <ele>645</ele>
        <time>2013-06-08T06:29:24Z</time>
      </trkpt>
      <trkpt lat="43.87301" lon="6.95747">
        <ele>646.1</ele>
        <time>2013-06-08T06:29:30Z</time>
      </trkpt>
      <trkpt lat="43.87305" lon="6.95721">
        <ele>647.3</ele>
        <time>2013-06-08T06:29:36Z</time>
      </trkpt>
      <trkpt lat="43.87305" lon="6.95695">
        <ele>648.3</ele>
        <time>2013-06-08T06:29:42Z</time>
      </trkpt>
      <trkpt lat="43.87303" lon="6.95671">
        <ele>649.1</ele>
        <time>2013-06-08T06:29:48Z</time>
      </trkpt>
      <trkpt lat="43.87303" lon="6.95645">
        <ele>649.9</ele>
        <time>2013-06-08T06:29:54Z</time>
      </trkpt>
      <trkpt lat="43.87304" lon="6.95611">
        <ele>652.5</ele>
        <time>2013-06-08T06:30:00Z</time>
      </trkpt>
      <trkpt lat="43.87309" lon="6.95584">
        <ele>653.3</ele>
        <time>2013-06-08T06:30:06Z</time>
      </trkpt>
      <trkpt lat="43.8731" lon="6.95556">
        <ele>654.1</ele>
        <time>2013-06-08T06:30:12Z</time>
      </trkpt>
      <trkpt lat="43.87303" lon="6.95532">
        <ele>654.3</ele>
        <time>2013-06-08T06:30:18Z</time>
      </trkpt>
      <trkpt lat="43.873" lon="6.955">
        <ele>654.7</ele>
        <time>2013-06-08T06:30:24Z</time>
      </trkpt>
      <trkpt lat="43.87312" lon="6.95475">
        <ele>655.5</ele>
        <time>2013-06-08T06:30:30Z</time>
      </trkpt>
      <trkpt lat="43.8732" lon="6.9545">
        <ele>656.2</ele>
        <time>2013-06-08T06:30:36Z</time>
      </trkpt>
      <trkpt lat="43.87316" lon="6.95422">
        <ele>656.7</ele>
        <time>2013-06-08T06:30:42Z</time>
      </trkpt>
      <trkpt lat="43.87305" lon="6.95395">
        <ele>657.3</ele>
        <time>2013-06-08T06:30:48Z</time>
      </trkpt>
      <trkpt lat="43.87293" lon="6.9537">
        <ele>657.9</ele>
        <time>2013-06-08T06:30:54Z</time>
      </trkpt>
      <trkpt lat="43.87284" lon="6.95344">
        <ele>658.5</ele>
        <time>2013-06-08T06:31:00Z</time>
      </trkpt>
      <trkpt lat="43.87285" lon="6.95314">
        <ele>659.1</ele>
        <time>2013-06-08T06:31:06Z</time>
      </trkpt>
      <trkpt lat="43.87292" lon="6.95289">
        <ele>659.6</ele>
        <time>2013-06-08T06:31:12Z</time>
      </trkpt>
      <trkpt lat="43.87304" lon="6.95264">
        <ele>660.1</ele>
        <time>2013-06-08T06:31:18Z</time>
      </trkpt>
      <trkpt lat="43.87314" lon="6.95237">
        <ele>660.7</ele>
        <time>2013-06-08T06:31:24Z</time>
      </trkpt>
      <trkpt lat="43.87322" lon="6.9521">
        <ele>661.2</ele>
        <time>2013-06-08T06:31:30Z</time>
      </trkpt>
      <trkpt lat="43.87328" lon="6.95182">
        <ele>662</ele>
        <time>2013-06-08T06:31:36Z</time>
      </trkpt>
      <trkpt lat="43.87336" lon="6.95155">
        <ele>663</ele>
        <time>2013-06-08T06:31:42Z</time>
      </trkpt>
      <trkpt lat="43.87353" lon="6.95139">
        <ele>663.7</ele>
        <time>2013-06-08T06:31:48Z</time>
      </trkpt>
      <trkpt lat="43.87373" lon="6.9515">
        <ele>664.4</ele>
        <time>2013-06-08T06:31:54Z</time>
      </trkpt>
      <trkpt lat="43.87391" lon="6.95163">
        <ele>665.2</ele>
        <time>2013-06-08T06:32:00Z</time>
      </trkpt>
      <trkpt lat="43.8741" lon="6.95172">
        <ele>666.2</ele>
        <time>2013-06-08T06:32:06Z</time>
      </trkpt>
      <trkpt lat="43.87431" lon="6.95172">
        <ele>667.1</ele>
        <time>2013-06-08T06:32:12Z</time>
      </trkpt>
      <trkpt lat="43.87447" lon="6.95191">
        <ele>667.9</ele>
        <time>2013-06-08T06:32:18Z</time>
      </trkpt>
      <trkpt lat="43.87458" lon="6.95221">
        <ele>668.7</ele>
        <time>2013-06-08T06:32:24Z</time>
      </trkpt>
      <trkpt lat="43.87476" lon="6.95226">
        <ele>669.4</ele>
        <time>2013-06-08T06:32:30Z</time>
      </trkpt>
      <trkpt lat="43.8749" lon="6.95211">
        <ele>670.1</ele>
        <time>2013-06-08T06:32:36Z</time>
      </trkpt>
      <trkpt lat="43.875" lon="6.95189">
        <ele>670.6</ele>
        <time>2013-06-08T06:32:42Z</time>
      </trkpt>
      <trkpt lat="43.8751" lon="6.95166">
        <ele>671.2</ele>
        <time>2013-06-08T06:32:48Z</time>
      </trkpt>
      <trkpt lat="43.87519" lon="6.95142">
        <ele>672</ele>
        <time>2013-06-08T06:32:54Z</time>
      </trkpt>
      <trkpt lat="43.87527" lon="6.95122">
        <ele>672.7</ele>
        <time>2013-06-08T06:33:00Z</time>
      </trkpt>
      <trkpt lat="43.87537" lon="6.95101">
        <ele>673.2</ele>
        <time>2013-06-08T06:33:06Z</time>
      </trkpt>
      <trkpt lat="43.87547" lon="6.95079">
        <ele>673.8</ele>
        <time>2013-06-08T06:33:12Z</time>
      </trkpt>
      <trkpt lat="43.87557" lon="6.95057">
        <ele>674.3</ele>
        <time>2013-06-08T06:33:18Z</time>
      </trkpt>
      <trkpt lat="43.87568" lon="6.95034">
        <ele>674.9</ele>
        <time>2013-06-08T06:33:24Z</time>
      </trkpt>
      <trkpt lat="43.87579" lon="6.95016">
        <ele>675.5</ele>
        <time>2013-06-08T06:33:30Z</time>
      </trkpt>
      <trkpt lat="43.87594" lon="6.95001">
        <ele>676.4</ele>
        <time>2013-06-08T06:33:36Z</time>
      </trkpt>
      <trkpt lat="43.87611" lon="6.94985">
        <ele>677.3</ele>
        <time>2013-06-08T06:33:42Z</time>
      </trkpt>
      <trkpt lat="43.8763" lon="6.94991">
        <ele>677.7</ele>
        <time>2013-06-08T06:33:48Z</time>
      </trkpt>
      <trkpt lat="43.87655" lon="6.95013">
        <ele>679.9</ele>
        <time>2013-06-08T06:33:54Z</time>
      </trkpt>
      <trkpt lat="43.87681" lon="6.95011">
        <ele>681.6</ele>
        <time>2013-06-08T06:34:00Z</time>
      </trkpt>
      <trkpt lat="43.87703" lon="6.94979">
        <ele>676.9</ele>
        <time>2013-06-08T06:34:06Z</time>
      </trkpt>
      <trkpt lat="43.87719" lon="6.94936">
        <ele>675.6</ele>
        <time>2013-06-08T06:34:12Z</time>
      </trkpt>
      <trkpt lat="43.87735" lon="6.9488">
        <ele>672.9</ele>
        <time>2013-06-08T06:34:18Z</time>
      </trkpt>
      <trkpt lat="43.87755" lon="6.94826">
        <ele>671</ele>
        <time>2013-06-08T06:34:24Z</time>
      </trkpt>
      <trkpt lat="43.87774" lon="6.94775">
        <ele>671.7</ele>
        <time>2013-06-08T06:34:30Z</time>
      </trkpt>
      <trkpt lat="43.87795" lon="6.94723">
        <ele>670</ele>
        <time>2013-06-08T06:34:36Z</time>
      </trkpt>
      <trkpt lat="43.87813" lon="6.94672">
        <ele>667.6</ele>
        <time>2013-06-08T06:34:42Z</time>
      </trkpt>
      <trkpt lat="43.8782" lon="6.94621">
        <ele>666.5</ele>
        <time>2013-06-08T06:34:48Z</time>
      </trkpt>
      <trkpt lat="43.87846" lon="6.94583">
        <ele>666.8</ele>
        <time>2013-06-08T06:34:54Z</time>
      </trkpt>
      <trkpt lat="43.87873" lon="6.94542">
        <ele>667.7</ele>
        <time>2013-06-08T06:35:00Z</time>
      </trkpt>
      <trkpt lat="43.87889" lon="6.94488">
        <ele>668.7</ele>
        <time>2013-06-08T06:35:06Z</time>
      </trkpt>
      <trkpt lat="43.87902" lon="6.94442">
        <ele>666.8</ele>
        <time>2013-06-08T06:35:12Z</time>
      </trkpt>
      <trkpt lat="43.87924" lon="6.94398">
        <ele>662.8</ele>
        <time>2013-06-08T06:35:18Z</time>
      </trkpt>
      <trkpt lat="43.87945" lon="6.94352">
        <ele>663.2</ele>
        <time>2013-06-08T06:35:24Z</time>
      </trkpt>
      <trkpt lat="43.8796" lon="6.94301">
        <ele>664.2</ele>
        <time>2013-06-08T06:35:30Z</time>
      </trkpt>
      <trkpt lat="43.87982" lon="6.94252">
        <ele>665.4</ele>
        <time>2013-06-08T06:35:36Z</time>
      </trkpt>
      <trkpt lat="43.87996" lon="6.94192">
        <ele>661.9</ele>
        <time>2013-06-08T06:35:42Z</time>
      </trkpt>
      <trkpt lat="43.88006" lon="6.94124">
        <ele>660.1</ele>
        <time>2013-06-08T06:35:48Z</time>
      </trkpt>
      <trkpt lat="43.88019" lon="6.94053">
        <ele>656.3</ele>
        <time>2013-06-08T06:35:54Z</time>
      </trkpt>
      <trkpt lat="43.88044" lon="6.93993">
        <ele>653.9</ele>
        <time>2013-06-08T06:36:00Z</time>
      </trkpt>
      <trkpt lat="43.88074" lon="6.93939">
        <ele>651.5</ele>
        <time>2013-06-08T06:36:06Z</time>
      </trkpt>
      <trkpt lat="43.88113" lon="6.9389">
        <ele>649.7</ele>
        <time>2013-06-08T06:36:12Z</time>
      </trkpt>
      <trkpt lat="43.88161" lon="6.93854">
        <ele>645.6</ele>
        <time>2013-06-08T06:36:18Z</time>
      </trkpt>
      <trkpt lat="43.88193" lon="6.93808">
        <ele>641.9</ele>
        <time>2013-06-08T06:36:24Z</time>
      </trkpt>
      <trkpt lat="43.88211" lon="6.93755">
        <ele>639.2</ele>
        <time>2013-06-08T06:36:30Z</time>
      </trkpt>
      <trkpt lat="43.88249" lon="6.93756">
        <ele>637.1</ele>
        <time>2013-06-08T06:36:36Z</time>
      </trkpt>
      <trkpt lat="43.88285" lon="6.93754">
        <ele>635.8</ele>
        <time>2013-06-08T06:36:42Z</time>
      </trkpt>
      <trkpt lat="43.88368" lon="6.9377">
        <ele>633.9</ele>
        <time>2013-06-08T06:36:54Z</time>
      </trkpt>
      <trkpt lat="43.88419" lon="6.93744">
        <ele>632.8</ele>
        <time>2013-06-08T06:37:00Z</time>
      </trkpt>
      <trkpt lat="43.88462" lon="6.93711">
        <ele>630.5</ele>
        <time>2013-06-08T06:37:06Z</time>
      </trkpt>
      <trkpt lat="43.88496" lon="6.93743">
        <ele>631.3</ele>
        <time>2013-06-08T06:37:12Z</time>
      </trkpt>
      <trkpt lat="43.88521" lon="6.93793">
        <ele>634.3</ele>
        <time>2013-06-08T06:37:18Z</time>
      </trkpt>
      <trkpt lat="43.88546" lon="6.93804">
        <ele>634.6</ele>
        <time>2013-06-08T06:37:24Z</time>
      </trkpt>
      <trkpt lat="43.8857" lon="6.9382">
        <ele>634.4</ele>
        <time>2013-06-08T06:37:30Z</time>
      </trkpt>
      <trkpt lat="43.88592" lon="6.9385">
        <ele>635.4</ele>
        <time>2013-06-08T06:37:36Z</time>
      </trkpt>
      <trkpt lat="43.8862" lon="6.93854">
        <ele>629.7</ele>
        <time>2013-06-08T06:37:42Z</time>
      </trkpt>
      <trkpt lat="43.88643" lon="6.93902">
        <ele>626.9</ele>
        <time>2013-06-08T06:37:48Z</time>
      </trkpt>
      <trkpt lat="43.88653" lon="6.93959">
        <ele>624.4</ele>
        <time>2013-06-08T06:37:54Z</time>
      </trkpt>
      <trkpt lat="43.88659" lon="6.94017">
        <ele>621.2</ele>
        <time>2013-06-08T06:38:00Z</time>
      </trkpt>
      <trkpt lat="43.88665" lon="6.9408">
        <ele>618.8</ele>
        <time>2013-06-08T06:38:06Z</time>
      </trkpt>
      <trkpt lat="43.88689" lon="6.94122">
        <ele>617.2</ele>
        <time>2013-06-08T06:38:12Z</time>
      </trkpt>
      <trkpt lat="43.88715" lon="6.94092">
        <ele>612.1</ele>
        <time>2013-06-08T06:38:18Z</time>
      </trkpt>
      <trkpt lat="43.88711" lon="6.94032">
        <ele>609.3</ele>
        <time>2013-06-08T06:38:24Z</time>
      </trkpt>
      <trkpt lat="43.88716" lon="6.93979">
        <ele>611.7</ele>
        <time>2013-06-08T06:38:30Z</time>
      </trkpt>
      <trkpt lat="43.88722" lon="6.93926">
        <ele>613.2</ele>
        <time>2013-06-08T06:38:36Z</time>
      </trkpt>
      <trkpt lat="43.88747" lon="6.9389">
        <ele>611.8</ele>
        <time>2013-06-08T06:38:42Z</time>
      </trkpt>
      <trkpt lat="43.88787" lon="6.93898">
        <ele>611.4</ele>
        <time>2013-06-08T06:38:48Z</time>
      </trkpt>
      <trkpt lat="43.88823" lon="6.93884">
        <ele>611.4</ele>
        <time>2013-06-08T06:38:54Z</time>
      </trkpt>
      <trkpt lat="43.88852" lon="6.93865">
        <ele>611.8</ele>
        <time>2013-06-08T06:39:00Z</time>
      </trkpt>
      <trkpt lat="43.88882" lon="6.93854">
        <ele>611.5</ele>
        <time>2013-06-08T06:39:06Z</time>
      </trkpt>
      <trkpt lat="43.88908" lon="6.93848">
        <ele>609</ele>
        <time>2013-06-08T06:39:12Z</time>
      </trkpt>
      <trkpt lat="43.88934" lon="6.93845">
        <ele>611.6</ele>
        <time>2013-06-08T06:39:18Z</time>
      </trkpt>
      <trkpt lat="43.88961" lon="6.93851">
        <ele>614</ele>
        <time>2013-06-08T06:39:24Z</time>
      </trkpt>
      <trkpt lat="43.88989" lon="6.93854">
        <ele>614.3</ele>
        <time>2013-06-08T06:39:30Z</time>
      </trkpt>
      <trkpt lat="43.89019" lon="6.93857">
        <ele>614.2</ele>
        <time>2013-06-08T06:39:36Z</time>
      </trkpt>
      <trkpt lat="43.89046" lon="6.93844">
        <ele>607.9</ele>
        <time>2013-06-08T06:39:42Z</time>
      </trkpt>
      <trkpt lat="43.89073" lon="6.93821">
        <ele>603.6</ele>
        <time>2013-06-08T06:39:48Z</time>
      </trkpt>
      <trkpt lat="43.89099" lon="6.93798">
        <ele>604.6</ele>
        <time>2013-06-08T06:39:54Z</time>
      </trkpt>
      <trkpt lat="43.89124" lon="6.93774">
        <ele>604.3</ele>
        <time>2013-06-08T06:40:00Z</time>
      </trkpt>
      <trkpt lat="43.89151" lon="6.93754">
        <ele>603.5</ele>
        <time>2013-06-08T06:40:06Z</time>
      </trkpt>
      <trkpt lat="43.89182" lon="6.93752">
        <ele>603.2</ele>
        <time>2013-06-08T06:40:12Z</time>
      </trkpt>
      <trkpt lat="43.89211" lon="6.93762">
        <ele>605</ele>
        <time>2013-06-08T06:40:18Z</time>
      </trkpt>
      <trkpt lat="43.89243" lon="6.93764">
        <ele>607</ele>
        <time>2013-06-08T06:40:24Z</time>
      </trkpt>
      <trkpt lat="43.8927" lon="6.9374">
        <ele>611.3</ele>
        <time>2013-06-08T06:40:30Z</time>
      </trkpt>
      <trkpt lat="43.89297" lon="6.93719">
        <ele>610.7</ele>
        <time>2013-06-08T06:40:36Z</time>
      </trkpt>
      <trkpt lat="43.89325" lon="6.93716">
        <ele>609.7</ele>
        <time>2013-06-08T06:40:42Z</time>
      </trkpt>
      <trkpt lat="43.89359" lon="6.93723">
        <ele>610.9</ele>
        <time>2013-06-08T06:40:48Z</time>
      </trkpt>
      <trkpt lat="43.89389" lon="6.93731">
        <ele>610.4</ele>
        <time>2013-06-08T06:40:54Z</time>
      </trkpt>
      <trkpt lat="43.89422" lon="6.93737">
        <ele>612.2</ele>
        <time>2013-06-08T06:41:00Z</time>
      </trkpt>
      <trkpt lat="43.89454" lon="6.93743">
        <ele>611.8</ele>
        <time>2013-06-08T06:41:06Z</time>
      </trkpt>
      <trkpt lat="43.89483" lon="6.93752">
        <ele>608.4</ele>
        <time>2013-06-08T06:41:12Z</time>
      </trkpt>
      <trkpt lat="43.89518" lon="6.93763">
        <ele>611.2</ele>
        <time>2013-06-08T06:41:18Z</time>
      </trkpt>
      <trkpt lat="43.89527" lon="6.9374">
        <ele>611.3</ele>
        <time>2013-06-08T06:41:24Z</time>
      </trkpt>
      <trkpt lat="43.89527" lon="6.93732">
        <ele>610.8</ele>
        <time>2013-06-08T06:41:30Z</time>
      </trkpt>
      <trkpt lat="43.89526" lon="6.93746">
        <ele>609.8</ele>
        <time>2013-06-08T06:41:36Z</time>
      </trkpt>
      <trkpt lat="43.89521" lon="6.93767">
        <ele>608.9</ele>
        <time>2013-06-08T06:41:42Z</time>
      </trkpt>
      <trkpt lat="43.89523" lon="6.93758">
        <ele>608.8</ele>
        <time>2013-06-08T06:41:48Z</time>
      </trkpt>
      <trkpt lat="43.89526" lon="6.93739">
        <ele>608.3</ele>
        <time>2013-06-08T06:41:54Z</time>
      </trkpt>
      <trkpt lat="43.89521" lon="6.9372">
        <ele>607.9</ele>
        <time>2013-06-08T06:42:00Z</time>
      </trkpt>
      <trkpt lat="43.89502" lon="6.9371">
        <ele>607.4</ele>
        <time>2013-06-08T06:42:06Z</time>
      </trkpt>
      <trkpt lat="43.89474" lon="6.93703">
        <ele>608</ele>
        <time>2013-06-08T06:42:12Z</time>
      </trkpt>
      <trkpt lat="43.89449" lon="6.93689">
        <ele>610.5</ele>
        <time>2013-06-08T06:42:18Z</time>
      </trkpt>
      <trkpt lat="43.89418" lon="6.93671">
        <ele>611.7</ele>
        <time>2013-06-08T06:42:24Z</time>
      </trkpt>
      <trkpt lat="43.89389" lon="6.93662">
        <ele>612.6</ele>
        <time>2013-06-08T06:42:30Z</time>
      </trkpt>
      <trkpt lat="43.89361" lon="6.93636">
        <ele>614.7</ele>
        <time>2013-06-08T06:42:36Z</time>
      </trkpt>
      <trkpt lat="43.89344" lon="6.93619">
        <ele>616.4</ele>
        <time>2013-06-08T06:42:42Z</time>
      </trkpt>
      <trkpt lat="43.89324" lon="6.93614">
        <ele>616.6</ele>
        <time>2013-06-08T06:42:48Z</time>
      </trkpt>
      <trkpt lat="43.89306" lon="6.93606">
        <ele>616.8</ele>
        <time>2013-06-08T06:42:54Z</time>
      </trkpt>
      <trkpt lat="43.89289" lon="6.93597">
        <ele>616.8</ele>
        <time>2013-06-08T06:43:00Z</time>
      </trkpt>
      <trkpt lat="43.89274" lon="6.93585">
        <ele>617</ele>
        <time>2013-06-08T06:43:06Z</time>
      </trkpt>
      <trkpt lat="43.89256" lon="6.93569">
        <ele>617.1</ele>
        <time>2013-06-08T06:43:12Z</time>
      </trkpt>
      <trkpt lat="43.89241" lon="6.93554">
        <ele>617.1</ele>
        <time>2013-06-08T06:43:18Z</time>
      </trkpt>
      <trkpt lat="43.89226" lon="6.93533">
        <ele>617.3</ele>
        <time>2013-06-08T06:43:24Z</time>
      </trkpt>
      <trkpt lat="43.89209" lon="6.93518">
        <ele>617.8</ele>
        <time>2013-06-08T06:43:30Z</time>
      </trkpt>
      <trkpt lat="43.89194" lon="6.93502">
        <ele>618.3</ele>
        <time>2013-06-08T06:43:36Z</time>
      </trkpt>
      <trkpt lat="43.89178" lon="6.93493">
        <ele>619.2</ele>
        <time>2013-06-08T06:43:42Z</time>
      </trkpt>
      <trkpt lat="43.89159" lon="6.93483">
        <ele>620.1</ele>
        <time>2013-06-08T06:43:48Z</time>
      </trkpt>
      <trkpt lat="43.89141" lon="6.93469">
        <ele>620.8</ele>
        <time>2013-06-08T06:43:54Z</time>
      </trkpt>
      <trkpt lat="43.89125" lon="6.93451">
        <ele>621.2</ele>
        <time>2013-06-08T06:44:00Z</time>
      </trkpt>
      <trkpt lat="43.89117" lon="6.93426">
        <ele>621.7</ele>
        <time>2013-06-08T06:44:06Z</time>
      </trkpt>
      <trkpt lat="43.89101" lon="6.93411">
        <ele>622.2</ele>
        <time>2013-06-08T06:44:12Z</time>
      </trkpt>
      <trkpt lat="43.8908" lon="6.93406">
        <ele>622.8</ele>
        <time>2013-06-08T06:44:18Z</time>
      </trkpt>
      <trkpt lat="43.89064" lon="6.93389">
        <ele>623.1</ele>
        <time>2013-06-08T06:44:24Z</time>
      </trkpt>
      <trkpt lat="43.89052" lon="6.93368">
        <ele>623.6</ele>
        <time>2013-06-08T06:44:30Z</time>
      </trkpt>
      <trkpt lat="43.89047" lon="6.9334">
        <ele>624.3</ele>
        <time>2013-06-08T06:44:36Z</time>
      </trkpt>
      <trkpt lat="43.8905" lon="6.93309">
        <ele>624.8</ele>
        <time>2013-06-08T06:44:42Z</time>
      </trkpt>
      <trkpt lat="43.8906" lon="6.93282">
        <ele>625.5</ele>
        <time>2013-06-08T06:44:48Z</time>
      </trkpt>
      <trkpt lat="43.89075" lon="6.93261">
        <ele>626.4</ele>
        <time>2013-06-08T06:44:54Z</time>
      </trkpt>
      <trkpt lat="43.89086" lon="6.93243">
        <ele>626.8</ele>
        <time>2013-06-08T06:45:00Z</time>
      </trkpt>
      <trkpt lat="43.89077" lon="6.9322">
        <ele>626.8</ele>
        <time>2013-06-08T06:45:06Z</time>
      </trkpt>
      <trkpt lat="43.89054" lon="6.93215">
        <ele>627.1</ele>
        <time>2013-06-08T06:45:12Z</time>
      </trkpt>
      <trkpt lat="43.89033" lon="6.93217">
        <ele>627.7</ele>
        <time>2013-06-08T06:45:18Z</time>
      </trkpt>
      <trkpt lat="43.89012" lon="6.93233">
        <ele>628.5</ele>
        <time>2013-06-08T06:45:24Z</time>
      </trkpt>
      <trkpt lat="43.88991" lon="6.93238">
        <ele>631.8</ele>
        <time>2013-06-08T06:45:30Z</time>
      </trkpt>
      <trkpt lat="43.88972" lon="6.93243">
        <ele>633.1</ele>
        <time>2013-06-08T06:45:36Z</time>
      </trkpt>
      <trkpt lat="43.88962" lon="6.93251">
        <ele>633.8</ele>
        <time>2013-06-08T06:45:42Z</time>
      </trkpt>
      <trkpt lat="43.88948" lon="6.93286">
        <ele>634.7</ele>
        <time>2013-06-08T06:45:48Z</time>
      </trkpt>
      <trkpt lat="43.88927" lon="6.93294">
        <ele>635.2</ele>
        <time>2013-06-08T06:45:54Z</time>
      </trkpt>
      <trkpt lat="43.88915" lon="6.93265">
        <ele>636</ele>
        <time>2013-06-08T06:46:00Z</time>
      </trkpt>
      <trkpt lat="43.88911" lon="6.93241">
        <ele>636.7</ele>
        <time>2013-06-08T06:46:06Z</time>
      </trkpt>
      <trkpt lat="43.88905" lon="6.93216">
        <ele>637.5</ele>
        <time>2013-06-08T06:46:12Z</time>
      </trkpt>
      <trkpt lat="43.88896" lon="6.93191">
        <ele>638</ele>
        <time>2013-06-08T06:46:18Z</time>
      </trkpt>
      <trkpt lat="43.88895" lon="6.93164">
        <ele>638.7</ele>
        <time>2013-06-08T06:46:24Z</time>
      </trkpt>
      <trkpt lat="43.88895" lon="6.93136">
        <ele>639.4</ele>
        <time>2013-06-08T06:46:30Z</time>
      </trkpt>
      <trkpt lat="43.88894" lon="6.93109">
        <ele>640</ele>
        <time>2013-06-08T06:46:36Z</time>
      </trkpt>
      <trkpt lat="43.88896" lon="6.93083">
        <ele>640.7</ele>
        <time>2013-06-08T06:46:42Z</time>
      </trkpt>
      <trkpt lat="43.88906" lon="6.93058">
        <ele>641.4</ele>
        <time>2013-06-08T06:46:48Z</time>
      </trkpt>
      <trkpt lat="43.88913" lon="6.93033">
        <ele>642.5</ele>
        <time>2013-06-08T06:46:54Z</time>
      </trkpt>
      <trkpt lat="43.88918" lon="6.93005">
        <ele>643.6</ele>
        <time>2013-06-08T06:47:00Z</time>
      </trkpt>
      <trkpt lat="43.8892" lon="6.92979">
        <ele>644.7</ele>
        <time>2013-06-08T06:47:06Z</time>
      </trkpt>
      <trkpt lat="43.88917" lon="6.92955">
        <ele>645.6</ele>
        <time>2013-06-08T06:47:12Z</time>
      </trkpt>
      <trkpt lat="43.88916" lon="6.92926">
        <ele>646.4</ele>
        <time>2013-06-08T06:47:18Z</time>
      </trkpt>
      <trkpt lat="43.88921" lon="6.92901">
        <ele>646.7</ele>
        <time>2013-06-08T06:47:24Z</time>
      </trkpt>
      <trkpt lat="43.88931" lon="6.92877">
        <ele>647.3</ele>
        <time>2013-06-08T06:47:30Z</time>
      </trkpt>
      <trkpt lat="43.88929" lon="6.92853">
        <ele>648.2</ele>
        <time>2013-06-08T06:47:36Z</time>
      </trkpt>
      <trkpt lat="43.88911" lon="6.9285">
        <ele>649.1</ele>
        <time>2013-06-08T06:47:42Z</time>
      </trkpt>
      <trkpt lat="43.88892" lon="6.92862">
        <ele>650</ele>
        <time>2013-06-08T06:47:48Z</time>
      </trkpt>
      <trkpt lat="43.88871" lon="6.92862">
        <ele>650.9</ele>
        <time>2013-06-08T06:47:54Z</time>
      </trkpt>
      <trkpt lat="43.88859" lon="6.9284">
        <ele>651.7</ele>
        <time>2013-06-08T06:48:00Z</time>
      </trkpt>
      <trkpt lat="43.88852" lon="6.92814">
        <ele>652.9</ele>
        <time>2013-06-08T06:48:06Z</time>
      </trkpt>
      <trkpt lat="43.88851" lon="6.92785">
        <ele>653.9</ele>
        <time>2013-06-08T06:48:12Z</time>
      </trkpt>
      <trkpt lat="43.88856" lon="6.92757">
        <ele>654.7</ele>
        <time>2013-06-08T06:48:18Z</time>
      </trkpt>
      <trkpt lat="43.88861" lon="6.9273">
        <ele>655.7</ele>
        <time>2013-06-08T06:48:24Z</time>
      </trkpt>
      <trkpt lat="43.88861" lon="6.92705">
        <ele>656.6</ele>
        <time>2013-06-08T06:48:30Z</time>
      </trkpt>
      <trkpt lat="43.88862" lon="6.92675">
        <ele>657.3</ele>
        <time>2013-06-08T06:48:36Z</time>
      </trkpt>
      <trkpt lat="43.88859" lon="6.92649">
        <ele>657.8</ele>
        <time>2013-06-08T06:48:42Z</time>
      </trkpt>
      <trkpt lat="43.88858" lon="6.92623">
        <ele>658.4</ele>
        <time>2013-06-08T06:48:48Z</time>
      </trkpt>
      <trkpt lat="43.88862" lon="6.92593">
        <ele>659.1</ele>
        <time>2013-06-08T06:48:54Z</time>
      </trkpt>
      <trkpt lat="43.88865" lon="6.92566">
        <ele>659.9</ele>
        <time>2013-06-08T06:49:00Z</time>
      </trkpt>
      <trkpt lat="43.88868" lon="6.9254">
        <ele>660.8</ele>
        <time>2013-06-08T06:49:06Z</time>
      </trkpt>
      <trkpt lat="43.88871" lon="6.92517">
        <ele>661.3</ele>
        <time>2013-06-08T06:49:12Z</time>
      </trkpt>
      <trkpt lat="43.88875" lon="6.9249">
        <ele>661.8</ele>
        <time>2013-06-08T06:49:18Z</time>
      </trkpt>
      <trkpt lat="43.8888" lon="6.92463">
        <ele>662.3</ele>
        <time>2013-06-08T06:49:24Z</time>
      </trkpt>
      <trkpt lat="43.88886" lon="6.92434">
        <ele>663</ele>
        <time>2013-06-08T06:49:30Z</time>
      </trkpt>
      <trkpt lat="43.88881" lon="6.92409">
        <ele>663.8</ele>
        <time>2013-06-08T06:49:36Z</time>
      </trkpt>
      <trkpt lat="43.88864" lon="6.92397">
        <ele>664.7</ele>
        <time>2013-06-08T06:49:42Z</time>
      </trkpt>
      <trkpt lat="43.88847" lon="6.92384">
        <ele>665.3</ele>
        <time>2013-06-08T06:49:48Z</time>
      </trkpt>
      <trkpt lat="43.88836" lon="6.92362">
        <ele>666.1</ele>
        <time>2013-06-08T06:49:54Z</time>
      </trkpt>
      <trkpt lat="43.88828" lon="6.92333">
        <ele>667.2</ele>
        <time>2013-06-08T06:50:00Z</time>
      </trkpt>
      <trkpt lat="43.88822" lon="6.92308">
        <ele>668.2</ele>
        <time>2013-06-08T06:50:06Z</time>
      </trkpt>
      <trkpt lat="43.88816" lon="6.92282">
        <ele>669.3</ele>
        <time>2013-06-08T06:50:12Z</time>
      </trkpt>
      <trkpt lat="43.88804" lon="6.92261">
        <ele>670.1</ele>
        <time>2013-06-08T06:50:18Z</time>
      </trkpt>
      <trkpt lat="43.88795" lon="6.92239">
        <ele>670.4</ele>
        <time>2013-06-08T06:50:24Z</time>
      </trkpt>
      <trkpt lat="43.88794" lon="6.9221">
        <ele>671.2</ele>
        <time>2013-06-08T06:50:30Z</time>
      </trkpt>
      <trkpt lat="43.88796" lon="6.92185">
        <ele>671.8</ele>
        <time>2013-06-08T06:50:36Z</time>
      </trkpt>
      <trkpt lat="43.8879" lon="6.92158">
        <ele>672.7</ele>
        <time>2013-06-08T06:50:42Z</time>
      </trkpt>
      <trkpt lat="43.88779" lon="6.92138">
        <ele>673.6</ele>
        <time>2013-06-08T06:50:48Z</time>
      </trkpt>
      <trkpt lat="43.8877" lon="6.92115">
        <ele>674.2</ele>
        <time>2013-06-08T06:50:54Z</time>
      </trkpt>
      <trkpt lat="43.88765" lon="6.9209">
        <ele>674.9</ele>
        <time>2013-06-08T06:51:00Z</time>
      </trkpt>
      <trkpt lat="43.88766" lon="6.92065">
        <ele>675.8</ele>
        <time>2013-06-08T06:51:06Z</time>
      </trkpt>
      <trkpt lat="43.88757" lon="6.92041">
        <ele>676.5</ele>
        <time>2013-06-08T06:51:12Z</time>
      </trkpt>
      <trkpt lat="43.88741" lon="6.92028">
        <ele>677.3</ele>
        <time>2013-06-08T06:51:18Z</time>
      </trkpt>
      <trkpt lat="43.88722" lon="6.92015">
        <ele>677.9</ele>
        <time>2013-06-08T06:51:24Z</time>
      </trkpt>
      <trkpt lat="43.88719" lon="6.91988">
        <ele>679</ele>
        <time>2013-06-08T06:51:30Z</time>
      </trkpt>
      <trkpt lat="43.88723" lon="6.9196">
        <ele>680</ele>
        <time>2013-06-08T06:51:36Z</time>
      </trkpt>
      <trkpt lat="43.88724" lon="6.9193">
        <ele>681</ele>
        <time>2013-06-08T06:51:42Z</time>
      </trkpt>
      <trkpt lat="43.8872" lon="6.91904">
        <ele>681.8</ele>
        <time>2013-06-08T06:51:48Z</time>
      </trkpt>
      <trkpt lat="43.88719" lon="6.91869">
        <ele>682.6</ele>
        <time>2013-06-08T06:51:54Z</time>
      </trkpt>
      <trkpt lat="43.88722" lon="6.91838">
        <ele>683.5</ele>
        <time>2013-06-08T06:52:00Z</time>
      </trkpt>
      <trkpt lat="43.88729" lon="6.91807">
        <ele>684.5</ele>
        <time>2013-06-08T06:52:06Z</time>
      </trkpt>
      <trkpt lat="43.88734" lon="6.91778">
        <ele>685.5</ele>
        <time>2013-06-08T06:52:12Z</time>
      </trkpt>
      <trkpt lat="43.8874" lon="6.91748">
        <ele>686</ele>
        <time>2013-06-08T06:52:18Z</time>
      </trkpt>
      <trkpt lat="43.88744" lon="6.91717">
        <ele>686.7</ele>
        <time>2013-06-08T06:52:24Z</time>
      </trkpt>
      <trkpt lat="43.88747" lon="6.91688">
        <ele>687.4</ele>
        <time>2013-06-08T06:52:30Z</time>
      </trkpt>
      <trkpt lat="43.88752" lon="6.91651">
        <ele>691.3</ele>
        <time>2013-06-08T06:52:36Z</time>
      </trkpt>
      <trkpt lat="43.88754" lon="6.91616">
        <ele>693.4</ele>
        <time>2013-06-08T06:52:42Z</time>
      </trkpt>
      <trkpt lat="43.8876" lon="6.91577">
        <ele>694.1</ele>
        <time>2013-06-08T06:52:48Z</time>
      </trkpt>
      <trkpt lat="43.88767" lon="6.9154">
        <ele>693.7</ele>
        <time>2013-06-08T06:52:54Z</time>
      </trkpt>
      <trkpt lat="43.88772" lon="6.91503">
        <ele>693.3</ele>
        <time>2013-06-08T06:53:00Z</time>
      </trkpt>
      <trkpt lat="43.88767" lon="6.91468">
        <ele>693.8</ele>
        <time>2013-06-08T06:53:06Z</time>
      </trkpt>
      <trkpt lat="43.88759" lon="6.91432">
        <ele>693.7</ele>
        <time>2013-06-08T06:53:12Z</time>
      </trkpt>
      <trkpt lat="43.88759" lon="6.91396">
        <ele>695.7</ele>
        <time>2013-06-08T06:53:18Z</time>
      </trkpt>
      <trkpt lat="43.88773" lon="6.91365">
        <ele>695.3</ele>
        <time>2013-06-08T06:53:24Z</time>
      </trkpt>
      <trkpt lat="43.88777" lon="6.91327">
        <ele>696.6</ele>
        <time>2013-06-08T06:53:30Z</time>
      </trkpt>
      <trkpt lat="43.88775" lon="6.91292">
        <ele>700.5</ele>
        <time>2013-06-08T06:53:36Z</time>
      </trkpt>
      <trkpt lat="43.8878" lon="6.91259">
        <ele>701.2</ele>
        <time>2013-06-08T06:53:42Z</time>
      </trkpt>
      <trkpt lat="43.88788" lon="6.91223">
        <ele>699.8</ele>
        <time>2013-06-08T06:53:48Z</time>
      </trkpt>
      <trkpt lat="43.88792" lon="6.91187">
        <ele>701.4</ele>
        <time>2013-06-08T06:53:54Z</time>
      </trkpt>
      <trkpt lat="43.88792" lon="6.91152">
        <ele>700.3</ele>
        <time>2013-06-08T06:54:00Z</time>
      </trkpt>
      <trkpt lat="43.88792" lon="6.91117">
        <ele>697.5</ele>
        <time>2013-06-08T06:54:06Z</time>
      </trkpt>
      <trkpt lat="43.88792" lon="6.91081">
        <ele>695.8</ele>
        <time>2013-06-08T06:54:12Z</time>
      </trkpt>
      <trkpt lat="43.88784" lon="6.91041">
        <ele>698.6</ele>
        <time>2013-06-08T06:54:18Z</time>
      </trkpt>
      <trkpt lat="43.88775" lon="6.91004">
        <ele>700.2</ele>
        <time>2013-06-08T06:54:24Z</time>
      </trkpt>
      <trkpt lat="43.88769" lon="6.90966">
        <ele>702.9</ele>
        <time>2013-06-08T06:54:30Z</time>
      </trkpt>
      <trkpt lat="43.88761" lon="6.9093">
        <ele>700.2</ele>
        <time>2013-06-08T06:54:36Z</time>
      </trkpt>
      <trkpt lat="43.88745" lon="6.909">
        <ele>699.7</ele>
        <time>2013-06-08T06:54:42Z</time>
      </trkpt>
      <trkpt lat="43.8873" lon="6.90869">
        <ele>702.7</ele>
        <time>2013-06-08T06:54:48Z</time>
      </trkpt>
      <trkpt lat="43.88719" lon="6.90834">
        <ele>705.2</ele>
        <time>2013-06-08T06:54:54Z</time>
      </trkpt>
      <trkpt lat="43.88711" lon="6.908">
        <ele>704.7</ele>
        <time>2013-06-08T06:55:00Z</time>
      </trkpt>
      <trkpt lat="43.88704" lon="6.90771">
        <ele>704.6</ele>
        <time>2013-06-08T06:55:06Z</time>
      </trkpt>
      <trkpt lat="43.88694" lon="6.90738">
        <ele>704.9</ele>
        <time>2013-06-08T06:55:12Z</time>
      </trkpt>
      <trkpt lat="43.88687" lon="6.90705">
        <ele>706.3</ele>
        <time>2013-06-08T06:55:18Z</time>
      </trkpt>
      <trkpt lat="43.88679" lon="6.90672">
        <ele>705.9</ele>
        <time>2013-06-08T06:55:24Z</time>
      </trkpt>
      <trkpt lat="43.88671" lon="6.90643">
        <ele>705.9</ele>
        <time>2013-06-08T06:55:30Z</time>
      </trkpt>
      <trkpt lat="43.88662" lon="6.90616">
        <ele>706.3</ele>
        <time>2013-06-08T06:55:36Z</time>
      </trkpt>
      <trkpt lat="43.88653" lon="6.90589">
        <ele>706.5</ele>
        <time>2013-06-08T06:55:42Z</time>
      </trkpt>
      <trkpt lat="43.88644" lon="6.9056">
        <ele>706.3</ele>
        <time>2013-06-08T06:55:48Z</time>
      </trkpt>
      <trkpt lat="43.88646" lon="6.90523">
        <ele>707.8</ele>
        <time>2013-06-08T06:55:54Z</time>
      </trkpt>
      <trkpt lat="43.88657" lon="6.90497">
        <ele>707.5</ele>
        <time>2013-06-08T06:56:00Z</time>
      </trkpt>
      <trkpt lat="43.8866" lon="6.90465">
        <ele>710</ele>
        <time>2013-06-08T06:56:06Z</time>
      </trkpt>
      <trkpt lat="43.88647" lon="6.90441">
        <ele>709.9</ele>
        <time>2013-06-08T06:56:12Z</time>
      </trkpt>
      <trkpt lat="43.88627" lon="6.9043">
        <ele>710.2</ele>
        <time>2013-06-08T06:56:18Z</time>
      </trkpt>
      <trkpt lat="43.88608" lon="6.90414">
        <ele>710.5</ele>
        <time>2013-06-08T06:56:24Z</time>
      </trkpt>
      <trkpt lat="43.88597" lon="6.90394">
        <ele>710.8</ele>
        <time>2013-06-08T06:56:30Z</time>
      </trkpt>
      <trkpt lat="43.88587" lon="6.90375">
        <ele>711.4</ele>
        <time>2013-06-08T06:56:36Z</time>
      </trkpt>
      <trkpt lat="43.88578" lon="6.90355">
        <ele>711.5</ele>
        <time>2013-06-08T06:56:42Z</time>
      </trkpt>
      <trkpt lat="43.88571" lon="6.90334">
        <ele>711.6</ele>
        <time>2013-06-08T06:56:48Z</time>
      </trkpt>
      <trkpt lat="43.88569" lon="6.90316">
        <ele>712.1</ele>
        <time>2013-06-08T06:56:54Z</time>
      </trkpt>
      <trkpt lat="43.8857" lon="6.90295">
        <ele>712.5</ele>
        <time>2013-06-08T06:57:00Z</time>
      </trkpt>
      <trkpt lat="43.88565" lon="6.90275">
        <ele>713.2</ele>
        <time>2013-06-08T06:57:06Z</time>
      </trkpt>
      <trkpt lat="43.88551" lon="6.90266">
        <ele>713.8</ele>
        <time>2013-06-08T06:57:12Z</time>
      </trkpt>
      <trkpt lat="43.88536" lon="6.90264">
        <ele>714.2</ele>
        <time>2013-06-08T06:57:18Z</time>
      </trkpt>
      <trkpt lat="43.88522" lon="6.90256">
        <ele>714.5</ele>
        <time>2013-06-08T06:57:24Z</time>
      </trkpt>
      <trkpt lat="43.88509" lon="6.90241">
        <ele>715.2</ele>
        <time>2013-06-08T06:57:30Z</time>
      </trkpt>
      <trkpt lat="43.88498" lon="6.90222">
        <ele>716.1</ele>
        <time>2013-06-08T06:57:36Z</time>
      </trkpt>
      <trkpt lat="43.88487" lon="6.90205">
        <ele>717</ele>
        <time>2013-06-08T06:57:42Z</time>
      </trkpt>
      <trkpt lat="43.88476" lon="6.90188">
        <ele>717.8</ele>
        <time>2013-06-08T06:57:48Z</time>
      </trkpt>
      <trkpt lat="43.88466" lon="6.90172">
        <ele>718.6</ele>
        <time>2013-06-08T06:57:54Z</time>
      </trkpt>
      <trkpt lat="43.8846" lon="6.90152">
        <ele>719.6</ele>
        <time>2013-06-08T06:58:00Z</time>
      </trkpt>
      <trkpt lat="43.88457" lon="6.90127">
        <ele>720.7</ele>
        <time>2013-06-08T06:58:06Z</time>
      </trkpt>
      <trkpt lat="43.8846" lon="6.90109">
        <ele>722</ele>
        <time>2013-06-08T06:58:12Z</time>
      </trkpt>
      <trkpt lat="43.88467" lon="6.9009">
        <ele>723.4</ele>
        <time>2013-06-08T06:58:18Z</time>
      </trkpt>
      <trkpt lat="43.88473" lon="6.90072">
        <ele>724.5</ele>
        <time>2013-06-08T06:58:24Z</time>
      </trkpt>
      <trkpt lat="43.88479" lon="6.90053">
        <ele>725</ele>
        <time>2013-06-08T06:58:30Z</time>
      </trkpt>
      <trkpt lat="43.88483" lon="6.9003">
        <ele>725.6</ele>
        <time>2013-06-08T06:58:36Z</time>
      </trkpt>
      <trkpt lat="43.88483" lon="6.90009">
        <ele>726.1</ele>
        <time>2013-06-08T06:58:42Z</time>
      </trkpt>
      <trkpt lat="43.88483" lon="6.89987">
        <ele>726.6</ele>
        <time>2013-06-08T06:58:48Z</time>
      </trkpt>
      <trkpt lat="43.88481" lon="6.89963">
        <ele>727.3</ele>
        <time>2013-06-08T06:58:54Z</time>
      </trkpt>
      <trkpt lat="43.88479" lon="6.89941">
        <ele>727.9</ele>
        <time>2013-06-08T06:59:00Z</time>
      </trkpt>
      <trkpt lat="43.88476" lon="6.89916">
        <ele>728.7</ele>
        <time>2013-06-08T06:59:06Z</time>
      </trkpt>
      <trkpt lat="43.88474" lon="6.89892">
        <ele>729.2</ele>
        <time>2013-06-08T06:59:12Z</time>
      </trkpt>
      <trkpt lat="43.88472" lon="6.89867">
        <ele>729.8</ele>
        <time>2013-06-08T06:59:18Z</time>
      </trkpt>
      <trkpt lat="43.88471" lon="6.89843">
        <ele>730.4</ele>
        <time>2013-06-08T06:59:24Z</time>
      </trkpt>
      <trkpt lat="43.88471" lon="6.89817">
        <ele>730.7</ele>
        <time>2013-06-08T06:59:30Z</time>
      </trkpt>
      <trkpt lat="43.88476" lon="6.89791">
        <ele>731.1</ele>
        <time>2013-06-08T06:59:36Z</time>
      </trkpt>
      <trkpt lat="43.88479" lon="6.89769">
        <ele>731.9</ele>
        <time>2013-06-08T06:59:42Z</time>
      </trkpt>
      <trkpt lat="43.88477" lon="6.89745">
        <ele>732.6</ele>
        <time>2013-06-08T06:59:48Z</time>
      </trkpt>
      <trkpt lat="43.88471" lon="6.89721">
        <ele>733.1</ele>
        <time>2013-06-08T06:59:54Z</time>
      </trkpt>
      <trkpt lat="43.88466" lon="6.89698">
        <ele>734.3</ele>
        <time>2013-06-08T07:00:00Z</time>
      </trkpt>
      <trkpt lat="43.88459" lon="6.89677">
        <ele>735.5</ele>
        <time>2013-06-08T07:00:06Z</time>
      </trkpt>
      <trkpt lat="43.88452" lon="6.89657">
        <ele>736.4</ele>
        <time>2013-06-08T07:00:12Z</time>
      </trkpt>
      <trkpt lat="43.88443" lon="6.89638">
        <ele>736.7</ele>
        <time>2013-06-08T07:00:18Z</time>
      </trkpt>
      <trkpt lat="43.88441" lon="6.89617">
        <ele>736.8</ele>
        <time>2013-06-08T07:00:24Z</time>
      </trkpt>
      <trkpt lat="43.88439" lon="6.89594">
        <ele>736.6</ele>
        <time>2013-06-08T07:00:30Z</time>
      </trkpt>
      <trkpt lat="43.88432" lon="6.89571">
        <ele>736.6</ele>
        <time>2013-06-08T07:00:36Z</time>
      </trkpt>
      <trkpt lat="43.88427" lon="6.8955">
        <ele>737.7</ele>
        <time>2013-06-08T07:00:42Z</time>
      </trkpt>
      <trkpt lat="43.88414" lon="6.89527">
        <ele>738.7</ele>
        <time>2013-06-08T07:00:48Z</time>
      </trkpt>
      <trkpt lat="43.88403" lon="6.89514">
        <ele>739.6</ele>
        <time>2013-06-08T07:00:54Z</time>
      </trkpt>
      <trkpt lat="43.88392" lon="6.89497">
        <ele>740.3</ele>
        <time>2013-06-08T07:01:00Z</time>
      </trkpt>
      <trkpt lat="43.88379" lon="6.89482">
        <ele>740.8</ele>
        <time>2013-06-08T07:01:06Z</time>
      </trkpt>
      <trkpt lat="43.88364" lon="6.89463">
        <ele>741.1</ele>
        <time>2013-06-08T07:01:12Z</time>
      </trkpt>
      <trkpt lat="43.88363" lon="6.89439">
        <ele>741.6</ele>
        <time>2013-06-08T07:01:18Z</time>
      </trkpt>
      <trkpt lat="43.88376" lon="6.89419">
        <ele>742.5</ele>
        <time>2013-06-08T07:01:24Z</time>
      </trkpt>
      <trkpt lat="43.88391" lon="6.89403">
        <ele>743.7</ele>
        <time>2013-06-08T07:01:30Z</time>
      </trkpt>
      <trkpt lat="43.88406" lon="6.89388">
        <ele>745.1</ele>
        <time>2013-06-08T07:01:36Z</time>
      </trkpt>
      <trkpt lat="43.88423" lon="6.89378">
        <ele>746.2</ele>
        <time>2013-06-08T07:01:42Z</time>
      </trkpt>
      <trkpt lat="43.88441" lon="6.89366">
        <ele>746.6</ele>
        <time>2013-06-08T07:01:48Z</time>
      </trkpt>
      <trkpt lat="43.88448" lon="6.89342">
        <ele>747</ele>
        <time>2013-06-08T07:01:54Z</time>
      </trkpt>
      <trkpt lat="43.88452" lon="6.89317">
        <ele>747.6</ele>
        <time>2013-06-08T07:02:00Z</time>
      </trkpt>
      <trkpt lat="43.88465" lon="6.89294">
        <ele>748.7</ele>
        <time>2013-06-08T07:02:06Z</time>
      </trkpt>
      <trkpt lat="43.88479" lon="6.89275">
        <ele>749.5</ele>
        <time>2013-06-08T07:02:12Z</time>
      </trkpt>
      <trkpt lat="43.88491" lon="6.89257">
        <ele>750.1</ele>
        <time>2013-06-08T07:02:18Z</time>
      </trkpt>
      <trkpt lat="43.88496" lon="6.89235">
        <ele>750.5</ele>
        <time>2013-06-08T07:02:24Z</time>
      </trkpt>
      <trkpt lat="43.88497" lon="6.89212">
        <ele>751</ele>
        <time>2013-06-08T07:02:30Z</time>
      </trkpt>
      <trkpt lat="43.88498" lon="6.89185">
        <ele>751.5</ele>
        <time>2013-06-08T07:02:36Z</time>
      </trkpt>
      <trkpt lat="43.88496" lon="6.89154">
        <ele>752.1</ele>
        <time>2013-06-08T07:02:42Z</time>
      </trkpt>
      <trkpt lat="43.88487" lon="6.89133">
        <ele>752.5</ele>
        <time>2013-06-08T07:02:48Z</time>
      </trkpt>
      <trkpt lat="43.88467" lon="6.89126">
        <ele>753</ele>
        <time>2013-06-08T07:02:54Z</time>
      </trkpt>
      <trkpt lat="43.88447" lon="6.89117">
        <ele>753.5</ele>
        <time>2013-06-08T07:03:00Z</time>
      </trkpt>
      <trkpt lat="43.88435" lon="6.89087">
        <ele>757.3</ele>
        <time>2013-06-08T07:03:06Z</time>
      </trkpt>
      <trkpt lat="43.88432" lon="6.8904">
        <ele>759</ele>
        <time>2013-06-08T07:03:12Z</time>
      </trkpt>
      <trkpt lat="43.88429" lon="6.88988">
        <ele>758.2</ele>
        <time>2013-06-08T07:03:18Z</time>
      </trkpt>
      <trkpt lat="43.88422" lon="6.88932">
        <ele>755.6</ele>
        <time>2013-06-08T07:03:24Z</time>
      </trkpt>
      <trkpt lat="43.88412" lon="6.8887">
        <ele>753.2</ele>
        <time>2013-06-08T07:03:30Z</time>
      </trkpt>
      <trkpt lat="43.88402" lon="6.88804">
        <ele>750</ele>
        <time>2013-06-08T07:03:36Z</time>
      </trkpt>
      <trkpt lat="43.88406" lon="6.88734">
        <ele>747.2</ele>
        <time>2013-06-08T07:03:42Z</time>
      </trkpt>
      <trkpt lat="43.88418" lon="6.88658">
        <ele>744.3</ele>
        <time>2013-06-08T07:03:48Z</time>
      </trkpt>
      <trkpt lat="43.8844" lon="6.88585">
        <ele>742</ele>
        <time>2013-06-08T07:03:54Z</time>
      </trkpt>
      <trkpt lat="43.88443" lon="6.8851">
        <ele>740</ele>
        <time>2013-06-08T07:04:00Z</time>
      </trkpt>
      <trkpt lat="43.88454" lon="6.88433">
        <ele>737.4</ele>
        <time>2013-06-08T07:04:06Z</time>
      </trkpt>
      <trkpt lat="43.88451" lon="6.88356">
        <ele>734.7</ele>
        <time>2013-06-08T07:04:12Z</time>
      </trkpt>
      <trkpt lat="43.88456" lon="6.88276">
        <ele>733.5</ele>
        <time>2013-06-08T07:04:18Z</time>
      </trkpt>
      <trkpt lat="43.88464" lon="6.882">
        <ele>729.8</ele>
        <time>2013-06-08T07:04:24Z</time>
      </trkpt>
      <trkpt lat="43.88457" lon="6.88119">
        <ele>727.3</ele>
        <time>2013-06-08T07:04:30Z</time>
      </trkpt>
      <trkpt lat="43.88442" lon="6.88042">
        <ele>723.3</ele>
        <time>2013-06-08T07:04:36Z</time>
      </trkpt>
      <trkpt lat="43.88431" lon="6.87966">
        <ele>720.2</ele>
        <time>2013-06-08T07:04:42Z</time>
      </trkpt>
      <trkpt lat="43.88413" lon="6.87905">
        <ele>715.8</ele>
        <time>2013-06-08T07:04:48Z</time>
      </trkpt>
      <trkpt lat="43.88402" lon="6.8784">
        <ele>711.9</ele>
        <time>2013-06-08T07:04:54Z</time>
      </trkpt>
      <trkpt lat="43.88358" lon="6.87819">
        <ele>709.1</ele>
        <time>2013-06-08T07:05:00Z</time>
      </trkpt>
      <trkpt lat="43.88372" lon="6.87756">
        <ele>707.6</ele>
        <time>2013-06-08T07:05:06Z</time>
      </trkpt>
      <trkpt lat="43.88375" lon="6.87687">
        <ele>704.6</ele>
        <time>2013-06-08T07:05:12Z</time>
      </trkpt>
      <trkpt lat="43.88364" lon="6.87614">
        <ele>704.1</ele>
        <time>2013-06-08T07:05:18Z</time>
      </trkpt>
      <trkpt lat="43.88357" lon="6.87537">
        <ele>699.8</ele>
        <time>2013-06-08T07:05:24Z</time>
      </trkpt>
      <trkpt lat="43.88336" lon="6.87465">
        <ele>695.7</ele>
        <time>2013-06-08T07:05:30Z</time>
      </trkpt>
      <trkpt lat="43.88294" lon="6.87412">
        <ele>692.9</ele>
        <time>2013-06-08T07:05:36Z</time>
      </trkpt>
      <trkpt lat="43.8829" lon="6.8734">
        <ele>690.7</ele>
        <time>2013-06-08T07:05:42Z</time>
      </trkpt>
      <trkpt lat="43.88337" lon="6.87318">
        <ele>690.2</ele>
        <time>2013-06-08T07:05:48Z</time>
      </trkpt>
      <trkpt lat="43.88353" lon="6.87273">
        <ele>687.2</ele>
        <time>2013-06-08T07:05:54Z</time>
      </trkpt>
      <trkpt lat="43.88347" lon="6.87207">
        <ele>685.9</ele>
        <time>2013-06-08T07:06:00Z</time>
      </trkpt>
      <trkpt lat="43.88362" lon="6.87142">
        <ele>681</ele>
        <time>2013-06-08T07:06:06Z</time>
      </trkpt>
      <trkpt lat="43.88406" lon="6.87109">
        <ele>681.2</ele>
        <time>2013-06-08T07:06:12Z</time>
      </trkpt>
      <trkpt lat="43.88391" lon="6.87057">
        <ele>680.3</ele>
        <time>2013-06-08T07:06:18Z</time>
      </trkpt>
      <trkpt lat="43.88367" lon="6.86994">
        <ele>676.8</ele>
        <time>2013-06-08T07:06:24Z</time>
      </trkpt>
      <trkpt lat="43.88363" lon="6.86926">
        <ele>670.2</ele>
        <time>2013-06-08T07:06:30Z</time>
      </trkpt>
      <trkpt lat="43.88389" lon="6.86872">
        <ele>667.1</ele>
        <time>2013-06-08T07:06:36Z</time>
      </trkpt>
      <trkpt lat="43.88435" lon="6.86895">
        <ele>666.6</ele>
        <time>2013-06-08T07:06:42Z</time>
      </trkpt>
      <trkpt lat="43.88467" lon="6.86869">
        <ele>662.5</ele>
        <time>2013-06-08T07:06:48Z</time>
      </trkpt>
      <trkpt lat="43.88511" lon="6.86835">
        <ele>661.3</ele>
        <time>2013-06-08T07:06:54Z</time>
      </trkpt>
      <trkpt lat="43.88563" lon="6.86812">
        <ele>659.3</ele>
        <time>2013-06-08T07:07:00Z</time>
      </trkpt>
      <trkpt lat="43.88609" lon="6.86769">
        <ele>655.9</ele>
        <time>2013-06-08T07:07:06Z</time>
      </trkpt>
      <trkpt lat="43.88653" lon="6.86735">
        <ele>657.2</ele>
        <time>2013-06-08T07:07:12Z</time>
      </trkpt>
      <trkpt lat="43.88691" lon="6.86686">
        <ele>655.2</ele>
        <time>2013-06-08T07:07:18Z</time>
      </trkpt>
      <trkpt lat="43.88697" lon="6.86626">
        <ele>650.3</ele>
        <time>2013-06-08T07:07:24Z</time>
      </trkpt>
      <trkpt lat="43.88694" lon="6.86548">
        <ele>646.9</ele>
        <time>2013-06-08T07:07:30Z</time>
      </trkpt>
      <trkpt lat="43.88721" lon="6.86472">
        <ele>641.6</ele>
        <time>2013-06-08T07:07:36Z</time>
      </trkpt>
      <trkpt lat="43.88751" lon="6.8642">
        <ele>640.7</ele>
        <time>2013-06-08T07:07:42Z</time>
      </trkpt>
      <trkpt lat="43.88777" lon="6.86385">
        <ele>639.9</ele>
        <time>2013-06-08T07:07:48Z</time>
      </trkpt>
      <trkpt lat="43.88814" lon="6.86359">
        <ele>640.4</ele>
        <time>2013-06-08T07:07:54Z</time>
      </trkpt>
      <trkpt lat="43.88811" lon="6.86326">
        <ele>633.6</ele>
        <time>2013-06-08T07:08:00Z</time>
      </trkpt>
      <trkpt lat="43.88783" lon="6.86313">
        <ele>633.6</ele>
        <time>2013-06-08T07:08:06Z</time>
      </trkpt>
      <trkpt lat="43.88761" lon="6.86329">
        <ele>634.3</ele>
        <time>2013-06-08T07:08:12Z</time>
      </trkpt>
      <trkpt lat="43.88746" lon="6.86341">
        <ele>634.7</ele>
        <time>2013-06-08T07:08:18Z</time>
      </trkpt>
      <trkpt lat="43.88731" lon="6.8635">
        <ele>634.7</ele>
        <time>2013-06-08T07:08:24Z</time>
      </trkpt>
      <trkpt lat="43.88717" lon="6.86336">
        <ele>634.5</ele>
        <time>2013-06-08T07:08:30Z</time>
      </trkpt>
      <trkpt lat="43.88709" lon="6.86313">
        <ele>633.7</ele>
        <time>2013-06-08T07:08:36Z</time>
      </trkpt>
      <trkpt lat="43.88703" lon="6.86294">
        <ele>633.4</ele>
        <time>2013-06-08T07:08:42Z</time>
      </trkpt>
      <trkpt lat="43.88695" lon="6.86275">
        <ele>633.2</ele>
        <time>2013-06-08T07:08:48Z</time>
      </trkpt>
      <trkpt lat="43.88687" lon="6.86255">
        <ele>633.1</ele>
        <time>2013-06-08T07:08:54Z</time>
      </trkpt>
      <trkpt lat="43.88682" lon="6.86235">
        <ele>633.1</ele>
        <time>2013-06-08T07:09:00Z</time>
      </trkpt>
      <trkpt lat="43.88677" lon="6.86213">
        <ele>633.1</ele>
        <time>2013-06-08T07:09:06Z</time>
      </trkpt>
      <trkpt lat="43.88671" lon="6.86195">
        <ele>633.6</ele>
        <time>2013-06-08T07:09:12Z</time>
      </trkpt>
      <trkpt lat="43.88663" lon="6.86174">
        <ele>633.9</ele>
        <time>2013-06-08T07:09:18Z</time>
      </trkpt>
      <trkpt lat="43.88659" lon="6.86156">
        <ele>634</ele>
        <time>2013-06-08T07:09:24Z</time>
      </trkpt>
      <trkpt lat="43.88654" lon="6.86135">
        <ele>634</ele>
        <time>2013-06-08T07:09:30Z</time>
      </trkpt>
      <trkpt lat="43.88649" lon="6.86114">
        <ele>633.8</ele>
        <time>2013-06-08T07:09:36Z</time>
      </trkpt>
      <trkpt lat="43.88646" lon="6.86093">
        <ele>633.9</ele>
        <time>2013-06-08T07:09:42Z</time>
      </trkpt>
      <trkpt lat="43.8865" lon="6.86069">
        <ele>634.9</ele>
        <time>2013-06-08T07:09:48Z</time>
      </trkpt>
      <trkpt lat="43.88661" lon="6.86048">
        <ele>635.9</ele>
        <time>2013-06-08T07:09:54Z</time>
      </trkpt>
      <trkpt lat="43.88674" lon="6.86032">
        <ele>637.8</ele>
        <time>2013-06-08T07:10:00Z</time>
      </trkpt>
      <trkpt lat="43.88681" lon="6.86012">
        <ele>638.9</ele>
        <time>2013-06-08T07:10:06Z</time>
      </trkpt>
      <trkpt lat="43.88682" lon="6.85996">
        <ele>639.7</ele>
        <time>2013-06-08T07:10:12Z</time>
      </trkpt>
      <trkpt lat="43.88679" lon="6.85975">
        <ele>641.2</ele>
        <time>2013-06-08T07:10:18Z</time>
      </trkpt>
      <trkpt lat="43.88675" lon="6.85958">
        <ele>642.8</ele>
        <time>2013-06-08T07:10:24Z</time>
      </trkpt>
      <trkpt lat="43.88674" lon="6.85941">
        <ele>643.8</ele>
        <time>2013-06-08T07:10:30Z</time>
      </trkpt>
      <trkpt lat="43.88674" lon="6.8592">
        <ele>643.5</ele>
        <time>2013-06-08T07:10:36Z</time>
      </trkpt>
      <trkpt lat="43.88677" lon="6.85899">
        <ele>642.9</ele>
        <time>2013-06-08T07:10:42Z</time>
      </trkpt>
      <trkpt lat="43.88677" lon="6.85881">
        <ele>643</ele>
        <time>2013-06-08T07:10:48Z</time>
      </trkpt>
      <trkpt lat="43.88678" lon="6.85859">
        <ele>643.9</ele>
        <time>2013-06-08T07:10:54Z</time>
      </trkpt>
      <trkpt lat="43.88675" lon="6.85842">
        <ele>644.9</ele>
        <time>2013-06-08T07:11:00Z</time>
      </trkpt>
      <trkpt lat="43.88671" lon="6.85823">
        <ele>646.2</ele>
        <time>2013-06-08T07:11:06Z</time>
      </trkpt>
      <trkpt lat="43.88668" lon="6.85801">
        <ele>648.1</ele>
        <time>2013-06-08T07:11:12Z</time>
      </trkpt>
      <trkpt lat="43.8867" lon="6.85782">
        <ele>650</ele>
        <time>2013-06-08T07:11:18Z</time>
      </trkpt>
      <trkpt lat="43.88673" lon="6.85761">
        <ele>651.5</ele>
        <time>2013-06-08T07:11:24Z</time>
      </trkpt>
      <trkpt lat="43.88672" lon="6.85743">
        <ele>652.9</ele>
        <time>2013-06-08T07:11:30Z</time>
      </trkpt>
      <trkpt lat="43.88668" lon="6.85728">
        <ele>654.1</ele>
        <time>2013-06-08T07:11:36Z</time>
      </trkpt>
      <trkpt lat="43.88663" lon="6.85709">
        <ele>654.9</ele>
        <time>2013-06-08T07:11:42Z</time>
      </trkpt>
      <trkpt lat="43.88658" lon="6.85689">
        <ele>655</ele>
        <time>2013-06-08T07:11:48Z</time>
      </trkpt>
      <trkpt lat="43.88653" lon="6.8567">
        <ele>655.7</ele>
        <time>2013-06-08T07:11:54Z</time>
      </trkpt>
      <trkpt lat="43.88649" lon="6.8565">
        <ele>656.5</ele>
        <time>2013-06-08T07:12:00Z</time>
      </trkpt>
      <trkpt lat="43.88646" lon="6.8563">
        <ele>657.7</ele>
        <time>2013-06-08T07:12:06Z</time>
      </trkpt>
      <trkpt lat="43.88642" lon="6.85615">
        <ele>659</ele>
        <time>2013-06-08T07:12:12Z</time>
      </trkpt>
      <trkpt lat="43.88637" lon="6.856">
        <ele>660.6</ele>
        <time>2013-06-08T07:12:18Z</time>
      </trkpt>
      <trkpt lat="43.88631" lon="6.85583">
        <ele>662.2</ele>
        <time>2013-06-08T07:12:24Z</time>
      </trkpt>
      <trkpt lat="43.88625" lon="6.85564">
        <ele>664</ele>
        <time>2013-06-08T07:12:30Z</time>
      </trkpt>
      <trkpt lat="43.88622" lon="6.85543">
        <ele>665.2</ele>
        <time>2013-06-08T07:12:36Z</time>
      </trkpt>
      <trkpt lat="43.88617" lon="6.85525">
        <ele>665.9</ele>
        <time>2013-06-08T07:12:42Z</time>
      </trkpt>
      <trkpt lat="43.88613" lon="6.85503">
        <ele>666.8</ele>
        <time>2013-06-08T07:12:48Z</time>
      </trkpt>
      <trkpt lat="43.88611" lon="6.85483">
        <ele>667.6</ele>
        <time>2013-06-08T07:12:54Z</time>
      </trkpt>
      <trkpt lat="43.88609" lon="6.85463">
        <ele>668.4</ele>
        <time>2013-06-08T07:13:00Z</time>
      </trkpt>
      <trkpt lat="43.88605" lon="6.8544">
        <ele>669.4</ele>
        <time>2013-06-08T07:13:06Z</time>
      </trkpt>
      <trkpt lat="43.88602" lon="6.8542">
        <ele>670.3</ele>
        <time>2013-06-08T07:13:12Z</time>
      </trkpt>
      <trkpt lat="43.88599" lon="6.85403">
        <ele>670.7</ele>
        <time>2013-06-08T07:13:18Z</time>
      </trkpt>
      <trkpt lat="43.88595" lon="6.85385">
        <ele>671.3</ele>
        <time>2013-06-08T07:13:24Z</time>
      </trkpt>
      <trkpt lat="43.88592" lon="6.85368">
        <ele>671.8</ele>
        <time>2013-06-08T07:13:30Z</time>
      </trkpt>
      <trkpt lat="43.88588" lon="6.85346">
        <ele>672.2</ele>
        <time>2013-06-08T07:13:36Z</time>
      </trkpt>
      <trkpt lat="43.88586" lon="6.85326">
        <ele>672.6</ele>
        <time>2013-06-08T07:13:42Z</time>
      </trkpt>
      <trkpt lat="43.88582" lon="6.85305">
        <ele>673.2</ele>
        <time>2013-06-08T07:13:48Z</time>
      </trkpt>
      <trkpt lat="43.88576" lon="6.85286">
        <ele>674.1</ele>
        <time>2013-06-08T07:13:54Z</time>
      </trkpt>
      <trkpt lat="43.8857" lon="6.85268">
        <ele>674.4</ele>
        <time>2013-06-08T07:14:00Z</time>
      </trkpt>
      <trkpt lat="43.88565" lon="6.85249">
        <ele>675</ele>
        <time>2013-06-08T07:14:06Z</time>
      </trkpt>
      <trkpt lat="43.88562" lon="6.85228">
        <ele>676.3</ele>
        <time>2013-06-08T07:14:12Z</time>
      </trkpt>
      <trkpt lat="43.88561" lon="6.85209">
        <ele>677.8</ele>
        <time>2013-06-08T07:14:18Z</time>
      </trkpt>
      <trkpt lat="43.88558" lon="6.85188">
        <ele>679.3</ele>
        <time>2013-06-08T07:14:24Z</time>
      </trkpt>
      <trkpt lat="43.88558" lon="6.85168">
        <ele>680.7</ele>
        <time>2013-06-08T07:14:30Z</time>
      </trkpt>
      <trkpt lat="43.88559" lon="6.85147">
        <ele>682.1</ele>
        <time>2013-06-08T07:14:36Z</time>
      </trkpt>
      <trkpt lat="43.88555" lon="6.85129">
        <ele>683.8</ele>
        <time>2013-06-08T07:14:42Z</time>
      </trkpt>
      <trkpt lat="43.88552" lon="6.85131">
        <ele>685.4</ele>
        <time>2013-06-08T07:14:48Z</time>
      </trkpt>
      <trkpt lat="43.88559" lon="6.85139">
        <ele>686.9</ele>
        <time>2013-06-08T07:14:54Z</time>
      </trkpt>
      <trkpt lat="43.88561" lon="6.85161">
        <ele>688.2</ele>
        <time>2013-06-08T07:15:00Z</time>
      </trkpt>
      <trkpt lat="43.88562" lon="6.85179">
        <ele>689.3</ele>
        <time>2013-06-08T07:15:06Z</time>
      </trkpt>
      <trkpt lat="43.88564" lon="6.85193">
        <ele>690.6</ele>
        <time>2013-06-08T07:15:12Z</time>
      </trkpt>
      <trkpt lat="43.88564" lon="6.85179">
        <ele>691.5</ele>
        <time>2013-06-08T07:15:18Z</time>
      </trkpt>
      <trkpt lat="43.88562" lon="6.85161">
        <ele>691.8</ele>
        <time>2013-06-08T07:15:24Z</time>
      </trkpt>
      <trkpt lat="43.88559" lon="6.85141">
        <ele>691.8</ele>
        <time>2013-06-08T07:15:30Z</time>
      </trkpt>
      <trkpt lat="43.88554" lon="6.85124">
        <ele>692.2</ele>
        <time>2013-06-08T07:15:36Z</time>
      </trkpt>
      <trkpt lat="43.88548" lon="6.85106">
        <ele>692.6</ele>
        <time>2013-06-08T07:15:42Z</time>
      </trkpt>
      <trkpt lat="43.88541" lon="6.8509">
        <ele>693.3</ele>
        <time>2013-06-08T07:15:48Z</time>
      </trkpt>
      <trkpt lat="43.88537" lon="6.85069">
        <ele>694.2</ele>
        <time>2013-06-08T07:15:54Z</time>
      </trkpt>
      <trkpt lat="43.88535" lon="6.85046">
        <ele>695.1</ele>
        <time>2013-06-08T07:16:00Z</time>
      </trkpt>
      <trkpt lat="43.88534" lon="6.85024">
        <ele>695.9</ele>
        <time>2013-06-08T07:16:06Z</time>
      </trkpt>
      <trkpt lat="43.8853" lon="6.85003">
        <ele>696.9</ele>
        <time>2013-06-08T07:16:12Z</time>
      </trkpt>
      <trkpt lat="43.88527" lon="6.84984">
        <ele>697.9</ele>
        <time>2013-06-08T07:16:18Z</time>
      </trkpt>
      <trkpt lat="43.88524" lon="6.84969">
        <ele>699.1</ele>
        <time>2013-06-08T07:16:24Z</time>
      </trkpt>
      <trkpt lat="43.88519" lon="6.84954">
        <ele>700.3</ele>
        <time>2013-06-08T07:16:30Z</time>
      </trkpt>
      <trkpt lat="43.88516" lon="6.84937">
        <ele>701.5</ele>
        <time>2013-06-08T07:16:36Z</time>
      </trkpt>
      <trkpt lat="43.88514" lon="6.84916">
        <ele>702.5</ele>
        <time>2013-06-08T07:16:42Z</time>
      </trkpt>
      <trkpt lat="43.88513" lon="6.84897">
        <ele>703.3</ele>
        <time>2013-06-08T07:16:48Z</time>
      </trkpt>
      <trkpt lat="43.88511" lon="6.84878">
        <ele>704</ele>
        <time>2013-06-08T07:16:54Z</time>
      </trkpt>
      <trkpt lat="43.88509" lon="6.8486">
        <ele>704.7</ele>
        <time>2013-06-08T07:17:00Z</time>
      </trkpt>
      <trkpt lat="43.88505" lon="6.84844">
        <ele>705.8</ele>
        <time>2013-06-08T07:17:06Z</time>
      </trkpt>
      <trkpt lat="43.88501" lon="6.84827">
        <ele>706.8</ele>
        <time>2013-06-08T07:17:12Z</time>
      </trkpt>
      <trkpt lat="43.88498" lon="6.8481">
        <ele>707.6</ele>
        <time>2013-06-08T07:17:18Z</time>
      </trkpt>
      <trkpt lat="43.88495" lon="6.84791">
        <ele>708.1</ele>
        <time>2013-06-08T07:17:24Z</time>
      </trkpt>
      <trkpt lat="43.88494" lon="6.84773">
        <ele>708.6</ele>
        <time>2013-06-08T07:17:30Z</time>
      </trkpt>
      <trkpt lat="43.88492" lon="6.84756">
        <ele>709.7</ele>
        <time>2013-06-08T07:17:36Z</time>
      </trkpt>
      <trkpt lat="43.88489" lon="6.84741">
        <ele>711</ele>
        <time>2013-06-08T07:17:42Z</time>
      </trkpt>
      <trkpt lat="43.88484" lon="6.84723">
        <ele>712</ele>
        <time>2013-06-08T07:17:48Z</time>
      </trkpt>
      <trkpt lat="43.88481" lon="6.84708">
        <ele>712.9</ele>
        <time>2013-06-08T07:17:54Z</time>
      </trkpt>
      <trkpt lat="43.88478" lon="6.84691">
        <ele>713.6</ele>
        <time>2013-06-08T07:18:00Z</time>
      </trkpt>
      <trkpt lat="43.88477" lon="6.84674">
        <ele>714.5</ele>
        <time>2013-06-08T07:18:06Z</time>
      </trkpt>
      <trkpt lat="43.88478" lon="6.84655">
        <ele>715.3</ele>
        <time>2013-06-08T07:18:12Z</time>
      </trkpt>
      <trkpt lat="43.88481" lon="6.84638">
        <ele>716</ele>
        <time>2013-06-08T07:18:18Z</time>
      </trkpt>
      <trkpt lat="43.88484" lon="6.84619">
        <ele>717</ele>
        <time>2013-06-08T07:18:24Z</time>
      </trkpt>
      <trkpt lat="43.88484" lon="6.84601">
        <ele>717.9</ele>
        <time>2013-06-08T07:18:30Z</time>
      </trkpt>
      <trkpt lat="43.88482" lon="6.84586">
        <ele>719.1</ele>
        <time>2013-06-08T07:18:36Z</time>
      </trkpt>
      <trkpt lat="43.88478" lon="6.84569">
        <ele>719.9</ele>
        <time>2013-06-08T07:18:42Z</time>
      </trkpt>
      <trkpt lat="43.88476" lon="6.84555">
        <ele>720.7</ele>
        <time>2013-06-08T07:18:48Z</time>
      </trkpt>
      <trkpt lat="43.88473" lon="6.8454">
        <ele>721.3</ele>
        <time>2013-06-08T07:18:54Z</time>
      </trkpt>
      <trkpt lat="43.88472" lon="6.84523">
        <ele>722.3</ele>
        <time>2013-06-08T07:19:00Z</time>
      </trkpt>
      <trkpt lat="43.88471" lon="6.84506">
        <ele>723.1</ele>
        <time>2013-06-08T07:19:06Z</time>
      </trkpt>
      <trkpt lat="43.88471" lon="6.84492">
        <ele>723.6</ele>
        <time>2013-06-08T07:19:12Z</time>
      </trkpt>
      <trkpt lat="43.88472" lon="6.84476">
        <ele>724.4</ele>
        <time>2013-06-08T07:19:18Z</time>
      </trkpt>
      <trkpt lat="43.88469" lon="6.84463">
        <ele>725.2</ele>
        <time>2013-06-08T07:19:24Z</time>
      </trkpt>
      <trkpt lat="43.88465" lon="6.84445">
        <ele>726.6</ele>
        <time>2013-06-08T07:19:30Z</time>
      </trkpt>
      <trkpt lat="43.88459" lon="6.84429">
        <ele>727.5</ele>
        <time>2013-06-08T07:19:36Z</time>
      </trkpt>
      <trkpt lat="43.88458" lon="6.8441">
        <ele>728</ele>
        <time>2013-06-08T07:19:42Z</time>
      </trkpt>
      <trkpt lat="43.88456" lon="6.84389">
        <ele>728.5</ele>
        <time>2013-06-08T07:19:48Z</time>
      </trkpt>
      <trkpt lat="43.88454" lon="6.84373">
        <ele>729.3</ele>
        <time>2013-06-08T07:19:54Z</time>
      </trkpt>
      <trkpt lat="43.88451" lon="6.84356">
        <ele>730.4</ele>
        <time>2013-06-08T07:20:00Z</time>
      </trkpt>
      <trkpt lat="43.88448" lon="6.84341">
        <ele>731.7</ele>
        <time>2013-06-08T07:20:06Z</time>
      </trkpt>
      <trkpt lat="43.88445" lon="6.84324">
        <ele>733.1</ele>
        <time>2013-06-08T07:20:12Z</time>
      </trkpt>
      <trkpt lat="43.88442" lon="6.84308">
        <ele>734</ele>
        <time>2013-06-08T07:20:18Z</time>
      </trkpt>
      <trkpt lat="43.88442" lon="6.8429">
        <ele>734.8</ele>
        <time>2013-06-08T07:20:24Z</time>
      </trkpt>
      <trkpt lat="43.8844" lon="6.84276">
        <ele>735.5</ele>
        <time>2013-06-08T07:20:30Z</time>
      </trkpt>
      <trkpt lat="43.88437" lon="6.84259">
        <ele>736</ele>
        <time>2013-06-08T07:20:36Z</time>
      </trkpt>
      <trkpt lat="43.88435" lon="6.84245">
        <ele>736.7</ele>
        <time>2013-06-08T07:20:42Z</time>
      </trkpt>
      <trkpt lat="43.88431" lon="6.84228">
        <ele>737.4</ele>
        <time>2013-06-08T07:20:48Z</time>
      </trkpt>
      <trkpt lat="43.88427" lon="6.84211">
        <ele>738.2</ele>
        <time>2013-06-08T07:20:54Z</time>
      </trkpt>
      <trkpt lat="43.88425" lon="6.84196">
        <ele>739.4</ele>
        <time>2013-06-08T07:21:00Z</time>
      </trkpt>
      <trkpt lat="43.88424" lon="6.84181">
        <ele>740.5</ele>
        <time>2013-06-08T07:21:06Z</time>
      </trkpt>
      <trkpt lat="43.88422" lon="6.84164">
        <ele>741.9</ele>
        <time>2013-06-08T07:21:12Z</time>
      </trkpt>
      <trkpt lat="43.88419" lon="6.84143">
        <ele>743.3</ele>
        <time>2013-06-08T07:21:18Z</time>
      </trkpt>
      <trkpt lat="43.88417" lon="6.84128">
        <ele>744.6</ele>
        <time>2013-06-08T07:21:24Z</time>
      </trkpt>
      <trkpt lat="43.88414" lon="6.84111">
        <ele>745.6</ele>
        <time>2013-06-08T07:21:30Z</time>
      </trkpt>
      <trkpt lat="43.88411" lon="6.84096">
        <ele>746.4</ele>
        <time>2013-06-08T07:21:36Z</time>
      </trkpt>
      <trkpt lat="43.88409" lon="6.8408">
        <ele>746.7</ele>
        <time>2013-06-08T07:21:42Z</time>
      </trkpt>
      <trkpt lat="43.88405" lon="6.84065">
        <ele>747.6</ele>
        <time>2013-06-08T07:21:48Z</time>
      </trkpt>
      <trkpt lat="43.88401" lon="6.84045">
        <ele>748.7</ele>
        <time>2013-06-08T07:21:54Z</time>
      </trkpt>
      <trkpt lat="43.88399" lon="6.84028">
        <ele>749.3</ele>
        <time>2013-06-08T07:22:00Z</time>
      </trkpt>
      <trkpt lat="43.88395" lon="6.8401">
        <ele>750.4</ele>
        <time>2013-06-08T07:22:06Z</time>
      </trkpt>
      <trkpt lat="43.88395" lon="6.83991">
        <ele>751</ele>
        <time>2013-06-08T07:22:12Z</time>
      </trkpt>
      <trkpt lat="43.88392" lon="6.83973">
        <ele>751.8</ele>
        <time>2013-06-08T07:22:18Z</time>
      </trkpt>
      <trkpt lat="43.88387" lon="6.83956">
        <ele>752.6</ele>
        <time>2013-06-08T07:22:24Z</time>
      </trkpt>
      <trkpt lat="43.88382" lon="6.8394">
        <ele>753.2</ele>
        <time>2013-06-08T07:22:30Z</time>
      </trkpt>
      <trkpt lat="43.88376" lon="6.83924">
        <ele>753.4</ele>
        <time>2013-06-08T07:22:36Z</time>
      </trkpt>
      <trkpt lat="43.88374" lon="6.83909">
        <ele>753.9</ele>
        <time>2013-06-08T07:22:42Z</time>
      </trkpt>
      <trkpt lat="43.88372" lon="6.83894">
        <ele>754.9</ele>
        <time>2013-06-08T07:22:48Z</time>
      </trkpt>
      <trkpt lat="43.88368" lon="6.83876">
        <ele>756</ele>
        <time>2013-06-08T07:22:54Z</time>
      </trkpt>
      <trkpt lat="43.88365" lon="6.83859">
        <ele>757.3</ele>
        <time>2013-06-08T07:23:00Z</time>
      </trkpt>
      <trkpt lat="43.88361" lon="6.8384">
        <ele>758.5</ele>
        <time>2013-06-08T07:23:06Z</time>
      </trkpt>
      <trkpt lat="43.88358" lon="6.83821">
        <ele>759.3</ele>
        <time>2013-06-08T07:23:12Z</time>
      </trkpt>
      <trkpt lat="43.88358" lon="6.83804">
        <ele>760.3</ele>
        <time>2013-06-08T07:23:18Z</time>
      </trkpt>
      <trkpt lat="43.88355" lon="6.83786">
        <ele>761.4</ele>
        <time>2013-06-08T07:23:24Z</time>
      </trkpt>
      <trkpt lat="43.88352" lon="6.8377">
        <ele>762.5</ele>
        <time>2013-06-08T07:23:30Z</time>
      </trkpt>
      <trkpt lat="43.88348" lon="6.83752">
        <ele>763.7</ele>
        <time>2013-06-08T07:23:36Z</time>
      </trkpt>
      <trkpt lat="43.88346" lon="6.83732">
        <ele>764.9</ele>
        <time>2013-06-08T07:23:42Z</time>
      </trkpt>
      <trkpt lat="43.88344" lon="6.83713">
        <ele>765.6</ele>
        <time>2013-06-08T07:23:48Z</time>
      </trkpt>
      <trkpt lat="43.88341" lon="6.83695">
        <ele>766.6</ele>
        <time>2013-06-08T07:23:54Z</time>
      </trkpt>
      <trkpt lat="43.8834" lon="6.83678">
        <ele>767.8</ele>
        <time>2013-06-08T07:24:00Z</time>
      </trkpt>
      <trkpt lat="43.88338" lon="6.83659">
        <ele>769</ele>
        <time>2013-06-08T07:24:06Z</time>
      </trkpt>
      <trkpt lat="43.88336" lon="6.83641">
        <ele>770</ele>
        <time>2013-06-08T07:24:12Z</time>
      </trkpt>
      <trkpt lat="43.88334" lon="6.83623">
        <ele>771</ele>
        <time>2013-06-08T07:24:18Z</time>
      </trkpt>
      <trkpt lat="43.88332" lon="6.83604">
        <ele>771.9</ele>
        <time>2013-06-08T07:24:24Z</time>
      </trkpt>
      <trkpt lat="43.8833" lon="6.83584">
        <ele>772.6</ele>
        <time>2013-06-08T07:24:30Z</time>
      </trkpt>
      <trkpt lat="43.88331" lon="6.83565">
        <ele>773.7</ele>
        <time>2013-06-08T07:24:36Z</time>
      </trkpt>
      <trkpt lat="43.88329" lon="6.83548">
        <ele>775</ele>
        <time>2013-06-08T07:24:42Z</time>
      </trkpt>
      <trkpt lat="43.88326" lon="6.83531">
        <ele>776.2</ele>
        <time>2013-06-08T07:24:48Z</time>
      </trkpt>
      <trkpt lat="43.88322" lon="6.83512">
        <ele>776.7</ele>
        <time>2013-06-08T07:24:54Z</time>
      </trkpt>
      <trkpt lat="43.88318" lon="6.83496">
        <ele>777.2</ele>
        <time>2013-06-08T07:25:00Z</time>
      </trkpt>
      <trkpt lat="43.88315" lon="6.83477">
        <ele>777.7</ele>
        <time>2013-06-08T07:25:06Z</time>
      </trkpt>
      <trkpt lat="43.88314" lon="6.8346">
        <ele>778.5</ele>
        <time>2013-06-08T07:25:12Z</time>
      </trkpt>
      <trkpt lat="43.88311" lon="6.83444">
        <ele>779.6</ele>
        <time>2013-06-08T07:25:18Z</time>
      </trkpt>
      <trkpt lat="43.8831" lon="6.83426">
        <ele>780.3</ele>
        <time>2013-06-08T07:25:24Z</time>
      </trkpt>
      <trkpt lat="43.88308" lon="6.83408">
        <ele>780.8</ele>
        <time>2013-06-08T07:25:30Z</time>
      </trkpt>
      <trkpt lat="43.88307" lon="6.83389">
        <ele>781.8</ele>
        <time>2013-06-08T07:25:36Z</time>
      </trkpt>
      <trkpt lat="43.88307" lon="6.83372">
        <ele>782.3</ele>
        <time>2013-06-08T07:25:42Z</time>
      </trkpt>
      <trkpt lat="43.88305" lon="6.83353">
        <ele>783.2</ele>
        <time>2013-06-08T07:25:48Z</time>
      </trkpt>
      <trkpt lat="43.88305" lon="6.83334">
        <ele>784.5</ele>
        <time>2013-06-08T07:25:54Z</time>
      </trkpt>
      <trkpt lat="43.88304" lon="6.83317">
        <ele>786.1</ele>
        <time>2013-06-08T07:26:00Z</time>
      </trkpt>
      <trkpt lat="43.88303" lon="6.83297">
        <ele>787.4</ele>
        <time>2013-06-08T07:26:06Z</time>
      </trkpt>
      <trkpt lat="43.88303" lon="6.8328">
        <ele>788.2</ele>
        <time>2013-06-08T07:26:12Z</time>
      </trkpt>
      <trkpt lat="43.88304" lon="6.8326">
        <ele>789.1</ele>
        <time>2013-06-08T07:26:18Z</time>
      </trkpt>
      <trkpt lat="43.88303" lon="6.8324">
        <ele>790.2</ele>
        <time>2013-06-08T07:26:24Z</time>
      </trkpt>
      <trkpt lat="43.88302" lon="6.83224">
        <ele>791.4</ele>
        <time>2013-06-08T07:26:30Z</time>
      </trkpt>
      <trkpt lat="43.88302" lon="6.83207">
        <ele>792.7</ele>
        <time>2013-06-08T07:26:36Z</time>
      </trkpt>
      <trkpt lat="43.883" lon="6.83186">
        <ele>793.8</ele>
        <time>2013-06-08T07:26:42Z</time>
      </trkpt>
      <trkpt lat="43.88297" lon="6.83167">
        <ele>794.8</ele>
        <time>2013-06-08T07:26:48Z</time>
      </trkpt>
      <trkpt lat="43.88296" lon="6.83147">
        <ele>796</ele>
        <time>2013-06-08T07:26:54Z</time>
      </trkpt>
      <trkpt lat="43.88295" lon="6.83134">
        <ele>796.9</ele>
        <time>2013-06-08T07:27:00Z</time>
      </trkpt>
      <trkpt lat="43.88293" lon="6.83115">
        <ele>798</ele>
        <time>2013-06-08T07:27:06Z</time>
      </trkpt>
      <trkpt lat="43.88292" lon="6.83098">
        <ele>799.1</ele>
        <time>2013-06-08T07:27:12Z</time>
      </trkpt>
      <trkpt lat="43.88291" lon="6.8308">
        <ele>799.8</ele>
        <time>2013-06-08T07:27:18Z</time>
      </trkpt>
      <trkpt lat="43.88291" lon="6.83062">
        <ele>800.3</ele>
        <time>2013-06-08T07:27:24Z</time>
      </trkpt>
      <trkpt lat="43.88291" lon="6.83048">
        <ele>800.9</ele>
        <time>2013-06-08T07:27:30Z</time>
      </trkpt>
      <trkpt lat="43.88291" lon="6.83027">
        <ele>801.5</ele>
        <time>2013-06-08T07:27:36Z</time>
      </trkpt>
      <trkpt lat="43.88292" lon="6.83009">
        <ele>802.1</ele>
        <time>2013-06-08T07:27:42Z</time>
      </trkpt>
      <trkpt lat="43.88291" lon="6.82993">
        <ele>802.8</ele>
        <time>2013-06-08T07:27:48Z</time>
      </trkpt>
      <trkpt lat="43.8829" lon="6.82977">
        <ele>804</ele>
        <time>2013-06-08T07:27:54Z</time>
      </trkpt>
      <trkpt lat="43.8829" lon="6.82955">
        <ele>805.2</ele>
        <time>2013-06-08T07:28:00Z</time>
      </trkpt>
      <trkpt lat="43.88289" lon="6.82941">
        <ele>806.2</ele>
        <time>2013-06-08T07:28:06Z</time>
      </trkpt>
      <trkpt lat="43.8829" lon="6.82922">
        <ele>807.1</ele>
        <time>2013-06-08T07:28:12Z</time>
      </trkpt>
      <trkpt lat="43.88289" lon="6.82905">
        <ele>808.1</ele>
        <time>2013-06-08T07:28:18Z</time>
      </trkpt>
      <trkpt lat="43.88288" lon="6.82886">
        <ele>809</ele>
        <time>2013-06-08T07:28:24Z</time>
      </trkpt>
      <trkpt lat="43.88285" lon="6.82867">
        <ele>809.6</ele>
        <time>2013-06-08T07:28:30Z</time>
      </trkpt>
      <trkpt lat="43.88283" lon="6.82853">
        <ele>810.4</ele>
        <time>2013-06-08T07:28:36Z</time>
      </trkpt>
      <trkpt lat="43.88282" lon="6.82834">
        <ele>811.4</ele>
        <time>2013-06-08T07:28:42Z</time>
      </trkpt>
      <trkpt lat="43.88282" lon="6.82815">
        <ele>812.5</ele>
        <time>2013-06-08T07:28:48Z</time>
      </trkpt>
      <trkpt lat="43.88279" lon="6.82798">
        <ele>813.1</ele>
        <time>2013-06-08T07:28:54Z</time>
      </trkpt>
      <trkpt lat="43.88278" lon="6.82782">
        <ele>813.7</ele>
        <time>2013-06-08T07:29:00Z</time>
      </trkpt>
      <trkpt lat="43.88278" lon="6.82764">
        <ele>814.4</ele>
        <time>2013-06-08T07:29:06Z</time>
      </trkpt>
      <trkpt lat="43.88279" lon="6.82749">
        <ele>815.4</ele>
        <time>2013-06-08T07:29:12Z</time>
      </trkpt>
      <trkpt lat="43.88275" lon="6.8273">
        <ele>816.7</ele>
        <time>2013-06-08T07:29:18Z</time>
      </trkpt>
      <trkpt lat="43.88271" lon="6.82716">
        <ele>817.6</ele>
        <time>2013-06-08T07:29:24Z</time>
      </trkpt>
      <trkpt lat="43.88268" lon="6.82697">
        <ele>818.2</ele>
        <time>2013-06-08T07:29:30Z</time>
      </trkpt>
      <trkpt lat="43.88265" lon="6.82682">
        <ele>819.1</ele>
        <time>2013-06-08T07:29:36Z</time>
      </trkpt>
      <trkpt lat="43.88262" lon="6.82663">
        <ele>820</ele>
        <time>2013-06-08T07:29:42Z</time>
      </trkpt>
      <trkpt lat="43.88262" lon="6.82648">
        <ele>821.4</ele>
        <time>2013-06-08T07:29:48Z</time>
      </trkpt>
      <trkpt lat="43.88261" lon="6.82634">
        <ele>822.7</ele>
        <time>2013-06-08T07:29:54Z</time>
      </trkpt>
      <trkpt lat="43.88259" lon="6.82618">
        <ele>823.6</ele>
        <time>2013-06-08T07:30:00Z</time>
      </trkpt>
      <trkpt lat="43.88257" lon="6.82602">
        <ele>824.6</ele>
        <time>2013-06-08T07:30:06Z</time>
      </trkpt>
      <trkpt lat="43.88256" lon="6.82595">
        <ele>825.2</ele>
        <time>2013-06-08T07:30:12Z</time>
      </trkpt>
      <trkpt lat="43.88258" lon="6.82596">
        <ele>825.7</ele>
        <time>2013-06-08T07:30:18Z</time>
      </trkpt>
      <trkpt lat="43.88256" lon="6.82595">
        <ele>826.7</ele>
        <time>2013-06-08T07:30:24Z</time>
      </trkpt>
      <trkpt lat="43.88259" lon="6.82606">
        <ele>826.8</ele>
        <time>2013-06-08T07:30:30Z</time>
      </trkpt>
      <trkpt lat="43.88261" lon="6.82622">
        <ele>826.9</ele>
        <time>2013-06-08T07:30:36Z</time>
      </trkpt>
      <trkpt lat="43.88262" lon="6.82639">
        <ele>827.3</ele>
        <time>2013-06-08T07:30:42Z</time>
      </trkpt>
      <trkpt lat="43.88262" lon="6.8265">
        <ele>827.5</ele>
        <time>2013-06-08T07:30:48Z</time>
      </trkpt>
      <trkpt lat="43.88265" lon="6.82664">
        <ele>827.8</ele>
        <time>2013-06-08T07:30:54Z</time>
      </trkpt>
      <trkpt lat="43.88269" lon="6.8268">
        <ele>827.7</ele>
        <time>2013-06-08T07:31:00Z</time>
      </trkpt>
      <trkpt lat="43.88273" lon="6.82697">
        <ele>827.7</ele>
        <time>2013-06-08T07:31:06Z</time>
      </trkpt>
      <trkpt lat="43.88276" lon="6.82713">
        <ele>827.6</ele>
        <time>2013-06-08T07:31:12Z</time>
      </trkpt>
      <trkpt lat="43.88277" lon="6.82729">
        <ele>827.5</ele>
        <time>2013-06-08T07:31:18Z</time>
      </trkpt>
      <trkpt lat="43.88278" lon="6.82739">
        <ele>827.5</ele>
        <time>2013-06-08T07:31:24Z</time>
      </trkpt>
      <trkpt lat="43.88278" lon="6.82752">
        <ele>827.8</ele>
        <time>2013-06-08T07:31:30Z</time>
      </trkpt>
      <trkpt lat="43.88279" lon="6.82764">
        <ele>827.9</ele>
        <time>2013-06-08T07:31:36Z</time>
      </trkpt>
      <trkpt lat="43.88281" lon="6.82777">
        <ele>827.4</ele>
        <time>2013-06-08T07:31:42Z</time>
      </trkpt>
      <trkpt lat="43.88282" lon="6.82787">
        <ele>827</ele>
        <time>2013-06-08T07:31:48Z</time>
      </trkpt>
      <trkpt lat="43.88283" lon="6.82796">
        <ele>826.9</ele>
        <time>2013-06-08T07:31:54Z</time>
      </trkpt>
      <trkpt lat="43.88285" lon="6.82805">
        <ele>826.7</ele>
        <time>2013-06-08T07:32:00Z</time>
      </trkpt>
      <trkpt lat="43.88287" lon="6.82817">
        <ele>826.3</ele>
        <time>2013-06-08T07:32:06Z</time>
      </trkpt>
      <trkpt lat="43.88288" lon="6.82827">
        <ele>826</ele>
        <time>2013-06-08T07:32:12Z</time>
      </trkpt>
      <trkpt lat="43.88289" lon="6.82839">
        <ele>825.3</ele>
        <time>2013-06-08T07:32:18Z</time>
      </trkpt>
      <trkpt lat="43.88289" lon="6.82851">
        <ele>824.3</ele>
        <time>2013-06-08T07:32:24Z</time>
      </trkpt>
      <trkpt lat="43.88284" lon="6.82838">
        <ele>823.7</ele>
        <time>2013-06-08T07:32:30Z</time>
      </trkpt>
      <trkpt lat="43.88283" lon="6.82821">
        <ele>823.6</ele>
        <time>2013-06-08T07:32:36Z</time>
      </trkpt>
      <trkpt lat="43.88281" lon="6.82805">
        <ele>823.5</ele>
        <time>2013-06-08T07:32:42Z</time>
      </trkpt>
      <trkpt lat="43.88278" lon="6.82788">
        <ele>823.6</ele>
        <time>2013-06-08T07:32:48Z</time>
      </trkpt>
      <trkpt lat="43.88278" lon="6.82774">
        <ele>823.5</ele>
        <time>2013-06-08T07:32:54Z</time>
      </trkpt>
      <trkpt lat="43.88278" lon="6.82761">
        <ele>823.5</ele>
        <time>2013-06-08T07:33:00Z</time>
      </trkpt>
      <trkpt lat="43.88277" lon="6.82748">
        <ele>824.1</ele>
        <time>2013-06-08T07:33:06Z</time>
      </trkpt>
      <trkpt lat="43.88275" lon="6.82733">
        <ele>824.6</ele>
        <time>2013-06-08T07:33:12Z</time>
      </trkpt>
      <trkpt lat="43.88273" lon="6.82715">
        <ele>824.7</ele>
        <time>2013-06-08T07:33:18Z</time>
      </trkpt>
      <trkpt lat="43.8827" lon="6.82699">
        <ele>824.9</ele>
        <time>2013-06-08T07:33:24Z</time>
      </trkpt>
      <trkpt lat="43.88266" lon="6.82684">
        <ele>825.1</ele>
        <time>2013-06-08T07:33:30Z</time>
      </trkpt>
      <trkpt lat="43.88263" lon="6.82669">
        <ele>825.6</ele>
        <time>2013-06-08T07:33:36Z</time>
      </trkpt>
      <trkpt lat="43.88263" lon="6.82655">
        <ele>826.3</ele>
        <time>2013-06-08T07:33:42Z</time>
      </trkpt>
      <trkpt lat="43.88262" lon="6.82639">
        <ele>827.3</ele>
        <time>2013-06-08T07:33:48Z</time>
      </trkpt>
      <trkpt lat="43.88261" lon="6.82626">
        <ele>828.5</ele>
        <time>2013-06-08T07:33:54Z</time>
      </trkpt>
      <trkpt lat="43.8826" lon="6.82612">
        <ele>829.4</ele>
        <time>2013-06-08T07:34:00Z</time>
      </trkpt>
      <trkpt lat="43.88259" lon="6.82596">
        <ele>829.8</ele>
        <time>2013-06-08T07:34:06Z</time>
      </trkpt>
      <trkpt lat="43.88257" lon="6.8258">
        <ele>830.2</ele>
        <time>2013-06-08T07:34:12Z</time>
      </trkpt>
      <trkpt lat="43.88253" lon="6.82561">
        <ele>830.3</ele>
        <time>2013-06-08T07:34:18Z</time>
      </trkpt>
      <trkpt lat="43.88252" lon="6.82542">
        <ele>830.6</ele>
        <time>2013-06-08T07:34:24Z</time>
      </trkpt>
      <trkpt lat="43.88249" lon="6.82524">
        <ele>831.2</ele>
        <time>2013-06-08T07:34:30Z</time>
      </trkpt>
      <trkpt lat="43.88248" lon="6.8251">
        <ele>831.9</ele>
        <time>2013-06-08T07:34:36Z</time>
      </trkpt>
      <trkpt lat="43.88246" lon="6.82493">
        <ele>832.5</ele>
        <time>2013-06-08T07:34:42Z</time>
      </trkpt>
      <trkpt lat="43.88243" lon="6.82475">
        <ele>833.2</ele>
        <time>2013-06-08T07:34:48Z</time>
      </trkpt>
      <trkpt lat="43.88241" lon="6.82456">
        <ele>833.5</ele>
        <time>2013-06-08T07:34:54Z</time>
      </trkpt>
      <trkpt lat="43.8824" lon="6.82439">
        <ele>834</ele>
        <time>2013-06-08T07:35:01Z</time>
      </trkpt>
      <trkpt lat="43.8824" lon="6.82423">
        <ele>834.8</ele>
        <time>2013-06-08T07:35:07Z</time>
      </trkpt>
      <trkpt lat="43.8824" lon="6.82411">
        <ele>835.7</ele>
        <time>2013-06-08T07:35:13Z</time>
      </trkpt>
      <trkpt lat="43.88239" lon="6.82398">
        <ele>836.5</ele>
        <time>2013-06-08T07:35:19Z</time>
      </trkpt>
      <trkpt lat="43.88237" lon="6.82382">
        <ele>837.3</ele>
        <time>2013-06-08T07:35:25Z</time>
      </trkpt>
      <trkpt lat="43.88236" lon="6.82366">
        <ele>838</ele>
        <time>2013-06-08T07:35:31Z</time>
      </trkpt>
      <trkpt lat="43.88235" lon="6.82352">
        <ele>839</ele>
        <time>2013-06-08T07:35:37Z</time>
      </trkpt>
      <trkpt lat="43.88234" lon="6.82336">
        <ele>840</ele>
        <time>2013-06-08T07:35:43Z</time>
      </trkpt>
      <trkpt lat="43.88233" lon="6.82321">
        <ele>840.7</ele>
        <time>2013-06-08T07:35:49Z</time>
      </trkpt>
      <trkpt lat="43.88231" lon="6.82307">
        <ele>841.5</ele>
        <time>2013-06-08T07:35:55Z</time>
      </trkpt>
      <trkpt lat="43.88227" lon="6.82291">
        <ele>842.8</ele>
        <time>2013-06-08T07:36:01Z</time>
      </trkpt>
      <trkpt lat="43.88227" lon="6.82275">
        <ele>843.8</ele>
        <time>2013-06-08T07:36:07Z</time>
      </trkpt>
      <trkpt lat="43.88227" lon="6.82259">
        <ele>844.5</ele>
        <time>2013-06-08T07:36:13Z</time>
      </trkpt>
      <trkpt lat="43.88227" lon="6.82242">
        <ele>845.6</ele>
        <time>2013-06-08T07:36:19Z</time>
      </trkpt>
      <trkpt lat="43.88227" lon="6.82229">
        <ele>846.9</ele>
        <time>2013-06-08T07:36:25Z</time>
      </trkpt>
      <trkpt lat="43.88228" lon="6.82214">
        <ele>848.2</ele>
        <time>2013-06-08T07:36:31Z</time>
      </trkpt>
      <trkpt lat="43.88227" lon="6.82195">
        <ele>849.2</ele>
        <time>2013-06-08T07:36:37Z</time>
      </trkpt>
      <trkpt lat="43.88223" lon="6.82179">
        <ele>850</ele>
        <time>2013-06-08T07:36:43Z</time>
      </trkpt>
      <trkpt lat="43.88223" lon="6.82166">
        <ele>851</ele>
        <time>2013-06-08T07:36:49Z</time>
      </trkpt>
      <trkpt lat="43.88221" lon="6.82151">
        <ele>851.7</ele>
        <time>2013-06-08T07:36:55Z</time>
      </trkpt>
      <trkpt lat="43.8822" lon="6.82135">
        <ele>852.3</ele>
        <time>2013-06-08T07:37:01Z</time>
      </trkpt>
      <trkpt lat="43.88218" lon="6.82119">
        <ele>853.1</ele>
        <time>2013-06-08T07:37:07Z</time>
      </trkpt>
      <trkpt lat="43.88217" lon="6.82102">
        <ele>853.7</ele>
        <time>2013-06-08T07:37:13Z</time>
      </trkpt>
      <trkpt lat="43.88218" lon="6.82086">
        <ele>854.5</ele>
        <time>2013-06-08T07:37:19Z</time>
      </trkpt>
      <trkpt lat="43.88218" lon="6.82072">
        <ele>855.2</ele>
        <time>2013-06-08T07:37:25Z</time>
      </trkpt>
      <trkpt lat="43.88218" lon="6.8206">
        <ele>855.8</ele>
        <time>2013-06-08T07:37:31Z</time>
      </trkpt>
      <trkpt lat="43.8822" lon="6.82044">
        <ele>856.3</ele>
        <time>2013-06-08T07:37:37Z</time>
      </trkpt>
      <trkpt lat="43.88218" lon="6.8203">
        <ele>856.7</ele>
        <time>2013-06-08T07:37:43Z</time>
      </trkpt>
      <trkpt lat="43.88218" lon="6.82015">
        <ele>857.1</ele>
        <time>2013-06-08T07:37:49Z</time>
      </trkpt>
      <trkpt lat="43.88216" lon="6.81999">
        <ele>857.7</ele>
        <time>2013-06-08T07:37:55Z</time>
      </trkpt>
      <trkpt lat="43.88214" lon="6.81988">
        <ele>858.3</ele>
        <time>2013-06-08T07:38:01Z</time>
      </trkpt>
      <trkpt lat="43.88214" lon="6.81973">
        <ele>859.3</ele>
        <time>2013-06-08T07:38:07Z</time>
      </trkpt>
      <trkpt lat="43.88214" lon="6.81962">
        <ele>859.9</ele>
        <time>2013-06-08T07:38:13Z</time>
      </trkpt>
      <trkpt lat="43.88212" lon="6.81948">
        <ele>860.7</ele>
        <time>2013-06-08T07:38:19Z</time>
      </trkpt>
      <trkpt lat="43.88211" lon="6.81931">
        <ele>861.2</ele>
        <time>2013-06-08T07:38:25Z</time>
      </trkpt>
      <trkpt lat="43.88209" lon="6.81915">
        <ele>861.5</ele>
        <time>2013-06-08T07:38:31Z</time>
      </trkpt>
      <trkpt lat="43.88207" lon="6.81898">
        <ele>862.4</ele>
        <time>2013-06-08T07:38:37Z</time>
      </trkpt>
      <trkpt lat="43.88203" lon="6.81883">
        <ele>863.3</ele>
        <time>2013-06-08T07:38:43Z</time>
      </trkpt>
      <trkpt lat="43.88202" lon="6.81866">
        <ele>864.2</ele>
        <time>2013-06-08T07:38:49Z</time>
      </trkpt>
      <trkpt lat="43.88202" lon="6.81853">
        <ele>864.9</ele>
        <time>2013-06-08T07:38:55Z</time>
      </trkpt>
      <trkpt lat="43.88199" lon="6.81838">
        <ele>865.9</ele>
        <time>2013-06-08T07:39:01Z</time>
      </trkpt>
      <trkpt lat="43.88198" lon="6.81823">
        <ele>866.8</ele>
        <time>2013-06-08T07:39:07Z</time>
      </trkpt>
      <trkpt lat="43.88197" lon="6.81809">
        <ele>867.5</ele>
        <time>2013-06-08T07:39:13Z</time>
      </trkpt>
      <trkpt lat="43.88194" lon="6.81796">
        <ele>868.2</ele>
        <time>2013-06-08T07:39:19Z</time>
      </trkpt>
      <trkpt lat="43.88198" lon="6.81778">
        <ele>869</ele>
        <time>2013-06-08T07:39:25Z</time>
      </trkpt>
      <trkpt lat="43.88198" lon="6.81764">
        <ele>870</ele>
        <time>2013-06-08T07:39:31Z</time>
      </trkpt>
      <trkpt lat="43.882" lon="6.8175">
        <ele>871.5</ele>
        <time>2013-06-08T07:39:37Z</time>
      </trkpt>
      <trkpt lat="43.88201" lon="6.81729">
        <ele>872.7</ele>
        <time>2013-06-08T07:39:43Z</time>
      </trkpt>
      <trkpt lat="43.882" lon="6.81713">
        <ele>873.7</ele>
        <time>2013-06-08T07:39:49Z</time>
      </trkpt>
      <trkpt lat="43.882" lon="6.81696">
        <ele>874.4</ele>
        <time>2013-06-08T07:39:55Z</time>
      </trkpt>
      <trkpt lat="43.88198" lon="6.81684">
        <ele>875.1</ele>
        <time>2013-06-08T07:40:01Z</time>
      </trkpt>
      <trkpt lat="43.88196" lon="6.81669">
        <ele>876</ele>
        <time>2013-06-08T07:40:07Z</time>
      </trkpt>
      <trkpt lat="43.88194" lon="6.81652">
        <ele>876.7</ele>
        <time>2013-06-08T07:40:13Z</time>
      </trkpt>
      <trkpt lat="43.88193" lon="6.81635">
        <ele>877.3</ele>
        <time>2013-06-08T07:40:19Z</time>
      </trkpt>
      <trkpt lat="43.88191" lon="6.81624">
        <ele>878</ele>
        <time>2013-06-08T07:40:25Z</time>
      </trkpt>
      <trkpt lat="43.88192" lon="6.81611">
        <ele>878.9</ele>
        <time>2013-06-08T07:40:31Z</time>
      </trkpt>
      <trkpt lat="43.8819" lon="6.81597">
        <ele>880</ele>
        <time>2013-06-08T07:40:37Z</time>
      </trkpt>
      <trkpt lat="43.8819" lon="6.81581">
        <ele>881.1</ele>
        <time>2013-06-08T07:40:43Z</time>
      </trkpt>
      <trkpt lat="43.8819" lon="6.81566">
        <ele>882.2</ele>
        <time>2013-06-08T07:40:49Z</time>
      </trkpt>
      <trkpt lat="43.8819" lon="6.8155">
        <ele>883.2</ele>
        <time>2013-06-08T07:40:55Z</time>
      </trkpt>
      <trkpt lat="43.88191" lon="6.81535">
        <ele>884</ele>
        <time>2013-06-08T07:41:01Z</time>
      </trkpt>
      <trkpt lat="43.88193" lon="6.8152">
        <ele>884.6</ele>
        <time>2013-06-08T07:41:07Z</time>
      </trkpt>
      <trkpt lat="43.88194" lon="6.81506">
        <ele>885.1</ele>
        <time>2013-06-08T07:41:13Z</time>
      </trkpt>
      <trkpt lat="43.88195" lon="6.8149">
        <ele>885.9</ele>
        <time>2013-06-08T07:41:19Z</time>
      </trkpt>
      <trkpt lat="43.88199" lon="6.81475">
        <ele>887.1</ele>
        <time>2013-06-08T07:41:25Z</time>
      </trkpt>
      <trkpt lat="43.88199" lon="6.8146">
        <ele>888</ele>
        <time>2013-06-08T07:41:31Z</time>
      </trkpt>
      <trkpt lat="43.88199" lon="6.81445">
        <ele>889.2</ele>
        <time>2013-06-08T07:41:37Z</time>
      </trkpt>
      <trkpt lat="43.88199" lon="6.81428">
        <ele>890.1</ele>
        <time>2013-06-08T07:41:43Z</time>
      </trkpt>
      <trkpt lat="43.882" lon="6.81413">
        <ele>891.3</ele>
        <time>2013-06-08T07:41:49Z</time>
      </trkpt>
      <trkpt lat="43.882" lon="6.81398">
        <ele>892.7</ele>
        <time>2013-06-08T07:41:55Z</time>
      </trkpt>
      <trkpt lat="43.882" lon="6.81384">
        <ele>893.5</ele>
        <time>2013-06-08T07:42:01Z</time>
      </trkpt>
      <trkpt lat="43.88201" lon="6.8137">
        <ele>894.3</ele>
        <time>2013-06-08T07:42:07Z</time>
      </trkpt>
      <trkpt lat="43.88202" lon="6.81354">
        <ele>895</ele>
        <time>2013-06-08T07:42:13Z</time>
      </trkpt>
      <trkpt lat="43.88202" lon="6.8134">
        <ele>895.9</ele>
        <time>2013-06-08T07:42:19Z</time>
      </trkpt>
      <trkpt lat="43.88204" lon="6.81325">
        <ele>896.8</ele>
        <time>2013-06-08T07:42:25Z</time>
      </trkpt>
      <trkpt lat="43.88206" lon="6.81309">
        <ele>897.8</ele>
        <time>2013-06-08T07:42:31Z</time>
      </trkpt>
      <trkpt lat="43.88209" lon="6.81291">
        <ele>899.3</ele>
        <time>2013-06-08T07:42:37Z</time>
      </trkpt>
      <trkpt lat="43.88209" lon="6.81277">
        <ele>900.4</ele>
        <time>2013-06-08T07:42:43Z</time>
      </trkpt>
      <trkpt lat="43.88208" lon="6.81261">
        <ele>901.2</ele>
        <time>2013-06-08T07:42:49Z</time>
      </trkpt>
      <trkpt lat="43.8821" lon="6.81246">
        <ele>902.2</ele>
        <time>2013-06-08T07:42:55Z</time>
      </trkpt>
      <trkpt lat="43.88212" lon="6.81231">
        <ele>903.3</ele>
        <time>2013-06-08T07:43:01Z</time>
      </trkpt>
      <trkpt lat="43.88212" lon="6.81215">
        <ele>904.6</ele>
        <time>2013-06-08T07:43:07Z</time>
      </trkpt>
      <trkpt lat="43.88213" lon="6.81201">
        <ele>905.9</ele>
        <time>2013-06-08T07:43:13Z</time>
      </trkpt>
      <trkpt lat="43.88212" lon="6.81185">
        <ele>906.9</ele>
        <time>2013-06-08T07:43:19Z</time>
      </trkpt>
      <trkpt lat="43.88211" lon="6.8117">
        <ele>907.9</ele>
        <time>2013-06-08T07:43:25Z</time>
      </trkpt>
      <trkpt lat="43.88207" lon="6.81154">
        <ele>908.8</ele>
        <time>2013-06-08T07:43:31Z</time>
      </trkpt>
      <trkpt lat="43.88204" lon="6.8114">
        <ele>909.8</ele>
        <time>2013-06-08T07:43:37Z</time>
      </trkpt>
      <trkpt lat="43.88203" lon="6.81124">
        <ele>910.6</ele>
        <time>2013-06-08T07:43:43Z</time>
      </trkpt>
      <trkpt lat="43.88202" lon="6.81109">
        <ele>911.9</ele>
        <time>2013-06-08T07:43:49Z</time>
      </trkpt>
      <trkpt lat="43.882" lon="6.81095">
        <ele>913.3</ele>
        <time>2013-06-08T07:43:55Z</time>
      </trkpt>
      <trkpt lat="43.88199" lon="6.81078">
        <ele>914.3</ele>
        <time>2013-06-08T07:44:01Z</time>
      </trkpt>
      <trkpt lat="43.88197" lon="6.81061">
        <ele>915</ele>
        <time>2013-06-08T07:44:07Z</time>
      </trkpt>
      <trkpt lat="43.88193" lon="6.81045">
        <ele>915.6</ele>
        <time>2013-06-08T07:44:13Z</time>
      </trkpt>
      <trkpt lat="43.8819" lon="6.81031">
        <ele>916.5</ele>
        <time>2013-06-08T07:44:19Z</time>
      </trkpt>
      <trkpt lat="43.88187" lon="6.81014">
        <ele>917.6</ele>
        <time>2013-06-08T07:44:25Z</time>
      </trkpt>
      <trkpt lat="43.88188" lon="6.8099">
        <ele>919.1</ele>
        <time>2013-06-08T07:44:31Z</time>
      </trkpt>
      <trkpt lat="43.88195" lon="6.80971">
        <ele>920</ele>
        <time>2013-06-08T07:44:37Z</time>
      </trkpt>
      <trkpt lat="43.88202" lon="6.80955">
        <ele>921</ele>
        <time>2013-06-08T07:44:43Z</time>
      </trkpt>
      <trkpt lat="43.8821" lon="6.80944">
        <ele>922.3</ele>
        <time>2013-06-08T07:44:49Z</time>
      </trkpt>
      <trkpt lat="43.88216" lon="6.8093">
        <ele>923.4</ele>
        <time>2013-06-08T07:44:55Z</time>
      </trkpt>
      <trkpt lat="43.88222" lon="6.80918">
        <ele>924.5</ele>
        <time>2013-06-08T07:45:01Z</time>
      </trkpt>
      <trkpt lat="43.88226" lon="6.80915">
        <ele>924.8</ele>
        <time>2013-06-08T07:45:07Z</time>
      </trkpt>
      <trkpt lat="43.88229" lon="6.80916">
        <ele>924.9</ele>
        <time>2013-06-08T07:45:13Z</time>
      </trkpt>
      <trkpt lat="43.8823" lon="6.80913">
        <ele>924.7</ele>
        <time>2013-06-08T07:45:19Z</time>
      </trkpt>
      <trkpt lat="43.8823" lon="6.80912">
        <ele>924.3</ele>
        <time>2013-06-08T07:45:25Z</time>
      </trkpt>
      <trkpt lat="43.88229" lon="6.80913">
        <ele>924.5</ele>
        <time>2013-06-08T07:45:31Z</time>
      </trkpt>
      <trkpt lat="43.88228" lon="6.80912">
        <ele>924.5</ele>
        <time>2013-06-08T07:45:37Z</time>
      </trkpt>
      <trkpt lat="43.88228" lon="6.80914">
        <ele>925.1</ele>
        <time>2013-06-08T07:45:43Z</time>
      </trkpt>
      <trkpt lat="43.8823" lon="6.80913">
        <ele>925.8</ele>
        <time>2013-06-08T07:45:49Z</time>
      </trkpt>
      <trkpt lat="43.88229" lon="6.80912">
        <ele>925.9</ele>
        <time>2013-06-08T07:45:55Z</time>
      </trkpt>
      <trkpt lat="43.88227" lon="6.80914">
        <ele>925.9</ele>
        <time>2013-06-08T07:46:01Z</time>
      </trkpt>
      <trkpt lat="43.88227" lon="6.80916">
        <ele>926</ele>
        <time>2013-06-08T07:46:07Z</time>
      </trkpt>
      <trkpt lat="43.88229" lon="6.80915">
        <ele>926.2</ele>
        <time>2013-06-08T07:46:13Z</time>
      </trkpt>
      <trkpt lat="43.88231" lon="6.80916">
        <ele>926.4</ele>
        <time>2013-06-08T07:46:19Z</time>
      </trkpt>
      <trkpt lat="43.88232" lon="6.80915">
        <ele>926.4</ele>
        <time>2013-06-08T07:46:25Z</time>
      </trkpt>
      <trkpt lat="43.88233" lon="6.80913">
        <ele>926.5</ele>
        <time>2013-06-08T07:46:31Z</time>
      </trkpt>
      <trkpt lat="43.88231" lon="6.80916">
        <ele>924.9</ele>
        <time>2013-06-08T07:46:37Z</time>
      </trkpt>
      <trkpt lat="43.8823" lon="6.80917">
        <ele>924.8</ele>
        <time>2013-06-08T07:46:43Z</time>
      </trkpt>
      <trkpt lat="43.88228" lon="6.8092">
        <ele>924.8</ele>
        <time>2013-06-08T07:46:49Z</time>
      </trkpt>
      <trkpt lat="43.88227" lon="6.80922">
        <ele>925</ele>
        <time>2013-06-08T07:46:55Z</time>
      </trkpt>
      <trkpt lat="43.88227" lon="6.80923">
        <ele>926.2</ele>
        <time>2013-06-08T07:47:01Z</time>
      </trkpt>
      <trkpt lat="43.88228" lon="6.80922">
        <ele>927.4</ele>
        <time>2013-06-08T07:47:07Z</time>
      </trkpt>
      <trkpt lat="43.88228" lon="6.8092">
        <ele>927.7</ele>
        <time>2013-06-08T07:47:13Z</time>
      </trkpt>
      <trkpt lat="43.88226" lon="6.8092">
        <ele>928.1</ele>
        <time>2013-06-08T07:47:19Z</time>
      </trkpt>
      <trkpt lat="43.88228" lon="6.80919">
        <ele>928.2</ele>
        <time>2013-06-08T07:47:25Z</time>
      </trkpt>
      <trkpt lat="43.8823" lon="6.80919">
        <ele>927.9</ele>
        <time>2013-06-08T07:47:31Z</time>
      </trkpt>
      <trkpt lat="43.8823" lon="6.80918">
        <ele>928</ele>
        <time>2013-06-08T07:47:37Z</time>
      </trkpt>
      <trkpt lat="43.88233" lon="6.80917">
        <ele>928</ele>
        <time>2013-06-08T07:47:43Z</time>
      </trkpt>
      <trkpt lat="43.88234" lon="6.80918">
        <ele>928.2</ele>
        <time>2013-06-08T07:47:49Z</time>
      </trkpt>
      <trkpt lat="43.88236" lon="6.80918">
        <ele>928.6</ele>
        <time>2013-06-08T07:47:55Z</time>
      </trkpt>
      <trkpt lat="43.88236" lon="6.80917">
        <ele>928.6</ele>
        <time>2013-06-08T07:48:01Z</time>
      </trkpt>
      <trkpt lat="43.88234" lon="6.80917">
        <ele>928.4</ele>
        <time>2013-06-08T07:48:07Z</time>
      </trkpt>
      <trkpt lat="43.88234" lon="6.80917">
        <ele>928</ele>
        <time>2013-06-08T07:48:13Z</time>
      </trkpt>
      <trkpt lat="43.88233" lon="6.80917">
        <ele>927.7</ele>
        <time>2013-06-08T07:48:19Z</time>
      </trkpt>
      <trkpt lat="43.88233" lon="6.80919">
        <ele>927.4</ele>
        <time>2013-06-08T07:48:25Z</time>
      </trkpt>
      <trkpt lat="43.88234" lon="6.80919">
        <ele>927.4</ele>
        <time>2013-06-08T07:48:31Z</time>
      </trkpt>
      <trkpt lat="43.88231" lon="6.80919">
        <ele>927.4</ele>
        <time>2013-06-08T07:48:37Z</time>
      </trkpt>
      <trkpt lat="43.88231" lon="6.80919">
        <ele>927.4</ele>
        <time>2013-06-08T07:48:43Z</time>
      </trkpt>
      <trkpt lat="43.88231" lon="6.80918">
        <ele>927.2</ele>
        <time>2013-06-08T07:48:49Z</time>
      </trkpt>
      <trkpt lat="43.88232" lon="6.80917">
        <ele>927.3</ele>
        <time>2013-06-08T07:48:55Z</time>
      </trkpt>
      <trkpt lat="43.88231" lon="6.80916">
        <ele>927.7</ele>
        <time>2013-06-08T07:49:01Z</time>
      </trkpt>
      <trkpt lat="43.8823" lon="6.80913">
        <ele>927.8</ele>
        <time>2013-06-08T07:49:07Z</time>
      </trkpt>
      <trkpt lat="43.8823" lon="6.80905">
        <ele>928.6</ele>
        <time>2013-06-08T07:49:13Z</time>
      </trkpt>
      <trkpt lat="43.88226" lon="6.80901">
        <ele>928.8</ele>
        <time>2013-06-08T07:49:19Z</time>
      </trkpt>
      <trkpt lat="43.88233" lon="6.80906">
        <ele>928</ele>
        <time>2013-06-08T07:49:25Z</time>
      </trkpt>
      <trkpt lat="43.88234" lon="6.80883">
        <ele>927.5</ele>
        <time>2013-06-08T07:49:31Z</time>
      </trkpt>
      <trkpt lat="43.88238" lon="6.80864">
        <ele>927.1</ele>
        <time>2013-06-08T07:49:37Z</time>
      </trkpt>
      <trkpt lat="43.8824" lon="6.80841">
        <ele>927.2</ele>
        <time>2013-06-08T07:49:43Z</time>
      </trkpt>
      <trkpt lat="43.88241" lon="6.80815">
        <ele>927.7</ele>
        <time>2013-06-08T07:49:49Z</time>
      </trkpt>
      <trkpt lat="43.88244" lon="6.80793">
        <ele>928.2</ele>
        <time>2013-06-08T07:49:55Z</time>
      </trkpt>
      <trkpt lat="43.88248" lon="6.80772">
        <ele>928.7</ele>
        <time>2013-06-08T07:50:01Z</time>
      </trkpt>
      <trkpt lat="43.88252" lon="6.80752">
        <ele>929</ele>
        <time>2013-06-08T07:50:07Z</time>
      </trkpt>
      <trkpt lat="43.88254" lon="6.80731">
        <ele>929.4</ele>
        <time>2013-06-08T07:50:13Z</time>
      </trkpt>
      <trkpt lat="43.88259" lon="6.80711">
        <ele>930.4</ele>
        <time>2013-06-08T07:50:19Z</time>
      </trkpt>
      <trkpt lat="43.88263" lon="6.80694">
        <ele>931</ele>
        <time>2013-06-08T07:50:25Z</time>
      </trkpt>
      <trkpt lat="43.88264" lon="6.80675">
        <ele>931.6</ele>
        <time>2013-06-08T07:50:31Z</time>
      </trkpt>
      <trkpt lat="43.88266" lon="6.80656">
        <ele>932.2</ele>
        <time>2013-06-08T07:50:37Z</time>
      </trkpt>
      <trkpt lat="43.88264" lon="6.80636">
        <ele>932.7</ele>
        <time>2013-06-08T07:50:43Z</time>
      </trkpt>
      <trkpt lat="43.8826" lon="6.80619">
        <ele>933.3</ele>
        <time>2013-06-08T07:50:49Z</time>
      </trkpt>
      <trkpt lat="43.88253" lon="6.80601">
        <ele>933.8</ele>
        <time>2013-06-08T07:50:55Z</time>
      </trkpt>
      <trkpt lat="43.88246" lon="6.80585">
        <ele>934.2</ele>
        <time>2013-06-08T07:51:01Z</time>
      </trkpt>
      <trkpt lat="43.88239" lon="6.80568">
        <ele>934.8</ele>
        <time>2013-06-08T07:51:07Z</time>
      </trkpt>
      <trkpt lat="43.88233" lon="6.8055">
        <ele>935.7</ele>
        <time>2013-06-08T07:51:13Z</time>
      </trkpt>
      <trkpt lat="43.88232" lon="6.8053">
        <ele>936.6</ele>
        <time>2013-06-08T07:51:19Z</time>
      </trkpt>
      <trkpt lat="43.88233" lon="6.80511">
        <ele>937.6</ele>
        <time>2013-06-08T07:51:25Z</time>
      </trkpt>
      <trkpt lat="43.88233" lon="6.80493">
        <ele>938.4</ele>
        <time>2013-06-08T07:51:31Z</time>
      </trkpt>
      <trkpt lat="43.88231" lon="6.80475">
        <ele>939</ele>
        <time>2013-06-08T07:51:37Z</time>
      </trkpt>
      <trkpt lat="43.88225" lon="6.80456">
        <ele>939.4</ele>
        <time>2013-06-08T07:51:43Z</time>
      </trkpt>
      <trkpt lat="43.88219" lon="6.80439">
        <ele>940</ele>
        <time>2013-06-08T07:51:49Z</time>
      </trkpt>
      <trkpt lat="43.88212" lon="6.80422">
        <ele>940.8</ele>
        <time>2013-06-08T07:51:55Z</time>
      </trkpt>
      <trkpt lat="43.88207" lon="6.80403">
        <ele>941.5</ele>
        <time>2013-06-08T07:52:01Z</time>
      </trkpt>
      <trkpt lat="43.88204" lon="6.80382">
        <ele>941.9</ele>
        <time>2013-06-08T07:52:07Z</time>
      </trkpt>
      <trkpt lat="43.88204" lon="6.8036">
        <ele>942.3</ele>
        <time>2013-06-08T07:52:13Z</time>
      </trkpt>
      <trkpt lat="43.88201" lon="6.80341">
        <ele>942.7</ele>
        <time>2013-06-08T07:52:19Z</time>
      </trkpt>
      <trkpt lat="43.88196" lon="6.80322">
        <ele>943.2</ele>
        <time>2013-06-08T07:52:25Z</time>
      </trkpt>
      <trkpt lat="43.88189" lon="6.80302">
        <ele>944.1</ele>
        <time>2013-06-08T07:52:31Z</time>
      </trkpt>
      <trkpt lat="43.88185" lon="6.80283">
        <ele>944.8</ele>
        <time>2013-06-08T07:52:37Z</time>
      </trkpt>
      <trkpt lat="43.88179" lon="6.80264">
        <ele>945.3</ele>
        <time>2013-06-08T07:52:43Z</time>
      </trkpt>
      <trkpt lat="43.88174" lon="6.80244">
        <ele>946.3</ele>
        <time>2013-06-08T07:52:49Z</time>
      </trkpt>
      <trkpt lat="43.88167" lon="6.80227">
        <ele>947.5</ele>
        <time>2013-06-08T07:52:55Z</time>
      </trkpt>
      <trkpt lat="43.88162" lon="6.80207">
        <ele>948</ele>
        <time>2013-06-08T07:53:01Z</time>
      </trkpt>
      <trkpt lat="43.88156" lon="6.80186">
        <ele>948.4</ele>
        <time>2013-06-08T07:53:07Z</time>
      </trkpt>
      <trkpt lat="43.8815" lon="6.80164">
        <ele>949.2</ele>
        <time>2013-06-08T07:53:13Z</time>
      </trkpt>
      <trkpt lat="43.88145" lon="6.80145">
        <ele>949.7</ele>
        <time>2013-06-08T07:53:19Z</time>
      </trkpt>
      <trkpt lat="43.88139" lon="6.80125">
        <ele>950.3</ele>
        <time>2013-06-08T07:53:25Z</time>
      </trkpt>
      <trkpt lat="43.88135" lon="6.80103">
        <ele>950.8</ele>
        <time>2013-06-08T07:53:31Z</time>
      </trkpt>
      <trkpt lat="43.88129" lon="6.80084">
        <ele>951.3</ele>
        <time>2013-06-08T07:53:37Z</time>
      </trkpt>
      <trkpt lat="43.88125" lon="6.8006">
        <ele>951.8</ele>
        <time>2013-06-08T07:53:43Z</time>
      </trkpt>
      <trkpt lat="43.88122" lon="6.80038">
        <ele>952.4</ele>
        <time>2013-06-08T07:53:49Z</time>
      </trkpt>
      <trkpt lat="43.88118" lon="6.80015">
        <ele>953.6</ele>
        <time>2013-06-08T07:53:55Z</time>
      </trkpt>
      <trkpt lat="43.88116" lon="6.79998">
        <ele>955.1</ele>
        <time>2013-06-08T07:54:01Z</time>
      </trkpt>
      <trkpt lat="43.88111" lon="6.79979">
        <ele>956.6</ele>
        <time>2013-06-08T07:54:07Z</time>
      </trkpt>
      <trkpt lat="43.88105" lon="6.7996">
        <ele>957.9</ele>
        <time>2013-06-08T07:54:13Z</time>
      </trkpt>
      <trkpt lat="43.88097" lon="6.79938">
        <ele>959.1</ele>
        <time>2013-06-08T07:54:19Z</time>
      </trkpt>
      <trkpt lat="43.88092" lon="6.79919">
        <ele>959.7</ele>
        <time>2013-06-08T07:54:25Z</time>
      </trkpt>
      <trkpt lat="43.88086" lon="6.79899">
        <ele>959.9</ele>
        <time>2013-06-08T07:54:31Z</time>
      </trkpt>
      <trkpt lat="43.88078" lon="6.79879">
        <ele>960.1</ele>
        <time>2013-06-08T07:54:37Z</time>
      </trkpt>
      <trkpt lat="43.88071" lon="6.79859">
        <ele>960.3</ele>
        <time>2013-06-08T07:54:43Z</time>
      </trkpt>
      <trkpt lat="43.88065" lon="6.79838">
        <ele>960.4</ele>
        <time>2013-06-08T07:54:49Z</time>
      </trkpt>
      <trkpt lat="43.88059" lon="6.79816">
        <ele>961.1</ele>
        <time>2013-06-08T07:54:55Z</time>
      </trkpt>
      <trkpt lat="43.88054" lon="6.79795">
        <ele>962.5</ele>
        <time>2013-06-08T07:55:01Z</time>
      </trkpt>
      <trkpt lat="43.88048" lon="6.79775">
        <ele>963.9</ele>
        <time>2013-06-08T07:55:07Z</time>
      </trkpt>
      <trkpt lat="43.88043" lon="6.79755">
        <ele>965.2</ele>
        <time>2013-06-08T07:55:13Z</time>
      </trkpt>
      <trkpt lat="43.88043" lon="6.7973">
        <ele>966.6</ele>
        <time>2013-06-08T07:55:19Z</time>
      </trkpt>
      <trkpt lat="43.88052" lon="6.79708">
        <ele>967.3</ele>
        <time>2013-06-08T07:55:25Z</time>
      </trkpt>
      <trkpt lat="43.88063" lon="6.79693">
        <ele>967.9</ele>
        <time>2013-06-08T07:55:31Z</time>
      </trkpt>
      <trkpt lat="43.88076" lon="6.7968">
        <ele>968.2</ele>
        <time>2013-06-08T07:55:37Z</time>
      </trkpt>
      <trkpt lat="43.88088" lon="6.79667">
        <ele>968.7</ele>
        <time>2013-06-08T07:55:43Z</time>
      </trkpt>
      <trkpt lat="43.88101" lon="6.79655">
        <ele>969.1</ele>
        <time>2013-06-08T07:55:49Z</time>
      </trkpt>
      <trkpt lat="43.88112" lon="6.79644">
        <ele>969.3</ele>
        <time>2013-06-08T07:55:55Z</time>
      </trkpt>
      <trkpt lat="43.88122" lon="6.79622">
        <ele>970.1</ele>
        <time>2013-06-08T07:56:01Z</time>
      </trkpt>
      <trkpt lat="43.88111" lon="6.79601">
        <ele>970.6</ele>
        <time>2013-06-08T07:56:07Z</time>
      </trkpt>
      <trkpt lat="43.88094" lon="6.79602">
        <ele>970.5</ele>
        <time>2013-06-08T07:56:13Z</time>
      </trkpt>
      <trkpt lat="43.88083" lon="6.79603">
        <ele>969.7</ele>
        <time>2013-06-08T07:56:19Z</time>
      </trkpt>
      <trkpt lat="43.88074" lon="6.79605">
        <ele>968.5</ele>
        <time>2013-06-08T07:56:25Z</time>
      </trkpt>
      <trkpt lat="43.88056" lon="6.79602">
        <ele>968</ele>
        <time>2013-06-08T07:56:31Z</time>
      </trkpt>
      <trkpt lat="43.88042" lon="6.79604">
        <ele>967.7</ele>
        <time>2013-06-08T07:56:37Z</time>
      </trkpt>
      <trkpt lat="43.88025" lon="6.79608">
        <ele>967.8</ele>
        <time>2013-06-08T07:56:43Z</time>
      </trkpt>
      <trkpt lat="43.88011" lon="6.79606">
        <ele>968.4</ele>
        <time>2013-06-08T07:56:49Z</time>
      </trkpt>
      <trkpt lat="43.88" lon="6.79597">
        <ele>969.5</ele>
        <time>2013-06-08T07:56:55Z</time>
      </trkpt>
      <trkpt lat="43.87987" lon="6.79584">
        <ele>970.6</ele>
        <time>2013-06-08T07:57:01Z</time>
      </trkpt>
      <trkpt lat="43.87975" lon="6.7957">
        <ele>972</ele>
        <time>2013-06-08T07:57:07Z</time>
      </trkpt>
      <trkpt lat="43.87961" lon="6.79561">
        <ele>973.4</ele>
        <time>2013-06-08T07:57:13Z</time>
      </trkpt>
      <trkpt lat="43.87945" lon="6.79558">
        <ele>974.3</ele>
        <time>2013-06-08T07:57:19Z</time>
      </trkpt>
      <trkpt lat="43.87928" lon="6.79552">
        <ele>975.8</ele>
        <time>2013-06-08T07:57:25Z</time>
      </trkpt>
      <trkpt lat="43.87919" lon="6.79531">
        <ele>976.8</ele>
        <time>2013-06-08T07:57:31Z</time>
      </trkpt>
      <trkpt lat="43.87923" lon="6.79512">
        <ele>977.5</ele>
        <time>2013-06-08T07:57:37Z</time>
      </trkpt>
      <trkpt lat="43.87932" lon="6.79494">
        <ele>978</ele>
        <time>2013-06-08T07:57:43Z</time>
      </trkpt>
      <trkpt lat="43.87938" lon="6.79476">
        <ele>978.5</ele>
        <time>2013-06-08T07:57:49Z</time>
      </trkpt>
      <trkpt lat="43.87941" lon="6.79453">
        <ele>979.6</ele>
        <time>2013-06-08T07:57:55Z</time>
      </trkpt>
      <trkpt lat="43.87945" lon="6.79431">
        <ele>981</ele>
        <time>2013-06-08T07:58:01Z</time>
      </trkpt>
      <trkpt lat="43.87953" lon="6.79412">
        <ele>982.3</ele>
        <time>2013-06-08T07:58:07Z</time>
      </trkpt>
      <trkpt lat="43.87964" lon="6.79394">
        <ele>983.9</ele>
        <time>2013-06-08T07:58:13Z</time>
      </trkpt>
      <trkpt lat="43.87969" lon="6.79374">
        <ele>985.6</ele>
        <time>2013-06-08T07:58:19Z</time>
      </trkpt>
      <trkpt lat="43.87966" lon="6.79353">
        <ele>986.8</ele>
        <time>2013-06-08T07:58:25Z</time>
      </trkpt>
      <trkpt lat="43.8796" lon="6.79333">
        <ele>988.2</ele>
        <time>2013-06-08T07:58:31Z</time>
      </trkpt>
      <trkpt lat="43.87947" lon="6.79319">
        <ele>989.1</ele>
        <time>2013-06-08T07:58:37Z</time>
      </trkpt>
      <trkpt lat="43.87931" lon="6.79315">
        <ele>989.8</ele>
        <time>2013-06-08T07:58:43Z</time>
      </trkpt>
      <trkpt lat="43.87917" lon="6.79315">
        <ele>990.2</ele>
        <time>2013-06-08T07:58:49Z</time>
      </trkpt>
      <trkpt lat="43.87902" lon="6.79312">
        <ele>990.3</ele>
        <time>2013-06-08T07:58:55Z</time>
      </trkpt>
      <trkpt lat="43.87888" lon="6.79302">
        <ele>990.8</ele>
        <time>2013-06-08T07:59:01Z</time>
      </trkpt>
      <trkpt lat="43.87879" lon="6.7928">
        <ele>991</ele>
        <time>2013-06-08T07:59:07Z</time>
      </trkpt>
      <trkpt lat="43.8788" lon="6.79258">
        <ele>991.4</ele>
        <time>2013-06-08T07:59:13Z</time>
      </trkpt>
      <trkpt lat="43.87883" lon="6.79237">
        <ele>992.3</ele>
        <time>2013-06-08T07:59:19Z</time>
      </trkpt>
      <trkpt lat="43.87883" lon="6.79218">
        <ele>993.6</ele>
        <time>2013-06-08T07:59:25Z</time>
      </trkpt>
      <trkpt lat="43.87875" lon="6.792">
        <ele>994.8</ele>
        <time>2013-06-08T07:59:31Z</time>
      </trkpt>
      <trkpt lat="43.87864" lon="6.79185">
        <ele>995.8</ele>
        <time>2013-06-08T07:59:37Z</time>
      </trkpt>
      <trkpt lat="43.87854" lon="6.79165">
        <ele>996.2</ele>
        <time>2013-06-08T07:59:43Z</time>
      </trkpt>
      <trkpt lat="43.87845" lon="6.79145">
        <ele>996.3</ele>
        <time>2013-06-08T07:59:49Z</time>
      </trkpt>
      <trkpt lat="43.87831" lon="6.79129">
        <ele>996.2</ele>
        <time>2013-06-08T07:59:55Z</time>
      </trkpt>
      <trkpt lat="43.87815" lon="6.79124">
        <ele>996.3</ele>
        <time>2013-06-08T08:00:01Z</time>
      </trkpt>
      <trkpt lat="43.87796" lon="6.7912">
        <ele>997.3</ele>
        <time>2013-06-08T08:00:07Z</time>
      </trkpt>
      <trkpt lat="43.87789" lon="6.79097">
        <ele>998.6</ele>
        <time>2013-06-08T08:00:13Z</time>
      </trkpt>
      <trkpt lat="43.87796" lon="6.79078">
        <ele>999.5</ele>
        <time>2013-06-08T08:00:19Z</time>
      </trkpt>
      <trkpt lat="43.87803" lon="6.79059">
        <ele>999.9</ele>
        <time>2013-06-08T08:00:25Z</time>
      </trkpt>
      <trkpt lat="43.87806" lon="6.79032">
        <ele>1000.7</ele>
        <time>2013-06-08T08:00:31Z</time>
      </trkpt>
      <trkpt lat="43.87806" lon="6.79006">
        <ele>1001.7</ele>
        <time>2013-06-08T08:00:37Z</time>
      </trkpt>
      <trkpt lat="43.87803" lon="6.78981">
        <ele>1003.1</ele>
        <time>2013-06-08T08:00:43Z</time>
      </trkpt>
      <trkpt lat="43.87799" lon="6.78957">
        <ele>1004.4</ele>
        <time>2013-06-08T08:00:49Z</time>
      </trkpt>
      <trkpt lat="43.87794" lon="6.78933">
        <ele>1005.6</ele>
        <time>2013-06-08T08:00:55Z</time>
      </trkpt>
      <trkpt lat="43.87786" lon="6.78909">
        <ele>1006.6</ele>
        <time>2013-06-08T08:01:01Z</time>
      </trkpt>
      <trkpt lat="43.8778" lon="6.7889">
        <ele>1007.6</ele>
        <time>2013-06-08T08:01:07Z</time>
      </trkpt>
      <trkpt lat="43.87767" lon="6.7887">
        <ele>1008.9</ele>
        <time>2013-06-08T08:01:13Z</time>
      </trkpt>
      <trkpt lat="43.87756" lon="6.78853">
        <ele>1010.1</ele>
        <time>2013-06-08T08:01:19Z</time>
      </trkpt>
      <trkpt lat="43.87754" lon="6.78828">
        <ele>1011</ele>
        <time>2013-06-08T08:01:25Z</time>
      </trkpt>
      <trkpt lat="43.87765" lon="6.7881">
        <ele>1012.4</ele>
        <time>2013-06-08T08:01:31Z</time>
      </trkpt>
      <trkpt lat="43.87774" lon="6.78791">
        <ele>1013.7</ele>
        <time>2013-06-08T08:01:37Z</time>
      </trkpt>
      <trkpt lat="43.87778" lon="6.78768">
        <ele>1014.8</ele>
        <time>2013-06-08T08:01:43Z</time>
      </trkpt>
      <trkpt lat="43.87778" lon="6.78746">
        <ele>1015.7</ele>
        <time>2013-06-08T08:01:49Z</time>
      </trkpt>
      <trkpt lat="43.87774" lon="6.78722">
        <ele>1016.6</ele>
        <time>2013-06-08T08:01:55Z</time>
      </trkpt>
      <trkpt lat="43.87766" lon="6.78702">
        <ele>1017.4</ele>
        <time>2013-06-08T08:02:01Z</time>
      </trkpt>
      <trkpt lat="43.87755" lon="6.78682">
        <ele>1018.3</ele>
        <time>2013-06-08T08:02:07Z</time>
      </trkpt>
      <trkpt lat="43.87741" lon="6.78668">
        <ele>1019</ele>
        <time>2013-06-08T08:02:13Z</time>
      </trkpt>
      <trkpt lat="43.87726" lon="6.78649">
        <ele>1019.8</ele>
        <time>2013-06-08T08:02:19Z</time>
      </trkpt>
      <trkpt lat="43.8772" lon="6.78625">
        <ele>1020.4</ele>
        <time>2013-06-08T08:02:25Z</time>
      </trkpt>
      <trkpt lat="43.87722" lon="6.78596">
        <ele>1020.8</ele>
        <time>2013-06-08T08:02:31Z</time>
      </trkpt>
      <trkpt lat="43.87725" lon="6.78566">
        <ele>1021.3</ele>
        <time>2013-06-08T08:02:37Z</time>
      </trkpt>
      <trkpt lat="43.87731" lon="6.78537">
        <ele>1026</ele>
        <time>2013-06-08T08:02:43Z</time>
      </trkpt>
      <trkpt lat="43.87734" lon="6.78503">
        <ele>1028.3</ele>
        <time>2013-06-08T08:02:49Z</time>
      </trkpt>
      <trkpt lat="43.87725" lon="6.78472">
        <ele>1029.1</ele>
        <time>2013-06-08T08:02:55Z</time>
      </trkpt>
      <trkpt lat="43.87701" lon="6.7846">
        <ele>1028.8</ele>
        <time>2013-06-08T08:03:01Z</time>
      </trkpt>
      <trkpt lat="43.87673" lon="6.78456">
        <ele>1026</ele>
        <time>2013-06-08T08:03:07Z</time>
      </trkpt>
      <trkpt lat="43.87643" lon="6.78441">
        <ele>1026.9</ele>
        <time>2013-06-08T08:03:13Z</time>
      </trkpt>
      <trkpt lat="43.87632" lon="6.78397">
        <ele>1023.9</ele>
        <time>2013-06-08T08:03:19Z</time>
      </trkpt>
      <trkpt lat="43.87637" lon="6.78353">
        <ele>1022.4</ele>
        <time>2013-06-08T08:03:25Z</time>
      </trkpt>
      <trkpt lat="43.8766" lon="6.78329">
        <ele>1020</ele>
        <time>2013-06-08T08:03:31Z</time>
      </trkpt>
      <trkpt lat="43.87687" lon="6.78322">
        <ele>1019.5</ele>
        <time>2013-06-08T08:03:37Z</time>
      </trkpt>
      <trkpt lat="43.87712" lon="6.78312">
        <ele>1018.5</ele>
        <time>2013-06-08T08:03:43Z</time>
      </trkpt>
      <trkpt lat="43.8771" lon="6.7828">
        <ele>1020.6</ele>
        <time>2013-06-08T08:03:49Z</time>
      </trkpt>
      <trkpt lat="43.87686" lon="6.78253">
        <ele>1023.4</ele>
        <time>2013-06-08T08:03:55Z</time>
      </trkpt>
      <trkpt lat="43.87678" lon="6.78217">
        <ele>1026</ele>
        <time>2013-06-08T08:04:01Z</time>
      </trkpt>
      <trkpt lat="43.87681" lon="6.78177">
        <ele>1023.8</ele>
        <time>2013-06-08T08:04:07Z</time>
      </trkpt>
      <trkpt lat="43.8769" lon="6.78137">
        <ele>1022.7</ele>
        <time>2013-06-08T08:04:13Z</time>
      </trkpt>
      <trkpt lat="43.87709" lon="6.78104">
        <ele>1025.2</ele>
        <time>2013-06-08T08:04:19Z</time>
      </trkpt>
      <trkpt lat="43.8772" lon="6.7808">
        <ele>1026.9</ele>
        <time>2013-06-08T08:04:25Z</time>
      </trkpt>
      <trkpt lat="43.8772" lon="6.78078">
        <ele>1026.9</ele>
        <time>2013-06-08T08:04:31Z</time>
      </trkpt>
      <trkpt lat="43.87721" lon="6.78075">
        <ele>1026.2</ele>
        <time>2013-06-08T08:04:37Z</time>
      </trkpt>
      <trkpt lat="43.87723" lon="6.78076">
        <ele>1026</ele>
        <time>2013-06-08T08:04:43Z</time>
      </trkpt>
      <trkpt lat="43.87725" lon="6.78077">
        <ele>1025.9</ele>
        <time>2013-06-08T08:04:49Z</time>
      </trkpt>
      <trkpt lat="43.87725" lon="6.78079">
        <ele>1025.7</ele>
        <time>2013-06-08T08:04:55Z</time>
      </trkpt>
      <trkpt lat="43.87725" lon="6.7808">
        <ele>1025.7</ele>
        <time>2013-06-08T08:05:01Z</time>
      </trkpt>
      <trkpt lat="43.87724" lon="6.78079">
        <ele>1025.7</ele>
        <time>2013-06-08T08:05:07Z</time>
      </trkpt>
      <trkpt lat="43.87724" lon="6.7808">
        <ele>1025.8</ele>
        <time>2013-06-08T08:05:13Z</time>
      </trkpt>
      <trkpt lat="43.87723" lon="6.7808">
        <ele>1025.9</ele>
        <time>2013-06-08T08:05:19Z</time>
      </trkpt>
      <trkpt lat="43.8772" lon="6.78076">
        <ele>1025.7</ele>
        <time>2013-06-08T08:05:25Z</time>
      </trkpt>
      <trkpt lat="43.87712" lon="6.7806">
        <ele>1025.5</ele>
        <time>2013-06-08T08:05:31Z</time>
      </trkpt>
      <trkpt lat="43.87699" lon="6.78035">
        <ele>1026</ele>
        <time>2013-06-08T08:05:37Z</time>
      </trkpt>
      <trkpt lat="43.8768" lon="6.78008">
        <ele>1026.8</ele>
        <time>2013-06-08T08:05:43Z</time>
      </trkpt>
      <trkpt lat="43.87663" lon="6.77966">
        <ele>1026</ele>
        <time>2013-06-08T08:05:49Z</time>
      </trkpt>
      <trkpt lat="43.87654" lon="6.77917">
        <ele>1026.2</ele>
        <time>2013-06-08T08:05:55Z</time>
      </trkpt>
      <trkpt lat="43.87643" lon="6.77871">
        <ele>1025.7</ele>
        <time>2013-06-08T08:06:01Z</time>
      </trkpt>
      <trkpt lat="43.87627" lon="6.77824">
        <ele>1025.4</ele>
        <time>2013-06-08T08:06:07Z</time>
      </trkpt>
      <trkpt lat="43.87603" lon="6.7778">
        <ele>1025.5</ele>
        <time>2013-06-08T08:06:13Z</time>
      </trkpt>
      <trkpt lat="43.87577" lon="6.77738">
        <ele>1026.4</ele>
        <time>2013-06-08T08:06:19Z</time>
      </trkpt>
      <trkpt lat="43.87552" lon="6.77693">
        <ele>1027.7</ele>
        <time>2013-06-08T08:06:25Z</time>
      </trkpt>
      <trkpt lat="43.87527" lon="6.77651">
        <ele>1026.3</ele>
        <time>2013-06-08T08:06:31Z</time>
      </trkpt>
      <trkpt lat="43.87507" lon="6.77601">
        <ele>1022.8</ele>
        <time>2013-06-08T08:06:37Z</time>
      </trkpt>
      <trkpt lat="43.8749" lon="6.77548">
        <ele>1023.1</ele>
        <time>2013-06-08T08:06:43Z</time>
      </trkpt>
      <trkpt lat="43.87472" lon="6.77492">
        <ele>1023.8</ele>
        <time>2013-06-08T08:06:49Z</time>
      </trkpt>
      <trkpt lat="43.87447" lon="6.77443">
        <ele>1022.8</ele>
        <time>2013-06-08T08:06:55Z</time>
      </trkpt>
      <trkpt lat="43.87423" lon="6.774">
        <ele>1022.4</ele>
        <time>2013-06-08T08:07:01Z</time>
      </trkpt>
      <trkpt lat="43.87398" lon="6.77344">
        <ele>1021.5</ele>
        <time>2013-06-08T08:07:07Z</time>
      </trkpt>
      <trkpt lat="43.87374" lon="6.77293">
        <ele>1020.1</ele>
        <time>2013-06-08T08:07:13Z</time>
      </trkpt>
      <trkpt lat="43.87364" lon="6.77223">
        <ele>1018.4</ele>
        <time>2013-06-08T08:07:19Z</time>
      </trkpt>
      <trkpt lat="43.87363" lon="6.77157">
        <ele>1017.3</ele>
        <time>2013-06-08T08:07:25Z</time>
      </trkpt>
      <trkpt lat="43.87361" lon="6.77091">
        <ele>1016.3</ele>
        <time>2013-06-08T08:07:31Z</time>
      </trkpt>
      <trkpt lat="43.87342" lon="6.77036">
        <ele>1016.1</ele>
        <time>2013-06-08T08:07:37Z</time>
      </trkpt>
      <trkpt lat="43.87325" lon="6.76986">
        <ele>1016.6</ele>
        <time>2013-06-08T08:07:43Z</time>
      </trkpt>
      <trkpt lat="43.87311" lon="6.76921">
        <ele>1016.3</ele>
        <time>2013-06-08T08:07:49Z</time>
      </trkpt>
      <trkpt lat="43.87298" lon="6.76863">
        <ele>1015.9</ele>
        <time>2013-06-08T08:07:55Z</time>
      </trkpt>
      <trkpt lat="43.87292" lon="6.76807">
        <ele>1019.4</ele>
        <time>2013-06-08T08:08:01Z</time>
      </trkpt>
      <trkpt lat="43.8727" lon="6.76765">
        <ele>1021</ele>
        <time>2013-06-08T08:08:07Z</time>
      </trkpt>
      <trkpt lat="43.87245" lon="6.76729">
        <ele>1019.3</ele>
        <time>2013-06-08T08:08:13Z</time>
      </trkpt>
      <trkpt lat="43.87225" lon="6.76685">
        <ele>1017.7</ele>
        <time>2013-06-08T08:08:19Z</time>
      </trkpt>
      <trkpt lat="43.87209" lon="6.76639">
        <ele>1017.7</ele>
        <time>2013-06-08T08:08:25Z</time>
      </trkpt>
      <trkpt lat="43.87193" lon="6.76599">
        <ele>1015.6</ele>
        <time>2013-06-08T08:08:31Z</time>
      </trkpt>
      <trkpt lat="43.87174" lon="6.76559">
        <ele>1016.8</ele>
        <time>2013-06-08T08:08:37Z</time>
      </trkpt>
      <trkpt lat="43.8715" lon="6.76533">
        <ele>1017.3</ele>
        <time>2013-06-08T08:08:43Z</time>
      </trkpt>
      <trkpt lat="43.87123" lon="6.76508">
        <ele>1015.2</ele>
        <time>2013-06-08T08:08:49Z</time>
      </trkpt>
      <trkpt lat="43.87104" lon="6.76479">
        <ele>1016.6</ele>
        <time>2013-06-08T08:08:55Z</time>
      </trkpt>
      <trkpt lat="43.87085" lon="6.76446">
        <ele>1019.1</ele>
        <time>2013-06-08T08:09:01Z</time>
      </trkpt>
      <trkpt lat="43.87049" lon="6.76425">
        <ele>1018.8</ele>
        <time>2013-06-08T08:09:07Z</time>
      </trkpt>
      <trkpt lat="43.87018" lon="6.76394">
        <ele>1018.1</ele>
        <time>2013-06-08T08:09:13Z</time>
      </trkpt>
      <trkpt lat="43.86998" lon="6.76357">
        <ele>1017.6</ele>
        <time>2013-06-08T08:09:19Z</time>
      </trkpt>
      <trkpt lat="43.86967" lon="6.76334">
        <ele>1017</ele>
        <time>2013-06-08T08:09:25Z</time>
      </trkpt>
      <trkpt lat="43.86935" lon="6.76328">
        <ele>1016.6</ele>
        <time>2013-06-08T08:09:31Z</time>
      </trkpt>
      <trkpt lat="43.86912" lon="6.76292">
        <ele>1012.2</ele>
        <time>2013-06-08T08:09:37Z</time>
      </trkpt>
      <trkpt lat="43.86902" lon="6.76245">
        <ele>1011.3</ele>
        <time>2013-06-08T08:09:43Z</time>
      </trkpt>
      <trkpt lat="43.86889" lon="6.76194">
        <ele>1012.2</ele>
        <time>2013-06-08T08:09:49Z</time>
      </trkpt>
      <trkpt lat="43.86868" lon="6.76161">
        <ele>1012.9</ele>
        <time>2013-06-08T08:09:55Z</time>
      </trkpt>
      <trkpt lat="43.86835" lon="6.76166">
        <ele>1011.8</ele>
        <time>2013-06-08T08:10:01Z</time>
      </trkpt>
      <trkpt lat="43.86809" lon="6.76165">
        <ele>1013.4</ele>
        <time>2013-06-08T08:10:07Z</time>
      </trkpt>
      <trkpt lat="43.86784" lon="6.76147">
        <ele>1014.4</ele>
        <time>2013-06-08T08:10:13Z</time>
      </trkpt>
      <trkpt lat="43.86762" lon="6.76115">
        <ele>1015</ele>
        <time>2013-06-08T08:10:19Z</time>
      </trkpt>
      <trkpt lat="43.86743" lon="6.76076">
        <ele>1014</ele>
        <time>2013-06-08T08:10:25Z</time>
      </trkpt>
      <trkpt lat="43.86727" lon="6.76029">
        <ele>1014.8</ele>
        <time>2013-06-08T08:10:31Z</time>
      </trkpt>
      <trkpt lat="43.8671" lon="6.75993">
        <ele>1013.1</ele>
        <time>2013-06-08T08:10:37Z</time>
      </trkpt>
      <trkpt lat="43.86689" lon="6.75964">
        <ele>1011.7</ele>
        <time>2013-06-08T08:10:43Z</time>
      </trkpt>
      <trkpt lat="43.86665" lon="6.75937">
        <ele>1012.4</ele>
        <time>2013-06-08T08:10:49Z</time>
      </trkpt>
      <trkpt lat="43.8664" lon="6.75907">
        <ele>1015.1</ele>
        <time>2013-06-08T08:10:55Z</time>
      </trkpt>
      <trkpt lat="43.86617" lon="6.7588">
        <ele>1012.7</ele>
        <time>2013-06-08T08:11:01Z</time>
      </trkpt>
      <trkpt lat="43.86588" lon="6.75866">
        <ele>1013.6</ele>
        <time>2013-06-08T08:11:07Z</time>
      </trkpt>
      <trkpt lat="43.86562" lon="6.75866">
        <ele>1013.5</ele>
        <time>2013-06-08T08:11:13Z</time>
      </trkpt>
      <trkpt lat="43.86541" lon="6.75863">
        <ele>1013.6</ele>
        <time>2013-06-08T08:11:19Z</time>
      </trkpt>
      <trkpt lat="43.86528" lon="6.75853">
        <ele>1014</ele>
        <time>2013-06-08T08:11:25Z</time>
      </trkpt>
      <trkpt lat="43.86518" lon="6.75838">
        <ele>1014.2</ele>
        <time>2013-06-08T08:11:31Z</time>
      </trkpt>
      <trkpt lat="43.86503" lon="6.7582">
        <ele>1014.7</ele>
        <time>2013-06-08T08:11:37Z</time>
      </trkpt>
      <trkpt lat="43.86494" lon="6.75796">
        <ele>1015</ele>
        <time>2013-06-08T08:11:43Z</time>
      </trkpt>
      <trkpt lat="43.86487" lon="6.75775">
        <ele>1015.9</ele>
        <time>2013-06-08T08:11:49Z</time>
      </trkpt>
      <trkpt lat="43.86478" lon="6.75757">
        <ele>1016.6</ele>
        <time>2013-06-08T08:11:55Z</time>
      </trkpt>
      <trkpt lat="43.86467" lon="6.7574">
        <ele>1017.3</ele>
        <time>2013-06-08T08:12:01Z</time>
      </trkpt>
      <trkpt lat="43.86459" lon="6.75727">
        <ele>1017.9</ele>
        <time>2013-06-08T08:12:07Z</time>
      </trkpt>
      <trkpt lat="43.86458" lon="6.75725">
        <ele>1018.3</ele>
        <time>2013-06-08T08:12:13Z</time>
      </trkpt>
      <trkpt lat="43.86458" lon="6.75725">
        <ele>1018.3</ele>
        <time>2013-06-08T08:12:19Z</time>
      </trkpt>
      <trkpt lat="43.86458" lon="6.75725">
        <ele>1018.4</ele>
        <time>2013-06-08T08:12:25Z</time>
      </trkpt>
      <trkpt lat="43.86458" lon="6.75725">
        <ele>1018.5</ele>
        <time>2013-06-08T08:12:31Z</time>
      </trkpt>
      <trkpt lat="43.86458" lon="6.75725">
        <ele>1018.8</ele>
        <time>2013-06-08T08:12:37Z</time>
      </trkpt>
      <trkpt lat="43.86458" lon="6.75725">
        <ele>1018.6</ele>
        <time>2013-06-08T08:12:43Z</time>
      </trkpt>
      <trkpt lat="43.86458" lon="6.75725">
        <ele>1018.6</ele>
        <time>2013-06-08T08:12:49Z</time>
      </trkpt>
      <trkpt lat="43.86462" lon="6.75727">
        <ele>1018.1</ele>
        <time>2013-06-08T08:12:55Z</time>
      </trkpt>
      <trkpt lat="43.86462" lon="6.75727">
        <ele>1017.8</ele>
        <time>2013-06-08T08:13:01Z</time>
      </trkpt>
      <trkpt lat="43.86462" lon="6.75727">
        <ele>1017.3</ele>
        <time>2013-06-08T08:13:07Z</time>
      </trkpt>
      <trkpt lat="43.86462" lon="6.75727">
        <ele>1016.8</ele>
        <time>2013-06-08T08:13:13Z</time>
      </trkpt>
      <trkpt lat="43.86462" lon="6.75727">
        <ele>1016.6</ele>
        <time>2013-06-08T08:13:19Z</time>
      </trkpt>
      <trkpt lat="43.86462" lon="6.75727">
        <ele>1016.4</ele>
        <time>2013-06-08T08:13:25Z</time>
      </trkpt>
      <trkpt lat="43.86462" lon="6.75727">
        <ele>1016.2</ele>
        <time>2013-06-08T08:13:31Z</time>
      </trkpt>
      <trkpt lat="43.86462" lon="6.75727">
        <ele>1016.1</ele>
        <time>2013-06-08T08:13:37Z</time>
      </trkpt>
      <trkpt lat="43.86462" lon="6.75727">
        <ele>1016</ele>
        <time>2013-06-08T08:13:43Z</time>
      </trkpt>
      <trkpt lat="43.86462" lon="6.75727">
        <ele>1015.7</ele>
        <time>2013-06-08T08:13:49Z</time>
      </trkpt>
      <trkpt lat="43.86462" lon="6.75727">
        <ele>1015.6</ele>
        <time>2013-06-08T08:13:55Z</time>
      </trkpt>
      <trkpt lat="43.86462" lon="6.75727">
        <ele>1015.5</ele>
        <time>2013-06-08T08:14:01Z</time>
      </trkpt>
      <trkpt lat="43.86462" lon="6.75727">
        <ele>1015.5</ele>
        <time>2013-06-08T08:14:07Z</time>
      </trkpt>
      <trkpt lat="43.86462" lon="6.75727">
        <ele>1015.5</ele>
        <time>2013-06-08T08:14:13Z</time>
      </trkpt>
      <trkpt lat="43.86462" lon="6.75727">
        <ele>1015.5</ele>
        <time>2013-06-08T08:14:19Z</time>
      </trkpt>
      <trkpt lat="43.86462" lon="6.75727">
        <ele>1015.3</ele>
        <time>2013-06-08T08:14:25Z</time>
      </trkpt>
      <trkpt lat="43.86462" lon="6.75727">
        <ele>1015.3</ele>
        <time>2013-06-08T08:14:31Z</time>
      </trkpt>
      <trkpt lat="43.86462" lon="6.75727">
        <ele>1015.3</ele>
        <time>2013-06-08T08:14:37Z</time>
      </trkpt>
      <trkpt lat="43.86462" lon="6.75727">
        <ele>1015.1</ele>
        <time>2013-06-08T08:14:43Z</time>
      </trkpt>
      <trkpt lat="43.8646" lon="6.7573">
        <ele>1015</ele>
        <time>2013-06-08T08:14:49Z</time>
      </trkpt>
      <trkpt lat="43.86463" lon="6.75729">
        <ele>1014.5</ele>
        <time>2013-06-08T08:14:55Z</time>
      </trkpt>
      <trkpt lat="43.86466" lon="6.7573">
        <ele>1013</ele>
        <time>2013-06-08T08:15:01Z</time>
      </trkpt>
      <trkpt lat="43.86466" lon="6.7573">
        <ele>1012.3</ele>
        <time>2013-06-08T08:15:07Z</time>
      </trkpt>
      <trkpt lat="43.86466" lon="6.7573">
        <ele>1012.2</ele>
        <time>2013-06-08T08:15:13Z</time>
      </trkpt>
      <trkpt lat="43.86466" lon="6.7573">
        <ele>1012.3</ele>
        <time>2013-06-08T08:15:19Z</time>
      </trkpt>
      <trkpt lat="43.86466" lon="6.7573">
        <ele>1012.6</ele>
        <time>2013-06-08T08:15:25Z</time>
      </trkpt>
      <trkpt lat="43.86466" lon="6.7573">
        <ele>1012.8</ele>
        <time>2013-06-08T08:15:31Z</time>
      </trkpt>
      <trkpt lat="43.86466" lon="6.7573">
        <ele>1013</ele>
        <time>2013-06-08T08:15:37Z</time>
      </trkpt>
      <trkpt lat="43.86466" lon="6.7573">
        <ele>1013.2</ele>
        <time>2013-06-08T08:15:43Z</time>
      </trkpt>
      <trkpt lat="43.86466" lon="6.7573">
        <ele>1013.9</ele>
        <time>2013-06-08T08:15:49Z</time>
      </trkpt>
      <trkpt lat="43.86466" lon="6.7573">
        <ele>1014.8</ele>
        <time>2013-06-08T08:15:55Z</time>
      </trkpt>
      <trkpt lat="43.86461" lon="6.75733">
        <ele>1015.4</ele>
        <time>2013-06-08T08:16:01Z</time>
      </trkpt>
      <trkpt lat="43.86456" lon="6.75731">
        <ele>1015.6</ele>
        <time>2013-06-08T08:16:07Z</time>
      </trkpt>
      <trkpt lat="43.86456" lon="6.75731">
        <ele>1015.8</ele>
        <time>2013-06-08T08:16:13Z</time>
      </trkpt>
      <trkpt lat="43.86456" lon="6.75731">
        <ele>1015.9</ele>
        <time>2013-06-08T08:16:19Z</time>
      </trkpt>
      <trkpt lat="43.86456" lon="6.75733">
        <ele>1016</ele>
        <time>2013-06-08T08:16:25Z</time>
      </trkpt>
      <trkpt lat="43.86455" lon="6.75733">
        <ele>1016.3</ele>
        <time>2013-06-08T08:16:31Z</time>
      </trkpt>
      <trkpt lat="43.86454" lon="6.75734">
        <ele>1016.7</ele>
        <time>2013-06-08T08:16:37Z</time>
      </trkpt>
      <trkpt lat="43.86453" lon="6.75728">
        <ele>1017.3</ele>
        <time>2013-06-08T08:16:43Z</time>
      </trkpt>
      <trkpt lat="43.86452" lon="6.75723">
        <ele>1017.8</ele>
        <time>2013-06-08T08:16:49Z</time>
      </trkpt>
      <trkpt lat="43.86454" lon="6.75723">
        <ele>1018.2</ele>
        <time>2013-06-08T08:16:55Z</time>
      </trkpt>
      <trkpt lat="43.86455" lon="6.75727">
        <ele>1018.6</ele>
        <time>2013-06-08T08:17:01Z</time>
      </trkpt>
      <trkpt lat="43.86457" lon="6.7573">
        <ele>1018.7</ele>
        <time>2013-06-08T08:17:07Z</time>
      </trkpt>
      <trkpt lat="43.86459" lon="6.75735">
        <ele>1018.8</ele>
        <time>2013-06-08T08:17:13Z</time>
      </trkpt>
      <trkpt lat="43.86462" lon="6.75744">
        <ele>1019.1</ele>
        <time>2013-06-08T08:17:19Z</time>
      </trkpt>
      <trkpt lat="43.86455" lon="6.75735">
        <ele>1018.6</ele>
        <time>2013-06-08T08:17:25Z</time>
      </trkpt>
      <trkpt lat="43.8645" lon="6.757">
        <ele>1018.3</ele>
        <time>2013-06-08T08:17:31Z</time>
      </trkpt>
      <trkpt lat="43.86457" lon="6.7567">
        <ele>1014.5</ele>
        <time>2013-06-08T08:17:37Z</time>
      </trkpt>
      <trkpt lat="43.86471" lon="6.75644">
        <ele>1013.3</ele>
        <time>2013-06-08T08:17:43Z</time>
      </trkpt>
      <trkpt lat="43.86479" lon="6.75617">
        <ele>1012.6</ele>
        <time>2013-06-08T08:17:49Z</time>
      </trkpt>
      <trkpt lat="43.86485" lon="6.75583">
        <ele>1009.8</ele>
        <time>2013-06-08T08:17:55Z</time>
      </trkpt>
      <trkpt lat="43.86482" lon="6.75549">
        <ele>1007.9</ele>
        <time>2013-06-08T08:18:01Z</time>
      </trkpt>
      <trkpt lat="43.86474" lon="6.75516">
        <ele>1010.3</ele>
        <time>2013-06-08T08:18:07Z</time>
      </trkpt>
      <trkpt lat="43.86466" lon="6.75483">
        <ele>1014.2</ele>
        <time>2013-06-08T08:18:13Z</time>
      </trkpt>
      <trkpt lat="43.86464" lon="6.75448">
        <ele>1016.1</ele>
        <time>2013-06-08T08:18:19Z</time>
      </trkpt>
      <trkpt lat="43.86466" lon="6.75412">
        <ele>1019.1</ele>
        <time>2013-06-08T08:18:25Z</time>
      </trkpt>
      <trkpt lat="43.86462" lon="6.75372">
        <ele>1019.8</ele>
        <time>2013-06-08T08:18:31Z</time>
      </trkpt>
      <trkpt lat="43.86451" lon="6.75336">
        <ele>1017.6</ele>
        <time>2013-06-08T08:18:37Z</time>
      </trkpt>
      <trkpt lat="43.86443" lon="6.75302">
        <ele>1016.3</ele>
        <time>2013-06-08T08:18:43Z</time>
      </trkpt>
      <trkpt lat="43.86433" lon="6.75269">
        <ele>1016</ele>
        <time>2013-06-08T08:18:49Z</time>
      </trkpt>
      <trkpt lat="43.86423" lon="6.75232">
        <ele>1017.6</ele>
        <time>2013-06-08T08:18:55Z</time>
      </trkpt>
      <trkpt lat="43.86412" lon="6.75203">
        <ele>1013.7</ele>
        <time>2013-06-08T08:19:01Z</time>
      </trkpt>
      <trkpt lat="43.86397" lon="6.75174">
        <ele>1012.7</ele>
        <time>2013-06-08T08:19:07Z</time>
      </trkpt>
      <trkpt lat="43.86375" lon="6.75151">
        <ele>1013.3</ele>
        <time>2013-06-08T08:19:13Z</time>
      </trkpt>
      <trkpt lat="43.86353" lon="6.7512">
        <ele>1011.1</ele>
        <time>2013-06-08T08:19:19Z</time>
      </trkpt>
      <trkpt lat="43.86342" lon="6.75081">
        <ele>1013.2</ele>
        <time>2013-06-08T08:19:25Z</time>
      </trkpt>
      <trkpt lat="43.86333" lon="6.7504">
        <ele>1015.9</ele>
        <time>2013-06-08T08:19:31Z</time>
      </trkpt>
      <trkpt lat="43.86327" lon="6.74991">
        <ele>1015.8</ele>
        <time>2013-06-08T08:19:37Z</time>
      </trkpt>
      <trkpt lat="43.86335" lon="6.74945">
        <ele>1013.9</ele>
        <time>2013-06-08T08:19:43Z</time>
      </trkpt>
      <trkpt lat="43.86347" lon="6.74901">
        <ele>1008.1</ele>
        <time>2013-06-08T08:19:49Z</time>
      </trkpt>
      <trkpt lat="43.86358" lon="6.74851">
        <ele>1006.7</ele>
        <time>2013-06-08T08:19:55Z</time>
      </trkpt>
      <trkpt lat="43.86372" lon="6.748">
        <ele>1008</ele>
        <time>2013-06-08T08:20:01Z</time>
      </trkpt>
      <trkpt lat="43.86395" lon="6.74756">
        <ele>1008.9</ele>
        <time>2013-06-08T08:20:07Z</time>
      </trkpt>
      <trkpt lat="43.86415" lon="6.74713">
        <ele>1009.4</ele>
        <time>2013-06-08T08:20:13Z</time>
      </trkpt>
      <trkpt lat="43.86429" lon="6.74672">
        <ele>1006.5</ele>
        <time>2013-06-08T08:20:19Z</time>
      </trkpt>
      <trkpt lat="43.86442" lon="6.74627">
        <ele>1005.1</ele>
        <time>2013-06-08T08:20:25Z</time>
      </trkpt>
      <trkpt lat="43.86447" lon="6.74578">
        <ele>1006.1</ele>
        <time>2013-06-08T08:20:31Z</time>
      </trkpt>
      <trkpt lat="43.86449" lon="6.74529">
        <ele>1006</ele>
        <time>2013-06-08T08:20:37Z</time>
      </trkpt>
      <trkpt lat="43.86451" lon="6.74481">
        <ele>1007</ele>
        <time>2013-06-08T08:20:43Z</time>
      </trkpt>
      <trkpt lat="43.8647" lon="6.74436">
        <ele>1008.7</ele>
        <time>2013-06-08T08:20:49Z</time>
      </trkpt>
      <trkpt lat="43.86457" lon="6.74399">
        <ele>1010.7</ele>
        <time>2013-06-08T08:20:55Z</time>
      </trkpt>
      <trkpt lat="43.86429" lon="6.74374">
        <ele>1011.4</ele>
        <time>2013-06-08T08:21:01Z</time>
      </trkpt>
      <trkpt lat="43.86399" lon="6.74341">
        <ele>1006.1</ele>
        <time>2013-06-08T08:21:07Z</time>
      </trkpt>
      <trkpt lat="43.86377" lon="6.74298">
        <ele>1005.9</ele>
        <time>2013-06-08T08:21:13Z</time>
      </trkpt>
      <trkpt lat="43.86357" lon="6.74252">
        <ele>1006.6</ele>
        <time>2013-06-08T08:21:19Z</time>
      </trkpt>
      <trkpt lat="43.86329" lon="6.74225">
        <ele>1006.1</ele>
        <time>2013-06-08T08:21:25Z</time>
      </trkpt>
      <trkpt lat="43.86297" lon="6.74207">
        <ele>1004.8</ele>
        <time>2013-06-08T08:21:31Z</time>
      </trkpt>
      <trkpt lat="43.86274" lon="6.74172">
        <ele>1004.6</ele>
        <time>2013-06-08T08:21:37Z</time>
      </trkpt>
      <trkpt lat="43.86269" lon="6.74121">
        <ele>1007</ele>
        <time>2013-06-08T08:21:43Z</time>
      </trkpt>
      <trkpt lat="43.86268" lon="6.74068">
        <ele>1008.2</ele>
        <time>2013-06-08T08:21:49Z</time>
      </trkpt>
      <trkpt lat="43.86267" lon="6.74016">
        <ele>1007.7</ele>
        <time>2013-06-08T08:21:55Z</time>
      </trkpt>
      <trkpt lat="43.86265" lon="6.73964">
        <ele>1007.2</ele>
        <time>2013-06-08T08:22:01Z</time>
      </trkpt>
      <trkpt lat="43.86287" lon="6.73924">
        <ele>1005.8</ele>
        <time>2013-06-08T08:22:07Z</time>
      </trkpt>
      <trkpt lat="43.86324" lon="6.73897">
        <ele>1005.5</ele>
        <time>2013-06-08T08:22:13Z</time>
      </trkpt>
      <trkpt lat="43.86322" lon="6.73838">
        <ele>1007.3</ele>
        <time>2013-06-08T08:22:19Z</time>
      </trkpt>
      <trkpt lat="43.86307" lon="6.73783">
        <ele>1006.5</ele>
        <time>2013-06-08T08:22:25Z</time>
      </trkpt>
      <trkpt lat="43.86293" lon="6.73734">
        <ele>1007.5</ele>
        <time>2013-06-08T08:22:31Z</time>
      </trkpt>
      <trkpt lat="43.86281" lon="6.73685">
        <ele>1003.9</ele>
        <time>2013-06-08T08:22:37Z</time>
      </trkpt>
      <trkpt lat="43.86292" lon="6.73634">
        <ele>1003.5</ele>
        <time>2013-06-08T08:22:43Z</time>
      </trkpt>
      <trkpt lat="43.86295" lon="6.73589">
        <ele>1004.4</ele>
        <time>2013-06-08T08:22:49Z</time>
      </trkpt>
      <trkpt lat="43.86261" lon="6.73582">
        <ele>1002.7</ele>
        <time>2013-06-08T08:22:55Z</time>
      </trkpt>
      <trkpt lat="43.86226" lon="6.73568">
        <ele>999</ele>
        <time>2013-06-08T08:23:01Z</time>
      </trkpt>
      <trkpt lat="43.86194" lon="6.73594">
        <ele>995.7</ele>
        <time>2013-06-08T08:23:07Z</time>
      </trkpt>
      <trkpt lat="43.8617" lon="6.73639">
        <ele>993</ele>
        <time>2013-06-08T08:23:13Z</time>
      </trkpt>
      <trkpt lat="43.86148" lon="6.73687">
        <ele>995</ele>
        <time>2013-06-08T08:23:19Z</time>
      </trkpt>
      <trkpt lat="43.86126" lon="6.73735">
        <ele>997.2</ele>
        <time>2013-06-08T08:23:25Z</time>
      </trkpt>
      <trkpt lat="43.8609" lon="6.73739">
        <ele>999.4</ele>
        <time>2013-06-08T08:23:31Z</time>
      </trkpt>
      <trkpt lat="43.86056" lon="6.73705">
        <ele>1001.1</ele>
        <time>2013-06-08T08:23:37Z</time>
      </trkpt>
      <trkpt lat="43.86043" lon="6.73641">
        <ele>999.7</ele>
        <time>2013-06-08T08:23:43Z</time>
      </trkpt>
      <trkpt lat="43.86032" lon="6.73569">
        <ele>999</ele>
        <time>2013-06-08T08:23:49Z</time>
      </trkpt>
      <trkpt lat="43.86048" lon="6.73507">
        <ele>996.4</ele>
        <time>2013-06-08T08:23:55Z</time>
      </trkpt>
      <trkpt lat="43.86061" lon="6.73442">
        <ele>994.9</ele>
        <time>2013-06-08T08:24:01Z</time>
      </trkpt>
      <trkpt lat="43.86054" lon="6.73379">
        <ele>994.4</ele>
        <time>2013-06-08T08:24:07Z</time>
      </trkpt>
      <trkpt lat="43.86049" lon="6.73303">
        <ele>995</ele>
        <time>2013-06-08T08:24:13Z</time>
      </trkpt>
      <trkpt lat="43.86034" lon="6.73233">
        <ele>990.6</ele>
        <time>2013-06-08T08:24:19Z</time>
      </trkpt>
      <trkpt lat="43.86035" lon="6.73171">
        <ele>986.1</ele>
        <time>2013-06-08T08:24:25Z</time>
      </trkpt>
      <trkpt lat="43.86062" lon="6.73104">
        <ele>983.1</ele>
        <time>2013-06-08T08:24:31Z</time>
      </trkpt>
      <trkpt lat="43.86076" lon="6.73031">
        <ele>981.3</ele>
        <time>2013-06-08T08:24:37Z</time>
      </trkpt>
      <trkpt lat="43.86084" lon="6.72954">
        <ele>978.2</ele>
        <time>2013-06-08T08:24:43Z</time>
      </trkpt>
      <trkpt lat="43.86094" lon="6.72886">
        <ele>978.4</ele>
        <time>2013-06-08T08:24:49Z</time>
      </trkpt>
      <trkpt lat="43.86089" lon="6.72821">
        <ele>981.8</ele>
        <time>2013-06-08T08:24:55Z</time>
      </trkpt>
      <trkpt lat="43.86047" lon="6.72812">
        <ele>978.2</ele>
        <time>2013-06-08T08:25:01Z</time>
      </trkpt>
      <trkpt lat="43.86001" lon="6.72829">
        <ele>974.8</ele>
        <time>2013-06-08T08:25:07Z</time>
      </trkpt>
      <trkpt lat="43.85966" lon="6.72817">
        <ele>974.2</ele>
        <time>2013-06-08T08:25:13Z</time>
      </trkpt>
      <trkpt lat="43.86" lon="6.72775">
        <ele>975.4</ele>
        <time>2013-06-08T08:25:19Z</time>
      </trkpt>
      <trkpt lat="43.86052" lon="6.72743">
        <ele>971.4</ele>
        <time>2013-06-08T08:25:25Z</time>
      </trkpt>
      <trkpt lat="43.86101" lon="6.72714">
        <ele>967.1</ele>
        <time>2013-06-08T08:25:31Z</time>
      </trkpt>
      <trkpt lat="43.86125" lon="6.72665">
        <ele>965.7</ele>
        <time>2013-06-08T08:25:37Z</time>
      </trkpt>
      <trkpt lat="43.86102" lon="6.72629">
        <ele>963.1</ele>
        <time>2013-06-08T08:25:43Z</time>
      </trkpt>
      <trkpt lat="43.86062" lon="6.72635">
        <ele>957.3</ele>
        <time>2013-06-08T08:25:49Z</time>
      </trkpt>
      <trkpt lat="43.86019" lon="6.72628">
        <ele>955.1</ele>
        <time>2013-06-08T08:25:55Z</time>
      </trkpt>
      <trkpt lat="43.8598" lon="6.72609">
        <ele>955.5</ele>
        <time>2013-06-08T08:26:01Z</time>
      </trkpt>
      <trkpt lat="43.85928" lon="6.72616">
        <ele>955.3</ele>
        <time>2013-06-08T08:26:07Z</time>
      </trkpt>
      <trkpt lat="43.85872" lon="6.72646">
        <ele>955.1</ele>
        <time>2013-06-08T08:26:13Z</time>
      </trkpt>
      <trkpt lat="43.85824" lon="6.72654">
        <ele>954.4</ele>
        <time>2013-06-08T08:26:19Z</time>
      </trkpt>
      <trkpt lat="43.85803" lon="6.72591">
        <ele>950.4</ele>
        <time>2013-06-08T08:26:25Z</time>
      </trkpt>
      <trkpt lat="43.85809" lon="6.72513">
        <ele>945.6</ele>
        <time>2013-06-08T08:26:31Z</time>
      </trkpt>
      <trkpt lat="43.85798" lon="6.72481">
        <ele>942.8</ele>
        <time>2013-06-08T08:26:37Z</time>
      </trkpt>
      <trkpt lat="43.85762" lon="6.7252">
        <ele>935.6</ele>
        <time>2013-06-08T08:26:43Z</time>
      </trkpt>
      <trkpt lat="43.85741" lon="6.72502">
        <ele>929.9</ele>
        <time>2013-06-08T08:26:49Z</time>
      </trkpt>
      <trkpt lat="43.85758" lon="6.72437">
        <ele>925.8</ele>
        <time>2013-06-08T08:26:55Z</time>
      </trkpt>
      <trkpt lat="43.85813" lon="6.72427">
        <ele>923.5</ele>
        <time>2013-06-08T08:27:01Z</time>
      </trkpt>
      <trkpt lat="43.85841" lon="6.72401">
        <ele>921</ele>
        <time>2013-06-08T08:27:07Z</time>
      </trkpt>
      <trkpt lat="43.85798" lon="6.72408">
        <ele>920.6</ele>
        <time>2013-06-08T08:27:13Z</time>
      </trkpt>
      <trkpt lat="43.85755" lon="6.72395">
        <ele>922</ele>
        <time>2013-06-08T08:27:19Z</time>
      </trkpt>
      <trkpt lat="43.85746" lon="6.72318">
        <ele>920.7</ele>
        <time>2013-06-08T08:27:25Z</time>
      </trkpt>
      <trkpt lat="43.85737" lon="6.72241">
        <ele>914.2</ele>
        <time>2013-06-08T08:27:31Z</time>
      </trkpt>
      <trkpt lat="43.8573" lon="6.72193">
        <ele>907</ele>
        <time>2013-06-08T08:27:37Z</time>
      </trkpt>
      <trkpt lat="43.85734" lon="6.72158">
        <ele>906.8</ele>
        <time>2013-06-08T08:27:43Z</time>
      </trkpt>
      <trkpt lat="43.85736" lon="6.72131">
        <ele>907.5</ele>
        <time>2013-06-08T08:27:49Z</time>
      </trkpt>
      <trkpt lat="43.85733" lon="6.72107">
        <ele>908.3</ele>
        <time>2013-06-08T08:27:55Z</time>
      </trkpt>
      <trkpt lat="43.85729" lon="6.72087">
        <ele>909.3</ele>
        <time>2013-06-08T08:28:01Z</time>
      </trkpt>
      <trkpt lat="43.85722" lon="6.72065">
        <ele>910</ele>
        <time>2013-06-08T08:28:07Z</time>
      </trkpt>
      <trkpt lat="43.8572" lon="6.72044">
        <ele>910.5</ele>
        <time>2013-06-08T08:28:13Z</time>
      </trkpt>
      <trkpt lat="43.85719" lon="6.72024">
        <ele>911.1</ele>
        <time>2013-06-08T08:28:19Z</time>
      </trkpt>
      <trkpt lat="43.85718" lon="6.72002">
        <ele>911.9</ele>
        <time>2013-06-08T08:28:25Z</time>
      </trkpt>
      <trkpt lat="43.85713" lon="6.71986">
        <ele>912.4</ele>
        <time>2013-06-08T08:28:31Z</time>
      </trkpt>
      <trkpt lat="43.85707" lon="6.71999">
        <ele>912.2</ele>
        <time>2013-06-08T08:28:37Z</time>
      </trkpt>
      <trkpt lat="43.85709" lon="6.72022">
        <ele>911.3</ele>
        <time>2013-06-08T08:28:43Z</time>
      </trkpt>
      <trkpt lat="43.8571" lon="6.72047">
        <ele>910.4</ele>
        <time>2013-06-08T08:28:49Z</time>
      </trkpt>
      <trkpt lat="43.85709" lon="6.7207">
        <ele>910.5</ele>
        <time>2013-06-08T08:28:55Z</time>
      </trkpt>
      <trkpt lat="43.8571" lon="6.72094">
        <ele>910.7</ele>
        <time>2013-06-08T08:29:01Z</time>
      </trkpt>
      <trkpt lat="43.85705" lon="6.72118">
        <ele>911.1</ele>
        <time>2013-06-08T08:29:07Z</time>
      </trkpt>
      <trkpt lat="43.85701" lon="6.72142">
        <ele>912</ele>
        <time>2013-06-08T08:29:13Z</time>
      </trkpt>
      <trkpt lat="43.85697" lon="6.72163">
        <ele>912.7</ele>
        <time>2013-06-08T08:29:19Z</time>
      </trkpt>
      <trkpt lat="43.85693" lon="6.72186">
        <ele>913.6</ele>
        <time>2013-06-08T08:29:25Z</time>
      </trkpt>
      <trkpt lat="43.85688" lon="6.72212">
        <ele>914.6</ele>
        <time>2013-06-08T08:29:31Z</time>
      </trkpt>
      <trkpt lat="43.85683" lon="6.72229">
        <ele>915.4</ele>
        <time>2013-06-08T08:29:37Z</time>
      </trkpt>
      <trkpt lat="43.8568" lon="6.72216">
        <ele>916.8</ele>
        <time>2013-06-08T08:29:43Z</time>
      </trkpt>
      <trkpt lat="43.85681" lon="6.72197">
        <ele>917.9</ele>
        <time>2013-06-08T08:29:49Z</time>
      </trkpt>
      <trkpt lat="43.85682" lon="6.72179">
        <ele>919.3</ele>
        <time>2013-06-08T08:29:55Z</time>
      </trkpt>
      <trkpt lat="43.85683" lon="6.72159">
        <ele>920.9</ele>
        <time>2013-06-08T08:30:01Z</time>
      </trkpt>
      <trkpt lat="43.85683" lon="6.72139">
        <ele>922.3</ele>
        <time>2013-06-08T08:30:07Z</time>
      </trkpt>
      <trkpt lat="43.85684" lon="6.72117">
        <ele>923.5</ele>
        <time>2013-06-08T08:30:13Z</time>
      </trkpt>
      <trkpt lat="43.85687" lon="6.72097">
        <ele>925</ele>
        <time>2013-06-08T08:30:19Z</time>
      </trkpt>
      <trkpt lat="43.8569" lon="6.72076">
        <ele>926.5</ele>
        <time>2013-06-08T08:30:25Z</time>
      </trkpt>
      <trkpt lat="43.85689" lon="6.72058">
        <ele>928.2</ele>
        <time>2013-06-08T08:30:31Z</time>
      </trkpt>
      <trkpt lat="43.85689" lon="6.72036">
        <ele>929.7</ele>
        <time>2013-06-08T08:30:37Z</time>
      </trkpt>
      <trkpt lat="43.8568" lon="6.72028">
        <ele>930.4</ele>
        <time>2013-06-08T08:30:43Z</time>
      </trkpt>
      <trkpt lat="43.85676" lon="6.72042">
        <ele>930.3</ele>
        <time>2013-06-08T08:30:49Z</time>
      </trkpt>
      <trkpt lat="43.85678" lon="6.72061">
        <ele>930.1</ele>
        <time>2013-06-08T08:30:55Z</time>
      </trkpt>
      <trkpt lat="43.85675" lon="6.7208">
        <ele>929.6</ele>
        <time>2013-06-08T08:31:01Z</time>
      </trkpt>
      <trkpt lat="43.85671" lon="6.72101">
        <ele>929.6</ele>
        <time>2013-06-08T08:31:07Z</time>
      </trkpt>
      <trkpt lat="43.85668" lon="6.7212">
        <ele>929.9</ele>
        <time>2013-06-08T08:31:13Z</time>
      </trkpt>
      <trkpt lat="43.85665" lon="6.72139">
        <ele>930.5</ele>
        <time>2013-06-08T08:31:19Z</time>
      </trkpt>
      <trkpt lat="43.85661" lon="6.72157">
        <ele>931.3</ele>
        <time>2013-06-08T08:31:25Z</time>
      </trkpt>
      <trkpt lat="43.85657" lon="6.72178">
        <ele>932</ele>
        <time>2013-06-08T08:31:31Z</time>
      </trkpt>
      <trkpt lat="43.85649" lon="6.72198">
        <ele>932.2</ele>
        <time>2013-06-08T08:31:37Z</time>
      </trkpt>
      <trkpt lat="43.85644" lon="6.72217">
        <ele>932.6</ele>
        <time>2013-06-08T08:31:43Z</time>
      </trkpt>
      <trkpt lat="43.85644" lon="6.72241">
        <ele>933.2</ele>
        <time>2013-06-08T08:31:49Z</time>
      </trkpt>
      <trkpt lat="43.85639" lon="6.72257">
        <ele>934.2</ele>
        <time>2013-06-08T08:31:55Z</time>
      </trkpt>
      <trkpt lat="43.85629" lon="6.72255">
        <ele>935.6</ele>
        <time>2013-06-08T08:32:01Z</time>
      </trkpt>
      <trkpt lat="43.85632" lon="6.72232">
        <ele>937.1</ele>
        <time>2013-06-08T08:32:07Z</time>
      </trkpt>
      <trkpt lat="43.85638" lon="6.72212">
        <ele>938</ele>
        <time>2013-06-08T08:32:13Z</time>
      </trkpt>
      <trkpt lat="43.85643" lon="6.72194">
        <ele>939.1</ele>
        <time>2013-06-08T08:32:19Z</time>
      </trkpt>
      <trkpt lat="43.85646" lon="6.72174">
        <ele>940.4</ele>
        <time>2013-06-08T08:32:25Z</time>
      </trkpt>
      <trkpt lat="43.85646" lon="6.72154">
        <ele>941.4</ele>
        <time>2013-06-08T08:32:31Z</time>
      </trkpt>
      <trkpt lat="43.85648" lon="6.72135">
        <ele>942.5</ele>
        <time>2013-06-08T08:32:37Z</time>
      </trkpt>
      <trkpt lat="43.8565" lon="6.72114">
        <ele>943.3</ele>
        <time>2013-06-08T08:32:43Z</time>
      </trkpt>
      <trkpt lat="43.85652" lon="6.72091">
        <ele>944.5</ele>
        <time>2013-06-08T08:32:49Z</time>
      </trkpt>
      <trkpt lat="43.85653" lon="6.72075">
        <ele>945.4</ele>
        <time>2013-06-08T08:32:55Z</time>
      </trkpt>
      <trkpt lat="43.85653" lon="6.72051">
        <ele>946.4</ele>
        <time>2013-06-08T08:33:01Z</time>
      </trkpt>
      <trkpt lat="43.85653" lon="6.72032">
        <ele>947.5</ele>
        <time>2013-06-08T08:33:07Z</time>
      </trkpt>
      <trkpt lat="43.85653" lon="6.72014">
        <ele>948.7</ele>
        <time>2013-06-08T08:33:13Z</time>
      </trkpt>
      <trkpt lat="43.85652" lon="6.71994">
        <ele>949.8</ele>
        <time>2013-06-08T08:33:19Z</time>
      </trkpt>
      <trkpt lat="43.85654" lon="6.7197">
        <ele>951.3</ele>
        <time>2013-06-08T08:33:25Z</time>
      </trkpt>
      <trkpt lat="43.85654" lon="6.71953">
        <ele>952.4</ele>
        <time>2013-06-08T08:33:31Z</time>
      </trkpt>
      <trkpt lat="43.8565" lon="6.71942">
        <ele>953</ele>
        <time>2013-06-08T08:33:37Z</time>
      </trkpt>
      <trkpt lat="43.85643" lon="6.71954">
        <ele>953.4</ele>
        <time>2013-06-08T08:33:43Z</time>
      </trkpt>
      <trkpt lat="43.85644" lon="6.71978">
        <ele>953.9</ele>
        <time>2013-06-08T08:33:49Z</time>
      </trkpt>
      <trkpt lat="43.85644" lon="6.72001">
        <ele>954.3</ele>
        <time>2013-06-08T08:33:55Z</time>
      </trkpt>
      <trkpt lat="43.85643" lon="6.72021">
        <ele>954.6</ele>
        <time>2013-06-08T08:34:01Z</time>
      </trkpt>
      <trkpt lat="43.85638" lon="6.72044">
        <ele>955</ele>
        <time>2013-06-08T08:34:07Z</time>
      </trkpt>
      <trkpt lat="43.85635" lon="6.72063">
        <ele>955.8</ele>
        <time>2013-06-08T08:34:13Z</time>
      </trkpt>
      <trkpt lat="43.85633" lon="6.72085">
        <ele>956.8</ele>
        <time>2013-06-08T08:34:19Z</time>
      </trkpt>
      <trkpt lat="43.85629" lon="6.72104">
        <ele>957.4</ele>
        <time>2013-06-08T08:34:25Z</time>
      </trkpt>
      <trkpt lat="43.85625" lon="6.72124">
        <ele>958.1</ele>
        <time>2013-06-08T08:34:31Z</time>
      </trkpt>
      <trkpt lat="43.85622" lon="6.72143">
        <ele>958.5</ele>
        <time>2013-06-08T08:34:37Z</time>
      </trkpt>
      <trkpt lat="43.85617" lon="6.72161">
        <ele>959.5</ele>
        <time>2013-06-08T08:34:43Z</time>
      </trkpt>
      <trkpt lat="43.8561" lon="6.72182">
        <ele>960.3</ele>
        <time>2013-06-08T08:34:49Z</time>
      </trkpt>
      <trkpt lat="43.85602" lon="6.72202">
        <ele>961.4</ele>
        <time>2013-06-08T08:34:55Z</time>
      </trkpt>
      <trkpt lat="43.85596" lon="6.72222">
        <ele>961.8</ele>
        <time>2013-06-08T08:35:01Z</time>
      </trkpt>
      <trkpt lat="43.8559" lon="6.72243">
        <ele>962.3</ele>
        <time>2013-06-08T08:35:07Z</time>
      </trkpt>
      <trkpt lat="43.85583" lon="6.72266">
        <ele>962.9</ele>
        <time>2013-06-08T08:35:13Z</time>
      </trkpt>
      <trkpt lat="43.85575" lon="6.72282">
        <ele>963.8</ele>
        <time>2013-06-08T08:35:19Z</time>
      </trkpt>
      <trkpt lat="43.85565" lon="6.72296">
        <ele>964.8</ele>
        <time>2013-06-08T08:35:25Z</time>
      </trkpt>
      <trkpt lat="43.85553" lon="6.7231">
        <ele>965.9</ele>
        <time>2013-06-08T08:35:31Z</time>
      </trkpt>
      <trkpt lat="43.85521" lon="6.7235">
        <ele>966.4</ele>
        <time>2013-06-08T08:35:45Z</time>
      </trkpt>
      <trkpt lat="43.85509" lon="6.72368">
        <ele>967.2</ele>
        <time>2013-06-08T08:35:51Z</time>
      </trkpt>
      <trkpt lat="43.85498" lon="6.72383">
        <ele>967.7</ele>
        <time>2013-06-08T08:35:57Z</time>
      </trkpt>
      <trkpt lat="43.85485" lon="6.72401">
        <ele>968.1</ele>
        <time>2013-06-08T08:36:03Z</time>
      </trkpt>
      <trkpt lat="43.85473" lon="6.72417">
        <ele>969.3</ele>
        <time>2013-06-08T08:36:09Z</time>
      </trkpt>
      <trkpt lat="43.85461" lon="6.72433">
        <ele>971.1</ele>
        <time>2013-06-08T08:36:15Z</time>
      </trkpt>
      <trkpt lat="43.85449" lon="6.72447">
        <ele>972.5</ele>
        <time>2013-06-08T08:36:21Z</time>
      </trkpt>
      <trkpt lat="43.85438" lon="6.72462">
        <ele>973.7</ele>
        <time>2013-06-08T08:36:27Z</time>
      </trkpt>
      <trkpt lat="43.85426" lon="6.72477">
        <ele>974.7</ele>
        <time>2013-06-08T08:36:33Z</time>
      </trkpt>
      <trkpt lat="43.85415" lon="6.72493">
        <ele>975.7</ele>
        <time>2013-06-08T08:36:39Z</time>
      </trkpt>
      <trkpt lat="43.85406" lon="6.72511">
        <ele>976.5</ele>
        <time>2013-06-08T08:36:45Z</time>
      </trkpt>
      <trkpt lat="43.854" lon="6.7253">
        <ele>977.3</ele>
        <time>2013-06-08T08:36:51Z</time>
      </trkpt>
      <trkpt lat="43.85397" lon="6.72547">
        <ele>977.8</ele>
        <time>2013-06-08T08:36:57Z</time>
      </trkpt>
      <trkpt lat="43.85384" lon="6.72561">
        <ele>978</ele>
        <time>2013-06-08T08:37:03Z</time>
      </trkpt>
      <trkpt lat="43.8537" lon="6.72571">
        <ele>978.1</ele>
        <time>2013-06-08T08:37:09Z</time>
      </trkpt>
      <trkpt lat="43.85359" lon="6.72576">
        <ele>978.6</ele>
        <time>2013-06-08T08:37:15Z</time>
      </trkpt>
      <trkpt lat="43.85348" lon="6.72583">
        <ele>979.4</ele>
        <time>2013-06-08T08:37:21Z</time>
      </trkpt>
      <trkpt lat="43.85332" lon="6.72587">
        <ele>979.4</ele>
        <time>2013-06-08T08:37:28Z</time>
      </trkpt>
      <trkpt lat="43.85297" lon="6.72673">
        <ele>997.3</ele>
        <time>2013-06-08T08:37:58Z</time>
      </trkpt>
      <trkpt lat="43.85295" lon="6.72661">
        <ele>998.6</ele>
        <time>2013-06-08T08:38:04Z</time>
      </trkpt>
      <trkpt lat="43.85295" lon="6.72659">
        <ele>999</ele>
        <time>2013-06-08T08:38:10Z</time>
      </trkpt>
      <trkpt lat="43.85295" lon="6.72659">
        <ele>999</ele>
        <time>2013-06-08T08:38:16Z</time>
      </trkpt>
      <trkpt lat="43.85295" lon="6.72659">
        <ele>998.7</ele>
        <time>2013-06-08T08:38:22Z</time>
      </trkpt>
      <trkpt lat="43.85295" lon="6.72659">
        <ele>998.5</ele>
        <time>2013-06-08T08:38:28Z</time>
      </trkpt>
      <trkpt lat="43.85295" lon="6.72659">
        <ele>998.3</ele>
        <time>2013-06-08T08:38:34Z</time>
      </trkpt>
      <trkpt lat="43.85295" lon="6.72659">
        <ele>997.8</ele>
        <time>2013-06-08T08:38:40Z</time>
      </trkpt>
      <trkpt lat="43.85295" lon="6.72659">
        <ele>997.5</ele>
        <time>2013-06-08T08:38:46Z</time>
      </trkpt>
      <trkpt lat="43.85295" lon="6.72659">
        <ele>997.2</ele>
        <time>2013-06-08T08:38:52Z</time>
      </trkpt>
      <trkpt lat="43.85295" lon="6.72659">
        <ele>996.5</ele>
        <time>2013-06-08T08:38:58Z</time>
      </trkpt>
      <trkpt lat="43.85295" lon="6.72658">
        <ele>995.3</ele>
        <time>2013-06-08T08:39:04Z</time>
      </trkpt>
      <trkpt lat="43.85295" lon="6.72658">
        <ele>995.3</ele>
        <time>2013-06-08T08:39:10Z</time>
      </trkpt>
      <trkpt lat="43.85295" lon="6.72658">
        <ele>995.4</ele>
        <time>2013-06-08T08:39:16Z</time>
      </trkpt>
      <trkpt lat="43.85295" lon="6.72658">
        <ele>995.9</ele>
        <time>2013-06-08T08:39:22Z</time>
      </trkpt>
      <trkpt lat="43.85295" lon="6.72658">
        <ele>996.2</ele>
        <time>2013-06-08T08:39:28Z</time>
      </trkpt>
      <trkpt lat="43.85295" lon="6.72658">
        <ele>996.4</ele>
        <time>2013-06-08T08:39:34Z</time>
      </trkpt>
      <trkpt lat="43.85295" lon="6.72662">
        <ele>996.5</ele>
        <time>2013-06-08T08:39:40Z</time>
      </trkpt>
      <trkpt lat="43.85295" lon="6.72662">
        <ele>997.1</ele>
        <time>2013-06-08T08:39:46Z</time>
      </trkpt>
      <trkpt lat="43.85295" lon="6.72662">
        <ele>998.7</ele>
        <time>2013-06-08T08:39:52Z</time>
      </trkpt>
      <trkpt lat="43.85295" lon="6.72662">
        <ele>1000</ele>
        <time>2013-06-08T08:39:58Z</time>
      </trkpt>
      <trkpt lat="43.85283" lon="6.72675">
        <ele>1002</ele>
        <time>2013-06-08T08:40:10Z</time>
      </trkpt>
      <trkpt lat="43.85261" lon="6.72687">
        <ele>1004</ele>
        <time>2013-06-08T08:40:22Z</time>
      </trkpt>
      <trkpt lat="43.85234" lon="6.7271">
        <ele>1006</ele>
        <time>2013-06-08T08:40:34Z</time>
      </trkpt>
      <trkpt lat="43.85212" lon="6.72728">
        <ele>1008</ele>
        <time>2013-06-08T08:40:46Z</time>
      </trkpt>
      <trkpt lat="43.85185" lon="6.72741">
        <ele>1009</ele>
        <time>2013-06-08T08:40:58Z</time>
      </trkpt>
      <trkpt lat="43.85163" lon="6.72747">
        <ele>1010</ele>
        <time>2013-06-08T08:41:10Z</time>
      </trkpt>
      <trkpt lat="43.85145" lon="6.72753">
        <ele>1011</ele>
        <time>2013-06-08T08:41:58Z</time>
      </trkpt>
      <trkpt lat="43.85102" lon="6.72911">
        <ele>1012</ele>
        <time>2013-06-08T08:45:22Z</time>
      </trkpt>
      <trkpt lat="43.85116" lon="6.72938">
        <ele>1013</ele>
        <time>2013-06-08T08:45:34Z</time>
      </trkpt>
      <trkpt lat="43.85116" lon="6.73061">
        <ele>1014</ele>
        <time>2013-06-08T08:45:58Z</time>
      </trkpt>
      <trkpt lat="43.85096" lon="6.73114">
        <ele>1015</ele>
        <time>2013-06-08T08:46:10Z</time>
      </trkpt>
      <trkpt lat="43.85073" lon="6.73142">
        <ele>1016</ele>
        <time>2013-06-08T08:46:22Z</time>
      </trkpt>
      <trkpt lat="43.85046" lon="6.73157">
        <ele>1017</ele>
        <time>2013-06-08T08:46:34Z</time>
      </trkpt>
      <trkpt lat="43.84998" lon="6.73152">
        <ele>1018</ele>
        <time>2013-06-08T08:46:46Z</time>
      </trkpt>
      <trkpt lat="43.84945" lon="6.73131">
        <ele>1019</ele>
        <time>2013-06-08T08:46:58Z</time>
      </trkpt>
      <trkpt lat="43.84905" lon="6.73105">
        <ele>1020</ele>
        <time>2013-06-08T08:47:10Z</time>
      </trkpt>
      <trkpt lat="43.84876" lon="6.73087">
        <ele>1021</ele>
        <time>2013-06-08T08:47:22Z</time>
      </trkpt>
      <trkpt lat="43.84848" lon="6.7307">
        <ele>1021.7</ele>
        <time>2013-06-08T08:47:34Z</time>
      </trkpt>
      <trkpt lat="43.84821" lon="6.73038">
        <ele>1024.4</ele>
        <time>2013-06-08T08:47:46Z</time>
      </trkpt>
      <trkpt lat="43.84802" lon="6.73005">
        <ele>1025.7</ele>
        <time>2013-06-08T08:47:58Z</time>
      </trkpt>
      <trkpt lat="43.84781" lon="6.7297">
        <ele>1027.4</ele>
        <time>2013-06-08T08:48:10Z</time>
      </trkpt>
      <trkpt lat="43.84761" lon="6.72935">
        <ele>1029.6</ele>
        <time>2013-06-08T08:48:22Z</time>
      </trkpt>
      <trkpt lat="43.84751" lon="6.72919">
        <ele>1030.3</ele>
        <time>2013-06-08T08:48:28Z</time>
      </trkpt>
      <trkpt lat="43.84741" lon="6.72901">
        <ele>1030.8</ele>
        <time>2013-06-08T08:48:34Z</time>
      </trkpt>
      <trkpt lat="43.84732" lon="6.72884">
        <ele>1031.6</ele>
        <time>2013-06-08T08:48:40Z</time>
      </trkpt>
      <trkpt lat="43.84721" lon="6.72865">
        <ele>1032.8</ele>
        <time>2013-06-08T08:48:46Z</time>
      </trkpt>
      <trkpt lat="43.84712" lon="6.7285">
        <ele>1033.8</ele>
        <time>2013-06-08T08:48:52Z</time>
      </trkpt>
      <trkpt lat="43.84703" lon="6.7284">
        <ele>1034.6</ele>
        <time>2013-06-08T08:48:58Z</time>
      </trkpt>
      <trkpt lat="43.84693" lon="6.72825">
        <ele>1035</ele>
        <time>2013-06-08T08:49:04Z</time>
      </trkpt>
      <trkpt lat="43.84679" lon="6.72802">
        <ele>1033.6</ele>
        <time>2013-06-08T08:49:10Z</time>
      </trkpt>
      <trkpt lat="43.84658" lon="6.72785">
        <ele>1030.2</ele>
        <time>2013-06-08T08:49:16Z</time>
      </trkpt>
      <trkpt lat="43.84628" lon="6.72784">
        <ele>1033.2</ele>
        <time>2013-06-08T08:49:22Z</time>
      </trkpt>
      <trkpt lat="43.84597" lon="6.72804">
        <ele>1033.7</ele>
        <time>2013-06-08T08:49:28Z</time>
      </trkpt>
      <trkpt lat="43.84565" lon="6.72837">
        <ele>1033.1</ele>
        <time>2013-06-08T08:49:34Z</time>
      </trkpt>
      <trkpt lat="43.8453" lon="6.72874">
        <ele>1031.4</ele>
        <time>2013-06-08T08:49:40Z</time>
      </trkpt>
      <trkpt lat="43.84495" lon="6.72913">
        <ele>1029.8</ele>
        <time>2013-06-08T08:49:46Z</time>
      </trkpt>
      <trkpt lat="43.84468" lon="6.72953">
        <ele>1030.3</ele>
        <time>2013-06-08T08:49:52Z</time>
      </trkpt>
      <trkpt lat="43.8445" lon="6.72992">
        <ele>1031.8</ele>
        <time>2013-06-08T08:49:58Z</time>
      </trkpt>
      <trkpt lat="43.84436" lon="6.73028">
        <ele>1031.4</ele>
        <time>2013-06-08T08:50:04Z</time>
      </trkpt>
      <trkpt lat="43.84441" lon="6.73063">
        <ele>1027.4</ele>
        <time>2013-06-08T08:50:10Z</time>
      </trkpt>
      <trkpt lat="43.84452" lon="6.73098">
        <ele>1024.8</ele>
        <time>2013-06-08T08:50:16Z</time>
      </trkpt>
      <trkpt lat="43.84464" lon="6.73131">
        <ele>1025.8</ele>
        <time>2013-06-08T08:50:22Z</time>
      </trkpt>
      <trkpt lat="43.84468" lon="6.73156">
        <ele>1026</ele>
        <time>2013-06-08T08:50:28Z</time>
      </trkpt>
      <trkpt lat="43.84469" lon="6.73186">
        <ele>1025.9</ele>
        <time>2013-06-08T08:50:34Z</time>
      </trkpt>
      <trkpt lat="43.84469" lon="6.73215">
        <ele>1025.9</ele>
        <time>2013-06-08T08:50:40Z</time>
      </trkpt>
      <trkpt lat="43.84471" lon="6.73246">
        <ele>1027.3</ele>
        <time>2013-06-08T08:50:46Z</time>
      </trkpt>
      <trkpt lat="43.84472" lon="6.7327">
        <ele>1028</ele>
        <time>2013-06-08T08:50:52Z</time>
      </trkpt>
      <trkpt lat="43.84472" lon="6.73293">
        <ele>1028.5</ele>
        <time>2013-06-08T08:50:58Z</time>
      </trkpt>
      <trkpt lat="43.84474" lon="6.73318">
        <ele>1029</ele>
        <time>2013-06-08T08:51:04Z</time>
      </trkpt>
      <trkpt lat="43.84476" lon="6.73342">
        <ele>1029.6</ele>
        <time>2013-06-08T08:51:10Z</time>
      </trkpt>
      <trkpt lat="43.8448" lon="6.73364">
        <ele>1030.2</ele>
        <time>2013-06-08T08:51:16Z</time>
      </trkpt>
      <trkpt lat="43.84478" lon="6.73387">
        <ele>1031.2</ele>
        <time>2013-06-08T08:51:22Z</time>
      </trkpt>
      <trkpt lat="43.84477" lon="6.73416">
        <ele>1032.3</ele>
        <time>2013-06-08T08:51:28Z</time>
      </trkpt>
      <trkpt lat="43.84478" lon="6.73439">
        <ele>1033.8</ele>
        <time>2013-06-08T08:51:34Z</time>
      </trkpt>
      <trkpt lat="43.84477" lon="6.73462">
        <ele>1035.6</ele>
        <time>2013-06-08T08:51:40Z</time>
      </trkpt>
      <trkpt lat="43.84477" lon="6.73485">
        <ele>1037.1</ele>
        <time>2013-06-08T08:51:46Z</time>
      </trkpt>
      <trkpt lat="43.84475" lon="6.73511">
        <ele>1036.9</ele>
        <time>2013-06-08T08:51:52Z</time>
      </trkpt>
      <trkpt lat="43.84473" lon="6.73544">
        <ele>1032.3</ele>
        <time>2013-06-08T08:51:58Z</time>
      </trkpt>
      <trkpt lat="43.84471" lon="6.73585">
        <ele>1033</ele>
        <time>2013-06-08T08:52:04Z</time>
      </trkpt>
      <trkpt lat="43.8447" lon="6.73624">
        <ele>1033</ele>
        <time>2013-06-08T08:52:10Z</time>
      </trkpt>
      <trkpt lat="43.84468" lon="6.73677">
        <ele>1033.7</ele>
        <time>2013-06-08T08:52:16Z</time>
      </trkpt>
      <trkpt lat="43.84466" lon="6.73731">
        <ele>1034.5</ele>
        <time>2013-06-08T08:52:22Z</time>
      </trkpt>
      <trkpt lat="43.84466" lon="6.73781">
        <ele>1032.8</ele>
        <time>2013-06-08T08:52:28Z</time>
      </trkpt>
      <trkpt lat="43.84469" lon="6.73828">
        <ele>1028.6</ele>
        <time>2013-06-08T08:52:34Z</time>
      </trkpt>
      <trkpt lat="43.84466" lon="6.73875">
        <ele>1025.3</ele>
        <time>2013-06-08T08:52:40Z</time>
      </trkpt>
      <trkpt lat="43.84453" lon="6.73915">
        <ele>1025.5</ele>
        <time>2013-06-08T08:52:46Z</time>
      </trkpt>
      <trkpt lat="43.84438" lon="6.73952">
        <ele>1024.7</ele>
        <time>2013-06-08T08:52:52Z</time>
      </trkpt>
      <trkpt lat="43.84428" lon="6.73991">
        <ele>1028.1</ele>
        <time>2013-06-08T08:52:58Z</time>
      </trkpt>
      <trkpt lat="43.84419" lon="6.7403">
        <ele>1030.5</ele>
        <time>2013-06-08T08:53:04Z</time>
      </trkpt>
      <trkpt lat="43.84412" lon="6.74064">
        <ele>1034</ele>
        <time>2013-06-08T08:53:10Z</time>
      </trkpt>
      <trkpt lat="43.84404" lon="6.74099">
        <ele>1032.2</ele>
        <time>2013-06-08T08:53:16Z</time>
      </trkpt>
      <trkpt lat="43.84398" lon="6.74137">
        <ele>1030.8</ele>
        <time>2013-06-08T08:53:22Z</time>
      </trkpt>
      <trkpt lat="43.84392" lon="6.74176">
        <ele>1027.7</ele>
        <time>2013-06-08T08:53:28Z</time>
      </trkpt>
      <trkpt lat="43.84382" lon="6.74209">
        <ele>1029</ele>
        <time>2013-06-08T08:53:34Z</time>
      </trkpt>
      <trkpt lat="43.84365" lon="6.74235">
        <ele>1029.6</ele>
        <time>2013-06-08T08:53:40Z</time>
      </trkpt>
      <trkpt lat="43.84345" lon="6.74259">
        <ele>1026.4</ele>
        <time>2013-06-08T08:53:46Z</time>
      </trkpt>
      <trkpt lat="43.84327" lon="6.74281">
        <ele>1026.3</ele>
        <time>2013-06-08T08:53:52Z</time>
      </trkpt>
      <trkpt lat="43.8431" lon="6.74301">
        <ele>1027.3</ele>
        <time>2013-06-08T08:53:58Z</time>
      </trkpt>
      <trkpt lat="43.84294" lon="6.74319">
        <ele>1028.7</ele>
        <time>2013-06-08T08:54:04Z</time>
      </trkpt>
      <trkpt lat="43.84281" lon="6.7434">
        <ele>1030.3</ele>
        <time>2013-06-08T08:54:10Z</time>
      </trkpt>
      <trkpt lat="43.84271" lon="6.74365">
        <ele>1031.5</ele>
        <time>2013-06-08T08:54:16Z</time>
      </trkpt>
      <trkpt lat="43.84251" lon="6.74385">
        <ele>1037.4</ele>
        <time>2013-06-08T08:54:22Z</time>
      </trkpt>
      <trkpt lat="43.84226" lon="6.74396">
        <ele>1039.1</ele>
        <time>2013-06-08T08:54:28Z</time>
      </trkpt>
      <trkpt lat="43.84203" lon="6.744">
        <ele>1036.5</ele>
        <time>2013-06-08T08:54:34Z</time>
      </trkpt>
      <trkpt lat="43.84177" lon="6.7441">
        <ele>1036.1</ele>
        <time>2013-06-08T08:54:40Z</time>
      </trkpt>
      <trkpt lat="43.84153" lon="6.74421">
        <ele>1036.1</ele>
        <time>2013-06-08T08:54:46Z</time>
      </trkpt>
      <trkpt lat="43.84131" lon="6.74434">
        <ele>1037.1</ele>
        <time>2013-06-08T08:54:52Z</time>
      </trkpt>
      <trkpt lat="43.84112" lon="6.74447">
        <ele>1037.9</ele>
        <time>2013-06-08T08:54:58Z</time>
      </trkpt>
      <trkpt lat="43.841" lon="6.74458">
        <ele>1038.3</ele>
        <time>2013-06-08T08:55:04Z</time>
      </trkpt>
      <trkpt lat="43.84079" lon="6.74467">
        <ele>1039.3</ele>
        <time>2013-06-08T08:55:10Z</time>
      </trkpt>
      <trkpt lat="43.84051" lon="6.7448">
        <ele>1040.7</ele>
        <time>2013-06-08T08:55:16Z</time>
      </trkpt>
      <trkpt lat="43.84027" lon="6.74492">
        <ele>1040.8</ele>
        <time>2013-06-08T08:55:22Z</time>
      </trkpt>
      <trkpt lat="43.84001" lon="6.74506">
        <ele>1041.8</ele>
        <time>2013-06-08T08:55:28Z</time>
      </trkpt>
      <trkpt lat="43.83982" lon="6.74512">
        <ele>1041.6</ele>
        <time>2013-06-08T08:55:34Z</time>
      </trkpt>
      <trkpt lat="43.83965" lon="6.74517">
        <ele>1041.4</ele>
        <time>2013-06-08T08:55:40Z</time>
      </trkpt>
      <trkpt lat="43.83951" lon="6.74522">
        <ele>1041.8</ele>
        <time>2013-06-08T08:55:46Z</time>
      </trkpt>
      <trkpt lat="43.83933" lon="6.74521">
        <ele>1041.9</ele>
        <time>2013-06-08T08:55:52Z</time>
      </trkpt>
      <trkpt lat="43.83914" lon="6.74519">
        <ele>1042.3</ele>
        <time>2013-06-08T08:55:58Z</time>
      </trkpt>
      <trkpt lat="43.83896" lon="6.74509">
        <ele>1042.9</ele>
        <time>2013-06-08T08:56:04Z</time>
      </trkpt>
      <trkpt lat="43.83876" lon="6.74505">
        <ele>1044.1</ele>
        <time>2013-06-08T08:56:10Z</time>
      </trkpt>
      <trkpt lat="43.83855" lon="6.74499">
        <ele>1045.5</ele>
        <time>2013-06-08T08:56:16Z</time>
      </trkpt>
      <trkpt lat="43.83836" lon="6.74491">
        <ele>1045.9</ele>
        <time>2013-06-08T08:56:22Z</time>
      </trkpt>
      <trkpt lat="43.83812" lon="6.74485">
        <ele>1047.2</ele>
        <time>2013-06-08T08:56:28Z</time>
      </trkpt>
      <trkpt lat="43.83779" lon="6.74489">
        <ele>1047.3</ele>
        <time>2013-06-08T08:56:34Z</time>
      </trkpt>
      <trkpt lat="43.83747" lon="6.74504">
        <ele>1046</ele>
        <time>2013-06-08T08:56:40Z</time>
      </trkpt>
      <trkpt lat="43.83724" lon="6.74549">
        <ele>1046.2</ele>
        <time>2013-06-08T08:56:46Z</time>
      </trkpt>
      <trkpt lat="43.83714" lon="6.74603">
        <ele>1046.9</ele>
        <time>2013-06-08T08:56:52Z</time>
      </trkpt>
      <trkpt lat="43.83704" lon="6.74649">
        <ele>1048.3</ele>
        <time>2013-06-08T08:56:58Z</time>
      </trkpt>
      <trkpt lat="43.83683" lon="6.74683">
        <ele>1046.5</ele>
        <time>2013-06-08T08:57:04Z</time>
      </trkpt>
      <trkpt lat="43.83659" lon="6.74713">
        <ele>1043.6</ele>
        <time>2013-06-08T08:57:10Z</time>
      </trkpt>
      <trkpt lat="43.83639" lon="6.74749">
        <ele>1043.2</ele>
        <time>2013-06-08T08:57:16Z</time>
      </trkpt>
      <trkpt lat="43.83628" lon="6.74787">
        <ele>1043.3</ele>
        <time>2013-06-08T08:57:22Z</time>
      </trkpt>
      <trkpt lat="43.83619" lon="6.74824">
        <ele>1045.4</ele>
        <time>2013-06-08T08:57:28Z</time>
      </trkpt>
      <trkpt lat="43.83613" lon="6.74862">
        <ele>1046.2</ele>
        <time>2013-06-08T08:57:34Z</time>
      </trkpt>
      <trkpt lat="43.83607" lon="6.74897">
        <ele>1048</ele>
        <time>2013-06-08T08:57:40Z</time>
      </trkpt>
      <trkpt lat="43.83601" lon="6.74937">
        <ele>1047.5</ele>
        <time>2013-06-08T08:57:46Z</time>
      </trkpt>
      <trkpt lat="43.83596" lon="6.74974">
        <ele>1045.8</ele>
        <time>2013-06-08T08:57:52Z</time>
      </trkpt>
      <trkpt lat="43.83592" lon="6.75015">
        <ele>1046.9</ele>
        <time>2013-06-08T08:57:58Z</time>
      </trkpt>
      <trkpt lat="43.83585" lon="6.75054">
        <ele>1049.6</ele>
        <time>2013-06-08T08:58:04Z</time>
      </trkpt>
      <trkpt lat="43.83577" lon="6.75081">
        <ele>1050</ele>
        <time>2013-06-08T08:58:10Z</time>
      </trkpt>
      <trkpt lat="43.83571" lon="6.75109">
        <ele>1050.2</ele>
        <time>2013-06-08T08:58:16Z</time>
      </trkpt>
      <trkpt lat="43.83561" lon="6.75133">
        <ele>1050.7</ele>
        <time>2013-06-08T08:58:22Z</time>
      </trkpt>
      <trkpt lat="43.83562" lon="6.7516">
        <ele>1051</ele>
        <time>2013-06-08T08:58:28Z</time>
      </trkpt>
      <trkpt lat="43.83557" lon="6.75191">
        <ele>1051.2</ele>
        <time>2013-06-08T08:58:34Z</time>
      </trkpt>
      <trkpt lat="43.8355" lon="6.75227">
        <ele>1055.7</ele>
        <time>2013-06-08T08:58:40Z</time>
      </trkpt>
      <trkpt lat="43.83544" lon="6.75262">
        <ele>1057.4</ele>
        <time>2013-06-08T08:58:46Z</time>
      </trkpt>
      <trkpt lat="43.83536" lon="6.75291">
        <ele>1059</ele>
        <time>2013-06-08T08:58:52Z</time>
      </trkpt>
      <trkpt lat="43.83529" lon="6.7532">
        <ele>1058.8</ele>
        <time>2013-06-08T08:58:58Z</time>
      </trkpt>
      <trkpt lat="43.83522" lon="6.7535">
        <ele>1059.7</ele>
        <time>2013-06-08T08:59:04Z</time>
      </trkpt>
      <trkpt lat="43.83514" lon="6.75378">
        <ele>1059.7</ele>
        <time>2013-06-08T08:59:10Z</time>
      </trkpt>
      <trkpt lat="43.83506" lon="6.75407">
        <ele>1059.7</ele>
        <time>2013-06-08T08:59:16Z</time>
      </trkpt>
      <trkpt lat="43.83497" lon="6.75438">
        <ele>1060.4</ele>
        <time>2013-06-08T08:59:22Z</time>
      </trkpt>
      <trkpt lat="43.83488" lon="6.75469">
        <ele>1061.5</ele>
        <time>2013-06-08T08:59:28Z</time>
      </trkpt>
      <trkpt lat="43.83481" lon="6.75495">
        <ele>1062.6</ele>
        <time>2013-06-08T08:59:34Z</time>
      </trkpt>
      <trkpt lat="43.83477" lon="6.75523">
        <ele>1062.9</ele>
        <time>2013-06-08T08:59:40Z</time>
      </trkpt>
      <trkpt lat="43.83475" lon="6.75555">
        <ele>1064.4</ele>
        <time>2013-06-08T08:59:46Z</time>
      </trkpt>
      <trkpt lat="43.83467" lon="6.75587">
        <ele>1066.3</ele>
        <time>2013-06-08T08:59:52Z</time>
      </trkpt>
      <trkpt lat="43.83459" lon="6.75613">
        <ele>1066.1</ele>
        <time>2013-06-08T08:59:58Z</time>
      </trkpt>
      <trkpt lat="43.83453" lon="6.75644">
        <ele>1064.2</ele>
        <time>2013-06-08T09:00:04Z</time>
      </trkpt>
      <trkpt lat="43.83448" lon="6.75678">
        <ele>1062.1</ele>
        <time>2013-06-08T09:00:10Z</time>
      </trkpt>
      <trkpt lat="43.83445" lon="6.75718">
        <ele>1062.5</ele>
        <time>2013-06-08T09:00:16Z</time>
      </trkpt>
      <trkpt lat="43.83442" lon="6.75757">
        <ele>1062.6</ele>
        <time>2013-06-08T09:00:22Z</time>
      </trkpt>
      <trkpt lat="43.83436" lon="6.75791">
        <ele>1064.3</ele>
        <time>2013-06-08T09:00:28Z</time>
      </trkpt>
      <trkpt lat="43.8343" lon="6.75819">
        <ele>1064.2</ele>
        <time>2013-06-08T09:00:34Z</time>
      </trkpt>
      <trkpt lat="43.83421" lon="6.75848">
        <ele>1063.9</ele>
        <time>2013-06-08T09:00:40Z</time>
      </trkpt>
      <trkpt lat="43.83413" lon="6.75875">
        <ele>1064.7</ele>
        <time>2013-06-08T09:00:46Z</time>
      </trkpt>
      <trkpt lat="43.83404" lon="6.75902">
        <ele>1065.2</ele>
        <time>2013-06-08T09:00:52Z</time>
      </trkpt>
      <trkpt lat="43.83393" lon="6.75928">
        <ele>1065.9</ele>
        <time>2013-06-08T09:00:58Z</time>
      </trkpt>
      <trkpt lat="43.83383" lon="6.75952">
        <ele>1066.2</ele>
        <time>2013-06-08T09:01:04Z</time>
      </trkpt>
      <trkpt lat="43.83374" lon="6.75978">
        <ele>1066.5</ele>
        <time>2013-06-08T09:01:10Z</time>
      </trkpt>
      <trkpt lat="43.83363" lon="6.76003">
        <ele>1066.7</ele>
        <time>2013-06-08T09:01:16Z</time>
      </trkpt>
      <trkpt lat="43.8335" lon="6.76027">
        <ele>1066.8</ele>
        <time>2013-06-08T09:01:22Z</time>
      </trkpt>
      <trkpt lat="43.83334" lon="6.76053">
        <ele>1067.5</ele>
        <time>2013-06-08T09:01:28Z</time>
      </trkpt>
      <trkpt lat="43.83315" lon="6.76079">
        <ele>1067.9</ele>
        <time>2013-06-08T09:01:34Z</time>
      </trkpt>
      <trkpt lat="43.83297" lon="6.76101">
        <ele>1067.1</ele>
        <time>2013-06-08T09:01:40Z</time>
      </trkpt>
      <trkpt lat="43.83284" lon="6.76118">
        <ele>1066.7</ele>
        <time>2013-06-08T09:01:46Z</time>
      </trkpt>
      <trkpt lat="43.83269" lon="6.76138">
        <ele>1066.7</ele>
        <time>2013-06-08T09:01:52Z</time>
      </trkpt>
      <trkpt lat="43.83252" lon="6.76157">
        <ele>1066.8</ele>
        <time>2013-06-08T09:01:58Z</time>
      </trkpt>
      <trkpt lat="43.83234" lon="6.76176">
        <ele>1067.1</ele>
        <time>2013-06-08T09:02:04Z</time>
      </trkpt>
      <trkpt lat="43.83217" lon="6.7619">
        <ele>1067.2</ele>
        <time>2013-06-08T09:02:10Z</time>
      </trkpt>
      <trkpt lat="43.83197" lon="6.76206">
        <ele>1067.4</ele>
        <time>2013-06-08T09:02:16Z</time>
      </trkpt>
      <trkpt lat="43.83174" lon="6.76216">
        <ele>1068.2</ele>
        <time>2013-06-08T09:02:22Z</time>
      </trkpt>
      <trkpt lat="43.83148" lon="6.76221">
        <ele>1070.5</ele>
        <time>2013-06-08T09:02:28Z</time>
      </trkpt>
      <trkpt lat="43.83119" lon="6.76227">
        <ele>1073.5</ele>
        <time>2013-06-08T09:02:34Z</time>
      </trkpt>
      <trkpt lat="43.83087" lon="6.76242">
        <ele>1074</ele>
        <time>2013-06-08T09:02:40Z</time>
      </trkpt>
      <trkpt lat="43.8306" lon="6.76272">
        <ele>1072.2</ele>
        <time>2013-06-08T09:02:46Z</time>
      </trkpt>
      <trkpt lat="43.83029" lon="6.76293">
        <ele>1066.5</ele>
        <time>2013-06-08T09:02:52Z</time>
      </trkpt>
      <trkpt lat="43.83003" lon="6.76308">
        <ele>1063.1</ele>
        <time>2013-06-08T09:02:58Z</time>
      </trkpt>
      <trkpt lat="43.82979" lon="6.76327">
        <ele>1063.5</ele>
        <time>2013-06-08T09:03:04Z</time>
      </trkpt>
      <trkpt lat="43.82964" lon="6.76342">
        <ele>1063.3</ele>
        <time>2013-06-08T09:03:10Z</time>
      </trkpt>
      <trkpt lat="43.82953" lon="6.76356">
        <ele>1063.1</ele>
        <time>2013-06-08T09:03:16Z</time>
      </trkpt>
      <trkpt lat="43.8294" lon="6.7637">
        <ele>1062.9</ele>
        <time>2013-06-08T09:03:22Z</time>
      </trkpt>
      <trkpt lat="43.82927" lon="6.76386">
        <ele>1062.6</ele>
        <time>2013-06-08T09:03:28Z</time>
      </trkpt>
      <trkpt lat="43.82917" lon="6.764">
        <ele>1063.1</ele>
        <time>2013-06-08T09:03:34Z</time>
      </trkpt>
      <trkpt lat="43.82904" lon="6.76412">
        <ele>1063.1</ele>
        <time>2013-06-08T09:03:40Z</time>
      </trkpt>
      <trkpt lat="43.82892" lon="6.76427">
        <ele>1063.2</ele>
        <time>2013-06-08T09:03:46Z</time>
      </trkpt>
      <trkpt lat="43.82879" lon="6.76441">
        <ele>1063.6</ele>
        <time>2013-06-08T09:03:52Z</time>
      </trkpt>
      <trkpt lat="43.82863" lon="6.76455">
        <ele>1064.6</ele>
        <time>2013-06-08T09:03:58Z</time>
      </trkpt>
      <trkpt lat="43.82849" lon="6.76468">
        <ele>1065.4</ele>
        <time>2013-06-08T09:04:04Z</time>
      </trkpt>
      <trkpt lat="43.82834" lon="6.76485">
        <ele>1065.8</ele>
        <time>2013-06-08T09:04:10Z</time>
      </trkpt>
      <trkpt lat="43.82819" lon="6.76498">
        <ele>1066</ele>
        <time>2013-06-08T09:04:16Z</time>
      </trkpt>
      <trkpt lat="43.828" lon="6.76518">
        <ele>1066.2</ele>
        <time>2013-06-08T09:04:22Z</time>
      </trkpt>
      <trkpt lat="43.8278" lon="6.76536">
        <ele>1066.4</ele>
        <time>2013-06-08T09:04:28Z</time>
      </trkpt>
      <trkpt lat="43.82764" lon="6.76555">
        <ele>1066.5</ele>
        <time>2013-06-08T09:04:34Z</time>
      </trkpt>
      <trkpt lat="43.82752" lon="6.76578">
        <ele>1067.1</ele>
        <time>2013-06-08T09:04:40Z</time>
      </trkpt>
      <trkpt lat="43.82742" lon="6.766">
        <ele>1067.8</ele>
        <time>2013-06-08T09:04:46Z</time>
      </trkpt>
      <trkpt lat="43.82732" lon="6.76629">
        <ele>1068.9</ele>
        <time>2013-06-08T09:04:52Z</time>
      </trkpt>
      <trkpt lat="43.82722" lon="6.76662">
        <ele>1072.5</ele>
        <time>2013-06-08T09:04:58Z</time>
      </trkpt>
      <trkpt lat="43.82705" lon="6.76688">
        <ele>1079.3</ele>
        <time>2013-06-08T09:05:04Z</time>
      </trkpt>
      <trkpt lat="43.82688" lon="6.76711">
        <ele>1079.2</ele>
        <time>2013-06-08T09:05:10Z</time>
      </trkpt>
      <trkpt lat="43.8267" lon="6.76737">
        <ele>1077</ele>
        <time>2013-06-08T09:05:16Z</time>
      </trkpt>
      <trkpt lat="43.82651" lon="6.76763">
        <ele>1077.3</ele>
        <time>2013-06-08T09:05:22Z</time>
      </trkpt>
      <trkpt lat="43.82634" lon="6.76788">
        <ele>1077.1</ele>
        <time>2013-06-08T09:05:28Z</time>
      </trkpt>
      <trkpt lat="43.82619" lon="6.76816">
        <ele>1076.6</ele>
        <time>2013-06-08T09:05:34Z</time>
      </trkpt>
      <trkpt lat="43.82604" lon="6.76847">
        <ele>1076.9</ele>
        <time>2013-06-08T09:05:40Z</time>
      </trkpt>
      <trkpt lat="43.82588" lon="6.76881">
        <ele>1079.7</ele>
        <time>2013-06-08T09:05:46Z</time>
      </trkpt>
      <trkpt lat="43.82578" lon="6.76919">
        <ele>1082.9</ele>
        <time>2013-06-08T09:05:52Z</time>
      </trkpt>
      <trkpt lat="43.82573" lon="6.7696">
        <ele>1079.6</ele>
        <time>2013-06-08T09:05:58Z</time>
      </trkpt>
      <trkpt lat="43.82571" lon="6.77">
        <ele>1077.5</ele>
        <time>2013-06-08T09:06:04Z</time>
      </trkpt>
      <trkpt lat="43.82568" lon="6.77037">
        <ele>1076.9</ele>
        <time>2013-06-08T09:06:10Z</time>
      </trkpt>
      <trkpt lat="43.82563" lon="6.77072">
        <ele>1076.2</ele>
        <time>2013-06-08T09:06:16Z</time>
      </trkpt>
      <trkpt lat="43.8256" lon="6.77108">
        <ele>1077.6</ele>
        <time>2013-06-08T09:06:22Z</time>
      </trkpt>
      <trkpt lat="43.82557" lon="6.77141">
        <ele>1078.1</ele>
        <time>2013-06-08T09:06:28Z</time>
      </trkpt>
      <trkpt lat="43.82555" lon="6.77174">
        <ele>1079.1</ele>
        <time>2013-06-08T09:06:34Z</time>
      </trkpt>
      <trkpt lat="43.82552" lon="6.77205">
        <ele>1079.7</ele>
        <time>2013-06-08T09:06:40Z</time>
      </trkpt>
      <trkpt lat="43.82551" lon="6.77233">
        <ele>1080.3</ele>
        <time>2013-06-08T09:06:46Z</time>
      </trkpt>
      <trkpt lat="43.82551" lon="6.77257">
        <ele>1080.9</ele>
        <time>2013-06-08T09:06:52Z</time>
      </trkpt>
      <trkpt lat="43.8255" lon="6.77283">
        <ele>1081.4</ele>
        <time>2013-06-08T09:06:58Z</time>
      </trkpt>
      <trkpt lat="43.8255" lon="6.77307">
        <ele>1082</ele>
        <time>2013-06-08T09:07:04Z</time>
      </trkpt>
      <trkpt lat="43.8255" lon="6.77331">
        <ele>1082.6</ele>
        <time>2013-06-08T09:07:10Z</time>
      </trkpt>
      <trkpt lat="43.82549" lon="6.77353">
        <ele>1083.2</ele>
        <time>2013-06-08T09:07:16Z</time>
      </trkpt>
      <trkpt lat="43.82547" lon="6.77376">
        <ele>1083.9</ele>
        <time>2013-06-08T09:07:22Z</time>
      </trkpt>
      <trkpt lat="43.82545" lon="6.77399">
        <ele>1084.6</ele>
        <time>2013-06-08T09:07:28Z</time>
      </trkpt>
      <trkpt lat="43.82542" lon="6.77424">
        <ele>1085.3</ele>
        <time>2013-06-08T09:07:34Z</time>
      </trkpt>
      <trkpt lat="43.82541" lon="6.77449">
        <ele>1085.8</ele>
        <time>2013-06-08T09:07:40Z</time>
      </trkpt>
      <trkpt lat="43.82541" lon="6.77477">
        <ele>1086.2</ele>
        <time>2013-06-08T09:07:46Z</time>
      </trkpt>
      <trkpt lat="43.82541" lon="6.77507">
        <ele>1086.5</ele>
        <time>2013-06-08T09:07:52Z</time>
      </trkpt>
      <trkpt lat="43.82544" lon="6.77534">
        <ele>1087</ele>
        <time>2013-06-08T09:07:58Z</time>
      </trkpt>
      <trkpt lat="43.82545" lon="6.77559">
        <ele>1087.2</ele>
        <time>2013-06-08T09:08:04Z</time>
      </trkpt>
      <trkpt lat="43.82548" lon="6.77585">
        <ele>1087.4</ele>
        <time>2013-06-08T09:08:10Z</time>
      </trkpt>
      <trkpt lat="43.82551" lon="6.77612">
        <ele>1087.6</ele>
        <time>2013-06-08T09:08:16Z</time>
      </trkpt>
      <trkpt lat="43.82552" lon="6.77639">
        <ele>1088.1</ele>
        <time>2013-06-08T09:08:22Z</time>
      </trkpt>
      <trkpt lat="43.82554" lon="6.77668">
        <ele>1088.6</ele>
        <time>2013-06-08T09:08:28Z</time>
      </trkpt>
      <trkpt lat="43.82554" lon="6.77692">
        <ele>1088.9</ele>
        <time>2013-06-08T09:08:34Z</time>
      </trkpt>
      <trkpt lat="43.82554" lon="6.77722">
        <ele>1089.7</ele>
        <time>2013-06-08T09:08:40Z</time>
      </trkpt>
      <trkpt lat="43.82554" lon="6.77757">
        <ele>1091.2</ele>
        <time>2013-06-08T09:08:46Z</time>
      </trkpt>
      <trkpt lat="43.8255" lon="6.77788">
        <ele>1092.4</ele>
        <time>2013-06-08T09:08:52Z</time>
      </trkpt>
      <trkpt lat="43.82548" lon="6.7782">
        <ele>1093.5</ele>
        <time>2013-06-08T09:08:58Z</time>
      </trkpt>
      <trkpt lat="43.82546" lon="6.77851">
        <ele>1095.1</ele>
        <time>2013-06-08T09:09:04Z</time>
      </trkpt>
      <trkpt lat="43.82542" lon="6.7788">
        <ele>1095.5</ele>
        <time>2013-06-08T09:09:10Z</time>
      </trkpt>
      <trkpt lat="43.8254" lon="6.77911">
        <ele>1096.2</ele>
        <time>2013-06-08T09:09:16Z</time>
      </trkpt>
      <trkpt lat="43.82541" lon="6.77944">
        <ele>1096.9</ele>
        <time>2013-06-08T09:09:22Z</time>
      </trkpt>
      <trkpt lat="43.82546" lon="6.77975">
        <ele>1099.1</ele>
        <time>2013-06-08T09:09:28Z</time>
      </trkpt>
      <trkpt lat="43.82554" lon="6.78007">
        <ele>1101.8</ele>
        <time>2013-06-08T09:09:34Z</time>
      </trkpt>
      <trkpt lat="43.8256" lon="6.78039">
        <ele>1102.1</ele>
        <time>2013-06-08T09:09:40Z</time>
      </trkpt>
      <trkpt lat="43.82562" lon="6.78066">
        <ele>1102.1</ele>
        <time>2013-06-08T09:09:46Z</time>
      </trkpt>
      <trkpt lat="43.82558" lon="6.78094">
        <ele>1102.1</ele>
        <time>2013-06-08T09:09:52Z</time>
      </trkpt>
      <trkpt lat="43.8255" lon="6.78121">
        <ele>1102.1</ele>
        <time>2013-06-08T09:09:58Z</time>
      </trkpt>
      <trkpt lat="43.8254" lon="6.78146">
        <ele>1102.1</ele>
        <time>2013-06-08T09:10:04Z</time>
      </trkpt>
      <trkpt lat="43.82531" lon="6.78166">
        <ele>1102.3</ele>
        <time>2013-06-08T09:10:10Z</time>
      </trkpt>
      <trkpt lat="43.82524" lon="6.78196">
        <ele>1102.4</ele>
        <time>2013-06-08T09:10:16Z</time>
      </trkpt>
      <trkpt lat="43.82524" lon="6.7823">
        <ele>1103.7</ele>
        <time>2013-06-08T09:10:22Z</time>
      </trkpt>
      <trkpt lat="43.8253" lon="6.78265">
        <ele>1104.1</ele>
        <time>2013-06-08T09:10:28Z</time>
      </trkpt>
      <trkpt lat="43.82534" lon="6.78307">
        <ele>1102.2</ele>
        <time>2013-06-08T09:10:34Z</time>
      </trkpt>
      <trkpt lat="43.82538" lon="6.78353">
        <ele>1103.5</ele>
        <time>2013-06-08T09:10:40Z</time>
      </trkpt>
      <trkpt lat="43.82541" lon="6.78395">
        <ele>1104.5</ele>
        <time>2013-06-08T09:10:46Z</time>
      </trkpt>
      <trkpt lat="43.82542" lon="6.78437">
        <ele>1104.2</ele>
        <time>2013-06-08T09:10:52Z</time>
      </trkpt>
      <trkpt lat="43.82545" lon="6.78476">
        <ele>1103.3</ele>
        <time>2013-06-08T09:10:58Z</time>
      </trkpt>
      <trkpt lat="43.82546" lon="6.78522">
        <ele>1101.3</ele>
        <time>2013-06-08T09:11:04Z</time>
      </trkpt>
      <trkpt lat="43.82545" lon="6.78559">
        <ele>1099.5</ele>
        <time>2013-06-08T09:11:10Z</time>
      </trkpt>
      <trkpt lat="43.82547" lon="6.78599">
        <ele>1100</ele>
        <time>2013-06-08T09:11:16Z</time>
      </trkpt>
      <trkpt lat="43.82546" lon="6.78641">
        <ele>1100.9</ele>
        <time>2013-06-08T09:11:22Z</time>
      </trkpt>
      <trkpt lat="43.82543" lon="6.78679">
        <ele>1105.1</ele>
        <time>2013-06-08T09:11:28Z</time>
      </trkpt>
      <trkpt lat="43.82537" lon="6.78714">
        <ele>1104.5</ele>
        <time>2013-06-08T09:11:34Z</time>
      </trkpt>
      <trkpt lat="43.82526" lon="6.78743">
        <ele>1101.7</ele>
        <time>2013-06-08T09:11:40Z</time>
      </trkpt>
      <trkpt lat="43.82516" lon="6.78773">
        <ele>1102.9</ele>
        <time>2013-06-08T09:11:46Z</time>
      </trkpt>
      <trkpt lat="43.82508" lon="6.78807">
        <ele>1106.1</ele>
        <time>2013-06-08T09:11:52Z</time>
      </trkpt>
      <trkpt lat="43.82502" lon="6.78837">
        <ele>1105.9</ele>
        <time>2013-06-08T09:11:58Z</time>
      </trkpt>
      <trkpt lat="43.82495" lon="6.7887">
        <ele>1102.9</ele>
        <time>2013-06-08T09:12:04Z</time>
      </trkpt>
      <trkpt lat="43.82488" lon="6.789">
        <ele>1102.3</ele>
        <time>2013-06-08T09:12:10Z</time>
      </trkpt>
      <trkpt lat="43.82482" lon="6.78931">
        <ele>1102.1</ele>
        <time>2013-06-08T09:12:16Z</time>
      </trkpt>
      <trkpt lat="43.82475" lon="6.78961">
        <ele>1102.1</ele>
        <time>2013-06-08T09:12:22Z</time>
      </trkpt>
      <trkpt lat="43.82474" lon="6.78995">
        <ele>1102.4</ele>
        <time>2013-06-08T09:12:28Z</time>
      </trkpt>
      <trkpt lat="43.82475" lon="6.7903">
        <ele>1103.2</ele>
        <time>2013-06-08T09:12:34Z</time>
      </trkpt>
      <trkpt lat="43.82481" lon="6.7906">
        <ele>1103.2</ele>
        <time>2013-06-08T09:12:40Z</time>
      </trkpt>
      <trkpt lat="43.82488" lon="6.79084">
        <ele>1103.2</ele>
        <time>2013-06-08T09:12:46Z</time>
      </trkpt>
      <trkpt lat="43.82496" lon="6.79108">
        <ele>1103.3</ele>
        <time>2013-06-08T09:12:52Z</time>
      </trkpt>
      <trkpt lat="43.82504" lon="6.7913">
        <ele>1103.4</ele>
        <time>2013-06-08T09:12:58Z</time>
      </trkpt>
      <trkpt lat="43.82512" lon="6.79152">
        <ele>1103.8</ele>
        <time>2013-06-08T09:13:04Z</time>
      </trkpt>
      <trkpt lat="43.82517" lon="6.79175">
        <ele>1104.1</ele>
        <time>2013-06-08T09:13:10Z</time>
      </trkpt>
      <trkpt lat="43.82522" lon="6.79199">
        <ele>1104.8</ele>
        <time>2013-06-08T09:13:16Z</time>
      </trkpt>
      <trkpt lat="43.82526" lon="6.79219">
        <ele>1105.4</ele>
        <time>2013-06-08T09:13:22Z</time>
      </trkpt>
      <trkpt lat="43.82531" lon="6.79243">
        <ele>1106.5</ele>
        <time>2013-06-08T09:13:28Z</time>
      </trkpt>
      <trkpt lat="43.82534" lon="6.79265">
        <ele>1107.3</ele>
        <time>2013-06-08T09:13:34Z</time>
      </trkpt>
      <trkpt lat="43.82538" lon="6.79288">
        <ele>1108</ele>
        <time>2013-06-08T09:13:40Z</time>
      </trkpt>
      <trkpt lat="43.82543" lon="6.79309">
        <ele>1108.7</ele>
        <time>2013-06-08T09:13:46Z</time>
      </trkpt>
      <trkpt lat="43.82549" lon="6.79332">
        <ele>1109.9</ele>
        <time>2013-06-08T09:13:52Z</time>
      </trkpt>
      <trkpt lat="43.82555" lon="6.79353">
        <ele>1111.1</ele>
        <time>2013-06-08T09:13:58Z</time>
      </trkpt>
      <trkpt lat="43.82561" lon="6.79374">
        <ele>1112.1</ele>
        <time>2013-06-08T09:14:04Z</time>
      </trkpt>
      <trkpt lat="43.82569" lon="6.79397">
        <ele>1113</ele>
        <time>2013-06-08T09:14:10Z</time>
      </trkpt>
      <trkpt lat="43.82574" lon="6.79428">
        <ele>1116.5</ele>
        <time>2013-06-08T09:14:16Z</time>
      </trkpt>
      <trkpt lat="43.82579" lon="6.79455">
        <ele>1117.1</ele>
        <time>2013-06-08T09:14:22Z</time>
      </trkpt>
      <trkpt lat="43.82583" lon="6.79481">
        <ele>1117.7</ele>
        <time>2013-06-08T09:14:28Z</time>
      </trkpt>
      <trkpt lat="43.82585" lon="6.79505">
        <ele>1118.4</ele>
        <time>2013-06-08T09:14:34Z</time>
      </trkpt>
      <trkpt lat="43.82585" lon="6.79531">
        <ele>1119.7</ele>
        <time>2013-06-08T09:14:40Z</time>
      </trkpt>
      <trkpt lat="43.82587" lon="6.79557">
        <ele>1121.1</ele>
        <time>2013-06-08T09:14:46Z</time>
      </trkpt>
      <trkpt lat="43.82589" lon="6.79582">
        <ele>1122.1</ele>
        <time>2013-06-08T09:14:52Z</time>
      </trkpt>
      <trkpt lat="43.8259" lon="6.7961">
        <ele>1123.6</ele>
        <time>2013-06-08T09:14:58Z</time>
      </trkpt>
      <trkpt lat="43.82592" lon="6.79635">
        <ele>1124.7</ele>
        <time>2013-06-08T09:15:04Z</time>
      </trkpt>
      <trkpt lat="43.82593" lon="6.79661">
        <ele>1125.7</ele>
        <time>2013-06-08T09:15:10Z</time>
      </trkpt>
      <trkpt lat="43.82594" lon="6.79689">
        <ele>1126.4</ele>
        <time>2013-06-08T09:15:16Z</time>
      </trkpt>
      <trkpt lat="43.82595" lon="6.79714">
        <ele>1127.2</ele>
        <time>2013-06-08T09:15:22Z</time>
      </trkpt>
      <trkpt lat="43.82596" lon="6.79744">
        <ele>1130.9</ele>
        <time>2013-06-08T09:15:28Z</time>
      </trkpt>
      <trkpt lat="43.82596" lon="6.7978">
        <ele>1131.2</ele>
        <time>2013-06-08T09:15:34Z</time>
      </trkpt>
      <trkpt lat="43.82596" lon="6.79811">
        <ele>1131.7</ele>
        <time>2013-06-08T09:15:40Z</time>
      </trkpt>
      <trkpt lat="43.82598" lon="6.79839">
        <ele>1132.3</ele>
        <time>2013-06-08T09:15:46Z</time>
      </trkpt>
      <trkpt lat="43.82598" lon="6.79862">
        <ele>1133.4</ele>
        <time>2013-06-08T09:15:52Z</time>
      </trkpt>
      <trkpt lat="43.82599" lon="6.7989">
        <ele>1134.6</ele>
        <time>2013-06-08T09:15:58Z</time>
      </trkpt>
      <trkpt lat="43.82601" lon="6.79912">
        <ele>1135.6</ele>
        <time>2013-06-08T09:16:04Z</time>
      </trkpt>
      <trkpt lat="43.82599" lon="6.79929">
        <ele>1136.1</ele>
        <time>2013-06-08T09:16:10Z</time>
      </trkpt>
      <trkpt lat="43.82604" lon="6.79941">
        <ele>1136.4</ele>
        <time>2013-06-08T09:16:16Z</time>
      </trkpt>
      <trkpt lat="43.82611" lon="6.79931">
        <ele>1136.3</ele>
        <time>2013-06-08T09:16:22Z</time>
      </trkpt>
      <trkpt lat="43.82607" lon="6.79938">
        <ele>1136.5</ele>
        <time>2013-06-08T09:16:28Z</time>
      </trkpt>
      <trkpt lat="43.82604" lon="6.79941">
        <ele>1136.7</ele>
        <time>2013-06-08T09:16:34Z</time>
      </trkpt>
      <trkpt lat="43.82602" lon="6.79945">
        <ele>1136.8</ele>
        <time>2013-06-08T09:16:40Z</time>
      </trkpt>
      <trkpt lat="43.82602" lon="6.79945">
        <ele>1136.8</ele>
        <time>2013-06-08T09:16:46Z</time>
      </trkpt>
      <trkpt lat="43.82603" lon="6.79947">
        <ele>1136.8</ele>
        <time>2013-06-08T09:16:52Z</time>
      </trkpt>
      <trkpt lat="43.82604" lon="6.79951">
        <ele>1136.5</ele>
        <time>2013-06-08T09:16:58Z</time>
      </trkpt>
      <trkpt lat="43.82606" lon="6.79953">
        <ele>1136.1</ele>
        <time>2013-06-08T09:17:04Z</time>
      </trkpt>
      <trkpt lat="43.8261" lon="6.79957">
        <ele>1136</ele>
        <time>2013-06-08T09:17:10Z</time>
      </trkpt>
      <trkpt lat="43.82609" lon="6.79959">
        <ele>1135.9</ele>
        <time>2013-06-08T09:17:16Z</time>
      </trkpt>
      <trkpt lat="43.82609" lon="6.79958">
        <ele>1135.9</ele>
        <time>2013-06-08T09:17:22Z</time>
      </trkpt>
      <trkpt lat="43.82607" lon="6.79953">
        <ele>1135.4</ele>
        <time>2013-06-08T09:17:28Z</time>
      </trkpt>
      <trkpt lat="43.82607" lon="6.79945">
        <ele>1135</ele>
        <time>2013-06-08T09:17:34Z</time>
      </trkpt>
      <trkpt lat="43.82609" lon="6.79942">
        <ele>1134.3</ele>
        <time>2013-06-08T09:17:40Z</time>
      </trkpt>
      <trkpt lat="43.82609" lon="6.79943">
        <ele>1133.9</ele>
        <time>2013-06-08T09:17:46Z</time>
      </trkpt>
      <trkpt lat="43.82609" lon="6.79949">
        <ele>1133.8</ele>
        <time>2013-06-08T09:17:52Z</time>
      </trkpt>
      <trkpt lat="43.82605" lon="6.79954">
        <ele>1133.5</ele>
        <time>2013-06-08T09:17:58Z</time>
      </trkpt>
      <trkpt lat="43.82599" lon="6.79954">
        <ele>1133</ele>
        <time>2013-06-08T09:18:04Z</time>
      </trkpt>
      <trkpt lat="43.82596" lon="6.79949">
        <ele>1132.5</ele>
        <time>2013-06-08T09:18:10Z</time>
      </trkpt>
      <trkpt lat="43.82596" lon="6.79947">
        <ele>1132.1</ele>
        <time>2013-06-08T09:18:16Z</time>
      </trkpt>
      <trkpt lat="43.82599" lon="6.79948">
        <ele>1131.9</ele>
        <time>2013-06-08T09:18:22Z</time>
      </trkpt>
      <trkpt lat="43.82601" lon="6.79946">
        <ele>1131.6</ele>
        <time>2013-06-08T09:18:28Z</time>
      </trkpt>
      <trkpt lat="43.826" lon="6.79944">
        <ele>1131.2</ele>
        <time>2013-06-08T09:18:34Z</time>
      </trkpt>
      <trkpt lat="43.82603" lon="6.79945">
        <ele>1130.9</ele>
        <time>2013-06-08T09:18:40Z</time>
      </trkpt>
      <trkpt lat="43.82606" lon="6.79944">
        <ele>1130.3</ele>
        <time>2013-06-08T09:18:46Z</time>
      </trkpt>
      <trkpt lat="43.82608" lon="6.79945">
        <ele>1130.5</ele>
        <time>2013-06-08T09:18:52Z</time>
      </trkpt>
      <trkpt lat="43.82609" lon="6.79945">
        <ele>1130.6</ele>
        <time>2013-06-08T09:18:58Z</time>
      </trkpt>
      <trkpt lat="43.82609" lon="6.79944">
        <ele>1131.2</ele>
        <time>2013-06-08T09:19:04Z</time>
      </trkpt>
      <trkpt lat="43.82609" lon="6.79945">
        <ele>1131.3</ele>
        <time>2013-06-08T09:19:10Z</time>
      </trkpt>
      <trkpt lat="43.8261" lon="6.79946">
        <ele>1131.3</ele>
        <time>2013-06-08T09:19:16Z</time>
      </trkpt>
      <trkpt lat="43.82609" lon="6.79947">
        <ele>1131.3</ele>
        <time>2013-06-08T09:19:22Z</time>
      </trkpt>
      <trkpt lat="43.82609" lon="6.7995">
        <ele>1131.3</ele>
        <time>2013-06-08T09:19:28Z</time>
      </trkpt>
      <trkpt lat="43.82609" lon="6.79948">
        <ele>1131.5</ele>
        <time>2013-06-08T09:19:34Z</time>
      </trkpt>
      <trkpt lat="43.82608" lon="6.79947">
        <ele>1131.7</ele>
        <time>2013-06-08T09:19:40Z</time>
      </trkpt>
      <trkpt lat="43.82608" lon="6.79947">
        <ele>1131.8</ele>
        <time>2013-06-08T09:19:46Z</time>
      </trkpt>
      <trkpt lat="43.82609" lon="6.79949">
        <ele>1131.8</ele>
        <time>2013-06-08T09:19:52Z</time>
      </trkpt>
      <trkpt lat="43.82609" lon="6.79951">
        <ele>1131.8</ele>
        <time>2013-06-08T09:19:58Z</time>
      </trkpt>
      <trkpt lat="43.8261" lon="6.79951">
        <ele>1131.9</ele>
        <time>2013-06-08T09:20:04Z</time>
      </trkpt>
      <trkpt lat="43.82609" lon="6.79952">
        <ele>1131.9</ele>
        <time>2013-06-08T09:20:10Z</time>
      </trkpt>
      <trkpt lat="43.82609" lon="6.79955">
        <ele>1131.9</ele>
        <time>2013-06-08T09:20:16Z</time>
      </trkpt>
      <trkpt lat="43.82609" lon="6.79957">
        <ele>1131.5</ele>
        <time>2013-06-08T09:20:22Z</time>
      </trkpt>
      <trkpt lat="43.82612" lon="6.79954">
        <ele>1131.5</ele>
        <time>2013-06-08T09:20:28Z</time>
      </trkpt>
      <trkpt lat="43.82614" lon="6.79944">
        <ele>1131.5</ele>
        <time>2013-06-08T09:20:34Z</time>
      </trkpt>
      <trkpt lat="43.82609" lon="6.79932">
        <ele>1131.4</ele>
        <time>2013-06-08T09:20:40Z</time>
      </trkpt>
      <trkpt lat="43.82612" lon="6.79943">
        <ele>1131.8</ele>
        <time>2013-06-08T09:20:46Z</time>
      </trkpt>
      <trkpt lat="43.82612" lon="6.79955">
        <ele>1132.1</ele>
        <time>2013-06-08T09:20:52Z</time>
      </trkpt>
      <trkpt lat="43.82614" lon="6.79952">
        <ele>1132.3</ele>
        <time>2013-06-08T09:20:58Z</time>
      </trkpt>
      <trkpt lat="43.82612" lon="6.79941">
        <ele>1132.5</ele>
        <time>2013-06-08T09:21:04Z</time>
      </trkpt>
      <trkpt lat="43.82613" lon="6.79945">
        <ele>1133.1</ele>
        <time>2013-06-08T09:21:10Z</time>
      </trkpt>
      <trkpt lat="43.82619" lon="6.79955">
        <ele>1133.4</ele>
        <time>2013-06-08T09:21:16Z</time>
      </trkpt>
      <trkpt lat="43.82622" lon="6.7997">
        <ele>1133.3</ele>
        <time>2013-06-08T09:21:22Z</time>
      </trkpt>
      <trkpt lat="43.82629" lon="6.7999">
        <ele>1133.3</ele>
        <time>2013-06-08T09:21:28Z</time>
      </trkpt>
      <trkpt lat="43.82637" lon="6.80012">
        <ele>1133.5</ele>
        <time>2013-06-08T09:21:34Z</time>
      </trkpt>
      <trkpt lat="43.82647" lon="6.80036">
        <ele>1133.9</ele>
        <time>2013-06-08T09:21:40Z</time>
      </trkpt>
      <trkpt lat="43.82663" lon="6.8004">
        <ele>1134.1</ele>
        <time>2013-06-08T09:21:46Z</time>
      </trkpt>
      <trkpt lat="43.82679" lon="6.80021">
        <ele>1133.9</ele>
        <time>2013-06-08T09:21:52Z</time>
      </trkpt>
      <trkpt lat="43.82696" lon="6.79998">
        <ele>1133.7</ele>
        <time>2013-06-08T09:21:58Z</time>
      </trkpt>
      <trkpt lat="43.82714" lon="6.79998">
        <ele>1133.5</ele>
        <time>2013-06-08T09:22:04Z</time>
      </trkpt>
      <trkpt lat="43.82727" lon="6.8002">
        <ele>1133.9</ele>
        <time>2013-06-08T09:22:10Z</time>
      </trkpt>
      <trkpt lat="43.82733" lon="6.80046">
        <ele>1134.5</ele>
        <time>2013-06-08T09:22:16Z</time>
      </trkpt>
      <trkpt lat="43.82738" lon="6.80071">
        <ele>1135</ele>
        <time>2013-06-08T09:22:22Z</time>
      </trkpt>
      <trkpt lat="43.82744" lon="6.80096">
        <ele>1135.4</ele>
        <time>2013-06-08T09:22:28Z</time>
      </trkpt>
      <trkpt lat="43.82751" lon="6.80123">
        <ele>1135.7</ele>
        <time>2013-06-08T09:22:34Z</time>
      </trkpt>
      <trkpt lat="43.82758" lon="6.8015">
        <ele>1136.2</ele>
        <time>2013-06-08T09:22:40Z</time>
      </trkpt>
      <trkpt lat="43.82765" lon="6.80176">
        <ele>1136.9</ele>
        <time>2013-06-08T09:22:46Z</time>
      </trkpt>
      <trkpt lat="43.82771" lon="6.80201">
        <ele>1137.5</ele>
        <time>2013-06-08T09:22:52Z</time>
      </trkpt>
      <trkpt lat="43.82781" lon="6.80229">
        <ele>1137.9</ele>
        <time>2013-06-08T09:22:58Z</time>
      </trkpt>
      <trkpt lat="43.82784" lon="6.80255">
        <ele>1138.5</ele>
        <time>2013-06-08T09:23:04Z</time>
      </trkpt>
      <trkpt lat="43.82782" lon="6.80282">
        <ele>1139</ele>
        <time>2013-06-08T09:23:10Z</time>
      </trkpt>
      <trkpt lat="43.82774" lon="6.80311">
        <ele>1139.7</ele>
        <time>2013-06-08T09:23:16Z</time>
      </trkpt>
      <trkpt lat="43.82767" lon="6.80338">
        <ele>1140.6</ele>
        <time>2013-06-08T09:23:22Z</time>
      </trkpt>
      <trkpt lat="43.82761" lon="6.80365">
        <ele>1141.5</ele>
        <time>2013-06-08T09:23:28Z</time>
      </trkpt>
      <trkpt lat="43.82755" lon="6.80391">
        <ele>1142.1</ele>
        <time>2013-06-08T09:23:34Z</time>
      </trkpt>
      <trkpt lat="43.82749" lon="6.80419">
        <ele>1142.8</ele>
        <time>2013-06-08T09:23:40Z</time>
      </trkpt>
      <trkpt lat="43.82743" lon="6.80446">
        <ele>1143.8</ele>
        <time>2013-06-08T09:23:46Z</time>
      </trkpt>
      <trkpt lat="43.82742" lon="6.80476">
        <ele>1144.8</ele>
        <time>2013-06-08T09:23:52Z</time>
      </trkpt>
      <trkpt lat="43.82746" lon="6.80505">
        <ele>1146.3</ele>
        <time>2013-06-08T09:23:58Z</time>
      </trkpt>
      <trkpt lat="43.82758" lon="6.80525">
        <ele>1147.4</ele>
        <time>2013-06-08T09:24:04Z</time>
      </trkpt>
      <trkpt lat="43.82777" lon="6.80536">
        <ele>1148.1</ele>
        <time>2013-06-08T09:24:10Z</time>
      </trkpt>
      <trkpt lat="43.82795" lon="6.80545">
        <ele>1148.7</ele>
        <time>2013-06-08T09:24:16Z</time>
      </trkpt>
      <trkpt lat="43.82811" lon="6.80551">
        <ele>1149</ele>
        <time>2013-06-08T09:24:22Z</time>
      </trkpt>
      <trkpt lat="43.82831" lon="6.80559">
        <ele>1149.3</ele>
        <time>2013-06-08T09:24:28Z</time>
      </trkpt>
      <trkpt lat="43.82849" lon="6.80568">
        <ele>1150</ele>
        <time>2013-06-08T09:24:34Z</time>
      </trkpt>
      <trkpt lat="43.82859" lon="6.80595">
        <ele>1150.8</ele>
        <time>2013-06-08T09:24:40Z</time>
      </trkpt>
      <trkpt lat="43.82859" lon="6.80621">
        <ele>1151.1</ele>
        <time>2013-06-08T09:24:46Z</time>
      </trkpt>
      <trkpt lat="43.8286" lon="6.8065">
        <ele>1151.4</ele>
        <time>2013-06-08T09:24:52Z</time>
      </trkpt>
      <trkpt lat="43.82866" lon="6.80675">
        <ele>1152.2</ele>
        <time>2013-06-08T09:24:58Z</time>
      </trkpt>
      <trkpt lat="43.82883" lon="6.8069">
        <ele>1153.1</ele>
        <time>2013-06-08T09:25:04Z</time>
      </trkpt>
      <trkpt lat="43.82901" lon="6.80703">
        <ele>1153.7</ele>
        <time>2013-06-08T09:25:10Z</time>
      </trkpt>
      <trkpt lat="43.82913" lon="6.80723">
        <ele>1154.5</ele>
        <time>2013-06-08T09:25:16Z</time>
      </trkpt>
      <trkpt lat="43.82922" lon="6.80745">
        <ele>1155.1</ele>
        <time>2013-06-08T09:25:22Z</time>
      </trkpt>
      <trkpt lat="43.82933" lon="6.80767">
        <ele>1155.9</ele>
        <time>2013-06-08T09:25:28Z</time>
      </trkpt>
      <trkpt lat="43.82945" lon="6.8079">
        <ele>1156.4</ele>
        <time>2013-06-08T09:25:34Z</time>
      </trkpt>
      <trkpt lat="43.82956" lon="6.80816">
        <ele>1156.9</ele>
        <time>2013-06-08T09:25:40Z</time>
      </trkpt>
      <trkpt lat="43.82975" lon="6.80832">
        <ele>1157.6</ele>
        <time>2013-06-08T09:25:46Z</time>
      </trkpt>
      <trkpt lat="43.82994" lon="6.80821">
        <ele>1158.7</ele>
        <time>2013-06-08T09:25:52Z</time>
      </trkpt>
      <trkpt lat="43.83007" lon="6.80782">
        <ele>1159.1</ele>
        <time>2013-06-08T09:25:58Z</time>
      </trkpt>
      <trkpt lat="43.83025" lon="6.80746">
        <ele>1157.9</ele>
        <time>2013-06-08T09:26:04Z</time>
      </trkpt>
      <trkpt lat="43.83054" lon="6.80757">
        <ele>1157.9</ele>
        <time>2013-06-08T09:26:10Z</time>
      </trkpt>
      <trkpt lat="43.83086" lon="6.80788">
        <ele>1159.2</ele>
        <time>2013-06-08T09:26:16Z</time>
      </trkpt>
      <trkpt lat="43.83109" lon="6.80832">
        <ele>1159.1</ele>
        <time>2013-06-08T09:26:22Z</time>
      </trkpt>
      <trkpt lat="43.83091" lon="6.80891">
        <ele>1154.5</ele>
        <time>2013-06-08T09:26:28Z</time>
      </trkpt>
      <trkpt lat="43.83091" lon="6.80953">
        <ele>1150.9</ele>
        <time>2013-06-08T09:26:34Z</time>
      </trkpt>
      <trkpt lat="43.83098" lon="6.81019">
        <ele>1149.8</ele>
        <time>2013-06-08T09:26:40Z</time>
      </trkpt>
      <trkpt lat="43.83111" lon="6.81087">
        <ele>1151.2</ele>
        <time>2013-06-08T09:26:46Z</time>
      </trkpt>
      <trkpt lat="43.83131" lon="6.81151">
        <ele>1153.2</ele>
        <time>2013-06-08T09:26:52Z</time>
      </trkpt>
      <trkpt lat="43.83145" lon="6.81212">
        <ele>1151.9</ele>
        <time>2013-06-08T09:26:58Z</time>
      </trkpt>
      <trkpt lat="43.83164" lon="6.81265">
        <ele>1149.9</ele>
        <time>2013-06-08T09:27:04Z</time>
      </trkpt>
      <trkpt lat="43.83203" lon="6.81305">
        <ele>1149.3</ele>
        <time>2013-06-08T09:27:10Z</time>
      </trkpt>
      <trkpt lat="43.83247" lon="6.81328">
        <ele>1150.5</ele>
        <time>2013-06-08T09:27:16Z</time>
      </trkpt>
      <trkpt lat="43.83281" lon="6.81359">
        <ele>1150.1</ele>
        <time>2013-06-08T09:27:22Z</time>
      </trkpt>
      <trkpt lat="43.83293" lon="6.81415">
        <ele>1149.7</ele>
        <time>2013-06-08T09:27:28Z</time>
      </trkpt>
      <trkpt lat="43.83279" lon="6.81465">
        <ele>1142.3</ele>
        <time>2013-06-08T09:27:34Z</time>
      </trkpt>
      <trkpt lat="43.83273" lon="6.81518">
        <ele>1138.9</ele>
        <time>2013-06-08T09:27:40Z</time>
      </trkpt>
      <trkpt lat="43.83271" lon="6.81569">
        <ele>1136.7</ele>
        <time>2013-06-08T09:27:46Z</time>
      </trkpt>
      <trkpt lat="43.83264" lon="6.81617">
        <ele>1136.7</ele>
        <time>2013-06-08T09:27:52Z</time>
      </trkpt>
      <trkpt lat="43.83262" lon="6.81663">
        <ele>1138.2</ele>
        <time>2013-06-08T09:27:58Z</time>
      </trkpt>
      <trkpt lat="43.83264" lon="6.81709">
        <ele>1138.5</ele>
        <time>2013-06-08T09:28:04Z</time>
      </trkpt>
      <trkpt lat="43.83279" lon="6.81747">
        <ele>1144.2</ele>
        <time>2013-06-08T09:28:10Z</time>
      </trkpt>
      <trkpt lat="43.83289" lon="6.81787">
        <ele>1147.8</ele>
        <time>2013-06-08T09:28:16Z</time>
      </trkpt>
      <trkpt lat="43.83298" lon="6.81828">
        <ele>1149.2</ele>
        <time>2013-06-08T09:28:22Z</time>
      </trkpt>
      <trkpt lat="43.83305" lon="6.8187">
        <ele>1151.8</ele>
        <time>2013-06-08T09:28:28Z</time>
      </trkpt>
      <trkpt lat="43.83321" lon="6.81909">
        <ele>1152.7</ele>
        <time>2013-06-08T09:28:34Z</time>
      </trkpt>
      <trkpt lat="43.83349" lon="6.81938">
        <ele>1153.5</ele>
        <time>2013-06-08T09:28:40Z</time>
      </trkpt>
      <trkpt lat="43.83381" lon="6.81957">
        <ele>1153.7</ele>
        <time>2013-06-08T09:28:46Z</time>
      </trkpt>
      <trkpt lat="43.83414" lon="6.81977">
        <ele>1153.5</ele>
        <time>2013-06-08T09:28:52Z</time>
      </trkpt>
      <trkpt lat="43.83448" lon="6.81993">
        <ele>1153.9</ele>
        <time>2013-06-08T09:28:58Z</time>
      </trkpt>
      <trkpt lat="43.83486" lon="6.82003">
        <ele>1153.1</ele>
        <time>2013-06-08T09:29:04Z</time>
      </trkpt>
      <trkpt lat="43.83499" lon="6.81959">
        <ele>1153.9</ele>
        <time>2013-06-08T09:29:10Z</time>
      </trkpt>
      <trkpt lat="43.83497" lon="6.81912">
        <ele>1155.4</ele>
        <time>2013-06-08T09:29:16Z</time>
      </trkpt>
      <trkpt lat="43.83495" lon="6.8187">
        <ele>1160.6</ele>
        <time>2013-06-08T09:29:22Z</time>
      </trkpt>
      <trkpt lat="43.83533" lon="6.8185">
        <ele>1158.7</ele>
        <time>2013-06-08T09:29:28Z</time>
      </trkpt>
      <trkpt lat="43.83568" lon="6.81876">
        <ele>1152.6</ele>
        <time>2013-06-08T09:29:34Z</time>
      </trkpt>
      <trkpt lat="43.83603" lon="6.81902">
        <ele>1149.2</ele>
        <time>2013-06-08T09:29:40Z</time>
      </trkpt>
      <trkpt lat="43.8364" lon="6.81873">
        <ele>1146.2</ele>
        <time>2013-06-08T09:29:46Z</time>
      </trkpt>
      <trkpt lat="43.83654" lon="6.81819">
        <ele>1146.9</ele>
        <time>2013-06-08T09:29:52Z</time>
      </trkpt>
      <trkpt lat="43.83681" lon="6.81783">
        <ele>1145</ele>
        <time>2013-06-08T09:29:58Z</time>
      </trkpt>
      <trkpt lat="43.837" lon="6.81734">
        <ele>1143.7</ele>
        <time>2013-06-08T09:30:04Z</time>
      </trkpt>
      <trkpt lat="43.83734" lon="6.81729">
        <ele>1147.2</ele>
        <time>2013-06-08T09:30:10Z</time>
      </trkpt>
      <trkpt lat="43.8377" lon="6.81751">
        <ele>1149.7</ele>
        <time>2013-06-08T09:30:16Z</time>
      </trkpt>
      <trkpt lat="43.83793" lon="6.81799">
        <ele>1150.8</ele>
        <time>2013-06-08T09:30:22Z</time>
      </trkpt>
      <trkpt lat="43.83821" lon="6.81842">
        <ele>1150.7</ele>
        <time>2013-06-08T09:30:28Z</time>
      </trkpt>
      <trkpt lat="43.83848" lon="6.8188">
        <ele>1149.2</ele>
        <time>2013-06-08T09:30:34Z</time>
      </trkpt>
      <trkpt lat="43.83878" lon="6.81911">
        <ele>1149.4</ele>
        <time>2013-06-08T09:30:40Z</time>
      </trkpt>
      <trkpt lat="43.83903" lon="6.81953">
        <ele>1151</ele>
        <time>2013-06-08T09:30:46Z</time>
      </trkpt>
      <trkpt lat="43.83908" lon="6.82001">
        <ele>1147.9</ele>
        <time>2013-06-08T09:30:52Z</time>
      </trkpt>
      <trkpt lat="43.83915" lon="6.82048">
        <ele>1142.5</ele>
        <time>2013-06-08T09:30:58Z</time>
      </trkpt>
      <trkpt lat="43.83933" lon="6.82084">
        <ele>1142.6</ele>
        <time>2013-06-08T09:31:04Z</time>
      </trkpt>
      <trkpt lat="43.83962" lon="6.82121">
        <ele>1145.2</ele>
        <time>2013-06-08T09:31:10Z</time>
      </trkpt>
      <trkpt lat="43.83987" lon="6.82163">
        <ele>1145.6</ele>
        <time>2013-06-08T09:31:16Z</time>
      </trkpt>
      <trkpt lat="43.84018" lon="6.82187">
        <ele>1147.4</ele>
        <time>2013-06-08T09:31:22Z</time>
      </trkpt>
      <trkpt lat="43.84052" lon="6.82178">
        <ele>1149.6</ele>
        <time>2013-06-08T09:31:28Z</time>
      </trkpt>
      <trkpt lat="43.84085" lon="6.82145">
        <ele>1146</ele>
        <time>2013-06-08T09:31:34Z</time>
      </trkpt>
      <trkpt lat="43.84098" lon="6.82183">
        <ele>1142.3</ele>
        <time>2013-06-08T09:31:40Z</time>
      </trkpt>
      <trkpt lat="43.84099" lon="6.82239">
        <ele>1142</ele>
        <time>2013-06-08T09:31:46Z</time>
      </trkpt>
      <trkpt lat="43.84098" lon="6.82296">
        <ele>1139</ele>
        <time>2013-06-08T09:31:52Z</time>
      </trkpt>
      <trkpt lat="43.84094" lon="6.82351">
        <ele>1139</ele>
        <time>2013-06-08T09:31:58Z</time>
      </trkpt>
      <trkpt lat="43.8408" lon="6.82404">
        <ele>1138.1</ele>
        <time>2013-06-08T09:32:04Z</time>
      </trkpt>
      <trkpt lat="43.84038" lon="6.82399">
        <ele>1134.4</ele>
        <time>2013-06-08T09:32:10Z</time>
      </trkpt>
      <trkpt lat="43.83995" lon="6.82406">
        <ele>1131.5</ele>
        <time>2013-06-08T09:32:16Z</time>
      </trkpt>
      <trkpt lat="43.83997" lon="6.82456">
        <ele>1134.7</ele>
        <time>2013-06-08T09:32:22Z</time>
      </trkpt>
      <trkpt lat="43.84004" lon="6.82509">
        <ele>1138.6</ele>
        <time>2013-06-08T09:32:28Z</time>
      </trkpt>
      <trkpt lat="43.83993" lon="6.82562">
        <ele>1138.3</ele>
        <time>2013-06-08T09:32:34Z</time>
      </trkpt>
      <trkpt lat="43.83972" lon="6.82602">
        <ele>1135.2</ele>
        <time>2013-06-08T09:32:40Z</time>
      </trkpt>
      <trkpt lat="43.8396" lon="6.82642">
        <ele>1135.2</ele>
        <time>2013-06-08T09:32:46Z</time>
      </trkpt>
      <trkpt lat="43.83954" lon="6.82684">
        <ele>1133.8</ele>
        <time>2013-06-08T09:32:52Z</time>
      </trkpt>
      <trkpt lat="43.83923" lon="6.8271">
        <ele>1132.4</ele>
        <time>2013-06-08T09:32:58Z</time>
      </trkpt>
      <trkpt lat="43.83899" lon="6.82744">
        <ele>1135.7</ele>
        <time>2013-06-08T09:33:04Z</time>
      </trkpt>
      <trkpt lat="43.8388" lon="6.82768">
        <ele>1137</ele>
        <time>2013-06-08T09:33:10Z</time>
      </trkpt>
      <trkpt lat="43.83869" lon="6.82799">
        <ele>1137</ele>
        <time>2013-06-08T09:33:16Z</time>
      </trkpt>
      <trkpt lat="43.8388" lon="6.82837">
        <ele>1135.3</ele>
        <time>2013-06-08T09:33:22Z</time>
      </trkpt>
      <trkpt lat="43.83911" lon="6.82868">
        <ele>1132.9</ele>
        <time>2013-06-08T09:33:28Z</time>
      </trkpt>
      <trkpt lat="43.83946" lon="6.82889">
        <ele>1130.3</ele>
        <time>2013-06-08T09:33:34Z</time>
      </trkpt>
      <trkpt lat="43.8398" lon="6.82926">
        <ele>1130.1</ele>
        <time>2013-06-08T09:33:40Z</time>
      </trkpt>
      <trkpt lat="43.84009" lon="6.8297">
        <ele>1131.6</ele>
        <time>2013-06-08T09:33:46Z</time>
      </trkpt>
      <trkpt lat="43.84053" lon="6.82948">
        <ele>1129.3</ele>
        <time>2013-06-08T09:33:52Z</time>
      </trkpt>
      <trkpt lat="43.8409" lon="6.82921">
        <ele>1124.9</ele>
        <time>2013-06-08T09:33:58Z</time>
      </trkpt>
      <trkpt lat="43.84137" lon="6.82904">
        <ele>1124.1</ele>
        <time>2013-06-08T09:34:04Z</time>
      </trkpt>
      <trkpt lat="43.8418" lon="6.82871">
        <ele>1122</ele>
        <time>2013-06-08T09:34:10Z</time>
      </trkpt>
      <trkpt lat="43.8418" lon="6.82924">
        <ele>1118.3</ele>
        <time>2013-06-08T09:34:16Z</time>
      </trkpt>
      <trkpt lat="43.84158" lon="6.82989">
        <ele>1117.3</ele>
        <time>2013-06-08T09:34:22Z</time>
      </trkpt>
      <trkpt lat="43.84162" lon="6.83056">
        <ele>1113.4</ele>
        <time>2013-06-08T09:34:28Z</time>
      </trkpt>
      <trkpt lat="43.84198" lon="6.83089">
        <ele>1109.6</ele>
        <time>2013-06-08T09:34:34Z</time>
      </trkpt>
      <trkpt lat="43.84241" lon="6.8309">
        <ele>1105.6</ele>
        <time>2013-06-08T09:34:40Z</time>
      </trkpt>
      <trkpt lat="43.84278" lon="6.83097">
        <ele>1101.8</ele>
        <time>2013-06-08T09:34:46Z</time>
      </trkpt>
      <trkpt lat="43.84274" lon="6.83153">
        <ele>1097.9</ele>
        <time>2013-06-08T09:34:52Z</time>
      </trkpt>
      <trkpt lat="43.84234" lon="6.83193">
        <ele>1095.4</ele>
        <time>2013-06-08T09:34:58Z</time>
      </trkpt>
      <trkpt lat="43.84189" lon="6.83227">
        <ele>1090.4</ele>
        <time>2013-06-08T09:35:04Z</time>
      </trkpt>
      <trkpt lat="43.84171" lon="6.83301">
        <ele>1083.8</ele>
        <time>2013-06-08T09:35:10Z</time>
      </trkpt>
      <trkpt lat="43.84177" lon="6.83383">
        <ele>1079.9</ele>
        <time>2013-06-08T09:35:16Z</time>
      </trkpt>
      <trkpt lat="43.84192" lon="6.83466">
        <ele>1076</ele>
        <time>2013-06-08T09:35:22Z</time>
      </trkpt>
      <trkpt lat="43.84227" lon="6.83515">
        <ele>1076.1</ele>
        <time>2013-06-08T09:35:28Z</time>
      </trkpt>
      <trkpt lat="43.84281" lon="6.835">
        <ele>1072.9</ele>
        <time>2013-06-08T09:35:34Z</time>
      </trkpt>
      <trkpt lat="43.84316" lon="6.83455">
        <ele>1068.8</ele>
        <time>2013-06-08T09:35:40Z</time>
      </trkpt>
      <trkpt lat="43.8434" lon="6.83506">
        <ele>1063</ele>
        <time>2013-06-08T09:35:46Z</time>
      </trkpt>
      <trkpt lat="43.84347" lon="6.83589">
        <ele>1062.7</ele>
        <time>2013-06-08T09:35:52Z</time>
      </trkpt>
      <trkpt lat="43.84305" lon="6.83621">
        <ele>1059.3</ele>
        <time>2013-06-08T09:35:58Z</time>
      </trkpt>
      <trkpt lat="43.84258" lon="6.83665">
        <ele>1051.8</ele>
        <time>2013-06-08T09:36:04Z</time>
      </trkpt>
      <trkpt lat="43.84218" lon="6.83729">
        <ele>1046.1</ele>
        <time>2013-06-08T09:36:10Z</time>
      </trkpt>
      <trkpt lat="43.84208" lon="6.83817">
        <ele>1039.2</ele>
        <time>2013-06-08T09:36:16Z</time>
      </trkpt>
      <trkpt lat="43.84234" lon="6.83878">
        <ele>1034.5</ele>
        <time>2013-06-08T09:36:22Z</time>
      </trkpt>
      <trkpt lat="43.84272" lon="6.83917">
        <ele>1032.2</ele>
        <time>2013-06-08T09:36:28Z</time>
      </trkpt>
      <trkpt lat="43.84313" lon="6.83966">
        <ele>1034.9</ele>
        <time>2013-06-08T09:36:34Z</time>
      </trkpt>
      <trkpt lat="43.8434" lon="6.84008">
        <ele>1034.3</ele>
        <time>2013-06-08T09:36:40Z</time>
      </trkpt>
      <trkpt lat="43.84311" lon="6.84028">
        <ele>1030.8</ele>
        <time>2013-06-08T09:36:46Z</time>
      </trkpt>
      <trkpt lat="43.84268" lon="6.84026">
        <ele>1025.9</ele>
        <time>2013-06-08T09:36:52Z</time>
      </trkpt>
      <trkpt lat="43.84243" lon="6.84091">
        <ele>1018.5</ele>
        <time>2013-06-08T09:36:58Z</time>
      </trkpt>
      <trkpt lat="43.8422" lon="6.8416">
        <ele>1012.9</ele>
        <time>2013-06-08T09:37:04Z</time>
      </trkpt>
      <trkpt lat="43.8419" lon="6.84235">
        <ele>1012</ele>
        <time>2013-06-08T09:37:10Z</time>
      </trkpt>
      <trkpt lat="43.84205" lon="6.84292">
        <ele>1012</ele>
        <time>2013-06-08T09:37:16Z</time>
      </trkpt>
      <trkpt lat="43.84245" lon="6.84335">
        <ele>1009.4</ele>
        <time>2013-06-08T09:37:22Z</time>
      </trkpt>
      <trkpt lat="43.84298" lon="6.84354">
        <ele>1006.9</ele>
        <time>2013-06-08T09:37:28Z</time>
      </trkpt>
      <trkpt lat="43.84299" lon="6.84382">
        <ele>1002.5</ele>
        <time>2013-06-08T09:37:34Z</time>
      </trkpt>
      <trkpt lat="43.84273" lon="6.8444">
        <ele>992.4</ele>
        <time>2013-06-08T09:37:40Z</time>
      </trkpt>
      <trkpt lat="43.84259" lon="6.84523">
        <ele>987.1</ele>
        <time>2013-06-08T09:37:46Z</time>
      </trkpt>
      <trkpt lat="43.84266" lon="6.84583">
        <ele>985.5</ele>
        <time>2013-06-08T09:37:52Z</time>
      </trkpt>
      <trkpt lat="43.84311" lon="6.84624">
        <ele>984.8</ele>
        <time>2013-06-08T09:37:58Z</time>
      </trkpt>
      <trkpt lat="43.84339" lon="6.84668">
        <ele>984.7</ele>
        <time>2013-06-08T09:38:04Z</time>
      </trkpt>
      <trkpt lat="43.84325" lon="6.8473">
        <ele>978.2</ele>
        <time>2013-06-08T09:38:10Z</time>
      </trkpt>
      <trkpt lat="43.84311" lon="6.84814">
        <ele>970</ele>
        <time>2013-06-08T09:38:16Z</time>
      </trkpt>
      <trkpt lat="43.84331" lon="6.84878">
        <ele>965.7</ele>
        <time>2013-06-08T09:38:22Z</time>
      </trkpt>
      <trkpt lat="43.84325" lon="6.84931">
        <ele>962.4</ele>
        <time>2013-06-08T09:38:28Z</time>
      </trkpt>
      <trkpt lat="43.84338" lon="6.84994">
        <ele>961.7</ele>
        <time>2013-06-08T09:38:34Z</time>
      </trkpt>
      <trkpt lat="43.84386" lon="6.8503">
        <ele>961.2</ele>
        <time>2013-06-08T09:38:40Z</time>
      </trkpt>
      <trkpt lat="43.84414" lon="6.85084">
        <ele>957.9</ele>
        <time>2013-06-08T09:38:46Z</time>
      </trkpt>
      <trkpt lat="43.844" lon="6.8514">
        <ele>952</ele>
        <time>2013-06-08T09:38:52Z</time>
      </trkpt>
      <trkpt lat="43.84383" lon="6.85206">
        <ele>945.7</ele>
        <time>2013-06-08T09:38:58Z</time>
      </trkpt>
      <trkpt lat="43.84355" lon="6.85263">
        <ele>944.5</ele>
        <time>2013-06-08T09:39:04Z</time>
      </trkpt>
      <trkpt lat="43.84387" lon="6.85319">
        <ele>943</ele>
        <time>2013-06-08T09:39:10Z</time>
      </trkpt>
      <trkpt lat="43.8441" lon="6.854">
        <ele>938.8</ele>
        <time>2013-06-08T09:39:16Z</time>
      </trkpt>
      <trkpt lat="43.84422" lon="6.85491">
        <ele>933.1</ele>
        <time>2013-06-08T09:39:22Z</time>
      </trkpt>
      <trkpt lat="43.84411" lon="6.85555">
        <ele>928.3</ele>
        <time>2013-06-08T09:39:28Z</time>
      </trkpt>
      <trkpt lat="43.84433" lon="6.85624">
        <ele>925.7</ele>
        <time>2013-06-08T09:39:34Z</time>
      </trkpt>
      <trkpt lat="43.84438" lon="6.85687">
        <ele>922.3</ele>
        <time>2013-06-08T09:39:40Z</time>
      </trkpt>
      <trkpt lat="43.84421" lon="6.85746">
        <ele>915.5</ele>
        <time>2013-06-08T09:39:46Z</time>
      </trkpt>
      <trkpt lat="43.84385" lon="6.85762">
        <ele>910.8</ele>
        <time>2013-06-08T09:39:52Z</time>
      </trkpt>
      <trkpt lat="43.84349" lon="6.85772">
        <ele>908.8</ele>
        <time>2013-06-08T09:39:58Z</time>
      </trkpt>
      <trkpt lat="43.8432" lon="6.85803">
        <ele>908.3</ele>
        <time>2013-06-08T09:40:04Z</time>
      </trkpt>
      <trkpt lat="43.84297" lon="6.85832">
        <ele>910.5</ele>
        <time>2013-06-08T09:40:10Z</time>
      </trkpt>
      <trkpt lat="43.84283" lon="6.85857">
        <ele>910.2</ele>
        <time>2013-06-08T09:40:16Z</time>
      </trkpt>
      <trkpt lat="43.84287" lon="6.85876">
        <ele>909.7</ele>
        <time>2013-06-08T09:40:22Z</time>
      </trkpt>
      <trkpt lat="43.84287" lon="6.85876">
        <ele>909.8</ele>
        <time>2013-06-08T09:40:28Z</time>
      </trkpt>
      <trkpt lat="43.84287" lon="6.85876">
        <ele>909.9</ele>
        <time>2013-06-08T09:40:34Z</time>
      </trkpt>
      <trkpt lat="43.84287" lon="6.85876">
        <ele>910</ele>
        <time>2013-06-08T09:40:40Z</time>
      </trkpt>
      <trkpt lat="43.84287" lon="6.85876">
        <ele>910.1</ele>
        <time>2013-06-08T09:40:46Z</time>
      </trkpt>
      <trkpt lat="43.84287" lon="6.85876">
        <ele>910.1</ele>
        <time>2013-06-08T09:40:52Z</time>
      </trkpt>
      <trkpt lat="43.84287" lon="6.85876">
        <ele>910.2</ele>
        <time>2013-06-08T09:40:58Z</time>
      </trkpt>
      <trkpt lat="43.84287" lon="6.85876">
        <ele>910.2</ele>
        <time>2013-06-08T09:41:04Z</time>
      </trkpt>
      <trkpt lat="43.84287" lon="6.85876">
        <ele>910.2</ele>
        <time>2013-06-08T09:41:10Z</time>
      </trkpt>
      <trkpt lat="43.84287" lon="6.85876">
        <ele>910.3</ele>
        <time>2013-06-08T09:41:16Z</time>
      </trkpt>
      <trkpt lat="43.84287" lon="6.85876">
        <ele>910.3</ele>
        <time>2013-06-08T09:41:22Z</time>
      </trkpt>
      <trkpt lat="43.84287" lon="6.85876">
        <ele>910.4</ele>
        <time>2013-06-08T09:41:28Z</time>
      </trkpt>
      <trkpt lat="43.84287" lon="6.85876">
        <ele>910.6</ele>
        <time>2013-06-08T09:41:34Z</time>
      </trkpt>
      <trkpt lat="43.84287" lon="6.85876">
        <ele>910.6</ele>
        <time>2013-06-08T09:41:40Z</time>
      </trkpt>
      <trkpt lat="43.84287" lon="6.85876">
        <ele>910.6</ele>
        <time>2013-06-08T09:41:46Z</time>
      </trkpt>
      <trkpt lat="43.84287" lon="6.85876">
        <ele>910.7</ele>
        <time>2013-06-08T09:41:52Z</time>
      </trkpt>
      <trkpt lat="43.84287" lon="6.85876">
        <ele>910.8</ele>
        <time>2013-06-08T09:41:58Z</time>
      </trkpt>
      <trkpt lat="43.84287" lon="6.85876">
        <ele>910.9</ele>
        <time>2013-06-08T09:42:04Z</time>
      </trkpt>
      <trkpt lat="43.84287" lon="6.85876">
        <ele>910.9</ele>
        <time>2013-06-08T09:42:10Z</time>
      </trkpt>
      <trkpt lat="43.84287" lon="6.85876">
        <ele>910.8</ele>
        <time>2013-06-08T09:42:16Z</time>
      </trkpt>
      <trkpt lat="43.84287" lon="6.85876">
        <ele>910.7</ele>
        <time>2013-06-08T09:42:22Z</time>
      </trkpt>
      <trkpt lat="43.84287" lon="6.85876">
        <ele>910.6</ele>
        <time>2013-06-08T09:42:28Z</time>
      </trkpt>
      <trkpt lat="43.84287" lon="6.85876">
        <ele>910.5</ele>
        <time>2013-06-08T09:42:34Z</time>
      </trkpt>
      <trkpt lat="43.84287" lon="6.85876">
        <ele>910.5</ele>
        <time>2013-06-08T09:42:40Z</time>
      </trkpt>
      <trkpt lat="43.84287" lon="6.85876">
        <ele>910.4</ele>
        <time>2013-06-08T09:42:46Z</time>
      </trkpt>
      <trkpt lat="43.84287" lon="6.85876">
        <ele>910.4</ele>
        <time>2013-06-08T09:42:52Z</time>
      </trkpt>
      <trkpt lat="43.84287" lon="6.85876">
        <ele>910.4</ele>
        <time>2013-06-08T09:42:58Z</time>
      </trkpt>
      <trkpt lat="43.84287" lon="6.85876">
        <ele>910.4</ele>
        <time>2013-06-08T09:43:04Z</time>
      </trkpt>
      <trkpt lat="43.84287" lon="6.85876">
        <ele>910.4</ele>
        <time>2013-06-08T09:43:10Z</time>
      </trkpt>
      <trkpt lat="43.84287" lon="6.85876">
        <ele>910.4</ele>
        <time>2013-06-08T09:43:16Z</time>
      </trkpt>
      <trkpt lat="43.84287" lon="6.85876">
        <ele>910.5</ele>
        <time>2013-06-08T09:43:22Z</time>
      </trkpt>
      <trkpt lat="43.84287" lon="6.85876">
        <ele>910.8</ele>
        <time>2013-06-08T09:43:28Z</time>
      </trkpt>
      <trkpt lat="43.84287" lon="6.85876">
        <ele>910.8</ele>
        <time>2013-06-08T09:43:34Z</time>
      </trkpt>
      <trkpt lat="43.84287" lon="6.85876">
        <ele>910.9</ele>
        <time>2013-06-08T09:43:40Z</time>
      </trkpt>
      <trkpt lat="43.84287" lon="6.85876">
        <ele>910.9</ele>
        <time>2013-06-08T09:43:46Z</time>
      </trkpt>
      <trkpt lat="43.84287" lon="6.85876">
        <ele>911</ele>
        <time>2013-06-08T09:43:52Z</time>
      </trkpt>
      <trkpt lat="43.84287" lon="6.85876">
        <ele>910.9</ele>
        <time>2013-06-08T09:43:58Z</time>
      </trkpt>
      <trkpt lat="43.84287" lon="6.85876">
        <ele>910.9</ele>
        <time>2013-06-08T09:44:04Z</time>
      </trkpt>
      <trkpt lat="43.84287" lon="6.85876">
        <ele>910.9</ele>
        <time>2013-06-08T09:44:10Z</time>
      </trkpt>
      <trkpt lat="43.84287" lon="6.85876">
        <ele>910.9</ele>
        <time>2013-06-08T09:44:16Z</time>
      </trkpt>
      <trkpt lat="43.84287" lon="6.85876">
        <ele>910.9</ele>
        <time>2013-06-08T09:44:22Z</time>
      </trkpt>
      <trkpt lat="43.84287" lon="6.85876">
        <ele>910.8</ele>
        <time>2013-06-08T09:44:28Z</time>
      </trkpt>
      <trkpt lat="43.84287" lon="6.85876">
        <ele>910.7</ele>
        <time>2013-06-08T09:44:34Z</time>
      </trkpt>
      <trkpt lat="43.84295" lon="6.85879">
        <ele>910.5</ele>
        <time>2013-06-08T09:44:40Z</time>
      </trkpt>
      <trkpt lat="43.8431" lon="6.85898">
        <ele>911.2</ele>
        <time>2013-06-08T09:44:46Z</time>
      </trkpt>
      <trkpt lat="43.8433" lon="6.85915">
        <ele>910.8</ele>
        <time>2013-06-08T09:44:52Z</time>
      </trkpt>
      <trkpt lat="43.84349" lon="6.85934">
        <ele>910.3</ele>
        <time>2013-06-08T09:44:58Z</time>
      </trkpt>
      <trkpt lat="43.84365" lon="6.8597">
        <ele>909.9</ele>
        <time>2013-06-08T09:45:04Z</time>
      </trkpt>
      <trkpt lat="43.84368" lon="6.86021">
        <ele>908</ele>
        <time>2013-06-08T09:45:10Z</time>
      </trkpt>
      <trkpt lat="43.84398" lon="6.86043">
        <ele>904.4</ele>
        <time>2013-06-08T09:45:16Z</time>
      </trkpt>
      <trkpt lat="43.84452" lon="6.86023">
        <ele>900.7</ele>
        <time>2013-06-08T09:45:22Z</time>
      </trkpt>
      <trkpt lat="43.84499" lon="6.86062">
        <ele>897.5</ele>
        <time>2013-06-08T09:45:28Z</time>
      </trkpt>
      <trkpt lat="43.8454" lon="6.86119">
        <ele>892.5</ele>
        <time>2013-06-08T09:45:34Z</time>
      </trkpt>
      <trkpt lat="43.84549" lon="6.86209">
        <ele>887.4</ele>
        <time>2013-06-08T09:45:40Z</time>
      </trkpt>
      <trkpt lat="43.84558" lon="6.86296">
        <ele>884.2</ele>
        <time>2013-06-08T09:45:46Z</time>
      </trkpt>
      <trkpt lat="43.8457" lon="6.86379">
        <ele>880.1</ele>
        <time>2013-06-08T09:45:52Z</time>
      </trkpt>
      <trkpt lat="43.84557" lon="6.86462">
        <ele>870.8</ele>
        <time>2013-06-08T09:45:58Z</time>
      </trkpt>
      <trkpt lat="43.84546" lon="6.86551">
        <ele>865.6</ele>
        <time>2013-06-08T09:46:04Z</time>
      </trkpt>
      <trkpt lat="43.84563" lon="6.86577">
        <ele>862.7</ele>
        <time>2013-06-08T09:46:10Z</time>
      </trkpt>
      <trkpt lat="43.84528" lon="6.86564">
        <ele>855.8</ele>
        <time>2013-06-08T09:46:16Z</time>
      </trkpt>
      <trkpt lat="43.84516" lon="6.8649">
        <ele>852.8</ele>
        <time>2013-06-08T09:46:22Z</time>
      </trkpt>
      <trkpt lat="43.84509" lon="6.86426">
        <ele>847.7</ele>
        <time>2013-06-08T09:46:28Z</time>
      </trkpt>
      <trkpt lat="43.845" lon="6.86367">
        <ele>842.5</ele>
        <time>2013-06-08T09:46:34Z</time>
      </trkpt>
      <trkpt lat="43.84473" lon="6.86306">
        <ele>838.7</ele>
        <time>2013-06-08T09:46:40Z</time>
      </trkpt>
      <trkpt lat="43.84469" lon="6.86326">
        <ele>837.3</ele>
        <time>2013-06-08T09:46:46Z</time>
      </trkpt>
      <trkpt lat="43.84478" lon="6.86407">
        <ele>837</ele>
        <time>2013-06-08T09:46:52Z</time>
      </trkpt>
      <trkpt lat="43.84466" lon="6.86485">
        <ele>833</ele>
        <time>2013-06-08T09:46:58Z</time>
      </trkpt>
      <trkpt lat="43.84467" lon="6.8657">
        <ele>825.7</ele>
        <time>2013-06-08T09:47:04Z</time>
      </trkpt>
      <trkpt lat="43.84504" lon="6.86652">
        <ele>821.8</ele>
        <time>2013-06-08T09:47:10Z</time>
      </trkpt>
      <trkpt lat="43.84525" lon="6.86746">
        <ele>819.4</ele>
        <time>2013-06-08T09:47:16Z</time>
      </trkpt>
      <trkpt lat="43.8454" lon="6.86805">
        <ele>813.2</ele>
        <time>2013-06-08T09:47:22Z</time>
      </trkpt>
      <trkpt lat="43.84585" lon="6.86843">
        <ele>808.3</ele>
        <time>2013-06-08T09:47:28Z</time>
      </trkpt>
      <trkpt lat="43.84618" lon="6.86917">
        <ele>807.4</ele>
        <time>2013-06-08T09:47:34Z</time>
      </trkpt>
      <trkpt lat="43.84633" lon="6.87006">
        <ele>803.4</ele>
        <time>2013-06-08T09:47:40Z</time>
      </trkpt>
      <trkpt lat="43.84653" lon="6.8709">
        <ele>795.1</ele>
        <time>2013-06-08T09:47:46Z</time>
      </trkpt>
      <trkpt lat="43.84695" lon="6.87162">
        <ele>790.1</ele>
        <time>2013-06-08T09:47:52Z</time>
      </trkpt>
      <trkpt lat="43.84738" lon="6.87234">
        <ele>784.8</ele>
        <time>2013-06-08T09:47:58Z</time>
      </trkpt>
      <trkpt lat="43.84769" lon="6.87328">
        <ele>778.5</ele>
        <time>2013-06-08T09:48:04Z</time>
      </trkpt>
      <trkpt lat="43.84781" lon="6.87414">
        <ele>772.2</ele>
        <time>2013-06-08T09:48:10Z</time>
      </trkpt>
      <trkpt lat="43.84836" lon="6.87445">
        <ele>767.6</ele>
        <time>2013-06-08T09:48:16Z</time>
      </trkpt>
      <trkpt lat="43.84856" lon="6.87484">
        <ele>761.1</ele>
        <time>2013-06-08T09:48:22Z</time>
      </trkpt>
      <trkpt lat="43.84845" lon="6.87561">
        <ele>755</ele>
        <time>2013-06-08T09:48:28Z</time>
      </trkpt>
      <trkpt lat="43.84876" lon="6.87643">
        <ele>755.8</ele>
        <time>2013-06-08T09:48:34Z</time>
      </trkpt>
      <trkpt lat="43.84907" lon="6.87717">
        <ele>754.4</ele>
        <time>2013-06-08T09:48:40Z</time>
      </trkpt>
      <trkpt lat="43.84927" lon="6.87759">
        <ele>749.5</ele>
        <time>2013-06-08T09:48:46Z</time>
      </trkpt>
      <trkpt lat="43.84893" lon="6.87801">
        <ele>745.2</ele>
        <time>2013-06-08T09:48:52Z</time>
      </trkpt>
      <trkpt lat="43.84864" lon="6.87861">
        <ele>739.8</ele>
        <time>2013-06-08T09:48:58Z</time>
      </trkpt>
      <trkpt lat="43.84876" lon="6.87926">
        <ele>735.3</ele>
        <time>2013-06-08T09:49:04Z</time>
      </trkpt>
      <trkpt lat="43.8489" lon="6.87992">
        <ele>736.6</ele>
        <time>2013-06-08T09:49:10Z</time>
      </trkpt>
      <trkpt lat="43.8491" lon="6.88053">
        <ele>739.3</ele>
        <time>2013-06-08T09:49:16Z</time>
      </trkpt>
      <trkpt lat="43.84917" lon="6.88123">
        <ele>741.1</ele>
        <time>2013-06-08T09:49:22Z</time>
      </trkpt>
      <trkpt lat="43.8493" lon="6.88191">
        <ele>742.4</ele>
        <time>2013-06-08T09:49:28Z</time>
      </trkpt>
      <trkpt lat="43.84957" lon="6.88256">
        <ele>740.5</ele>
        <time>2013-06-08T09:49:34Z</time>
      </trkpt>
      <trkpt lat="43.84971" lon="6.88325">
        <ele>736.9</ele>
        <time>2013-06-08T09:49:40Z</time>
      </trkpt>
      <trkpt lat="43.84975" lon="6.88396">
        <ele>734.5</ele>
        <time>2013-06-08T09:49:46Z</time>
      </trkpt>
      <trkpt lat="43.84987" lon="6.88466">
        <ele>733.9</ele>
        <time>2013-06-08T09:49:52Z</time>
      </trkpt>
      <trkpt lat="43.85022" lon="6.88521">
        <ele>733.9</ele>
        <time>2013-06-08T09:49:58Z</time>
      </trkpt>
      <trkpt lat="43.85054" lon="6.88575">
        <ele>733.1</ele>
        <time>2013-06-08T09:50:04Z</time>
      </trkpt>
      <trkpt lat="43.85054" lon="6.88643">
        <ele>729.6</ele>
        <time>2013-06-08T09:50:10Z</time>
      </trkpt>
      <trkpt lat="43.85047" lon="6.8871">
        <ele>728.7</ele>
        <time>2013-06-08T09:50:16Z</time>
      </trkpt>
      <trkpt lat="43.8505" lon="6.88766">
        <ele>727.9</ele>
        <time>2013-06-08T09:50:22Z</time>
      </trkpt>
      <trkpt lat="43.85082" lon="6.88792">
        <ele>728.4</ele>
        <time>2013-06-08T09:50:28Z</time>
      </trkpt>
      <trkpt lat="43.85118" lon="6.88814">
        <ele>728.2</ele>
        <time>2013-06-08T09:50:34Z</time>
      </trkpt>
      <trkpt lat="43.85138" lon="6.8886">
        <ele>728.3</ele>
        <time>2013-06-08T09:50:40Z</time>
      </trkpt>
      <trkpt lat="43.85132" lon="6.88921">
        <ele>725.6</ele>
        <time>2013-06-08T09:50:46Z</time>
      </trkpt>
      <trkpt lat="43.85121" lon="6.88977">
        <ele>722.2</ele>
        <time>2013-06-08T09:50:52Z</time>
      </trkpt>
      <trkpt lat="43.85108" lon="6.89031">
        <ele>720.1</ele>
        <time>2013-06-08T09:50:58Z</time>
      </trkpt>
      <trkpt lat="43.85107" lon="6.89083">
        <ele>721.7</ele>
        <time>2013-06-08T09:51:04Z</time>
      </trkpt>
      <trkpt lat="43.85096" lon="6.89124">
        <ele>718.8</ele>
        <time>2013-06-08T09:51:10Z</time>
      </trkpt>
      <trkpt lat="43.85079" lon="6.89173">
        <ele>717.2</ele>
        <time>2013-06-08T09:51:16Z</time>
      </trkpt>
      <trkpt lat="43.85081" lon="6.89227">
        <ele>720.2</ele>
        <time>2013-06-08T09:51:22Z</time>
      </trkpt>
      <trkpt lat="43.85082" lon="6.89277">
        <ele>719.9</ele>
        <time>2013-06-08T09:51:28Z</time>
      </trkpt>
      <trkpt lat="43.85107" lon="6.89326">
        <ele>715.2</ele>
        <time>2013-06-08T09:51:34Z</time>
      </trkpt>
      <trkpt lat="43.8515" lon="6.89358">
        <ele>713.2</ele>
        <time>2013-06-08T09:51:40Z</time>
      </trkpt>
      <trkpt lat="43.85181" lon="6.89405">
        <ele>713.4</ele>
        <time>2013-06-08T09:51:46Z</time>
      </trkpt>
      <trkpt lat="43.85183" lon="6.89471">
        <ele>709</ele>
        <time>2013-06-08T09:51:52Z</time>
      </trkpt>
      <trkpt lat="43.85156" lon="6.89538">
        <ele>701</ele>
        <time>2013-06-08T09:51:58Z</time>
      </trkpt>
      <trkpt lat="43.85115" lon="6.89584">
        <ele>697</ele>
        <time>2013-06-08T09:52:04Z</time>
      </trkpt>
      <trkpt lat="43.85097" lon="6.89624">
        <ele>693.3</ele>
        <time>2013-06-08T09:52:10Z</time>
      </trkpt>
      <trkpt lat="43.85131" lon="6.89651">
        <ele>691.3</ele>
        <time>2013-06-08T09:52:16Z</time>
      </trkpt>
      <trkpt lat="43.85168" lon="6.89683">
        <ele>689.7</ele>
        <time>2013-06-08T09:52:22Z</time>
      </trkpt>
      <trkpt lat="43.852" lon="6.89726">
        <ele>686.2</ele>
        <time>2013-06-08T09:52:28Z</time>
      </trkpt>
      <trkpt lat="43.85219" lon="6.89784">
        <ele>683.8</ele>
        <time>2013-06-08T09:52:34Z</time>
      </trkpt>
      <trkpt lat="43.85216" lon="6.89859">
        <ele>679.6</ele>
        <time>2013-06-08T09:52:40Z</time>
      </trkpt>
      <trkpt lat="43.85204" lon="6.89918">
        <ele>676.3</ele>
        <time>2013-06-08T09:52:46Z</time>
      </trkpt>
      <trkpt lat="43.85229" lon="6.89949">
        <ele>674.1</ele>
        <time>2013-06-08T09:52:52Z</time>
      </trkpt>
      <trkpt lat="43.8527" lon="6.89993">
        <ele>668.7</ele>
        <time>2013-06-08T09:52:58Z</time>
      </trkpt>
      <trkpt lat="43.85285" lon="6.90068">
        <ele>664.2</ele>
        <time>2013-06-08T09:53:04Z</time>
      </trkpt>
      <trkpt lat="43.85281" lon="6.90123">
        <ele>658.7</ele>
        <time>2013-06-08T09:53:10Z</time>
      </trkpt>
      <trkpt lat="43.85271" lon="6.90091">
        <ele>653</ele>
        <time>2013-06-08T09:53:16Z</time>
      </trkpt>
      <trkpt lat="43.85265" lon="6.90033">
        <ele>645</ele>
        <time>2013-06-08T09:53:22Z</time>
      </trkpt>
      <trkpt lat="43.85224" lon="6.89982">
        <ele>636.6</ele>
        <time>2013-06-08T09:53:28Z</time>
      </trkpt>
      <trkpt lat="43.85168" lon="6.89958">
        <ele>638.1</ele>
        <time>2013-06-08T09:53:34Z</time>
      </trkpt>
      <trkpt lat="43.85133" lon="6.89974">
        <ele>640.9</ele>
        <time>2013-06-08T09:53:40Z</time>
      </trkpt>
      <trkpt lat="43.85159" lon="6.8998">
        <ele>644</ele>
        <time>2013-06-08T09:53:46Z</time>
      </trkpt>
      <trkpt lat="43.85201" lon="6.89991">
        <ele>646.2</ele>
        <time>2013-06-08T09:53:52Z</time>
      </trkpt>
      <trkpt lat="43.8523" lon="6.90054">
        <ele>642.6</ele>
        <time>2013-06-08T09:53:58Z</time>
      </trkpt>
      <trkpt lat="43.8522" lon="6.90129">
        <ele>636.2</ele>
        <time>2013-06-08T09:54:04Z</time>
      </trkpt>
      <trkpt lat="43.85231" lon="6.90195">
        <ele>627.7</ele>
        <time>2013-06-08T09:54:10Z</time>
      </trkpt>
      <trkpt lat="43.85259" lon="6.90259">
        <ele>621.9</ele>
        <time>2013-06-08T09:54:16Z</time>
      </trkpt>
      <trkpt lat="43.85284" lon="6.90333">
        <ele>620.3</ele>
        <time>2013-06-08T09:54:22Z</time>
      </trkpt>
      <trkpt lat="43.85301" lon="6.90404">
        <ele>617.4</ele>
        <time>2013-06-08T09:54:28Z</time>
      </trkpt>
      <trkpt lat="43.8533" lon="6.90469">
        <ele>613.8</ele>
        <time>2013-06-08T09:54:34Z</time>
      </trkpt>
      <trkpt lat="43.85363" lon="6.90523">
        <ele>610.2</ele>
        <time>2013-06-08T09:54:40Z</time>
      </trkpt>
      <trkpt lat="43.8539" lon="6.90601">
        <ele>609.9</ele>
        <time>2013-06-08T09:54:46Z</time>
      </trkpt>
      <trkpt lat="43.85423" lon="6.90684">
        <ele>607.6</ele>
        <time>2013-06-08T09:54:52Z</time>
      </trkpt>
      <trkpt lat="43.85457" lon="6.90769">
        <ele>604</ele>
        <time>2013-06-08T09:54:58Z</time>
      </trkpt>
      <trkpt lat="43.85487" lon="6.90852">
        <ele>596.5</ele>
        <time>2013-06-08T09:55:04Z</time>
      </trkpt>
      <trkpt lat="43.85508" lon="6.90932">
        <ele>592.2</ele>
        <time>2013-06-08T09:55:10Z</time>
      </trkpt>
      <trkpt lat="43.85536" lon="6.90999">
        <ele>589.8</ele>
        <time>2013-06-08T09:55:16Z</time>
      </trkpt>
      <trkpt lat="43.85574" lon="6.9098">
        <ele>585.7</ele>
        <time>2013-06-08T09:55:22Z</time>
      </trkpt>
      <trkpt lat="43.85606" lon="6.90933">
        <ele>582</ele>
        <time>2013-06-08T09:55:28Z</time>
      </trkpt>
      <trkpt lat="43.85622" lon="6.90917">
        <ele>580.6</ele>
        <time>2013-06-08T09:55:34Z</time>
      </trkpt>
      <trkpt lat="43.85622" lon="6.90917">
        <ele>580.4</ele>
        <time>2013-06-08T09:55:40Z</time>
      </trkpt>
      <trkpt lat="43.85622" lon="6.90917">
        <ele>580.3</ele>
        <time>2013-06-08T09:55:46Z</time>
      </trkpt>
      <trkpt lat="43.85622" lon="6.90917">
        <ele>580.2</ele>
        <time>2013-06-08T09:55:52Z</time>
      </trkpt>
      <trkpt lat="43.85622" lon="6.90917">
        <ele>580.1</ele>
        <time>2013-06-08T09:55:58Z</time>
      </trkpt>
      <trkpt lat="43.85622" lon="6.90917">
        <ele>580.1</ele>
        <time>2013-06-08T09:56:04Z</time>
      </trkpt>
      <trkpt lat="43.85622" lon="6.90917">
        <ele>580.1</ele>
        <time>2013-06-08T09:56:10Z</time>
      </trkpt>
      <trkpt lat="43.85622" lon="6.90917">
        <ele>580.1</ele>
        <time>2013-06-08T09:56:16Z</time>
      </trkpt>
      <trkpt lat="43.85622" lon="6.90917">
        <ele>580.1</ele>
        <time>2013-06-08T09:56:22Z</time>
      </trkpt>
      <trkpt lat="43.85622" lon="6.90917">
        <ele>580</ele>
        <time>2013-06-08T09:56:28Z</time>
      </trkpt>
      <trkpt lat="43.85622" lon="6.90917">
        <ele>580</ele>
        <time>2013-06-08T09:56:34Z</time>
      </trkpt>
      <trkpt lat="43.85622" lon="6.90917">
        <ele>579.1</ele>
        <time>2013-06-08T09:56:40Z</time>
      </trkpt>
      <trkpt lat="43.85622" lon="6.90917">
        <ele>579</ele>
        <time>2013-06-08T09:56:46Z</time>
      </trkpt>
      <trkpt lat="43.85625" lon="6.909">
        <ele>578.7</ele>
        <time>2013-06-08T09:56:52Z</time>
      </trkpt>
      <trkpt lat="43.8563" lon="6.9088">
        <ele>577.2</ele>
        <time>2013-06-08T09:56:58Z</time>
      </trkpt>
      <trkpt lat="43.85641" lon="6.90853">
        <ele>572.7</ele>
        <time>2013-06-08T09:57:04Z</time>
      </trkpt>
      <trkpt lat="43.85664" lon="6.90819">
        <ele>570.6</ele>
        <time>2013-06-08T09:57:10Z</time>
      </trkpt>
      <trkpt lat="43.85707" lon="6.90799">
        <ele>572.4</ele>
        <time>2013-06-08T09:57:16Z</time>
      </trkpt>
      <trkpt lat="43.85761" lon="6.90774">
        <ele>569.3</ele>
        <time>2013-06-08T09:57:22Z</time>
      </trkpt>
      <trkpt lat="43.85801" lon="6.90718">
        <ele>565.5</ele>
        <time>2013-06-08T09:57:28Z</time>
      </trkpt>
      <trkpt lat="43.85831" lon="6.90637">
        <ele>557</ele>
        <time>2013-06-08T09:57:34Z</time>
      </trkpt>
      <trkpt lat="43.85863" lon="6.90608">
        <ele>554.3</ele>
        <time>2013-06-08T09:57:40Z</time>
      </trkpt>
      <trkpt lat="43.85891" lon="6.90662">
        <ele>557.8</ele>
        <time>2013-06-08T09:57:46Z</time>
      </trkpt>
      <trkpt lat="43.85907" lon="6.9072">
        <ele>554.7</ele>
        <time>2013-06-08T09:57:52Z</time>
      </trkpt>
      <trkpt lat="43.85942" lon="6.90709">
        <ele>548.2</ele>
        <time>2013-06-08T09:57:58Z</time>
      </trkpt>
      <trkpt lat="43.85984" lon="6.9072">
        <ele>544.2</ele>
        <time>2013-06-08T09:58:04Z</time>
      </trkpt>
      <trkpt lat="43.86006" lon="6.90723">
        <ele>543.6</ele>
        <time>2013-06-08T09:58:10Z</time>
      </trkpt>
      <trkpt lat="43.86016" lon="6.90726">
        <ele>543</ele>
        <time>2013-06-08T09:58:17Z</time>
      </trkpt>
      <trkpt lat="43.86095" lon="6.90747">
        <ele>542.5</ele>
        <time>2013-06-08T09:58:35Z</time>
      </trkpt>
      <trkpt lat="43.86125" lon="6.90756">
        <ele>540.2</ele>
        <time>2013-06-08T09:58:41Z</time>
      </trkpt>
      <trkpt lat="43.86237" lon="6.90771">
        <ele>540.3</ele>
        <time>2013-06-08T09:59:14Z</time>
      </trkpt>
      <trkpt lat="43.86254" lon="6.90742">
        <ele>540.4</ele>
        <time>2013-06-08T09:59:20Z</time>
      </trkpt>
      <trkpt lat="43.86254" lon="6.90742">
        <ele>540.4</ele>
        <time>2013-06-08T09:59:26Z</time>
      </trkpt>
      <trkpt lat="43.86254" lon="6.90742">
        <ele>540.3</ele>
        <time>2013-06-08T09:59:32Z</time>
      </trkpt>
      <trkpt lat="43.86257" lon="6.90746">
        <ele>539.8</ele>
        <time>2013-06-08T10:00:45Z</time>
      </trkpt>
      <trkpt lat="43.86257" lon="6.90746">
        <ele>539.9</ele>
        <time>2013-06-08T10:00:51Z</time>
      </trkpt>
      <trkpt lat="43.86257" lon="6.90746">
        <ele>540</ele>
        <time>2013-06-08T10:00:57Z</time>
      </trkpt>
      <trkpt lat="43.86257" lon="6.90746">
        <ele>540</ele>
        <time>2013-06-08T10:01:03Z</time>
      </trkpt>
      <trkpt lat="43.86257" lon="6.90746">
        <ele>540.2</ele>
        <time>2013-06-08T10:01:09Z</time>
      </trkpt>
      <trkpt lat="43.86257" lon="6.90746">
        <ele>540.5</ele>
        <time>2013-06-08T10:01:15Z</time>
      </trkpt>
      <trkpt lat="43.86269" lon="6.90759">
        <ele>542.3</ele>
        <time>2013-06-08T10:01:21Z</time>
      </trkpt>
      <trkpt lat="43.86271" lon="6.90771">
        <ele>543.6</ele>
        <time>2013-06-08T10:01:27Z</time>
      </trkpt>
      <trkpt lat="43.86269" lon="6.90785">
        <ele>544.4</ele>
        <time>2013-06-08T10:01:33Z</time>
      </trkpt>
      <trkpt lat="43.8623" lon="6.90776">
        <ele>544.4</ele>
        <time>2013-06-08T10:01:43Z</time>
      </trkpt>
      <trkpt lat="43.86139" lon="6.9097">
        <ele>555</ele>
        <time>2013-06-08T10:03:07Z</time>
      </trkpt>
      <trkpt lat="43.8606" lon="6.91043">
        <ele>557</ele>
        <time>2013-06-08T10:03:37Z</time>
      </trkpt>
      <trkpt lat="43.8605" lon="6.9105">
        <ele>558</ele>
        <time>2013-06-08T10:03:43Z</time>
      </trkpt>
      <trkpt lat="43.86029" lon="6.91073">
        <ele>559</ele>
        <time>2013-06-08T10:03:55Z</time>
      </trkpt>
      <trkpt lat="43.86019" lon="6.91108">
        <ele>560</ele>
        <time>2013-06-08T10:04:07Z</time>
      </trkpt>
      <trkpt lat="43.86003" lon="6.9114">
        <ele>561</ele>
        <time>2013-06-08T10:04:19Z</time>
      </trkpt>
      <trkpt lat="43.8598" lon="6.91157">
        <ele>562</ele>
        <time>2013-06-08T10:04:31Z</time>
      </trkpt>
      <trkpt lat="43.85954" lon="6.91179">
        <ele>562.6</ele>
        <time>2013-06-08T10:04:43Z</time>
      </trkpt>
      <trkpt lat="43.85908" lon="6.91209">
        <ele>562.4</ele>
        <time>2013-06-08T10:05:07Z</time>
      </trkpt>
      <trkpt lat="43.85899" lon="6.91241">
        <ele>563.4</ele>
        <time>2013-06-08T10:05:19Z</time>
      </trkpt>
      <trkpt lat="43.85888" lon="6.91255">
        <ele>563.8</ele>
        <time>2013-06-08T10:05:25Z</time>
      </trkpt>
      <trkpt lat="43.85874" lon="6.9126">
        <ele>563.7</ele>
        <time>2013-06-08T10:05:31Z</time>
      </trkpt>
      <trkpt lat="43.85859" lon="6.91267">
        <ele>564.2</ele>
        <time>2013-06-08T10:05:37Z</time>
      </trkpt>
      <trkpt lat="43.85848" lon="6.91277">
        <ele>564.7</ele>
        <time>2013-06-08T10:05:43Z</time>
      </trkpt>
      <trkpt lat="43.85839" lon="6.91288">
        <ele>565.2</ele>
        <time>2013-06-08T10:05:49Z</time>
      </trkpt>
      <trkpt lat="43.85831" lon="6.91302">
        <ele>565.8</ele>
        <time>2013-06-08T10:05:55Z</time>
      </trkpt>
      <trkpt lat="43.85823" lon="6.91317">
        <ele>566.6</ele>
        <time>2013-06-08T10:06:01Z</time>
      </trkpt>
      <trkpt lat="43.85816" lon="6.91332">
        <ele>567.8</ele>
        <time>2013-06-08T10:06:07Z</time>
      </trkpt>
      <trkpt lat="43.85809" lon="6.91344">
        <ele>568.8</ele>
        <time>2013-06-08T10:06:13Z</time>
      </trkpt>
      <trkpt lat="43.85798" lon="6.91356">
        <ele>569.3</ele>
        <time>2013-06-08T10:06:19Z</time>
      </trkpt>
      <trkpt lat="43.85785" lon="6.9136">
        <ele>569.4</ele>
        <time>2013-06-08T10:06:25Z</time>
      </trkpt>
      <trkpt lat="43.85772" lon="6.91357">
        <ele>569.5</ele>
        <time>2013-06-08T10:06:31Z</time>
      </trkpt>
      <trkpt lat="43.85759" lon="6.91353">
        <ele>569.6</ele>
        <time>2013-06-08T10:06:37Z</time>
      </trkpt>
      <trkpt lat="43.85745" lon="6.91343">
        <ele>569.9</ele>
        <time>2013-06-08T10:06:43Z</time>
      </trkpt>
      <trkpt lat="43.85743" lon="6.91352">
        <ele>570.4</ele>
        <time>2013-06-08T10:06:49Z</time>
      </trkpt>
      <trkpt lat="43.85755" lon="6.91358">
        <ele>571.2</ele>
        <time>2013-06-08T10:06:55Z</time>
      </trkpt>
      <trkpt lat="43.85769" lon="6.91365">
        <ele>572.2</ele>
        <time>2013-06-08T10:07:01Z</time>
      </trkpt>
      <trkpt lat="43.85782" lon="6.91371">
        <ele>573.6</ele>
        <time>2013-06-08T10:07:07Z</time>
      </trkpt>
      <trkpt lat="43.85793" lon="6.91374">
        <ele>575.1</ele>
        <time>2013-06-08T10:07:13Z</time>
      </trkpt>
      <trkpt lat="43.85805" lon="6.91371">
        <ele>576.5</ele>
        <time>2013-06-08T10:07:19Z</time>
      </trkpt>
      <trkpt lat="43.85818" lon="6.91359">
        <ele>577.5</ele>
        <time>2013-06-08T10:07:25Z</time>
      </trkpt>
      <trkpt lat="43.85827" lon="6.91349">
        <ele>578.7</ele>
        <time>2013-06-08T10:07:31Z</time>
      </trkpt>
      <trkpt lat="43.85838" lon="6.91334">
        <ele>580</ele>
        <time>2013-06-08T10:07:37Z</time>
      </trkpt>
      <trkpt lat="43.85852" lon="6.91323">
        <ele>581.2</ele>
        <time>2013-06-08T10:07:43Z</time>
      </trkpt>
      <trkpt lat="43.85864" lon="6.91318">
        <ele>582.4</ele>
        <time>2013-06-08T10:07:49Z</time>
      </trkpt>
      <trkpt lat="43.85877" lon="6.91315">
        <ele>583.1</ele>
        <time>2013-06-08T10:07:55Z</time>
      </trkpt>
      <trkpt lat="43.85891" lon="6.91312">
        <ele>584</ele>
        <time>2013-06-08T10:08:01Z</time>
      </trkpt>
      <trkpt lat="43.85905" lon="6.9131">
        <ele>584.9</ele>
        <time>2013-06-08T10:08:07Z</time>
      </trkpt>
      <trkpt lat="43.85917" lon="6.91304">
        <ele>585.7</ele>
        <time>2013-06-08T10:08:13Z</time>
      </trkpt>
      <trkpt lat="43.85929" lon="6.91299">
        <ele>586.5</ele>
        <time>2013-06-08T10:08:19Z</time>
      </trkpt>
      <trkpt lat="43.85939" lon="6.91292">
        <ele>587.7</ele>
        <time>2013-06-08T10:08:25Z</time>
      </trkpt>
      <trkpt lat="43.85952" lon="6.91289">
        <ele>588.3</ele>
        <time>2013-06-08T10:08:31Z</time>
      </trkpt>
      <trkpt lat="43.85964" lon="6.91287">
        <ele>589.2</ele>
        <time>2013-06-08T10:08:37Z</time>
      </trkpt>
      <trkpt lat="43.8598" lon="6.91291">
        <ele>590.2</ele>
        <time>2013-06-08T10:08:43Z</time>
      </trkpt>
      <trkpt lat="43.8599" lon="6.91282">
        <ele>590.9</ele>
        <time>2013-06-08T10:08:49Z</time>
      </trkpt>
      <trkpt lat="43.86" lon="6.9127">
        <ele>591.7</ele>
        <time>2013-06-08T10:08:55Z</time>
      </trkpt>
      <trkpt lat="43.8601" lon="6.91262">
        <ele>592.4</ele>
        <time>2013-06-08T10:09:01Z</time>
      </trkpt>
      <trkpt lat="43.86015" lon="6.91271">
        <ele>593.1</ele>
        <time>2013-06-08T10:09:07Z</time>
      </trkpt>
      <trkpt lat="43.86003" lon="6.91282">
        <ele>593.2</ele>
        <time>2013-06-08T10:09:13Z</time>
      </trkpt>
      <trkpt lat="43.85994" lon="6.9129">
        <ele>593.5</ele>
        <time>2013-06-08T10:09:19Z</time>
      </trkpt>
      <trkpt lat="43.85984" lon="6.913">
        <ele>593.9</ele>
        <time>2013-06-08T10:09:25Z</time>
      </trkpt>
      <trkpt lat="43.85971" lon="6.91307">
        <ele>594.6</ele>
        <time>2013-06-08T10:09:31Z</time>
      </trkpt>
      <trkpt lat="43.85959" lon="6.91313">
        <ele>595.3</ele>
        <time>2013-06-08T10:09:37Z</time>
      </trkpt>
      <trkpt lat="43.85948" lon="6.91321">
        <ele>596.3</ele>
        <time>2013-06-08T10:09:43Z</time>
      </trkpt>
      <trkpt lat="43.85937" lon="6.91331">
        <ele>597.2</ele>
        <time>2013-06-08T10:09:49Z</time>
      </trkpt>
      <trkpt lat="43.85929" lon="6.91344">
        <ele>598.3</ele>
        <time>2013-06-08T10:09:55Z</time>
      </trkpt>
      <trkpt lat="43.85919" lon="6.9136">
        <ele>599.5</ele>
        <time>2013-06-08T10:10:01Z</time>
      </trkpt>
      <trkpt lat="43.85907" lon="6.91367">
        <ele>600.5</ele>
        <time>2013-06-08T10:10:07Z</time>
      </trkpt>
      <trkpt lat="43.85899" lon="6.91378">
        <ele>601.5</ele>
        <time>2013-06-08T10:10:13Z</time>
      </trkpt>
      <trkpt lat="43.85891" lon="6.91382">
        <ele>602.5</ele>
        <time>2013-06-08T10:10:19Z</time>
      </trkpt>
      <trkpt lat="43.85882" lon="6.91383">
        <ele>603.6</ele>
        <time>2013-06-08T10:10:25Z</time>
      </trkpt>
      <trkpt lat="43.85874" lon="6.91396">
        <ele>604.6</ele>
        <time>2013-06-08T10:10:31Z</time>
      </trkpt>
      <trkpt lat="43.85867" lon="6.91408">
        <ele>605.6</ele>
        <time>2013-06-08T10:10:37Z</time>
      </trkpt>
      <trkpt lat="43.85856" lon="6.91415">
        <ele>606.9</ele>
        <time>2013-06-08T10:10:43Z</time>
      </trkpt>
      <trkpt lat="43.85846" lon="6.91427">
        <ele>608.2</ele>
        <time>2013-06-08T10:10:49Z</time>
      </trkpt>
      <trkpt lat="43.85838" lon="6.91438">
        <ele>608.9</ele>
        <time>2013-06-08T10:10:55Z</time>
      </trkpt>
      <trkpt lat="43.85829" lon="6.91447">
        <ele>610</ele>
        <time>2013-06-08T10:11:01Z</time>
      </trkpt>
      <trkpt lat="43.85819" lon="6.91458">
        <ele>611.2</ele>
        <time>2013-06-08T10:11:07Z</time>
      </trkpt>
      <trkpt lat="43.85808" lon="6.91471">
        <ele>612.3</ele>
        <time>2013-06-08T10:11:13Z</time>
      </trkpt>
      <trkpt lat="43.85797" lon="6.91476">
        <ele>613.9</ele>
        <time>2013-06-08T10:11:19Z</time>
      </trkpt>
      <trkpt lat="43.85785" lon="6.91474">
        <ele>615.5</ele>
        <time>2013-06-08T10:11:25Z</time>
      </trkpt>
      <trkpt lat="43.85769" lon="6.91475">
        <ele>616.5</ele>
        <time>2013-06-08T10:11:31Z</time>
      </trkpt>
      <trkpt lat="43.85764" lon="6.91491">
        <ele>617.5</ele>
        <time>2013-06-08T10:11:37Z</time>
      </trkpt>
      <trkpt lat="43.85759" lon="6.91516">
        <ele>618.1</ele>
        <time>2013-06-08T10:11:43Z</time>
      </trkpt>
      <trkpt lat="43.85742" lon="6.91532">
        <ele>619</ele>
        <time>2013-06-08T10:11:49Z</time>
      </trkpt>
      <trkpt lat="43.85717" lon="6.91546">
        <ele>622</ele>
        <time>2013-06-08T10:11:55Z</time>
      </trkpt>
      <trkpt lat="43.857" lon="6.9156">
        <ele>622.2</ele>
        <time>2013-06-08T10:12:01Z</time>
      </trkpt>
      <trkpt lat="43.85688" lon="6.91581">
        <ele>622</ele>
        <time>2013-06-08T10:12:07Z</time>
      </trkpt>
      <trkpt lat="43.8568" lon="6.91614">
        <ele>620.5</ele>
        <time>2013-06-08T10:12:13Z</time>
      </trkpt>
      <trkpt lat="43.8567" lon="6.91649">
        <ele>619.1</ele>
        <time>2013-06-08T10:12:19Z</time>
      </trkpt>
      <trkpt lat="43.8564" lon="6.9167">
        <ele>618.1</ele>
        <time>2013-06-08T10:12:25Z</time>
      </trkpt>
      <trkpt lat="43.85611" lon="6.91688">
        <ele>617.8</ele>
        <time>2013-06-08T10:12:31Z</time>
      </trkpt>
      <trkpt lat="43.85603" lon="6.91731">
        <ele>616</ele>
        <time>2013-06-08T10:12:37Z</time>
      </trkpt>
      <trkpt lat="43.85594" lon="6.91784">
        <ele>613.2</ele>
        <time>2013-06-08T10:12:43Z</time>
      </trkpt>
      <trkpt lat="43.85556" lon="6.9182">
        <ele>611.6</ele>
        <time>2013-06-08T10:12:49Z</time>
      </trkpt>
      <trkpt lat="43.85518" lon="6.91872">
        <ele>610.9</ele>
        <time>2013-06-08T10:12:55Z</time>
      </trkpt>
      <trkpt lat="43.85489" lon="6.91934">
        <ele>608.3</ele>
        <time>2013-06-08T10:13:01Z</time>
      </trkpt>
      <trkpt lat="43.85436" lon="6.91947">
        <ele>605.6</ele>
        <time>2013-06-08T10:13:07Z</time>
      </trkpt>
      <trkpt lat="43.85426" lon="6.9199">
        <ele>604.6</ele>
        <time>2013-06-08T10:13:13Z</time>
      </trkpt>
      <trkpt lat="43.85422" lon="6.91998">
        <ele>604.6</ele>
        <time>2013-06-08T10:13:19Z</time>
      </trkpt>
      <trkpt lat="43.85422" lon="6.91998">
        <ele>604.6</ele>
        <time>2013-06-08T10:13:25Z</time>
      </trkpt>
      <trkpt lat="43.85421" lon="6.92">
        <ele>604.7</ele>
        <time>2013-06-08T10:13:31Z</time>
      </trkpt>
      <trkpt lat="43.85421" lon="6.92013">
        <ele>604.8</ele>
        <time>2013-06-08T10:13:37Z</time>
      </trkpt>
      <trkpt lat="43.85442" lon="6.92027">
        <ele>603.4</ele>
        <time>2013-06-08T10:13:43Z</time>
      </trkpt>
      <trkpt lat="43.85473" lon="6.92025">
        <ele>600.1</ele>
        <time>2013-06-08T10:13:49Z</time>
      </trkpt>
      <trkpt lat="43.85517" lon="6.92055">
        <ele>600.1</ele>
        <time>2013-06-08T10:13:55Z</time>
      </trkpt>
      <trkpt lat="43.85563" lon="6.92087">
        <ele>597</ele>
        <time>2013-06-08T10:14:01Z</time>
      </trkpt>
      <trkpt lat="43.85594" lon="6.92123">
        <ele>592.2</ele>
        <time>2013-06-08T10:14:07Z</time>
      </trkpt>
      <trkpt lat="43.856" lon="6.92179">
        <ele>588.6</ele>
        <time>2013-06-08T10:14:13Z</time>
      </trkpt>
      <trkpt lat="43.85578" lon="6.92228">
        <ele>585.8</ele>
        <time>2013-06-08T10:14:19Z</time>
      </trkpt>
      <trkpt lat="43.85545" lon="6.92279">
        <ele>582</ele>
        <time>2013-06-08T10:14:25Z</time>
      </trkpt>
      <trkpt lat="43.85507" lon="6.9233">
        <ele>578.7</ele>
        <time>2013-06-08T10:14:31Z</time>
      </trkpt>
      <trkpt lat="43.85471" lon="6.92363">
        <ele>576.2</ele>
        <time>2013-06-08T10:14:37Z</time>
      </trkpt>
      <trkpt lat="43.85441" lon="6.92405">
        <ele>574.4</ele>
        <time>2013-06-08T10:14:43Z</time>
      </trkpt>
      <trkpt lat="43.85408" lon="6.92449">
        <ele>570.6</ele>
        <time>2013-06-08T10:14:49Z</time>
      </trkpt>
      <trkpt lat="43.85393" lon="6.92504">
        <ele>568</ele>
        <time>2013-06-08T10:14:55Z</time>
      </trkpt>
      <trkpt lat="43.85404" lon="6.92557">
        <ele>567.2</ele>
        <time>2013-06-08T10:15:01Z</time>
      </trkpt>
      <trkpt lat="43.85426" lon="6.92612">
        <ele>564.6</ele>
        <time>2013-06-08T10:15:07Z</time>
      </trkpt>
      <trkpt lat="43.85408" lon="6.92662">
        <ele>561.2</ele>
        <time>2013-06-08T10:15:13Z</time>
      </trkpt>
      <trkpt lat="43.85404" lon="6.92731">
        <ele>557.1</ele>
        <time>2013-06-08T10:15:19Z</time>
      </trkpt>
      <trkpt lat="43.85407" lon="6.92811">
        <ele>552.4</ele>
        <time>2013-06-08T10:15:25Z</time>
      </trkpt>
      <trkpt lat="43.8542" lon="6.92873">
        <ele>548.6</ele>
        <time>2013-06-08T10:15:31Z</time>
      </trkpt>
      <trkpt lat="43.85469" lon="6.92871">
        <ele>545.3</ele>
        <time>2013-06-08T10:15:37Z</time>
      </trkpt>
      <trkpt lat="43.85522" lon="6.92876">
        <ele>544.8</ele>
        <time>2013-06-08T10:15:43Z</time>
      </trkpt>
      <trkpt lat="43.85565" lon="6.92908">
        <ele>543.2</ele>
        <time>2013-06-08T10:15:49Z</time>
      </trkpt>
      <trkpt lat="43.85609" lon="6.92936">
        <ele>536.8</ele>
        <time>2013-06-08T10:15:55Z</time>
      </trkpt>
      <trkpt lat="43.85637" lon="6.92955">
        <ele>534.1</ele>
        <time>2013-06-08T10:16:01Z</time>
      </trkpt>
      <trkpt lat="43.85663" lon="6.9301">
        <ele>532.3</ele>
        <time>2013-06-08T10:16:07Z</time>
      </trkpt>
      <trkpt lat="43.8569" lon="6.93086">
        <ele>530.2</ele>
        <time>2013-06-08T10:16:13Z</time>
      </trkpt>
      <trkpt lat="43.85738" lon="6.9312">
        <ele>525.4</ele>
        <time>2013-06-08T10:16:19Z</time>
      </trkpt>
      <trkpt lat="43.85777" lon="6.93156">
        <ele>522.6</ele>
        <time>2013-06-08T10:16:25Z</time>
      </trkpt>
      <trkpt lat="43.85766" lon="6.9322">
        <ele>516.1</ele>
        <time>2013-06-08T10:16:31Z</time>
      </trkpt>
      <trkpt lat="43.85788" lon="6.93289">
        <ele>509.9</ele>
        <time>2013-06-08T10:16:37Z</time>
      </trkpt>
      <trkpt lat="43.85828" lon="6.93351">
        <ele>507.2</ele>
        <time>2013-06-08T10:16:43Z</time>
      </trkpt>
      <trkpt lat="43.85862" lon="6.93414">
        <ele>505.8</ele>
        <time>2013-06-08T10:16:49Z</time>
      </trkpt>
      <trkpt lat="43.85891" lon="6.93485">
        <ele>502.1</ele>
        <time>2013-06-08T10:16:55Z</time>
      </trkpt>
      <trkpt lat="43.85933" lon="6.93536">
        <ele>498.3</ele>
        <time>2013-06-08T10:17:01Z</time>
      </trkpt>
      <trkpt lat="43.85971" lon="6.93508">
        <ele>492</ele>
        <time>2013-06-08T10:17:07Z</time>
      </trkpt>
      <trkpt lat="43.85991" lon="6.93547">
        <ele>491.3</ele>
        <time>2013-06-08T10:17:13Z</time>
      </trkpt>
      <trkpt lat="43.86022" lon="6.93611">
        <ele>489.3</ele>
        <time>2013-06-08T10:17:19Z</time>
      </trkpt>
      <trkpt lat="43.86071" lon="6.93661">
        <ele>484.4</ele>
        <time>2013-06-08T10:17:25Z</time>
      </trkpt>
      <trkpt lat="43.86119" lon="6.93665">
        <ele>479.5</ele>
        <time>2013-06-08T10:17:31Z</time>
      </trkpt>
      <trkpt lat="43.86164" lon="6.93651">
        <ele>476.6</ele>
        <time>2013-06-08T10:17:37Z</time>
      </trkpt>
      <trkpt lat="43.86189" lon="6.93707">
        <ele>476.9</ele>
        <time>2013-06-08T10:17:43Z</time>
      </trkpt>
      <trkpt lat="43.86193" lon="6.9378">
        <ele>471.5</ele>
        <time>2013-06-08T10:17:49Z</time>
      </trkpt>
      <trkpt lat="43.86192" lon="6.93868">
        <ele>465.9</ele>
        <time>2013-06-08T10:17:55Z</time>
      </trkpt>
      <trkpt lat="43.86218" lon="6.93911">
        <ele>462.5</ele>
        <time>2013-06-08T10:18:01Z</time>
      </trkpt>
      <trkpt lat="43.86269" lon="6.93933">
        <ele>459.2</ele>
        <time>2013-06-08T10:18:07Z</time>
      </trkpt>
      <trkpt lat="43.86284" lon="6.93998">
        <ele>455.7</ele>
        <time>2013-06-08T10:18:13Z</time>
      </trkpt>
      <trkpt lat="43.86277" lon="6.94071">
        <ele>449.5</ele>
        <time>2013-06-08T10:18:19Z</time>
      </trkpt>
      <trkpt lat="43.86263" lon="6.94133">
        <ele>445.5</ele>
        <time>2013-06-08T10:18:25Z</time>
      </trkpt>
      <trkpt lat="43.86262" lon="6.94186">
        <ele>444.4</ele>
        <time>2013-06-08T10:18:31Z</time>
      </trkpt>
      <trkpt lat="43.86271" lon="6.94242">
        <ele>442.2</ele>
        <time>2013-06-08T10:18:37Z</time>
      </trkpt>
      <trkpt lat="43.86251" lon="6.94276">
        <ele>444</ele>
        <time>2013-06-08T10:18:43Z</time>
      </trkpt>
      <trkpt lat="43.86233" lon="6.94313">
        <ele>445.8</ele>
        <time>2013-06-08T10:18:49Z</time>
      </trkpt>
      <trkpt lat="43.86209" lon="6.94356">
        <ele>444.5</ele>
        <time>2013-06-08T10:18:55Z</time>
      </trkpt>
      <trkpt lat="43.86224" lon="6.94394">
        <ele>439.1</ele>
        <time>2013-06-08T10:19:01Z</time>
      </trkpt>
      <trkpt lat="43.86272" lon="6.94412">
        <ele>435.6</ele>
        <time>2013-06-08T10:19:07Z</time>
      </trkpt>
      <trkpt lat="43.86308" lon="6.94437">
        <ele>433.6</ele>
        <time>2013-06-08T10:19:13Z</time>
      </trkpt>
      <trkpt lat="43.86335" lon="6.94427">
        <ele>432.9</ele>
        <time>2013-06-08T10:19:19Z</time>
      </trkpt>
      <trkpt lat="43.86371" lon="6.94395">
        <ele>431.8</ele>
        <time>2013-06-08T10:19:25Z</time>
      </trkpt>
      <trkpt lat="43.86393" lon="6.94347">
        <ele>428.3</ele>
        <time>2013-06-08T10:19:31Z</time>
      </trkpt>
      <trkpt lat="43.86409" lon="6.94362">
        <ele>424.6</ele>
        <time>2013-06-08T10:19:37Z</time>
      </trkpt>
      <trkpt lat="43.86439" lon="6.94415">
        <ele>422</ele>
        <time>2013-06-08T10:19:43Z</time>
      </trkpt>
      <trkpt lat="43.86442" lon="6.94466">
        <ele>418.3</ele>
        <time>2013-06-08T10:19:49Z</time>
      </trkpt>
      <trkpt lat="43.86397" lon="6.945">
        <ele>416.4</ele>
        <time>2013-06-08T10:19:55Z</time>
      </trkpt>
      <trkpt lat="43.86393" lon="6.94544">
        <ele>413.8</ele>
        <time>2013-06-08T10:20:01Z</time>
      </trkpt>
      <trkpt lat="43.86428" lon="6.94554">
        <ele>412.7</ele>
        <time>2013-06-08T10:20:07Z</time>
      </trkpt>
      <trkpt lat="43.86461" lon="6.9458">
        <ele>412.3</ele>
        <time>2013-06-08T10:20:13Z</time>
      </trkpt>
      <trkpt lat="43.86479" lon="6.94622">
        <ele>412.4</ele>
        <time>2013-06-08T10:20:19Z</time>
      </trkpt>
      <trkpt lat="43.86492" lon="6.94673">
        <ele>412.5</ele>
        <time>2013-06-08T10:20:25Z</time>
      </trkpt>
      <trkpt lat="43.86508" lon="6.94718">
        <ele>412.4</ele>
        <time>2013-06-08T10:20:31Z</time>
      </trkpt>
      <trkpt lat="43.86506" lon="6.94773">
        <ele>407.8</ele>
        <time>2013-06-08T10:20:37Z</time>
      </trkpt>
      <trkpt lat="43.86507" lon="6.9483">
        <ele>406.5</ele>
        <time>2013-06-08T10:20:43Z</time>
      </trkpt>
      <trkpt lat="43.86515" lon="6.94888">
        <ele>407.7</ele>
        <time>2013-06-08T10:20:49Z</time>
      </trkpt>
      <trkpt lat="43.86542" lon="6.94922">
        <ele>406.8</ele>
        <time>2013-06-08T10:20:55Z</time>
      </trkpt>
      <trkpt lat="43.8658" lon="6.94926">
        <ele>403</ele>
        <time>2013-06-08T10:21:01Z</time>
      </trkpt>
      <trkpt lat="43.86599" lon="6.94985">
        <ele>403.3</ele>
        <time>2013-06-08T10:21:07Z</time>
      </trkpt>
      <trkpt lat="43.86634" lon="6.95016">
        <ele>403.4</ele>
        <time>2013-06-08T10:21:13Z</time>
      </trkpt>
      <trkpt lat="43.86678" lon="6.94984">
        <ele>397.5</ele>
        <time>2013-06-08T10:21:19Z</time>
      </trkpt>
      <trkpt lat="43.86718" lon="6.94992">
        <ele>396.1</ele>
        <time>2013-06-08T10:21:25Z</time>
      </trkpt>
      <trkpt lat="43.86724" lon="6.95038">
        <ele>394.7</ele>
        <time>2013-06-08T10:21:31Z</time>
      </trkpt>
      <trkpt lat="43.86704" lon="6.95065">
        <ele>395.2</ele>
        <time>2013-06-08T10:21:37Z</time>
      </trkpt>
      <trkpt lat="43.86678" lon="6.95065">
        <ele>400.5</ele>
        <time>2013-06-08T10:21:43Z</time>
      </trkpt>
      <trkpt lat="43.86653" lon="6.95076">
        <ele>401.2</ele>
        <time>2013-06-08T10:21:49Z</time>
      </trkpt>
      <trkpt lat="43.86637" lon="6.95094">
        <ele>400.9</ele>
        <time>2013-06-08T10:21:55Z</time>
      </trkpt>
      <trkpt lat="43.86619" lon="6.95107">
        <ele>401.1</ele>
        <time>2013-06-08T10:22:01Z</time>
      </trkpt>
      <trkpt lat="43.86601" lon="6.95109">
        <ele>401.7</ele>
        <time>2013-06-08T10:22:07Z</time>
      </trkpt>
      <trkpt lat="43.86583" lon="6.95113">
        <ele>402.2</ele>
        <time>2013-06-08T10:22:13Z</time>
      </trkpt>
      <trkpt lat="43.86579" lon="6.95133">
        <ele>402.3</ele>
        <time>2013-06-08T10:22:19Z</time>
      </trkpt>
      <trkpt lat="43.86587" lon="6.95153">
        <ele>402.8</ele>
        <time>2013-06-08T10:22:25Z</time>
      </trkpt>
      <trkpt lat="43.86596" lon="6.95175">
        <ele>403.3</ele>
        <time>2013-06-08T10:22:31Z</time>
      </trkpt>
      <trkpt lat="43.86604" lon="6.95195">
        <ele>403.8</ele>
        <time>2013-06-08T10:22:37Z</time>
      </trkpt>
      <trkpt lat="43.86612" lon="6.95214">
        <ele>404.1</ele>
        <time>2013-06-08T10:22:43Z</time>
      </trkpt>
      <trkpt lat="43.86622" lon="6.95233">
        <ele>404.8</ele>
        <time>2013-06-08T10:22:49Z</time>
      </trkpt>
      <trkpt lat="43.86634" lon="6.9525">
        <ele>405.3</ele>
        <time>2013-06-08T10:22:55Z</time>
      </trkpt>
      <trkpt lat="43.86644" lon="6.95267">
        <ele>405.8</ele>
        <time>2013-06-08T10:23:01Z</time>
      </trkpt>
      <trkpt lat="43.86656" lon="6.95284">
        <ele>406.5</ele>
        <time>2013-06-08T10:23:07Z</time>
      </trkpt>
      <trkpt lat="43.86666" lon="6.953">
        <ele>407.3</ele>
        <time>2013-06-08T10:23:13Z</time>
      </trkpt>
      <trkpt lat="43.86675" lon="6.95317">
        <ele>407.5</ele>
        <time>2013-06-08T10:23:19Z</time>
      </trkpt>
      <trkpt lat="43.86685" lon="6.95333">
        <ele>407.9</ele>
        <time>2013-06-08T10:23:25Z</time>
      </trkpt>
      <trkpt lat="43.86699" lon="6.95344">
        <ele>408.3</ele>
        <time>2013-06-08T10:23:31Z</time>
      </trkpt>
      <trkpt lat="43.86718" lon="6.9535">
        <ele>408.8</ele>
        <time>2013-06-08T10:23:37Z</time>
      </trkpt>
      <trkpt lat="43.86733" lon="6.95365">
        <ele>409.7</ele>
        <time>2013-06-08T10:23:43Z</time>
      </trkpt>
      <trkpt lat="43.8674" lon="6.95387">
        <ele>410.7</ele>
        <time>2013-06-08T10:23:49Z</time>
      </trkpt>
      <trkpt lat="43.86746" lon="6.95409">
        <ele>411.5</ele>
        <time>2013-06-08T10:23:55Z</time>
      </trkpt>
      <trkpt lat="43.86758" lon="6.95424">
        <ele>412.5</ele>
        <time>2013-06-08T10:24:01Z</time>
      </trkpt>
      <trkpt lat="43.86774" lon="6.95422">
        <ele>413.1</ele>
        <time>2013-06-08T10:24:07Z</time>
      </trkpt>
      <trkpt lat="43.86788" lon="6.95421">
        <ele>413.4</ele>
        <time>2013-06-08T10:24:13Z</time>
      </trkpt>
      <trkpt lat="43.86803" lon="6.95426">
        <ele>413.6</ele>
        <time>2013-06-08T10:24:19Z</time>
      </trkpt>
      <trkpt lat="43.86817" lon="6.95434">
        <ele>414</ele>
        <time>2013-06-08T10:24:25Z</time>
      </trkpt>
      <trkpt lat="43.86826" lon="6.95441">
        <ele>414.2</ele>
        <time>2013-06-08T10:24:31Z</time>
      </trkpt>
      <trkpt lat="43.86839" lon="6.95452">
        <ele>414.9</ele>
        <time>2013-06-08T10:24:37Z</time>
      </trkpt>
      <trkpt lat="43.86853" lon="6.95464">
        <ele>415.6</ele>
        <time>2013-06-08T10:24:43Z</time>
      </trkpt>
      <trkpt lat="43.86866" lon="6.95471">
        <ele>416.6</ele>
        <time>2013-06-08T10:24:49Z</time>
      </trkpt>
      <trkpt lat="43.86878" lon="6.95478">
        <ele>417.8</ele>
        <time>2013-06-08T10:24:55Z</time>
      </trkpt>
      <trkpt lat="43.86879" lon="6.95493">
        <ele>418.8</ele>
        <time>2013-06-08T10:25:01Z</time>
      </trkpt>
      <trkpt lat="43.86867" lon="6.95501">
        <ele>419.9</ele>
        <time>2013-06-08T10:25:07Z</time>
      </trkpt>
      <trkpt lat="43.86854" lon="6.95503">
        <ele>421.2</ele>
        <time>2013-06-08T10:25:13Z</time>
      </trkpt>
      <trkpt lat="43.86835" lon="6.95506">
        <ele>422.1</ele>
        <time>2013-06-08T10:25:19Z</time>
      </trkpt>
      <trkpt lat="43.86823" lon="6.95519">
        <ele>422.5</ele>
        <time>2013-06-08T10:25:25Z</time>
      </trkpt>
      <trkpt lat="43.86814" lon="6.95534">
        <ele>423</ele>
        <time>2013-06-08T10:25:31Z</time>
      </trkpt>
      <trkpt lat="43.86802" lon="6.95548">
        <ele>423.3</ele>
        <time>2013-06-08T10:25:37Z</time>
      </trkpt>
      <trkpt lat="43.86793" lon="6.95565">
        <ele>423.7</ele>
        <time>2013-06-08T10:25:43Z</time>
      </trkpt>
      <trkpt lat="43.86792" lon="6.95584">
        <ele>424.2</ele>
        <time>2013-06-08T10:25:49Z</time>
      </trkpt>
      <trkpt lat="43.86799" lon="6.95602">
        <ele>424.7</ele>
        <time>2013-06-08T10:25:55Z</time>
      </trkpt>
      <trkpt lat="43.86807" lon="6.95622">
        <ele>425.4</ele>
        <time>2013-06-08T10:26:01Z</time>
      </trkpt>
      <trkpt lat="43.8681" lon="6.95639">
        <ele>426.4</ele>
        <time>2013-06-08T10:26:07Z</time>
      </trkpt>
      <trkpt lat="43.86812" lon="6.95661">
        <ele>427.7</ele>
        <time>2013-06-08T10:26:13Z</time>
      </trkpt>
      <trkpt lat="43.86814" lon="6.9568">
        <ele>429.1</ele>
        <time>2013-06-08T10:26:19Z</time>
      </trkpt>
      <trkpt lat="43.86821" lon="6.95698">
        <ele>430.6</ele>
        <time>2013-06-08T10:26:25Z</time>
      </trkpt>
      <trkpt lat="43.86829" lon="6.95713">
        <ele>431.6</ele>
        <time>2013-06-08T10:26:31Z</time>
      </trkpt>
      <trkpt lat="43.86843" lon="6.95719">
        <ele>432.6</ele>
        <time>2013-06-08T10:26:37Z</time>
      </trkpt>
      <trkpt lat="43.86855" lon="6.95714">
        <ele>433.7</ele>
        <time>2013-06-08T10:26:43Z</time>
      </trkpt>
      <trkpt lat="43.86869" lon="6.9571">
        <ele>434.3</ele>
        <time>2013-06-08T10:26:49Z</time>
      </trkpt>
      <trkpt lat="43.86882" lon="6.9571">
        <ele>435</ele>
        <time>2013-06-08T10:26:55Z</time>
      </trkpt>
      <trkpt lat="43.86896" lon="6.9572">
        <ele>435.7</ele>
        <time>2013-06-08T10:27:01Z</time>
      </trkpt>
      <trkpt lat="43.869" lon="6.95742">
        <ele>436.2</ele>
        <time>2013-06-08T10:27:07Z</time>
      </trkpt>
      <trkpt lat="43.8689" lon="6.95759">
        <ele>436.9</ele>
        <time>2013-06-08T10:27:13Z</time>
      </trkpt>
      <trkpt lat="43.86874" lon="6.95771">
        <ele>438.2</ele>
        <time>2013-06-08T10:27:19Z</time>
      </trkpt>
      <trkpt lat="43.86861" lon="6.95784">
        <ele>439.4</ele>
        <time>2013-06-08T10:27:25Z</time>
      </trkpt>
      <trkpt lat="43.86853" lon="6.95807">
        <ele>440.2</ele>
        <time>2013-06-08T10:27:31Z</time>
      </trkpt>
      <trkpt lat="43.86848" lon="6.95825">
        <ele>441.2</ele>
        <time>2013-06-08T10:27:37Z</time>
      </trkpt>
      <trkpt lat="43.86839" lon="6.95839">
        <ele>442.4</ele>
        <time>2013-06-08T10:27:43Z</time>
      </trkpt>
      <trkpt lat="43.86829" lon="6.95851">
        <ele>443.8</ele>
        <time>2013-06-08T10:27:49Z</time>
      </trkpt>
      <trkpt lat="43.86819" lon="6.9586">
        <ele>445.3</ele>
        <time>2013-06-08T10:27:55Z</time>
      </trkpt>
      <trkpt lat="43.86809" lon="6.95872">
        <ele>446.3</ele>
        <time>2013-06-08T10:28:01Z</time>
      </trkpt>
      <trkpt lat="43.868" lon="6.95886">
        <ele>447.3</ele>
        <time>2013-06-08T10:28:07Z</time>
      </trkpt>
      <trkpt lat="43.86795" lon="6.95904">
        <ele>448</ele>
        <time>2013-06-08T10:28:13Z</time>
      </trkpt>
      <trkpt lat="43.86797" lon="6.95923">
        <ele>448.7</ele>
        <time>2013-06-08T10:28:19Z</time>
      </trkpt>
      <trkpt lat="43.86803" lon="6.9594">
        <ele>449.3</ele>
        <time>2013-06-08T10:28:25Z</time>
      </trkpt>
      <trkpt lat="43.86814" lon="6.9595">
        <ele>450.3</ele>
        <time>2013-06-08T10:28:31Z</time>
      </trkpt>
      <trkpt lat="43.86829" lon="6.95956">
        <ele>451.7</ele>
        <time>2013-06-08T10:28:37Z</time>
      </trkpt>
      <trkpt lat="43.86841" lon="6.95959">
        <ele>453.2</ele>
        <time>2013-06-08T10:28:43Z</time>
      </trkpt>
      <trkpt lat="43.86854" lon="6.9596">
        <ele>454.5</ele>
        <time>2013-06-08T10:28:49Z</time>
      </trkpt>
      <trkpt lat="43.8687" lon="6.95967">
        <ele>455.3</ele>
        <time>2013-06-08T10:28:55Z</time>
      </trkpt>
      <trkpt lat="43.8688" lon="6.95977">
        <ele>456.1</ele>
        <time>2013-06-08T10:29:01Z</time>
      </trkpt>
      <trkpt lat="43.86889" lon="6.95993">
        <ele>456.3</ele>
        <time>2013-06-08T10:29:07Z</time>
      </trkpt>
      <trkpt lat="43.86897" lon="6.9601">
        <ele>456.7</ele>
        <time>2013-06-08T10:29:13Z</time>
      </trkpt>
      <trkpt lat="43.86904" lon="6.96026">
        <ele>457.3</ele>
        <time>2013-06-08T10:29:19Z</time>
      </trkpt>
      <trkpt lat="43.86909" lon="6.96044">
        <ele>457.9</ele>
        <time>2013-06-08T10:29:25Z</time>
      </trkpt>
      <trkpt lat="43.8691" lon="6.96062">
        <ele>458.4</ele>
        <time>2013-06-08T10:29:31Z</time>
      </trkpt>
      <trkpt lat="43.86907" lon="6.9608">
        <ele>459.2</ele>
        <time>2013-06-08T10:29:37Z</time>
      </trkpt>
      <trkpt lat="43.86907" lon="6.96098">
        <ele>459.8</ele>
        <time>2013-06-08T10:29:43Z</time>
      </trkpt>
      <trkpt lat="43.86906" lon="6.9612">
        <ele>460.8</ele>
        <time>2013-06-08T10:29:49Z</time>
      </trkpt>
      <trkpt lat="43.86904" lon="6.96157">
        <ele>465</ele>
        <time>2013-06-08T10:29:55Z</time>
      </trkpt>
      <trkpt lat="43.86903" lon="6.96173">
        <ele>465.7</ele>
        <time>2013-06-08T10:30:01Z</time>
      </trkpt>
      <trkpt lat="43.86903" lon="6.96191">
        <ele>466.4</ele>
        <time>2013-06-08T10:30:07Z</time>
      </trkpt>
      <trkpt lat="43.86904" lon="6.96212">
        <ele>467</ele>
        <time>2013-06-08T10:30:13Z</time>
      </trkpt>
      <trkpt lat="43.86908" lon="6.9623">
        <ele>467.6</ele>
        <time>2013-06-08T10:30:19Z</time>
      </trkpt>
      <trkpt lat="43.86914" lon="6.96251">
        <ele>468.3</ele>
        <time>2013-06-08T10:30:25Z</time>
      </trkpt>
      <trkpt lat="43.86914" lon="6.9627">
        <ele>468.8</ele>
        <time>2013-06-08T10:30:31Z</time>
      </trkpt>
      <trkpt lat="43.86905" lon="6.96287">
        <ele>469.6</ele>
        <time>2013-06-08T10:30:37Z</time>
      </trkpt>
      <trkpt lat="43.86897" lon="6.96301">
        <ele>470.7</ele>
        <time>2013-06-08T10:30:43Z</time>
      </trkpt>
      <trkpt lat="43.86888" lon="6.96318">
        <ele>471.5</ele>
        <time>2013-06-08T10:30:49Z</time>
      </trkpt>
      <trkpt lat="43.86882" lon="6.96338">
        <ele>472.3</ele>
        <time>2013-06-08T10:30:55Z</time>
      </trkpt>
      <trkpt lat="43.86876" lon="6.96356">
        <ele>473.2</ele>
        <time>2013-06-08T10:31:01Z</time>
      </trkpt>
      <trkpt lat="43.86869" lon="6.96373">
        <ele>474.2</ele>
        <time>2013-06-08T10:31:07Z</time>
      </trkpt>
      <trkpt lat="43.86861" lon="6.96389">
        <ele>475.1</ele>
        <time>2013-06-08T10:31:13Z</time>
      </trkpt>
      <trkpt lat="43.86854" lon="6.96406">
        <ele>476.2</ele>
        <time>2013-06-08T10:31:19Z</time>
      </trkpt>
      <trkpt lat="43.86853" lon="6.96428">
        <ele>477.1</ele>
        <time>2013-06-08T10:31:25Z</time>
      </trkpt>
      <trkpt lat="43.86859" lon="6.96448">
        <ele>478.1</ele>
        <time>2013-06-08T10:31:31Z</time>
      </trkpt>
      <trkpt lat="43.86869" lon="6.96476">
        <ele>480.5</ele>
        <time>2013-06-08T10:31:37Z</time>
      </trkpt>
      <trkpt lat="43.86875" lon="6.96503">
        <ele>480.8</ele>
        <time>2013-06-08T10:31:43Z</time>
      </trkpt>
      <trkpt lat="43.86877" lon="6.96538">
        <ele>482.3</ele>
        <time>2013-06-08T10:31:49Z</time>
      </trkpt>
      <trkpt lat="43.86897" lon="6.96566">
        <ele>487.1</ele>
        <time>2013-06-08T10:31:55Z</time>
      </trkpt>
      <trkpt lat="43.86916" lon="6.96617">
        <ele>490.9</ele>
        <time>2013-06-08T10:32:01Z</time>
      </trkpt>
      <trkpt lat="43.86934" lon="6.96669">
        <ele>488.1</ele>
        <time>2013-06-08T10:32:07Z</time>
      </trkpt>
      <trkpt lat="43.86967" lon="6.96714">
        <ele>488.5</ele>
        <time>2013-06-08T10:32:13Z</time>
      </trkpt>
      <trkpt lat="43.86994" lon="6.96752">
        <ele>493.4</ele>
        <time>2013-06-08T10:32:19Z</time>
      </trkpt>
      <trkpt lat="43.87016" lon="6.9678">
        <ele>495</ele>
        <time>2013-06-08T10:32:25Z</time>
      </trkpt>
      <trkpt lat="43.87025" lon="6.96808">
        <ele>495.1</ele>
        <time>2013-06-08T10:32:31Z</time>
      </trkpt>
      <trkpt lat="43.87036" lon="6.96834">
        <ele>495.4</ele>
        <time>2013-06-08T10:32:37Z</time>
      </trkpt>
      <trkpt lat="43.87052" lon="6.96846">
        <ele>495.5</ele>
        <time>2013-06-08T10:32:43Z</time>
      </trkpt>
      <trkpt lat="43.87071" lon="6.96846">
        <ele>495.4</ele>
        <time>2013-06-08T10:32:49Z</time>
      </trkpt>
      <trkpt lat="43.87089" lon="6.96855">
        <ele>494.8</ele>
        <time>2013-06-08T10:32:55Z</time>
      </trkpt>
      <trkpt lat="43.87098" lon="6.96882">
        <ele>494.5</ele>
        <time>2013-06-08T10:33:01Z</time>
      </trkpt>
      <trkpt lat="43.87098" lon="6.9691">
        <ele>494.4</ele>
        <time>2013-06-08T10:33:07Z</time>
      </trkpt>
      <trkpt lat="43.87095" lon="6.96939">
        <ele>494.6</ele>
        <time>2013-06-08T10:33:13Z</time>
      </trkpt>
      <trkpt lat="43.87103" lon="6.96969">
        <ele>495.3</ele>
        <time>2013-06-08T10:33:19Z</time>
      </trkpt>
      <trkpt lat="43.87115" lon="6.96993">
        <ele>496.2</ele>
        <time>2013-06-08T10:33:25Z</time>
      </trkpt>
      <trkpt lat="43.87128" lon="6.97015">
        <ele>496.7</ele>
        <time>2013-06-08T10:33:31Z</time>
      </trkpt>
      <trkpt lat="43.8714" lon="6.97038">
        <ele>497.6</ele>
        <time>2013-06-08T10:33:37Z</time>
      </trkpt>
      <trkpt lat="43.87149" lon="6.9706">
        <ele>498.8</ele>
        <time>2013-06-08T10:33:43Z</time>
      </trkpt>
      <trkpt lat="43.87161" lon="6.97081">
        <ele>499.9</ele>
        <time>2013-06-08T10:33:49Z</time>
      </trkpt>
      <trkpt lat="43.87174" lon="6.97103">
        <ele>501.2</ele>
        <time>2013-06-08T10:33:55Z</time>
      </trkpt>
      <trkpt lat="43.87187" lon="6.97123">
        <ele>502.3</ele>
        <time>2013-06-08T10:34:01Z</time>
      </trkpt>
      <trkpt lat="43.87195" lon="6.97153">
        <ele>503.3</ele>
        <time>2013-06-08T10:34:07Z</time>
      </trkpt>
      <trkpt lat="43.87198" lon="6.97185">
        <ele>503.9</ele>
        <time>2013-06-08T10:34:13Z</time>
      </trkpt>
      <trkpt lat="43.87206" lon="6.97215">
        <ele>509.4</ele>
        <time>2013-06-08T10:34:19Z</time>
      </trkpt>
      <trkpt lat="43.87227" lon="6.97232">
        <ele>513.7</ele>
        <time>2013-06-08T10:34:25Z</time>
      </trkpt>
      <trkpt lat="43.87252" lon="6.97232">
        <ele>512.2</ele>
        <time>2013-06-08T10:34:31Z</time>
      </trkpt>
      <trkpt lat="43.87281" lon="6.97242">
        <ele>516.6</ele>
        <time>2013-06-08T10:34:37Z</time>
      </trkpt>
      <trkpt lat="43.87306" lon="6.9726">
        <ele>517.9</ele>
        <time>2013-06-08T10:34:43Z</time>
      </trkpt>
      <trkpt lat="43.87329" lon="6.97287">
        <ele>518.3</ele>
        <time>2013-06-08T10:34:49Z</time>
      </trkpt>
      <trkpt lat="43.87348" lon="6.97316">
        <ele>517.3</ele>
        <time>2013-06-08T10:34:55Z</time>
      </trkpt>
      <trkpt lat="43.87375" lon="6.97333">
        <ele>517.3</ele>
        <time>2013-06-08T10:35:01Z</time>
      </trkpt>
      <trkpt lat="43.87405" lon="6.97353">
        <ele>518.3</ele>
        <time>2013-06-08T10:35:07Z</time>
      </trkpt>
      <trkpt lat="43.87431" lon="6.97369">
        <ele>519.6</ele>
        <time>2013-06-08T10:35:13Z</time>
      </trkpt>
      <trkpt lat="43.87449" lon="6.97395">
        <ele>518.7</ele>
        <time>2013-06-08T10:35:19Z</time>
      </trkpt>
      <trkpt lat="43.87459" lon="6.97426">
        <ele>519.9</ele>
        <time>2013-06-08T10:35:25Z</time>
      </trkpt>
      <trkpt lat="43.87471" lon="6.97459">
        <ele>523.1</ele>
        <time>2013-06-08T10:35:31Z</time>
      </trkpt>
      <trkpt lat="43.87478" lon="6.9749">
        <ele>523.9</ele>
        <time>2013-06-08T10:35:37Z</time>
      </trkpt>
      <trkpt lat="43.8748" lon="6.97524">
        <ele>524.1</ele>
        <time>2013-06-08T10:35:43Z</time>
      </trkpt>
      <trkpt lat="43.87486" lon="6.97558">
        <ele>523.6</ele>
        <time>2013-06-08T10:35:49Z</time>
      </trkpt>
      <trkpt lat="43.87497" lon="6.97593">
        <ele>526.1</ele>
        <time>2013-06-08T10:35:55Z</time>
      </trkpt>
      <trkpt lat="43.87508" lon="6.97628">
        <ele>530.2</ele>
        <time>2013-06-08T10:36:01Z</time>
      </trkpt>
      <trkpt lat="43.87525" lon="6.97655">
        <ele>532</ele>
        <time>2013-06-08T10:36:07Z</time>
      </trkpt>
      <trkpt lat="43.87548" lon="6.97663">
        <ele>531.8</ele>
        <time>2013-06-08T10:36:13Z</time>
      </trkpt>
      <trkpt lat="43.87576" lon="6.97659">
        <ele>534.4</ele>
        <time>2013-06-08T10:36:19Z</time>
      </trkpt>
      <trkpt lat="43.87609" lon="6.97655">
        <ele>533.9</ele>
        <time>2013-06-08T10:36:25Z</time>
      </trkpt>
      <trkpt lat="43.87625" lon="6.97653">
        <ele>533.8</ele>
        <time>2013-06-08T10:36:31Z</time>
      </trkpt>
      <trkpt lat="43.87628" lon="6.97672">
        <ele>534.1</ele>
        <time>2013-06-08T10:36:37Z</time>
      </trkpt>
      <trkpt lat="43.87631" lon="6.97666">
        <ele>534</ele>
        <time>2013-06-08T10:36:43Z</time>
      </trkpt>
      <trkpt lat="43.87627" lon="6.97654">
        <ele>533.9</ele>
        <time>2013-06-08T10:36:49Z</time>
      </trkpt>
      <trkpt lat="43.87616" lon="6.97655">
        <ele>534.2</ele>
        <time>2013-06-08T10:36:55Z</time>
      </trkpt>
      <trkpt lat="43.87612" lon="6.97659">
        <ele>534.2</ele>
        <time>2013-06-08T10:37:01Z</time>
      </trkpt>
      <trkpt lat="43.87612" lon="6.97659">
        <ele>534.2</ele>
        <time>2013-06-08T10:37:07Z</time>
      </trkpt>
      <trkpt lat="43.87612" lon="6.97659">
        <ele>534.2</ele>
        <time>2013-06-08T10:37:13Z</time>
      </trkpt>
      <trkpt lat="43.87612" lon="6.9766">
        <ele>534.1</ele>
        <time>2013-06-08T10:37:19Z</time>
      </trkpt>
      <trkpt lat="43.87613" lon="6.97658">
        <ele>534</ele>
        <time>2013-06-08T10:37:25Z</time>
      </trkpt>
      <trkpt lat="43.87611" lon="6.97658">
        <ele>534</ele>
        <time>2013-06-08T10:37:31Z</time>
      </trkpt>
      <trkpt lat="43.87611" lon="6.97659">
        <ele>533.9</ele>
        <time>2013-06-08T10:37:37Z</time>
      </trkpt>
      <trkpt lat="43.87611" lon="6.97659">
        <ele>533.8</ele>
        <time>2013-06-08T10:37:43Z</time>
      </trkpt>
      <trkpt lat="43.8761" lon="6.97662">
        <ele>533.7</ele>
        <time>2013-06-08T10:37:49Z</time>
      </trkpt>
      <trkpt lat="43.8761" lon="6.97662">
        <ele>533.7</ele>
        <time>2013-06-08T10:37:55Z</time>
      </trkpt>
      <trkpt lat="43.87611" lon="6.97663">
        <ele>533.7</ele>
        <time>2013-06-08T10:38:01Z</time>
      </trkpt>
      <trkpt lat="43.87613" lon="6.97664">
        <ele>533.7</ele>
        <time>2013-06-08T10:38:07Z</time>
      </trkpt>
      <trkpt lat="43.87614" lon="6.97664">
        <ele>533.7</ele>
        <time>2013-06-08T10:38:13Z</time>
      </trkpt>
      <trkpt lat="43.87613" lon="6.97661">
        <ele>533.7</ele>
        <time>2013-06-08T10:38:19Z</time>
      </trkpt>
      <trkpt lat="43.87612" lon="6.9766">
        <ele>533.6</ele>
        <time>2013-06-08T10:38:25Z</time>
      </trkpt>
      <trkpt lat="43.87611" lon="6.9766">
        <ele>533.7</ele>
        <time>2013-06-08T10:38:31Z</time>
      </trkpt>
      <trkpt lat="43.87611" lon="6.97664">
        <ele>533.8</ele>
        <time>2013-06-08T10:38:37Z</time>
      </trkpt>
      <trkpt lat="43.87611" lon="6.97665">
        <ele>533.8</ele>
        <time>2013-06-08T10:38:43Z</time>
      </trkpt>
      <trkpt lat="43.87611" lon="6.97663">
        <ele>533.8</ele>
        <time>2013-06-08T10:38:49Z</time>
      </trkpt>
      <trkpt lat="43.87613" lon="6.97663">
        <ele>533.7</ele>
        <time>2013-06-08T10:38:55Z</time>
      </trkpt>
      <trkpt lat="43.87612" lon="6.97663">
        <ele>533.7</ele>
        <time>2013-06-08T10:39:01Z</time>
      </trkpt>
      <trkpt lat="43.8761" lon="6.97664">
        <ele>533.7</ele>
        <time>2013-06-08T10:39:07Z</time>
      </trkpt>
      <trkpt lat="43.87608" lon="6.97665">
        <ele>533.7</ele>
        <time>2013-06-08T10:39:13Z</time>
      </trkpt>
      <trkpt lat="43.87608" lon="6.97666">
        <ele>533.7</ele>
        <time>2013-06-08T10:39:19Z</time>
      </trkpt>
      <trkpt lat="43.87609" lon="6.97665">
        <ele>533.7</ele>
        <time>2013-06-08T10:39:25Z</time>
      </trkpt>
      <trkpt lat="43.87609" lon="6.97662">
        <ele>533.5</ele>
        <time>2013-06-08T10:39:31Z</time>
      </trkpt>
      <trkpt lat="43.8761" lon="6.97659">
        <ele>533.5</ele>
        <time>2013-06-08T10:39:37Z</time>
      </trkpt>
      <trkpt lat="43.87611" lon="6.97658">
        <ele>533.2</ele>
        <time>2013-06-08T10:39:43Z</time>
      </trkpt>
      <trkpt lat="43.8761" lon="6.97661">
        <ele>533</ele>
        <time>2013-06-08T10:39:49Z</time>
      </trkpt>
      <trkpt lat="43.8761" lon="6.97662">
        <ele>532.8</ele>
        <time>2013-06-08T10:39:55Z</time>
      </trkpt>
      <trkpt lat="43.87611" lon="6.97662">
        <ele>532.2</ele>
        <time>2013-06-08T10:40:01Z</time>
      </trkpt>
      <trkpt lat="43.87611" lon="6.97661">
        <ele>532.1</ele>
        <time>2013-06-08T10:40:07Z</time>
      </trkpt>
      <trkpt lat="43.87612" lon="6.97661">
        <ele>532.1</ele>
        <time>2013-06-08T10:40:13Z</time>
      </trkpt>
      <trkpt lat="43.87611" lon="6.97662">
        <ele>532.1</ele>
        <time>2013-06-08T10:40:19Z</time>
      </trkpt>
      <trkpt lat="43.87612" lon="6.97662">
        <ele>532</ele>
        <time>2013-06-08T10:40:25Z</time>
      </trkpt>
      <trkpt lat="43.87613" lon="6.97666">
        <ele>531.7</ele>
        <time>2013-06-08T10:40:31Z</time>
      </trkpt>
      <trkpt lat="43.8762" lon="6.97686">
        <ele>531.5</ele>
        <time>2013-06-08T10:40:37Z</time>
      </trkpt>
      <trkpt lat="43.87625" lon="6.97721">
        <ele>530.9</ele>
        <time>2013-06-08T10:40:43Z</time>
      </trkpt>
      <trkpt lat="43.87648" lon="6.9776">
        <ele>528.6</ele>
        <time>2013-06-08T10:40:49Z</time>
      </trkpt>
      <trkpt lat="43.87691" lon="6.97793">
        <ele>523</ele>
        <time>2013-06-08T10:40:55Z</time>
      </trkpt>
      <trkpt lat="43.87698" lon="6.97871">
        <ele>519.6</ele>
        <time>2013-06-08T10:41:01Z</time>
      </trkpt>
      <trkpt lat="43.87737" lon="6.97936">
        <ele>518.8</ele>
        <time>2013-06-08T10:41:07Z</time>
      </trkpt>
      <trkpt lat="43.87773" lon="6.98012">
        <ele>517</ele>
        <time>2013-06-08T10:41:13Z</time>
      </trkpt>
      <trkpt lat="43.87779" lon="6.98111">
        <ele>510.3</ele>
        <time>2013-06-08T10:41:19Z</time>
      </trkpt>
      <trkpt lat="43.87764" lon="6.98207">
        <ele>505.6</ele>
        <time>2013-06-08T10:41:25Z</time>
      </trkpt>
      <trkpt lat="43.87763" lon="6.98309">
        <ele>501.3</ele>
        <time>2013-06-08T10:41:31Z</time>
      </trkpt>
      <trkpt lat="43.87767" lon="6.98412">
        <ele>494.6</ele>
        <time>2013-06-08T10:41:37Z</time>
      </trkpt>
      <trkpt lat="43.87765" lon="6.98511">
        <ele>489.9</ele>
        <time>2013-06-08T10:41:43Z</time>
      </trkpt>
      <trkpt lat="43.87746" lon="6.986">
        <ele>487.2</ele>
        <time>2013-06-08T10:41:49Z</time>
      </trkpt>
      <trkpt lat="43.87772" lon="6.98671">
        <ele>482.8</ele>
        <time>2013-06-08T10:41:55Z</time>
      </trkpt>
      <trkpt lat="43.87802" lon="6.98733">
        <ele>478.2</ele>
        <time>2013-06-08T10:42:01Z</time>
      </trkpt>
      <trkpt lat="43.87819" lon="6.98831">
        <ele>473.2</ele>
        <time>2013-06-08T10:42:07Z</time>
      </trkpt>
      <trkpt lat="43.87823" lon="6.98933">
        <ele>469.7</ele>
        <time>2013-06-08T10:42:13Z</time>
      </trkpt>
      <trkpt lat="43.87821" lon="6.99036">
        <ele>465.5</ele>
        <time>2013-06-08T10:42:19Z</time>
      </trkpt>
      <trkpt lat="43.87836" lon="6.99142">
        <ele>461.2</ele>
        <time>2013-06-08T10:42:25Z</time>
      </trkpt>
      <trkpt lat="43.87832" lon="6.99242">
        <ele>454.2</ele>
        <time>2013-06-08T10:42:31Z</time>
      </trkpt>
      <trkpt lat="43.87792" lon="6.99335">
        <ele>450.2</ele>
        <time>2013-06-08T10:42:37Z</time>
      </trkpt>
      <trkpt lat="43.87746" lon="6.99431">
        <ele>446.1</ele>
        <time>2013-06-08T10:42:43Z</time>
      </trkpt>
      <trkpt lat="43.87708" lon="6.99525">
        <ele>440.6</ele>
        <time>2013-06-08T10:42:49Z</time>
      </trkpt>
      <trkpt lat="43.87656" lon="6.99609">
        <ele>437.7</ele>
        <time>2013-06-08T10:42:55Z</time>
      </trkpt>
      <trkpt lat="43.87615" lon="6.99697">
        <ele>431.2</ele>
        <time>2013-06-08T10:43:01Z</time>
      </trkpt>
      <trkpt lat="43.87594" lon="6.998">
        <ele>423.8</ele>
        <time>2013-06-08T10:43:07Z</time>
      </trkpt>
      <trkpt lat="43.87605" lon="6.99891">
        <ele>419.6</ele>
        <time>2013-06-08T10:43:13Z</time>
      </trkpt>
      <trkpt lat="43.87624" lon="6.99997">
        <ele>414.6</ele>
        <time>2013-06-08T10:43:19Z</time>
      </trkpt>
      <trkpt lat="43.87605" lon="7.00102">
        <ele>409.4</ele>
        <time>2013-06-08T10:43:25Z</time>
      </trkpt>
      <trkpt lat="43.87574" lon="7.00182">
        <ele>405.5</ele>
        <time>2013-06-08T10:43:31Z</time>
      </trkpt>
      <trkpt lat="43.8756" lon="7.00254">
        <ele>402.5</ele>
        <time>2013-06-08T10:43:37Z</time>
      </trkpt>
      <trkpt lat="43.87574" lon="7.00342">
        <ele>398.4</ele>
        <time>2013-06-08T10:43:43Z</time>
      </trkpt>
      <trkpt lat="43.87594" lon="7.00436">
        <ele>394.5</ele>
        <time>2013-06-08T10:43:49Z</time>
      </trkpt>
      <trkpt lat="43.87586" lon="7.00472">
        <ele>392.1</ele>
        <time>2013-06-08T10:43:55Z</time>
      </trkpt>
      <trkpt lat="43.87589" lon="7.00478">
        <ele>391.5</ele>
        <time>2013-06-08T10:44:01Z</time>
      </trkpt>
      <trkpt lat="43.87586" lon="7.00453">
        <ele>387.7</ele>
        <time>2013-06-08T10:44:07Z</time>
      </trkpt>
      <trkpt lat="43.87569" lon="7.004">
        <ele>383.4</ele>
        <time>2013-06-08T10:44:13Z</time>
      </trkpt>
      <trkpt lat="43.87538" lon="7.00336">
        <ele>381.3</ele>
        <time>2013-06-08T10:44:19Z</time>
      </trkpt>
      <trkpt lat="43.87502" lon="7.0026">
        <ele>378.6</ele>
        <time>2013-06-08T10:44:25Z</time>
      </trkpt>
      <trkpt lat="43.8747" lon="7.0019">
        <ele>376.4</ele>
        <time>2013-06-08T10:44:31Z</time>
      </trkpt>
      <trkpt lat="43.87472" lon="7.00091">
        <ele>374.3</ele>
        <time>2013-06-08T10:44:37Z</time>
      </trkpt>
      <trkpt lat="43.87458" lon="7.0004">
        <ele>371.9</ele>
        <time>2013-06-08T10:44:43Z</time>
      </trkpt>
      <trkpt lat="43.87426" lon="7.00112">
        <ele>367.6</ele>
        <time>2013-06-08T10:44:49Z</time>
      </trkpt>
      <trkpt lat="43.87395" lon="7.00189">
        <ele>360.3</ele>
        <time>2013-06-08T10:44:55Z</time>
      </trkpt>
      <trkpt lat="43.87401" lon="7.00273">
        <ele>353.7</ele>
        <time>2013-06-08T10:45:01Z</time>
      </trkpt>
      <trkpt lat="43.87415" lon="7.00352">
        <ele>349.3</ele>
        <time>2013-06-08T10:45:07Z</time>
      </trkpt>
      <trkpt lat="43.87424" lon="7.00425">
        <ele>345.8</ele>
        <time>2013-06-08T10:45:13Z</time>
      </trkpt>
      <trkpt lat="43.87424" lon="7.0048">
        <ele>342.4</ele>
        <time>2013-06-08T10:45:19Z</time>
      </trkpt>
      <trkpt lat="43.87435" lon="7.00497">
        <ele>342.3</ele>
        <time>2013-06-08T10:45:25Z</time>
      </trkpt>
      <trkpt lat="43.87442" lon="7.00525">
        <ele>342</ele>
        <time>2013-06-08T10:45:31Z</time>
      </trkpt>
      <trkpt lat="43.87445" lon="7.00542">
        <ele>341.7</ele>
        <time>2013-06-08T10:45:37Z</time>
      </trkpt>
      <trkpt lat="43.87449" lon="7.00546">
        <ele>341.9</ele>
        <time>2013-06-08T10:45:43Z</time>
      </trkpt>
      <trkpt lat="43.87451" lon="7.00534">
        <ele>342.3</ele>
        <time>2013-06-08T10:45:49Z</time>
      </trkpt>
    </trkseg>
  </trk>
</gpx>